<?xml version="1.0" encoding="UTF-8" standalone="no" ?>
<gpx xmlns="http://www.topografix.com/GPX/1/1" xmlns:xsi="http://www.w3.org/2001/XMLSchema-instance" xsi:schemaLocation="http://www.topografix.com/GPX/1/1 http://www.topografix.com/GPX/1/1/gpx.xsd" version="1.1" creator="VisuGPX - https://www.visugpx.com">
  <metadata>
    <name>Pène Grane</name>
    <desc><![CDATA[Pène Grane depuis les granges de Lurgues]]></desc>
  </metadata>
  <trk>
    <name><![CDATA[2017-02-22 08-21]]></name>
    <trkseg>
      <trkpt lat="42.8514" lon="0.27328">
        <ele>1476.8</ele>
        <time>2017-02-22T07:21:43Z</time>
      </trkpt>
      <trkpt lat="42.8514" lon="0.27329">
        <ele>1445.6</ele>
        <time>2017-02-22T07:21:48Z</time>
      </trkpt>
      <trkpt lat="42.8514" lon="0.2733">
        <ele>1424</ele>
        <time>2017-02-22T07:21:53Z</time>
      </trkpt>
      <trkpt lat="42.8514" lon="0.2733">
        <ele>1409.2</ele>
        <time>2017-02-22T07:21:58Z</time>
      </trkpt>
      <trkpt lat="42.85141" lon="0.27331">
        <ele>1399.2</ele>
        <time>2017-02-22T07:22:03Z</time>
      </trkpt>
      <trkpt lat="42.85142" lon="0.27332">
        <ele>1396.2</ele>
        <time>2017-02-22T07:22:10Z</time>
      </trkpt>
      <trkpt lat="42.85142" lon="0.27332">
        <ele>1394</ele>
        <time>2017-02-22T07:22:15Z</time>
      </trkpt>
      <trkpt lat="42.85142" lon="0.27332">
        <ele>1392.6</ele>
        <time>2017-02-22T07:22:20Z</time>
      </trkpt>
      <trkpt lat="42.85142" lon="0.27332">
        <ele>1391.6</ele>
        <time>2017-02-22T07:22:25Z</time>
      </trkpt>
      <trkpt lat="42.85142" lon="0.27332">
        <ele>1391</ele>
        <time>2017-02-22T07:22:30Z</time>
      </trkpt>
      <trkpt lat="42.85142" lon="0.27332">
        <ele>1390.6</ele>
        <time>2017-02-22T07:22:35Z</time>
      </trkpt>
      <trkpt lat="42.85142" lon="0.27332">
        <ele>1390.2</ele>
        <time>2017-02-22T07:22:40Z</time>
      </trkpt>
      <trkpt lat="42.85142" lon="0.27332">
        <ele>1390</ele>
        <time>2017-02-22T07:22:45Z</time>
      </trkpt>
      <trkpt lat="42.85142" lon="0.27332">
        <ele>1389.8</ele>
        <time>2017-02-22T07:22:50Z</time>
      </trkpt>
      <trkpt lat="42.85142" lon="0.27332">
        <ele>1389.8</ele>
        <time>2017-02-22T07:22:55Z</time>
      </trkpt>
      <trkpt lat="42.85142" lon="0.27332">
        <ele>1389.6</ele>
        <time>2017-02-22T07:23:00Z</time>
      </trkpt>
      <trkpt lat="42.85141" lon="0.27333">
        <ele>1389.4</ele>
        <time>2017-02-22T07:23:05Z</time>
      </trkpt>
      <trkpt lat="42.85141" lon="0.27332">
        <ele>1389.4</ele>
        <time>2017-02-22T07:23:10Z</time>
      </trkpt>
      <trkpt lat="42.8514" lon="0.27332">
        <ele>1388.2</ele>
        <time>2017-02-22T07:23:15Z</time>
      </trkpt>
      <trkpt lat="42.8514" lon="0.27332">
        <ele>1387.4</ele>
        <time>2017-02-22T07:23:20Z</time>
      </trkpt>
      <trkpt lat="42.8514" lon="0.27332">
        <ele>1386.8</ele>
        <time>2017-02-22T07:23:25Z</time>
      </trkpt>
      <trkpt lat="42.8514" lon="0.27332">
        <ele>1386.4</ele>
        <time>2017-02-22T07:23:30Z</time>
      </trkpt>
      <trkpt lat="42.8514" lon="0.27332">
        <ele>1386</ele>
        <time>2017-02-22T07:23:35Z</time>
      </trkpt>
      <trkpt lat="42.8514" lon="0.27332">
        <ele>1385.8</ele>
        <time>2017-02-22T07:23:40Z</time>
      </trkpt>
      <trkpt lat="42.8514" lon="0.27332">
        <ele>1385.4</ele>
        <time>2017-02-22T07:23:45Z</time>
      </trkpt>
      <trkpt lat="42.8514" lon="0.27332">
        <ele>1385.2</ele>
        <time>2017-02-22T07:23:50Z</time>
      </trkpt>
      <trkpt lat="42.8514" lon="0.27332">
        <ele>1385</ele>
        <time>2017-02-22T07:23:55Z</time>
      </trkpt>
      <trkpt lat="42.8514" lon="0.27332">
        <ele>1384.8</ele>
        <time>2017-02-22T07:24:00Z</time>
      </trkpt>
      <trkpt lat="42.8514" lon="0.27331">
        <ele>1384.6</ele>
        <time>2017-02-22T07:24:05Z</time>
      </trkpt>
      <trkpt lat="42.8514" lon="0.27331">
        <ele>1384.4</ele>
        <time>2017-02-22T07:24:10Z</time>
      </trkpt>
      <trkpt lat="42.8514" lon="0.27331">
        <ele>1384.2</ele>
        <time>2017-02-22T07:24:15Z</time>
      </trkpt>
      <trkpt lat="42.8514" lon="0.27331">
        <ele>1384</ele>
        <time>2017-02-22T07:24:20Z</time>
      </trkpt>
      <trkpt lat="42.8514" lon="0.27331">
        <ele>1383.8</ele>
        <time>2017-02-22T07:24:25Z</time>
      </trkpt>
      <trkpt lat="42.8514" lon="0.27331">
        <ele>1383.6</ele>
        <time>2017-02-22T07:24:30Z</time>
      </trkpt>
      <trkpt lat="42.85138" lon="0.2733">
        <ele>1385.2</ele>
        <time>2017-02-22T07:24:35Z</time>
      </trkpt>
      <trkpt lat="42.85137" lon="0.27329">
        <ele>1382.8</ele>
        <time>2017-02-22T07:24:40Z</time>
      </trkpt>
      <trkpt lat="42.8514" lon="0.2733">
        <ele>1381.8</ele>
        <time>2017-02-22T07:24:45Z</time>
      </trkpt>
      <trkpt lat="42.8514" lon="0.27328">
        <ele>1380.8</ele>
        <time>2017-02-22T07:24:50Z</time>
      </trkpt>
      <trkpt lat="42.8514" lon="0.27328">
        <ele>1379.6</ele>
        <time>2017-02-22T07:24:55Z</time>
      </trkpt>
      <trkpt lat="42.8514" lon="0.27328">
        <ele>1378.4</ele>
        <time>2017-02-22T07:25:00Z</time>
      </trkpt>
      <trkpt lat="42.8514" lon="0.27328">
        <ele>1377.4</ele>
        <time>2017-02-22T07:25:05Z</time>
      </trkpt>
      <trkpt lat="42.8514" lon="0.27328">
        <ele>1376.8</ele>
        <time>2017-02-22T07:25:10Z</time>
      </trkpt>
      <trkpt lat="42.8514" lon="0.27328">
        <ele>1376.4</ele>
        <time>2017-02-22T07:25:15Z</time>
      </trkpt>
      <trkpt lat="42.8514" lon="0.27328">
        <ele>1376</ele>
        <time>2017-02-22T07:25:20Z</time>
      </trkpt>
      <trkpt lat="42.8514" lon="0.27328">
        <ele>1375.8</ele>
        <time>2017-02-22T07:25:25Z</time>
      </trkpt>
      <trkpt lat="42.85138" lon="0.27328">
        <ele>1376</ele>
        <time>2017-02-22T07:25:30Z</time>
      </trkpt>
      <trkpt lat="42.85139" lon="0.27327">
        <ele>1376.2</ele>
        <time>2017-02-22T07:25:35Z</time>
      </trkpt>
      <trkpt lat="42.85139" lon="0.27327">
        <ele>1376.6</ele>
        <time>2017-02-22T07:25:40Z</time>
      </trkpt>
      <trkpt lat="42.85139" lon="0.27327">
        <ele>1376.8</ele>
        <time>2017-02-22T07:25:46Z</time>
      </trkpt>
      <trkpt lat="42.85139" lon="0.27327">
        <ele>1377</ele>
        <time>2017-02-22T07:25:51Z</time>
      </trkpt>
      <trkpt lat="42.85139" lon="0.27327">
        <ele>1377.2</ele>
        <time>2017-02-22T07:25:56Z</time>
      </trkpt>
      <trkpt lat="42.85139" lon="0.27327">
        <ele>1377.2</ele>
        <time>2017-02-22T07:26:01Z</time>
      </trkpt>
      <trkpt lat="42.85139" lon="0.27327">
        <ele>1377.4</ele>
        <time>2017-02-22T07:26:06Z</time>
      </trkpt>
      <trkpt lat="42.85138" lon="0.27327">
        <ele>1377.6</ele>
        <time>2017-02-22T07:26:11Z</time>
      </trkpt>
      <trkpt lat="42.8514" lon="0.2733">
        <ele>1377.2</ele>
        <time>2017-02-22T07:26:16Z</time>
      </trkpt>
      <trkpt lat="42.85139" lon="0.2733">
        <ele>1377</ele>
        <time>2017-02-22T07:26:21Z</time>
      </trkpt>
      <trkpt lat="42.85136" lon="0.27329">
        <ele>1376.4</ele>
        <time>2017-02-22T07:26:26Z</time>
      </trkpt>
      <trkpt lat="42.85135" lon="0.27328">
        <ele>1375.8</ele>
        <time>2017-02-22T07:26:31Z</time>
      </trkpt>
      <trkpt lat="42.85135" lon="0.27328">
        <ele>1375</ele>
        <time>2017-02-22T07:26:36Z</time>
      </trkpt>
      <trkpt lat="42.85134" lon="0.27328">
        <ele>1374.6</ele>
        <time>2017-02-22T07:26:41Z</time>
      </trkpt>
      <trkpt lat="42.85134" lon="0.27327">
        <ele>1374</ele>
        <time>2017-02-22T07:26:46Z</time>
      </trkpt>
      <trkpt lat="42.85132" lon="0.27327">
        <ele>1374</ele>
        <time>2017-02-22T07:26:51Z</time>
      </trkpt>
      <trkpt lat="42.85132" lon="0.27325">
        <ele>1373.4</ele>
        <time>2017-02-22T07:26:56Z</time>
      </trkpt>
      <trkpt lat="42.85134" lon="0.27324">
        <ele>1374.2</ele>
        <time>2017-02-22T07:27:01Z</time>
      </trkpt>
      <trkpt lat="42.85138" lon="0.27322">
        <ele>1370.8</ele>
        <time>2017-02-22T07:27:06Z</time>
      </trkpt>
      <trkpt lat="42.85144" lon="0.2732">
        <ele>1371.6</ele>
        <time>2017-02-22T07:27:11Z</time>
      </trkpt>
      <trkpt lat="42.85147" lon="0.27317">
        <ele>1373.2</ele>
        <time>2017-02-22T07:27:16Z</time>
      </trkpt>
      <trkpt lat="42.85149" lon="0.27311">
        <ele>1370.8</ele>
        <time>2017-02-22T07:27:21Z</time>
      </trkpt>
      <trkpt lat="42.8515" lon="0.27304">
        <ele>1372.6</ele>
        <time>2017-02-22T07:27:26Z</time>
      </trkpt>
      <trkpt lat="42.85147" lon="0.273">
        <ele>1373.6</ele>
        <time>2017-02-22T07:27:31Z</time>
      </trkpt>
      <trkpt lat="42.85143" lon="0.27297">
        <ele>1374</ele>
        <time>2017-02-22T07:27:36Z</time>
      </trkpt>
      <trkpt lat="42.85138" lon="0.27294">
        <ele>1372.8</ele>
        <time>2017-02-22T07:27:41Z</time>
      </trkpt>
      <trkpt lat="42.85133" lon="0.2729">
        <ele>1376.6</ele>
        <time>2017-02-22T07:27:46Z</time>
      </trkpt>
      <trkpt lat="42.85131" lon="0.27283">
        <ele>1376.4</ele>
        <time>2017-02-22T07:27:51Z</time>
      </trkpt>
      <trkpt lat="42.85132" lon="0.2728">
        <ele>1375.2</ele>
        <time>2017-02-22T07:27:56Z</time>
      </trkpt>
      <trkpt lat="42.85132" lon="0.27281">
        <ele>1375.8</ele>
        <time>2017-02-22T07:28:01Z</time>
      </trkpt>
      <trkpt lat="42.85133" lon="0.27282">
        <ele>1375</ele>
        <time>2017-02-22T07:28:06Z</time>
      </trkpt>
      <trkpt lat="42.85133" lon="0.27282">
        <ele>1374.6</ele>
        <time>2017-02-22T07:28:11Z</time>
      </trkpt>
      <trkpt lat="42.85134" lon="0.27282">
        <ele>1374.4</ele>
        <time>2017-02-22T07:28:16Z</time>
      </trkpt>
      <trkpt lat="42.85134" lon="0.27281">
        <ele>1374</ele>
        <time>2017-02-22T07:28:21Z</time>
      </trkpt>
      <trkpt lat="42.85134" lon="0.27281">
        <ele>1373.8</ele>
        <time>2017-02-22T07:28:26Z</time>
      </trkpt>
      <trkpt lat="42.85135" lon="0.27281">
        <ele>1373.6</ele>
        <time>2017-02-22T07:28:31Z</time>
      </trkpt>
      <trkpt lat="42.85135" lon="0.27281">
        <ele>1373.6</ele>
        <time>2017-02-22T07:28:36Z</time>
      </trkpt>
      <trkpt lat="42.85135" lon="0.27281">
        <ele>1373.4</ele>
        <time>2017-02-22T07:28:41Z</time>
      </trkpt>
      <trkpt lat="42.85135" lon="0.27281">
        <ele>1373.4</ele>
        <time>2017-02-22T07:28:46Z</time>
      </trkpt>
      <trkpt lat="42.85135" lon="0.27281">
        <ele>1373.4</ele>
        <time>2017-02-22T07:28:51Z</time>
      </trkpt>
      <trkpt lat="42.85135" lon="0.27281">
        <ele>1373.4</ele>
        <time>2017-02-22T07:28:56Z</time>
      </trkpt>
      <trkpt lat="42.85135" lon="0.27281">
        <ele>1373.4</ele>
        <time>2017-02-22T07:29:01Z</time>
      </trkpt>
      <trkpt lat="42.85135" lon="0.27281">
        <ele>1373.4</ele>
        <time>2017-02-22T07:29:06Z</time>
      </trkpt>
      <trkpt lat="42.85135" lon="0.27281">
        <ele>1373.4</ele>
        <time>2017-02-22T07:29:11Z</time>
      </trkpt>
      <trkpt lat="42.85135" lon="0.27281">
        <ele>1373.4</ele>
        <time>2017-02-22T07:29:16Z</time>
      </trkpt>
      <trkpt lat="42.85134" lon="0.27281">
        <ele>1373.4</ele>
        <time>2017-02-22T07:29:21Z</time>
      </trkpt>
      <trkpt lat="42.85135" lon="0.27281">
        <ele>1373.4</ele>
        <time>2017-02-22T07:29:26Z</time>
      </trkpt>
      <trkpt lat="42.85135" lon="0.27281">
        <ele>1373.4</ele>
        <time>2017-02-22T07:29:31Z</time>
      </trkpt>
      <trkpt lat="42.85136" lon="0.27281">
        <ele>1375.2</ele>
        <time>2017-02-22T07:29:36Z</time>
      </trkpt>
      <trkpt lat="42.85136" lon="0.27281">
        <ele>1374.8</ele>
        <time>2017-02-22T07:29:41Z</time>
      </trkpt>
      <trkpt lat="42.85136" lon="0.27281">
        <ele>1374.4</ele>
        <time>2017-02-22T07:29:46Z</time>
      </trkpt>
      <trkpt lat="42.85138" lon="0.27277">
        <ele>1379.6</ele>
        <time>2017-02-22T07:29:51Z</time>
      </trkpt>
      <trkpt lat="42.8514" lon="0.27273">
        <ele>1376.4</ele>
        <time>2017-02-22T07:29:56Z</time>
      </trkpt>
      <trkpt lat="42.85141" lon="0.27269">
        <ele>1375.8</ele>
        <time>2017-02-22T07:30:01Z</time>
      </trkpt>
      <trkpt lat="42.85143" lon="0.27266">
        <ele>1376</ele>
        <time>2017-02-22T07:30:06Z</time>
      </trkpt>
      <trkpt lat="42.85145" lon="0.27262">
        <ele>1375.6</ele>
        <time>2017-02-22T07:30:11Z</time>
      </trkpt>
      <trkpt lat="42.85147" lon="0.27258">
        <ele>1378.2</ele>
        <time>2017-02-22T07:30:16Z</time>
      </trkpt>
      <trkpt lat="42.85149" lon="0.27255">
        <ele>1378.2</ele>
        <time>2017-02-22T07:30:21Z</time>
      </trkpt>
      <trkpt lat="42.85151" lon="0.27252">
        <ele>1376.8</ele>
        <time>2017-02-22T07:30:26Z</time>
      </trkpt>
      <trkpt lat="42.85154" lon="0.27249">
        <ele>1381.2</ele>
        <time>2017-02-22T07:30:31Z</time>
      </trkpt>
      <trkpt lat="42.85157" lon="0.27245">
        <ele>1381</ele>
        <time>2017-02-22T07:30:36Z</time>
      </trkpt>
      <trkpt lat="42.85159" lon="0.27241">
        <ele>1381.8</ele>
        <time>2017-02-22T07:30:41Z</time>
      </trkpt>
      <trkpt lat="42.85162" lon="0.27238">
        <ele>1381.4</ele>
        <time>2017-02-22T07:30:46Z</time>
      </trkpt>
      <trkpt lat="42.85164" lon="0.27234">
        <ele>1381.8</ele>
        <time>2017-02-22T07:30:51Z</time>
      </trkpt>
      <trkpt lat="42.85167" lon="0.27231">
        <ele>1382.4</ele>
        <time>2017-02-22T07:30:56Z</time>
      </trkpt>
      <trkpt lat="42.8517" lon="0.27228">
        <ele>1379.8</ele>
        <time>2017-02-22T07:31:01Z</time>
      </trkpt>
      <trkpt lat="42.85172" lon="0.27225">
        <ele>1383</ele>
        <time>2017-02-22T07:31:06Z</time>
      </trkpt>
      <trkpt lat="42.85175" lon="0.27222">
        <ele>1382.6</ele>
        <time>2017-02-22T07:31:11Z</time>
      </trkpt>
      <trkpt lat="42.85177" lon="0.27218">
        <ele>1384.2</ele>
        <time>2017-02-22T07:31:16Z</time>
      </trkpt>
      <trkpt lat="42.85178" lon="0.27213">
        <ele>1384.8</ele>
        <time>2017-02-22T07:31:21Z</time>
      </trkpt>
      <trkpt lat="42.8518" lon="0.27209">
        <ele>1384.8</ele>
        <time>2017-02-22T07:31:26Z</time>
      </trkpt>
      <trkpt lat="42.85182" lon="0.27205">
        <ele>1387</ele>
        <time>2017-02-22T07:31:31Z</time>
      </trkpt>
      <trkpt lat="42.85183" lon="0.27201">
        <ele>1382</ele>
        <time>2017-02-22T07:31:36Z</time>
      </trkpt>
      <trkpt lat="42.85186" lon="0.27197">
        <ele>1383.6</ele>
        <time>2017-02-22T07:31:41Z</time>
      </trkpt>
      <trkpt lat="42.85189" lon="0.27194">
        <ele>1386.4</ele>
        <time>2017-02-22T07:31:46Z</time>
      </trkpt>
      <trkpt lat="42.85192" lon="0.27191">
        <ele>1386.4</ele>
        <time>2017-02-22T07:31:51Z</time>
      </trkpt>
      <trkpt lat="42.85194" lon="0.27187">
        <ele>1385</ele>
        <time>2017-02-22T07:31:56Z</time>
      </trkpt>
      <trkpt lat="42.85196" lon="0.27183">
        <ele>1388.6</ele>
        <time>2017-02-22T07:32:01Z</time>
      </trkpt>
      <trkpt lat="42.85198" lon="0.27178">
        <ele>1386.2</ele>
        <time>2017-02-22T07:32:07Z</time>
      </trkpt>
      <trkpt lat="42.85201" lon="0.27174">
        <ele>1390.2</ele>
        <time>2017-02-22T07:32:12Z</time>
      </trkpt>
      <trkpt lat="42.85203" lon="0.27171">
        <ele>1390.2</ele>
        <time>2017-02-22T07:32:17Z</time>
      </trkpt>
      <trkpt lat="42.85205" lon="0.27167">
        <ele>1389</ele>
        <time>2017-02-22T07:32:22Z</time>
      </trkpt>
      <trkpt lat="42.85208" lon="0.27163">
        <ele>1390</ele>
        <time>2017-02-22T07:32:27Z</time>
      </trkpt>
      <trkpt lat="42.85211" lon="0.27159">
        <ele>1389.4</ele>
        <time>2017-02-22T07:32:33Z</time>
      </trkpt>
      <trkpt lat="42.85212" lon="0.27154">
        <ele>1390.4</ele>
        <time>2017-02-22T07:32:38Z</time>
      </trkpt>
      <trkpt lat="42.85213" lon="0.27149">
        <ele>1391</ele>
        <time>2017-02-22T07:32:43Z</time>
      </trkpt>
      <trkpt lat="42.85215" lon="0.27143">
        <ele>1391.6</ele>
        <time>2017-02-22T07:32:48Z</time>
      </trkpt>
      <trkpt lat="42.85217" lon="0.27139">
        <ele>1391.2</ele>
        <time>2017-02-22T07:32:53Z</time>
      </trkpt>
      <trkpt lat="42.85219" lon="0.27136">
        <ele>1392.6</ele>
        <time>2017-02-22T07:32:58Z</time>
      </trkpt>
      <trkpt lat="42.85221" lon="0.27132">
        <ele>1392.4</ele>
        <time>2017-02-22T07:33:03Z</time>
      </trkpt>
      <trkpt lat="42.85222" lon="0.27128">
        <ele>1395.6</ele>
        <time>2017-02-22T07:33:08Z</time>
      </trkpt>
      <trkpt lat="42.85223" lon="0.27124">
        <ele>1392.4</ele>
        <time>2017-02-22T07:33:13Z</time>
      </trkpt>
      <trkpt lat="42.85225" lon="0.2712">
        <ele>1394.4</ele>
        <time>2017-02-22T07:33:18Z</time>
      </trkpt>
      <trkpt lat="42.85228" lon="0.27118">
        <ele>1394.8</ele>
        <time>2017-02-22T07:33:23Z</time>
      </trkpt>
      <trkpt lat="42.8523" lon="0.27117">
        <ele>1397</ele>
        <time>2017-02-22T07:33:28Z</time>
      </trkpt>
      <trkpt lat="42.85233" lon="0.27114">
        <ele>1396</ele>
        <time>2017-02-22T07:33:33Z</time>
      </trkpt>
      <trkpt lat="42.85235" lon="0.27111">
        <ele>1398</ele>
        <time>2017-02-22T07:33:38Z</time>
      </trkpt>
      <trkpt lat="42.85237" lon="0.27108">
        <ele>1397.4</ele>
        <time>2017-02-22T07:33:43Z</time>
      </trkpt>
      <trkpt lat="42.85238" lon="0.27104">
        <ele>1396.4</ele>
        <time>2017-02-22T07:33:48Z</time>
      </trkpt>
      <trkpt lat="42.85239" lon="0.271">
        <ele>1396.6</ele>
        <time>2017-02-22T07:33:53Z</time>
      </trkpt>
      <trkpt lat="42.8524" lon="0.27096">
        <ele>1396.6</ele>
        <time>2017-02-22T07:33:58Z</time>
      </trkpt>
      <trkpt lat="42.85242" lon="0.27093">
        <ele>1394.8</ele>
        <time>2017-02-22T07:34:03Z</time>
      </trkpt>
      <trkpt lat="42.85244" lon="0.27089">
        <ele>1397.6</ele>
        <time>2017-02-22T07:34:08Z</time>
      </trkpt>
      <trkpt lat="42.85247" lon="0.27087">
        <ele>1398.4</ele>
        <time>2017-02-22T07:34:13Z</time>
      </trkpt>
      <trkpt lat="42.8525" lon="0.27085">
        <ele>1400.2</ele>
        <time>2017-02-22T07:34:18Z</time>
      </trkpt>
      <trkpt lat="42.85254" lon="0.27082">
        <ele>1398</ele>
        <time>2017-02-22T07:34:23Z</time>
      </trkpt>
      <trkpt lat="42.85258" lon="0.27081">
        <ele>1401</ele>
        <time>2017-02-22T07:34:28Z</time>
      </trkpt>
      <trkpt lat="42.8526" lon="0.2708">
        <ele>1399.4</ele>
        <time>2017-02-22T07:34:33Z</time>
      </trkpt>
      <trkpt lat="42.85263" lon="0.27078">
        <ele>1404.6</ele>
        <time>2017-02-22T07:34:38Z</time>
      </trkpt>
      <trkpt lat="42.85266" lon="0.27078">
        <ele>1404.6</ele>
        <time>2017-02-22T07:34:43Z</time>
      </trkpt>
      <trkpt lat="42.85269" lon="0.2708">
        <ele>1404.4</ele>
        <time>2017-02-22T07:34:48Z</time>
      </trkpt>
      <trkpt lat="42.85271" lon="0.27083">
        <ele>1403.8</ele>
        <time>2017-02-22T07:34:53Z</time>
      </trkpt>
      <trkpt lat="42.85274" lon="0.27085">
        <ele>1404.6</ele>
        <time>2017-02-22T07:34:58Z</time>
      </trkpt>
      <trkpt lat="42.85276" lon="0.27088">
        <ele>1405.4</ele>
        <time>2017-02-22T07:35:03Z</time>
      </trkpt>
      <trkpt lat="42.85278" lon="0.2709">
        <ele>1406.4</ele>
        <time>2017-02-22T07:35:08Z</time>
      </trkpt>
      <trkpt lat="42.85282" lon="0.27091">
        <ele>1409.2</ele>
        <time>2017-02-22T07:35:13Z</time>
      </trkpt>
      <trkpt lat="42.85286" lon="0.27094">
        <ele>1409.8</ele>
        <time>2017-02-22T07:35:18Z</time>
      </trkpt>
      <trkpt lat="42.85288" lon="0.27096">
        <ele>1409.8</ele>
        <time>2017-02-22T07:35:23Z</time>
      </trkpt>
      <trkpt lat="42.85291" lon="0.27098">
        <ele>1410.6</ele>
        <time>2017-02-22T07:35:28Z</time>
      </trkpt>
      <trkpt lat="42.85294" lon="0.271">
        <ele>1408.8</ele>
        <time>2017-02-22T07:35:33Z</time>
      </trkpt>
      <trkpt lat="42.85297" lon="0.27103">
        <ele>1413.8</ele>
        <time>2017-02-22T07:35:38Z</time>
      </trkpt>
      <trkpt lat="42.85298" lon="0.27108">
        <ele>1413.4</ele>
        <time>2017-02-22T07:35:43Z</time>
      </trkpt>
      <trkpt lat="42.853" lon="0.27111">
        <ele>1414.6</ele>
        <time>2017-02-22T07:35:48Z</time>
      </trkpt>
      <trkpt lat="42.85301" lon="0.27115">
        <ele>1413.8</ele>
        <time>2017-02-22T07:35:53Z</time>
      </trkpt>
      <trkpt lat="42.85303" lon="0.27117">
        <ele>1412.8</ele>
        <time>2017-02-22T07:35:58Z</time>
      </trkpt>
      <trkpt lat="42.85304" lon="0.27118">
        <ele>1414.8</ele>
        <time>2017-02-22T07:36:03Z</time>
      </trkpt>
      <trkpt lat="42.85303" lon="0.27118">
        <ele>1416</ele>
        <time>2017-02-22T07:36:08Z</time>
      </trkpt>
      <trkpt lat="42.85303" lon="0.27119">
        <ele>1415.2</ele>
        <time>2017-02-22T07:36:13Z</time>
      </trkpt>
      <trkpt lat="42.85303" lon="0.27123">
        <ele>1412.4</ele>
        <time>2017-02-22T07:36:18Z</time>
      </trkpt>
      <trkpt lat="42.85306" lon="0.27129">
        <ele>1413.8</ele>
        <time>2017-02-22T07:36:23Z</time>
      </trkpt>
      <trkpt lat="42.85308" lon="0.27135">
        <ele>1411.6</ele>
        <time>2017-02-22T07:36:28Z</time>
      </trkpt>
      <trkpt lat="42.85311" lon="0.27141">
        <ele>1412.2</ele>
        <time>2017-02-22T07:36:33Z</time>
      </trkpt>
      <trkpt lat="42.85314" lon="0.27147">
        <ele>1414.8</ele>
        <time>2017-02-22T07:36:38Z</time>
      </trkpt>
      <trkpt lat="42.85317" lon="0.27156">
        <ele>1410.2</ele>
        <time>2017-02-22T07:36:43Z</time>
      </trkpt>
      <trkpt lat="42.85319" lon="0.27162">
        <ele>1412.4</ele>
        <time>2017-02-22T07:36:48Z</time>
      </trkpt>
      <trkpt lat="42.85322" lon="0.27167">
        <ele>1412.6</ele>
        <time>2017-02-22T07:36:53Z</time>
      </trkpt>
      <trkpt lat="42.85325" lon="0.27168">
        <ele>1412.6</ele>
        <time>2017-02-22T07:36:58Z</time>
      </trkpt>
      <trkpt lat="42.85328" lon="0.27167">
        <ele>1410</ele>
        <time>2017-02-22T07:37:03Z</time>
      </trkpt>
      <trkpt lat="42.85331" lon="0.27163">
        <ele>1411.4</ele>
        <time>2017-02-22T07:37:08Z</time>
      </trkpt>
      <trkpt lat="42.85333" lon="0.2716">
        <ele>1411.4</ele>
        <time>2017-02-22T07:37:13Z</time>
      </trkpt>
      <trkpt lat="42.85335" lon="0.27156">
        <ele>1411.2</ele>
        <time>2017-02-22T07:37:18Z</time>
      </trkpt>
      <trkpt lat="42.85338" lon="0.27152">
        <ele>1410</ele>
        <time>2017-02-22T07:37:23Z</time>
      </trkpt>
      <trkpt lat="42.8534" lon="0.27148">
        <ele>1412.2</ele>
        <time>2017-02-22T07:37:28Z</time>
      </trkpt>
      <trkpt lat="42.85342" lon="0.27144">
        <ele>1412.4</ele>
        <time>2017-02-22T07:37:33Z</time>
      </trkpt>
      <trkpt lat="42.85344" lon="0.2714">
        <ele>1410.2</ele>
        <time>2017-02-22T07:37:38Z</time>
      </trkpt>
      <trkpt lat="42.85346" lon="0.27136">
        <ele>1413.2</ele>
        <time>2017-02-22T07:37:43Z</time>
      </trkpt>
      <trkpt lat="42.85348" lon="0.27133">
        <ele>1411.8</ele>
        <time>2017-02-22T07:37:48Z</time>
      </trkpt>
      <trkpt lat="42.8535" lon="0.27129">
        <ele>1412.8</ele>
        <time>2017-02-22T07:37:53Z</time>
      </trkpt>
      <trkpt lat="42.85351" lon="0.27125">
        <ele>1414.4</ele>
        <time>2017-02-22T07:37:58Z</time>
      </trkpt>
      <trkpt lat="42.85351" lon="0.27121">
        <ele>1416.2</ele>
        <time>2017-02-22T07:38:03Z</time>
      </trkpt>
      <trkpt lat="42.85352" lon="0.27117">
        <ele>1416</ele>
        <time>2017-02-22T07:38:08Z</time>
      </trkpt>
      <trkpt lat="42.85353" lon="0.27113">
        <ele>1414</ele>
        <time>2017-02-22T07:38:13Z</time>
      </trkpt>
      <trkpt lat="42.85355" lon="0.27111">
        <ele>1416</ele>
        <time>2017-02-22T07:38:18Z</time>
      </trkpt>
      <trkpt lat="42.85356" lon="0.2711">
        <ele>1420</ele>
        <time>2017-02-22T07:38:23Z</time>
      </trkpt>
      <trkpt lat="42.85358" lon="0.27108">
        <ele>1420.8</ele>
        <time>2017-02-22T07:38:28Z</time>
      </trkpt>
      <trkpt lat="42.85361" lon="0.27105">
        <ele>1418.4</ele>
        <time>2017-02-22T07:38:33Z</time>
      </trkpt>
      <trkpt lat="42.85363" lon="0.27103">
        <ele>1419.4</ele>
        <time>2017-02-22T07:38:38Z</time>
      </trkpt>
      <trkpt lat="42.85365" lon="0.27101">
        <ele>1419.4</ele>
        <time>2017-02-22T07:38:43Z</time>
      </trkpt>
      <trkpt lat="42.85368" lon="0.27098">
        <ele>1421</ele>
        <time>2017-02-22T07:38:48Z</time>
      </trkpt>
      <trkpt lat="42.8537" lon="0.27096">
        <ele>1421.6</ele>
        <time>2017-02-22T07:38:53Z</time>
      </trkpt>
      <trkpt lat="42.85373" lon="0.27094">
        <ele>1423.2</ele>
        <time>2017-02-22T07:38:58Z</time>
      </trkpt>
      <trkpt lat="42.85375" lon="0.27091">
        <ele>1421.6</ele>
        <time>2017-02-22T07:39:03Z</time>
      </trkpt>
      <trkpt lat="42.85378" lon="0.27089">
        <ele>1422.6</ele>
        <time>2017-02-22T07:39:08Z</time>
      </trkpt>
      <trkpt lat="42.8538" lon="0.27087">
        <ele>1423.4</ele>
        <time>2017-02-22T07:39:13Z</time>
      </trkpt>
      <trkpt lat="42.85382" lon="0.27085">
        <ele>1423.6</ele>
        <time>2017-02-22T07:39:18Z</time>
      </trkpt>
      <trkpt lat="42.85384" lon="0.27083">
        <ele>1424.4</ele>
        <time>2017-02-22T07:39:23Z</time>
      </trkpt>
      <trkpt lat="42.85387" lon="0.27081">
        <ele>1423.4</ele>
        <time>2017-02-22T07:39:28Z</time>
      </trkpt>
      <trkpt lat="42.8539" lon="0.27079">
        <ele>1425.2</ele>
        <time>2017-02-22T07:39:33Z</time>
      </trkpt>
      <trkpt lat="42.85392" lon="0.27075">
        <ele>1425.4</ele>
        <time>2017-02-22T07:39:38Z</time>
      </trkpt>
      <trkpt lat="42.85394" lon="0.27072">
        <ele>1426.6</ele>
        <time>2017-02-22T07:39:43Z</time>
      </trkpt>
      <trkpt lat="42.85395" lon="0.27068">
        <ele>1428.6</ele>
        <time>2017-02-22T07:39:48Z</time>
      </trkpt>
      <trkpt lat="42.85397" lon="0.27065">
        <ele>1429.8</ele>
        <time>2017-02-22T07:39:53Z</time>
      </trkpt>
      <trkpt lat="42.854" lon="0.27063">
        <ele>1431</ele>
        <time>2017-02-22T07:39:58Z</time>
      </trkpt>
      <trkpt lat="42.85403" lon="0.27063">
        <ele>1427.8</ele>
        <time>2017-02-22T07:40:03Z</time>
      </trkpt>
      <trkpt lat="42.85406" lon="0.27063">
        <ele>1429.2</ele>
        <time>2017-02-22T07:40:08Z</time>
      </trkpt>
      <trkpt lat="42.85409" lon="0.27062">
        <ele>1431.8</ele>
        <time>2017-02-22T07:40:13Z</time>
      </trkpt>
      <trkpt lat="42.85412" lon="0.27061">
        <ele>1431.8</ele>
        <time>2017-02-22T07:40:18Z</time>
      </trkpt>
      <trkpt lat="42.85415" lon="0.27059">
        <ele>1433.6</ele>
        <time>2017-02-22T07:40:23Z</time>
      </trkpt>
      <trkpt lat="42.85416" lon="0.27056">
        <ele>1435</ele>
        <time>2017-02-22T07:40:28Z</time>
      </trkpt>
      <trkpt lat="42.85418" lon="0.27053">
        <ele>1434.4</ele>
        <time>2017-02-22T07:40:33Z</time>
      </trkpt>
      <trkpt lat="42.85419" lon="0.27049">
        <ele>1436</ele>
        <time>2017-02-22T07:40:38Z</time>
      </trkpt>
      <trkpt lat="42.8542" lon="0.27046">
        <ele>1435</ele>
        <time>2017-02-22T07:40:43Z</time>
      </trkpt>
      <trkpt lat="42.85422" lon="0.27044">
        <ele>1436.8</ele>
        <time>2017-02-22T07:40:48Z</time>
      </trkpt>
      <trkpt lat="42.85423" lon="0.27041">
        <ele>1437.6</ele>
        <time>2017-02-22T07:40:53Z</time>
      </trkpt>
      <trkpt lat="42.85424" lon="0.27039">
        <ele>1436</ele>
        <time>2017-02-22T07:40:58Z</time>
      </trkpt>
      <trkpt lat="42.85424" lon="0.27034">
        <ele>1439.6</ele>
        <time>2017-02-22T07:41:03Z</time>
      </trkpt>
      <trkpt lat="42.85424" lon="0.2703">
        <ele>1436.6</ele>
        <time>2017-02-22T07:41:08Z</time>
      </trkpt>
      <trkpt lat="42.85425" lon="0.27026">
        <ele>1439.8</ele>
        <time>2017-02-22T07:41:13Z</time>
      </trkpt>
      <trkpt lat="42.85426" lon="0.27022">
        <ele>1437.6</ele>
        <time>2017-02-22T07:41:18Z</time>
      </trkpt>
      <trkpt lat="42.85428" lon="0.27019">
        <ele>1441.2</ele>
        <time>2017-02-22T07:41:23Z</time>
      </trkpt>
      <trkpt lat="42.8543" lon="0.27016">
        <ele>1439.4</ele>
        <time>2017-02-22T07:41:28Z</time>
      </trkpt>
      <trkpt lat="42.85431" lon="0.27013">
        <ele>1440.8</ele>
        <time>2017-02-22T07:41:33Z</time>
      </trkpt>
      <trkpt lat="42.85433" lon="0.2701">
        <ele>1442.8</ele>
        <time>2017-02-22T07:41:38Z</time>
      </trkpt>
      <trkpt lat="42.85435" lon="0.27008">
        <ele>1441.4</ele>
        <time>2017-02-22T07:41:43Z</time>
      </trkpt>
      <trkpt lat="42.85437" lon="0.27007">
        <ele>1443.4</ele>
        <time>2017-02-22T07:41:48Z</time>
      </trkpt>
      <trkpt lat="42.8544" lon="0.27005">
        <ele>1443.8</ele>
        <time>2017-02-22T07:41:53Z</time>
      </trkpt>
      <trkpt lat="42.85442" lon="0.27003">
        <ele>1441.6</ele>
        <time>2017-02-22T07:41:58Z</time>
      </trkpt>
      <trkpt lat="42.85445" lon="0.27002">
        <ele>1444</ele>
        <time>2017-02-22T07:42:03Z</time>
      </trkpt>
      <trkpt lat="42.85448" lon="0.26999">
        <ele>1445.6</ele>
        <time>2017-02-22T07:42:08Z</time>
      </trkpt>
      <trkpt lat="42.85449" lon="0.26996">
        <ele>1443.8</ele>
        <time>2017-02-22T07:42:13Z</time>
      </trkpt>
      <trkpt lat="42.8545" lon="0.26993">
        <ele>1445</ele>
        <time>2017-02-22T07:42:18Z</time>
      </trkpt>
      <trkpt lat="42.85453" lon="0.26992">
        <ele>1447.8</ele>
        <time>2017-02-22T07:42:23Z</time>
      </trkpt>
      <trkpt lat="42.85455" lon="0.26992">
        <ele>1444.6</ele>
        <time>2017-02-22T07:42:28Z</time>
      </trkpt>
      <trkpt lat="42.85457" lon="0.26994">
        <ele>1449</ele>
        <time>2017-02-22T07:42:33Z</time>
      </trkpt>
      <trkpt lat="42.8546" lon="0.26995">
        <ele>1449.8</ele>
        <time>2017-02-22T07:42:38Z</time>
      </trkpt>
      <trkpt lat="42.85462" lon="0.26996">
        <ele>1450.2</ele>
        <time>2017-02-22T07:42:43Z</time>
      </trkpt>
      <trkpt lat="42.85464" lon="0.26995">
        <ele>1449.6</ele>
        <time>2017-02-22T07:42:48Z</time>
      </trkpt>
      <trkpt lat="42.85465" lon="0.26992">
        <ele>1452.2</ele>
        <time>2017-02-22T07:42:53Z</time>
      </trkpt>
      <trkpt lat="42.85467" lon="0.26989">
        <ele>1452.8</ele>
        <time>2017-02-22T07:42:58Z</time>
      </trkpt>
      <trkpt lat="42.85467" lon="0.26987">
        <ele>1452.4</ele>
        <time>2017-02-22T07:43:03Z</time>
      </trkpt>
      <trkpt lat="42.85468" lon="0.26984">
        <ele>1452.2</ele>
        <time>2017-02-22T07:43:08Z</time>
      </trkpt>
      <trkpt lat="42.85468" lon="0.26981">
        <ele>1455.2</ele>
        <time>2017-02-22T07:43:13Z</time>
      </trkpt>
      <trkpt lat="42.8547" lon="0.2698">
        <ele>1454.6</ele>
        <time>2017-02-22T07:43:18Z</time>
      </trkpt>
      <trkpt lat="42.85473" lon="0.26981">
        <ele>1457</ele>
        <time>2017-02-22T07:43:23Z</time>
      </trkpt>
      <trkpt lat="42.85474" lon="0.2698">
        <ele>1457</ele>
        <time>2017-02-22T07:43:28Z</time>
      </trkpt>
      <trkpt lat="42.85476" lon="0.26979">
        <ele>1454.8</ele>
        <time>2017-02-22T07:43:33Z</time>
      </trkpt>
      <trkpt lat="42.8548" lon="0.26977">
        <ele>1458.2</ele>
        <time>2017-02-22T07:43:38Z</time>
      </trkpt>
      <trkpt lat="42.85482" lon="0.26975">
        <ele>1458</ele>
        <time>2017-02-22T07:43:43Z</time>
      </trkpt>
      <trkpt lat="42.85482" lon="0.26975">
        <ele>1458.4</ele>
        <time>2017-02-22T07:43:48Z</time>
      </trkpt>
      <trkpt lat="42.85481" lon="0.26975">
        <ele>1458.4</ele>
        <time>2017-02-22T07:43:53Z</time>
      </trkpt>
      <trkpt lat="42.8548" lon="0.26975">
        <ele>1458.6</ele>
        <time>2017-02-22T07:43:58Z</time>
      </trkpt>
      <trkpt lat="42.8548" lon="0.26975">
        <ele>1458.6</ele>
        <time>2017-02-22T07:44:03Z</time>
      </trkpt>
      <trkpt lat="42.8548" lon="0.26975">
        <ele>1458.4</ele>
        <time>2017-02-22T07:44:08Z</time>
      </trkpt>
      <trkpt lat="42.8548" lon="0.26975">
        <ele>1458.4</ele>
        <time>2017-02-22T07:44:13Z</time>
      </trkpt>
      <trkpt lat="42.8548" lon="0.26975">
        <ele>1458.2</ele>
        <time>2017-02-22T07:44:18Z</time>
      </trkpt>
      <trkpt lat="42.8548" lon="0.26975">
        <ele>1458</ele>
        <time>2017-02-22T07:44:23Z</time>
      </trkpt>
      <trkpt lat="42.8548" lon="0.26975">
        <ele>1457.8</ele>
        <time>2017-02-22T07:44:28Z</time>
      </trkpt>
      <trkpt lat="42.8548" lon="0.26975">
        <ele>1457.6</ele>
        <time>2017-02-22T07:44:33Z</time>
      </trkpt>
      <trkpt lat="42.8548" lon="0.26975">
        <ele>1457.6</ele>
        <time>2017-02-22T07:44:38Z</time>
      </trkpt>
      <trkpt lat="42.8548" lon="0.26975">
        <ele>1457.4</ele>
        <time>2017-02-22T07:44:44Z</time>
      </trkpt>
      <trkpt lat="42.8548" lon="0.26975">
        <ele>1457.4</ele>
        <time>2017-02-22T07:44:49Z</time>
      </trkpt>
      <trkpt lat="42.8548" lon="0.26975">
        <ele>1457.2</ele>
        <time>2017-02-22T07:44:54Z</time>
      </trkpt>
      <trkpt lat="42.8548" lon="0.26976">
        <ele>1457.2</ele>
        <time>2017-02-22T07:44:59Z</time>
      </trkpt>
      <trkpt lat="42.85479" lon="0.26976">
        <ele>1457.2</ele>
        <time>2017-02-22T07:45:04Z</time>
      </trkpt>
      <trkpt lat="42.85479" lon="0.26976">
        <ele>1457.2</ele>
        <time>2017-02-22T07:45:09Z</time>
      </trkpt>
      <trkpt lat="42.85479" lon="0.26976">
        <ele>1457.2</ele>
        <time>2017-02-22T07:45:14Z</time>
      </trkpt>
      <trkpt lat="42.85479" lon="0.26976">
        <ele>1457.2</ele>
        <time>2017-02-22T07:45:19Z</time>
      </trkpt>
      <trkpt lat="42.8548" lon="0.26975">
        <ele>1457.4</ele>
        <time>2017-02-22T07:45:24Z</time>
      </trkpt>
      <trkpt lat="42.85483" lon="0.26971">
        <ele>1457.6</ele>
        <time>2017-02-22T07:45:29Z</time>
      </trkpt>
      <trkpt lat="42.85488" lon="0.26966">
        <ele>1456.2</ele>
        <time>2017-02-22T07:45:34Z</time>
      </trkpt>
      <trkpt lat="42.8549" lon="0.26963">
        <ele>1460</ele>
        <time>2017-02-22T07:45:39Z</time>
      </trkpt>
      <trkpt lat="42.85492" lon="0.26959">
        <ele>1460.6</ele>
        <time>2017-02-22T07:45:44Z</time>
      </trkpt>
      <trkpt lat="42.85495" lon="0.26956">
        <ele>1462.6</ele>
        <time>2017-02-22T07:45:49Z</time>
      </trkpt>
      <trkpt lat="42.85498" lon="0.26954">
        <ele>1466.4</ele>
        <time>2017-02-22T07:45:54Z</time>
      </trkpt>
      <trkpt lat="42.855" lon="0.26952">
        <ele>1467.2</ele>
        <time>2017-02-22T07:45:59Z</time>
      </trkpt>
      <trkpt lat="42.85502" lon="0.26951">
        <ele>1468</ele>
        <time>2017-02-22T07:46:04Z</time>
      </trkpt>
      <trkpt lat="42.85503" lon="0.2695">
        <ele>1467.8</ele>
        <time>2017-02-22T07:46:09Z</time>
      </trkpt>
      <trkpt lat="42.85503" lon="0.2695">
        <ele>1467.8</ele>
        <time>2017-02-22T07:46:14Z</time>
      </trkpt>
      <trkpt lat="42.85503" lon="0.26949">
        <ele>1469.4</ele>
        <time>2017-02-22T07:46:19Z</time>
      </trkpt>
      <trkpt lat="42.85503" lon="0.26949">
        <ele>1468.6</ele>
        <time>2017-02-22T07:46:24Z</time>
      </trkpt>
      <trkpt lat="42.85505" lon="0.26946">
        <ele>1466.4</ele>
        <time>2017-02-22T07:46:29Z</time>
      </trkpt>
      <trkpt lat="42.85507" lon="0.26944">
        <ele>1469.2</ele>
        <time>2017-02-22T07:46:34Z</time>
      </trkpt>
      <trkpt lat="42.85509" lon="0.26942">
        <ele>1470.4</ele>
        <time>2017-02-22T07:46:39Z</time>
      </trkpt>
      <trkpt lat="42.85511" lon="0.26939">
        <ele>1469.6</ele>
        <time>2017-02-22T07:46:44Z</time>
      </trkpt>
      <trkpt lat="42.85514" lon="0.26937">
        <ele>1471.2</ele>
        <time>2017-02-22T07:46:49Z</time>
      </trkpt>
      <trkpt lat="42.85516" lon="0.26936">
        <ele>1470.6</ele>
        <time>2017-02-22T07:46:54Z</time>
      </trkpt>
      <trkpt lat="42.85519" lon="0.26936">
        <ele>1472</ele>
        <time>2017-02-22T07:46:59Z</time>
      </trkpt>
      <trkpt lat="42.85521" lon="0.26936">
        <ele>1470.6</ele>
        <time>2017-02-22T07:47:04Z</time>
      </trkpt>
      <trkpt lat="42.85523" lon="0.26936">
        <ele>1472.8</ele>
        <time>2017-02-22T07:47:09Z</time>
      </trkpt>
      <trkpt lat="42.85526" lon="0.26935">
        <ele>1473.6</ele>
        <time>2017-02-22T07:47:14Z</time>
      </trkpt>
      <trkpt lat="42.85529" lon="0.26933">
        <ele>1473.4</ele>
        <time>2017-02-22T07:47:19Z</time>
      </trkpt>
      <trkpt lat="42.85532" lon="0.2693">
        <ele>1475</ele>
        <time>2017-02-22T07:47:24Z</time>
      </trkpt>
      <trkpt lat="42.85534" lon="0.26927">
        <ele>1474.4</ele>
        <time>2017-02-22T07:47:29Z</time>
      </trkpt>
      <trkpt lat="42.85537" lon="0.26924">
        <ele>1473</ele>
        <time>2017-02-22T07:47:34Z</time>
      </trkpt>
      <trkpt lat="42.85539" lon="0.26922">
        <ele>1474.4</ele>
        <time>2017-02-22T07:47:39Z</time>
      </trkpt>
      <trkpt lat="42.85542" lon="0.2692">
        <ele>1478</ele>
        <time>2017-02-22T07:47:44Z</time>
      </trkpt>
      <trkpt lat="42.85545" lon="0.26917">
        <ele>1475</ele>
        <time>2017-02-22T07:47:49Z</time>
      </trkpt>
      <trkpt lat="42.85547" lon="0.26915">
        <ele>1476.8</ele>
        <time>2017-02-22T07:47:54Z</time>
      </trkpt>
      <trkpt lat="42.85549" lon="0.26913">
        <ele>1479.4</ele>
        <time>2017-02-22T07:47:59Z</time>
      </trkpt>
      <trkpt lat="42.85551" lon="0.26912">
        <ele>1479</ele>
        <time>2017-02-22T07:48:04Z</time>
      </trkpt>
      <trkpt lat="42.85552" lon="0.2691">
        <ele>1481.8</ele>
        <time>2017-02-22T07:48:09Z</time>
      </trkpt>
      <trkpt lat="42.85553" lon="0.26908">
        <ele>1481.8</ele>
        <time>2017-02-22T07:48:14Z</time>
      </trkpt>
      <trkpt lat="42.85555" lon="0.26906">
        <ele>1482.8</ele>
        <time>2017-02-22T07:48:19Z</time>
      </trkpt>
      <trkpt lat="42.85557" lon="0.26903">
        <ele>1487.4</ele>
        <time>2017-02-22T07:48:24Z</time>
      </trkpt>
      <trkpt lat="42.85558" lon="0.269">
        <ele>1488</ele>
        <time>2017-02-22T07:48:29Z</time>
      </trkpt>
      <trkpt lat="42.85559" lon="0.26897">
        <ele>1489</ele>
        <time>2017-02-22T07:48:34Z</time>
      </trkpt>
      <trkpt lat="42.8556" lon="0.26894">
        <ele>1488.6</ele>
        <time>2017-02-22T07:48:39Z</time>
      </trkpt>
      <trkpt lat="42.85562" lon="0.26892">
        <ele>1488.6</ele>
        <time>2017-02-22T07:48:44Z</time>
      </trkpt>
      <trkpt lat="42.85563" lon="0.26889">
        <ele>1491.2</ele>
        <time>2017-02-22T07:48:49Z</time>
      </trkpt>
      <trkpt lat="42.85564" lon="0.26887">
        <ele>1492.2</ele>
        <time>2017-02-22T07:48:54Z</time>
      </trkpt>
      <trkpt lat="42.85565" lon="0.26884">
        <ele>1492.6</ele>
        <time>2017-02-22T07:48:59Z</time>
      </trkpt>
      <trkpt lat="42.85566" lon="0.26881">
        <ele>1493.6</ele>
        <time>2017-02-22T07:49:04Z</time>
      </trkpt>
      <trkpt lat="42.85567" lon="0.26878">
        <ele>1491.8</ele>
        <time>2017-02-22T07:49:09Z</time>
      </trkpt>
      <trkpt lat="42.85569" lon="0.26875">
        <ele>1493</ele>
        <time>2017-02-22T07:49:14Z</time>
      </trkpt>
      <trkpt lat="42.8557" lon="0.26873">
        <ele>1495.4</ele>
        <time>2017-02-22T07:49:19Z</time>
      </trkpt>
      <trkpt lat="42.85572" lon="0.2687">
        <ele>1493.4</ele>
        <time>2017-02-22T07:49:24Z</time>
      </trkpt>
      <trkpt lat="42.85573" lon="0.26867">
        <ele>1494</ele>
        <time>2017-02-22T07:49:29Z</time>
      </trkpt>
      <trkpt lat="42.85574" lon="0.26864">
        <ele>1497.2</ele>
        <time>2017-02-22T07:49:34Z</time>
      </trkpt>
      <trkpt lat="42.85575" lon="0.26861">
        <ele>1496.6</ele>
        <time>2017-02-22T07:49:39Z</time>
      </trkpt>
      <trkpt lat="42.85575" lon="0.26858">
        <ele>1496</ele>
        <time>2017-02-22T07:49:44Z</time>
      </trkpt>
      <trkpt lat="42.85576" lon="0.26854">
        <ele>1496.6</ele>
        <time>2017-02-22T07:49:49Z</time>
      </trkpt>
      <trkpt lat="42.85577" lon="0.26851">
        <ele>1497.2</ele>
        <time>2017-02-22T07:49:54Z</time>
      </trkpt>
      <trkpt lat="42.85579" lon="0.26848">
        <ele>1496.4</ele>
        <time>2017-02-22T07:49:59Z</time>
      </trkpt>
      <trkpt lat="42.8558" lon="0.26844">
        <ele>1498.6</ele>
        <time>2017-02-22T07:50:04Z</time>
      </trkpt>
      <trkpt lat="42.85581" lon="0.26841">
        <ele>1497.8</ele>
        <time>2017-02-22T07:50:09Z</time>
      </trkpt>
      <trkpt lat="42.85582" lon="0.26839">
        <ele>1500.8</ele>
        <time>2017-02-22T07:50:14Z</time>
      </trkpt>
      <trkpt lat="42.85583" lon="0.26835">
        <ele>1500.4</ele>
        <time>2017-02-22T07:50:19Z</time>
      </trkpt>
      <trkpt lat="42.85584" lon="0.26832">
        <ele>1500.6</ele>
        <time>2017-02-22T07:50:24Z</time>
      </trkpt>
      <trkpt lat="42.85584" lon="0.26829">
        <ele>1501</ele>
        <time>2017-02-22T07:50:29Z</time>
      </trkpt>
      <trkpt lat="42.85585" lon="0.26826">
        <ele>1501</ele>
        <time>2017-02-22T07:50:34Z</time>
      </trkpt>
      <trkpt lat="42.85585" lon="0.26823">
        <ele>1503</ele>
        <time>2017-02-22T07:50:39Z</time>
      </trkpt>
      <trkpt lat="42.85586" lon="0.26821">
        <ele>1503.4</ele>
        <time>2017-02-22T07:50:44Z</time>
      </trkpt>
      <trkpt lat="42.85587" lon="0.26818">
        <ele>1504.4</ele>
        <time>2017-02-22T07:50:49Z</time>
      </trkpt>
      <trkpt lat="42.85588" lon="0.26815">
        <ele>1504.6</ele>
        <time>2017-02-22T07:50:54Z</time>
      </trkpt>
      <trkpt lat="42.85589" lon="0.26813">
        <ele>1504.6</ele>
        <time>2017-02-22T07:50:59Z</time>
      </trkpt>
      <trkpt lat="42.8559" lon="0.2681">
        <ele>1505.8</ele>
        <time>2017-02-22T07:51:04Z</time>
      </trkpt>
      <trkpt lat="42.85593" lon="0.26808">
        <ele>1505.6</ele>
        <time>2017-02-22T07:51:09Z</time>
      </trkpt>
      <trkpt lat="42.85595" lon="0.26807">
        <ele>1507.6</ele>
        <time>2017-02-22T07:51:14Z</time>
      </trkpt>
      <trkpt lat="42.85598" lon="0.26807">
        <ele>1504.8</ele>
        <time>2017-02-22T07:51:19Z</time>
      </trkpt>
      <trkpt lat="42.856" lon="0.26807">
        <ele>1505</ele>
        <time>2017-02-22T07:51:24Z</time>
      </trkpt>
      <trkpt lat="42.85602" lon="0.26808">
        <ele>1506.2</ele>
        <time>2017-02-22T07:51:29Z</time>
      </trkpt>
      <trkpt lat="42.85605" lon="0.26809">
        <ele>1506.8</ele>
        <time>2017-02-22T07:51:34Z</time>
      </trkpt>
      <trkpt lat="42.85607" lon="0.26809">
        <ele>1509.6</ele>
        <time>2017-02-22T07:51:39Z</time>
      </trkpt>
      <trkpt lat="42.85608" lon="0.26806">
        <ele>1511.4</ele>
        <time>2017-02-22T07:51:44Z</time>
      </trkpt>
      <trkpt lat="42.85609" lon="0.26803">
        <ele>1512.6</ele>
        <time>2017-02-22T07:51:49Z</time>
      </trkpt>
      <trkpt lat="42.85609" lon="0.268">
        <ele>1509.4</ele>
        <time>2017-02-22T07:51:54Z</time>
      </trkpt>
      <trkpt lat="42.8561" lon="0.26798">
        <ele>1511.6</ele>
        <time>2017-02-22T07:51:59Z</time>
      </trkpt>
      <trkpt lat="42.85611" lon="0.26795">
        <ele>1510.2</ele>
        <time>2017-02-22T07:52:04Z</time>
      </trkpt>
      <trkpt lat="42.85611" lon="0.26792">
        <ele>1511</ele>
        <time>2017-02-22T07:52:09Z</time>
      </trkpt>
      <trkpt lat="42.85612" lon="0.26789">
        <ele>1511</ele>
        <time>2017-02-22T07:52:14Z</time>
      </trkpt>
      <trkpt lat="42.85613" lon="0.26787">
        <ele>1513.2</ele>
        <time>2017-02-22T07:52:19Z</time>
      </trkpt>
      <trkpt lat="42.85616" lon="0.26787">
        <ele>1515.2</ele>
        <time>2017-02-22T07:52:24Z</time>
      </trkpt>
      <trkpt lat="42.8562" lon="0.26788">
        <ele>1515</ele>
        <time>2017-02-22T07:52:29Z</time>
      </trkpt>
      <trkpt lat="42.85622" lon="0.26789">
        <ele>1516</ele>
        <time>2017-02-22T07:52:34Z</time>
      </trkpt>
      <trkpt lat="42.85623" lon="0.26787">
        <ele>1513.8</ele>
        <time>2017-02-22T07:52:39Z</time>
      </trkpt>
      <trkpt lat="42.85624" lon="0.26784">
        <ele>1516.8</ele>
        <time>2017-02-22T07:52:44Z</time>
      </trkpt>
      <trkpt lat="42.85624" lon="0.26781">
        <ele>1516.8</ele>
        <time>2017-02-22T07:52:49Z</time>
      </trkpt>
      <trkpt lat="42.85624" lon="0.26778">
        <ele>1517.6</ele>
        <time>2017-02-22T07:52:54Z</time>
      </trkpt>
      <trkpt lat="42.85625" lon="0.26776">
        <ele>1517.8</ele>
        <time>2017-02-22T07:52:59Z</time>
      </trkpt>
      <trkpt lat="42.85626" lon="0.26773">
        <ele>1520</ele>
        <time>2017-02-22T07:53:04Z</time>
      </trkpt>
      <trkpt lat="42.85626" lon="0.2677">
        <ele>1519.2</ele>
        <time>2017-02-22T07:53:09Z</time>
      </trkpt>
      <trkpt lat="42.85626" lon="0.26767">
        <ele>1519.8</ele>
        <time>2017-02-22T07:53:14Z</time>
      </trkpt>
      <trkpt lat="42.85627" lon="0.26764">
        <ele>1522.6</ele>
        <time>2017-02-22T07:53:19Z</time>
      </trkpt>
      <trkpt lat="42.85627" lon="0.2676">
        <ele>1524</ele>
        <time>2017-02-22T07:53:24Z</time>
      </trkpt>
      <trkpt lat="42.85626" lon="0.26756">
        <ele>1517</ele>
        <time>2017-02-22T07:53:29Z</time>
      </trkpt>
      <trkpt lat="42.85626" lon="0.26751">
        <ele>1522</ele>
        <time>2017-02-22T07:53:34Z</time>
      </trkpt>
      <trkpt lat="42.85627" lon="0.26747">
        <ele>1521.6</ele>
        <time>2017-02-22T07:53:39Z</time>
      </trkpt>
      <trkpt lat="42.85629" lon="0.26743">
        <ele>1523.8</ele>
        <time>2017-02-22T07:53:44Z</time>
      </trkpt>
      <trkpt lat="42.8563" lon="0.26741">
        <ele>1523.6</ele>
        <time>2017-02-22T07:53:49Z</time>
      </trkpt>
      <trkpt lat="42.85631" lon="0.26737">
        <ele>1523.6</ele>
        <time>2017-02-22T07:53:54Z</time>
      </trkpt>
      <trkpt lat="42.85632" lon="0.26734">
        <ele>1522.4</ele>
        <time>2017-02-22T07:53:59Z</time>
      </trkpt>
      <trkpt lat="42.85634" lon="0.26731">
        <ele>1522</ele>
        <time>2017-02-22T07:54:05Z</time>
      </trkpt>
      <trkpt lat="42.85635" lon="0.26728">
        <ele>1524.4</ele>
        <time>2017-02-22T07:54:10Z</time>
      </trkpt>
      <trkpt lat="42.85638" lon="0.26724">
        <ele>1526.6</ele>
        <time>2017-02-22T07:54:15Z</time>
      </trkpt>
      <trkpt lat="42.85641" lon="0.26721">
        <ele>1523</ele>
        <time>2017-02-22T07:54:20Z</time>
      </trkpt>
      <trkpt lat="42.85642" lon="0.26718">
        <ele>1524.4</ele>
        <time>2017-02-22T07:54:25Z</time>
      </trkpt>
      <trkpt lat="42.85644" lon="0.26715">
        <ele>1527</ele>
        <time>2017-02-22T07:54:30Z</time>
      </trkpt>
      <trkpt lat="42.85645" lon="0.26712">
        <ele>1524.4</ele>
        <time>2017-02-22T07:54:35Z</time>
      </trkpt>
      <trkpt lat="42.85645" lon="0.26709">
        <ele>1525.6</ele>
        <time>2017-02-22T07:54:40Z</time>
      </trkpt>
      <trkpt lat="42.85646" lon="0.26706">
        <ele>1526.8</ele>
        <time>2017-02-22T07:54:45Z</time>
      </trkpt>
      <trkpt lat="42.85646" lon="0.26703">
        <ele>1525</ele>
        <time>2017-02-22T07:54:50Z</time>
      </trkpt>
      <trkpt lat="42.85648" lon="0.26702">
        <ele>1522.6</ele>
        <time>2017-02-22T07:54:55Z</time>
      </trkpt>
      <trkpt lat="42.85649" lon="0.26699">
        <ele>1522</ele>
        <time>2017-02-22T07:55:00Z</time>
      </trkpt>
      <trkpt lat="42.85651" lon="0.26697">
        <ele>1524.8</ele>
        <time>2017-02-22T07:55:05Z</time>
      </trkpt>
      <trkpt lat="42.85653" lon="0.26695">
        <ele>1525.6</ele>
        <time>2017-02-22T07:55:10Z</time>
      </trkpt>
      <trkpt lat="42.85656" lon="0.26697">
        <ele>1530.6</ele>
        <time>2017-02-22T07:55:15Z</time>
      </trkpt>
      <trkpt lat="42.85658" lon="0.26699">
        <ele>1531.2</ele>
        <time>2017-02-22T07:55:20Z</time>
      </trkpt>
      <trkpt lat="42.8566" lon="0.267">
        <ele>1533</ele>
        <time>2017-02-22T07:55:25Z</time>
      </trkpt>
      <trkpt lat="42.85661" lon="0.267">
        <ele>1534.4</ele>
        <time>2017-02-22T07:55:30Z</time>
      </trkpt>
      <trkpt lat="42.85663" lon="0.26698">
        <ele>1533.2</ele>
        <time>2017-02-22T07:55:35Z</time>
      </trkpt>
      <trkpt lat="42.85666" lon="0.26694">
        <ele>1533.2</ele>
        <time>2017-02-22T07:55:40Z</time>
      </trkpt>
      <trkpt lat="42.85668" lon="0.26692">
        <ele>1535</ele>
        <time>2017-02-22T07:55:45Z</time>
      </trkpt>
      <trkpt lat="42.85671" lon="0.2669">
        <ele>1535.6</ele>
        <time>2017-02-22T07:55:50Z</time>
      </trkpt>
      <trkpt lat="42.85672" lon="0.26688">
        <ele>1536.8</ele>
        <time>2017-02-22T07:55:55Z</time>
      </trkpt>
      <trkpt lat="42.85674" lon="0.26686">
        <ele>1537</ele>
        <time>2017-02-22T07:56:00Z</time>
      </trkpt>
      <trkpt lat="42.85677" lon="0.26686">
        <ele>1539.4</ele>
        <time>2017-02-22T07:56:05Z</time>
      </trkpt>
      <trkpt lat="42.8568" lon="0.26688">
        <ele>1536.4</ele>
        <time>2017-02-22T07:56:10Z</time>
      </trkpt>
      <trkpt lat="42.85683" lon="0.2669">
        <ele>1539.6</ele>
        <time>2017-02-22T07:56:15Z</time>
      </trkpt>
      <trkpt lat="42.85685" lon="0.26691">
        <ele>1540.8</ele>
        <time>2017-02-22T07:56:20Z</time>
      </trkpt>
      <trkpt lat="42.85686" lon="0.26689">
        <ele>1543.8</ele>
        <time>2017-02-22T07:56:25Z</time>
      </trkpt>
      <trkpt lat="42.85686" lon="0.26687">
        <ele>1541</ele>
        <time>2017-02-22T07:56:30Z</time>
      </trkpt>
      <trkpt lat="42.85688" lon="0.26685">
        <ele>1543.6</ele>
        <time>2017-02-22T07:56:35Z</time>
      </trkpt>
      <trkpt lat="42.8569" lon="0.26684">
        <ele>1541.8</ele>
        <time>2017-02-22T07:56:40Z</time>
      </trkpt>
      <trkpt lat="42.85692" lon="0.26684">
        <ele>1545.8</ele>
        <time>2017-02-22T07:56:45Z</time>
      </trkpt>
      <trkpt lat="42.85693" lon="0.26686">
        <ele>1545</ele>
        <time>2017-02-22T07:56:50Z</time>
      </trkpt>
      <trkpt lat="42.85695" lon="0.26688">
        <ele>1546</ele>
        <time>2017-02-22T07:56:55Z</time>
      </trkpt>
      <trkpt lat="42.85696" lon="0.2669">
        <ele>1547.8</ele>
        <time>2017-02-22T07:57:00Z</time>
      </trkpt>
      <trkpt lat="42.85698" lon="0.2669">
        <ele>1547.4</ele>
        <time>2017-02-22T07:57:05Z</time>
      </trkpt>
      <trkpt lat="42.85699" lon="0.26689">
        <ele>1546.4</ele>
        <time>2017-02-22T07:57:10Z</time>
      </trkpt>
      <trkpt lat="42.857" lon="0.26685">
        <ele>1549.4</ele>
        <time>2017-02-22T07:57:15Z</time>
      </trkpt>
      <trkpt lat="42.857" lon="0.26684">
        <ele>1549</ele>
        <time>2017-02-22T07:57:20Z</time>
      </trkpt>
      <trkpt lat="42.85702" lon="0.26683">
        <ele>1549.8</ele>
        <time>2017-02-22T07:57:25Z</time>
      </trkpt>
      <trkpt lat="42.85704" lon="0.26683">
        <ele>1550.8</ele>
        <time>2017-02-22T07:57:30Z</time>
      </trkpt>
      <trkpt lat="42.85706" lon="0.26683">
        <ele>1549.6</ele>
        <time>2017-02-22T07:57:35Z</time>
      </trkpt>
      <trkpt lat="42.85708" lon="0.26683">
        <ele>1551.6</ele>
        <time>2017-02-22T07:57:40Z</time>
      </trkpt>
      <trkpt lat="42.85711" lon="0.26684">
        <ele>1550.2</ele>
        <time>2017-02-22T07:57:45Z</time>
      </trkpt>
      <trkpt lat="42.85713" lon="0.26684">
        <ele>1551</ele>
        <time>2017-02-22T07:57:50Z</time>
      </trkpt>
      <trkpt lat="42.85715" lon="0.2668">
        <ele>1551.8</ele>
        <time>2017-02-22T07:57:56Z</time>
      </trkpt>
      <trkpt lat="42.85716" lon="0.26677">
        <ele>1554.4</ele>
        <time>2017-02-22T07:58:01Z</time>
      </trkpt>
      <trkpt lat="42.85719" lon="0.26676">
        <ele>1554.8</ele>
        <time>2017-02-22T07:58:06Z</time>
      </trkpt>
      <trkpt lat="42.85722" lon="0.26675">
        <ele>1555.2</ele>
        <time>2017-02-22T07:58:11Z</time>
      </trkpt>
      <trkpt lat="42.85724" lon="0.26673">
        <ele>1554.8</ele>
        <time>2017-02-22T07:58:16Z</time>
      </trkpt>
      <trkpt lat="42.85726" lon="0.2667">
        <ele>1556</ele>
        <time>2017-02-22T07:58:21Z</time>
      </trkpt>
      <trkpt lat="42.85727" lon="0.26667">
        <ele>1557.8</ele>
        <time>2017-02-22T07:58:26Z</time>
      </trkpt>
      <trkpt lat="42.85728" lon="0.26664">
        <ele>1556.4</ele>
        <time>2017-02-22T07:58:31Z</time>
      </trkpt>
      <trkpt lat="42.85731" lon="0.26662">
        <ele>1557.6</ele>
        <time>2017-02-22T07:58:36Z</time>
      </trkpt>
      <trkpt lat="42.85733" lon="0.26659">
        <ele>1559</ele>
        <time>2017-02-22T07:58:41Z</time>
      </trkpt>
      <trkpt lat="42.85736" lon="0.26656">
        <ele>1553</ele>
        <time>2017-02-22T07:58:46Z</time>
      </trkpt>
      <trkpt lat="42.85738" lon="0.26652">
        <ele>1554.8</ele>
        <time>2017-02-22T07:58:51Z</time>
      </trkpt>
      <trkpt lat="42.8574" lon="0.26648">
        <ele>1558.6</ele>
        <time>2017-02-22T07:58:56Z</time>
      </trkpt>
      <trkpt lat="42.85741" lon="0.26644">
        <ele>1557.4</ele>
        <time>2017-02-22T07:59:01Z</time>
      </trkpt>
      <trkpt lat="42.85743" lon="0.2664">
        <ele>1556.4</ele>
        <time>2017-02-22T07:59:06Z</time>
      </trkpt>
      <trkpt lat="42.85744" lon="0.26635">
        <ele>1556.4</ele>
        <time>2017-02-22T07:59:11Z</time>
      </trkpt>
      <trkpt lat="42.85745" lon="0.26634">
        <ele>1558.2</ele>
        <time>2017-02-22T07:59:16Z</time>
      </trkpt>
      <trkpt lat="42.85745" lon="0.26634">
        <ele>1558</ele>
        <time>2017-02-22T07:59:21Z</time>
      </trkpt>
      <trkpt lat="42.85746" lon="0.26634">
        <ele>1557.8</ele>
        <time>2017-02-22T07:59:26Z</time>
      </trkpt>
      <trkpt lat="42.85745" lon="0.26634">
        <ele>1558.4</ele>
        <time>2017-02-22T07:59:31Z</time>
      </trkpt>
      <trkpt lat="42.85745" lon="0.26634">
        <ele>1558.2</ele>
        <time>2017-02-22T07:59:36Z</time>
      </trkpt>
      <trkpt lat="42.85745" lon="0.26634">
        <ele>1558</ele>
        <time>2017-02-22T07:59:41Z</time>
      </trkpt>
      <trkpt lat="42.85745" lon="0.26634">
        <ele>1557.8</ele>
        <time>2017-02-22T07:59:46Z</time>
      </trkpt>
      <trkpt lat="42.85745" lon="0.26635">
        <ele>1557.4</ele>
        <time>2017-02-22T07:59:51Z</time>
      </trkpt>
      <trkpt lat="42.85744" lon="0.26635">
        <ele>1559.2</ele>
        <time>2017-02-22T07:59:56Z</time>
      </trkpt>
      <trkpt lat="42.85744" lon="0.26635">
        <ele>1558.8</ele>
        <time>2017-02-22T08:00:01Z</time>
      </trkpt>
      <trkpt lat="42.85744" lon="0.26635">
        <ele>1558.4</ele>
        <time>2017-02-22T08:00:06Z</time>
      </trkpt>
      <trkpt lat="42.85744" lon="0.26635">
        <ele>1558.2</ele>
        <time>2017-02-22T08:00:11Z</time>
      </trkpt>
      <trkpt lat="42.85744" lon="0.26635">
        <ele>1558.2</ele>
        <time>2017-02-22T08:00:16Z</time>
      </trkpt>
      <trkpt lat="42.85744" lon="0.26635">
        <ele>1558</ele>
        <time>2017-02-22T08:00:21Z</time>
      </trkpt>
      <trkpt lat="42.85744" lon="0.26635">
        <ele>1558</ele>
        <time>2017-02-22T08:00:26Z</time>
      </trkpt>
      <trkpt lat="42.85744" lon="0.26635">
        <ele>1558</ele>
        <time>2017-02-22T08:00:31Z</time>
      </trkpt>
      <trkpt lat="42.85744" lon="0.26635">
        <ele>1557.8</ele>
        <time>2017-02-22T08:00:36Z</time>
      </trkpt>
      <trkpt lat="42.85744" lon="0.26635">
        <ele>1557.8</ele>
        <time>2017-02-22T08:00:41Z</time>
      </trkpt>
      <trkpt lat="42.85744" lon="0.26635">
        <ele>1557.8</ele>
        <time>2017-02-22T08:00:46Z</time>
      </trkpt>
      <trkpt lat="42.85744" lon="0.26635">
        <ele>1557.8</ele>
        <time>2017-02-22T08:00:51Z</time>
      </trkpt>
      <trkpt lat="42.85744" lon="0.26635">
        <ele>1557.8</ele>
        <time>2017-02-22T08:00:56Z</time>
      </trkpt>
      <trkpt lat="42.85744" lon="0.26635">
        <ele>1557.8</ele>
        <time>2017-02-22T08:01:01Z</time>
      </trkpt>
      <trkpt lat="42.85744" lon="0.26635">
        <ele>1557.8</ele>
        <time>2017-02-22T08:01:06Z</time>
      </trkpt>
      <trkpt lat="42.85744" lon="0.26635">
        <ele>1557.8</ele>
        <time>2017-02-22T08:01:11Z</time>
      </trkpt>
      <trkpt lat="42.85744" lon="0.26635">
        <ele>1557.8</ele>
        <time>2017-02-22T08:01:16Z</time>
      </trkpt>
      <trkpt lat="42.85744" lon="0.26635">
        <ele>1557.8</ele>
        <time>2017-02-22T08:01:21Z</time>
      </trkpt>
      <trkpt lat="42.85744" lon="0.26635">
        <ele>1557.8</ele>
        <time>2017-02-22T08:01:26Z</time>
      </trkpt>
      <trkpt lat="42.85744" lon="0.26635">
        <ele>1557.8</ele>
        <time>2017-02-22T08:01:31Z</time>
      </trkpt>
      <trkpt lat="42.85743" lon="0.26635">
        <ele>1557.8</ele>
        <time>2017-02-22T08:01:36Z</time>
      </trkpt>
      <trkpt lat="42.85743" lon="0.26635">
        <ele>1557.8</ele>
        <time>2017-02-22T08:01:41Z</time>
      </trkpt>
      <trkpt lat="42.85743" lon="0.26635">
        <ele>1558</ele>
        <time>2017-02-22T08:01:46Z</time>
      </trkpt>
      <trkpt lat="42.85743" lon="0.26634">
        <ele>1558.4</ele>
        <time>2017-02-22T08:01:51Z</time>
      </trkpt>
      <trkpt lat="42.85743" lon="0.26633">
        <ele>1558.4</ele>
        <time>2017-02-22T08:01:56Z</time>
      </trkpt>
      <trkpt lat="42.85743" lon="0.26633">
        <ele>1559</ele>
        <time>2017-02-22T08:02:01Z</time>
      </trkpt>
      <trkpt lat="42.85744" lon="0.26631">
        <ele>1563.4</ele>
        <time>2017-02-22T08:02:06Z</time>
      </trkpt>
      <trkpt lat="42.85745" lon="0.26631">
        <ele>1560</ele>
        <time>2017-02-22T08:02:11Z</time>
      </trkpt>
      <trkpt lat="42.85746" lon="0.26628">
        <ele>1562</ele>
        <time>2017-02-22T08:02:16Z</time>
      </trkpt>
      <trkpt lat="42.85748" lon="0.26625">
        <ele>1565</ele>
        <time>2017-02-22T08:02:21Z</time>
      </trkpt>
      <trkpt lat="42.85749" lon="0.26622">
        <ele>1566</ele>
        <time>2017-02-22T08:02:26Z</time>
      </trkpt>
      <trkpt lat="42.8575" lon="0.2662">
        <ele>1565.8</ele>
        <time>2017-02-22T08:02:31Z</time>
      </trkpt>
      <trkpt lat="42.85752" lon="0.26616">
        <ele>1566.6</ele>
        <time>2017-02-22T08:02:36Z</time>
      </trkpt>
      <trkpt lat="42.85754" lon="0.26613">
        <ele>1563.8</ele>
        <time>2017-02-22T08:02:41Z</time>
      </trkpt>
      <trkpt lat="42.85754" lon="0.2661">
        <ele>1565.8</ele>
        <time>2017-02-22T08:02:46Z</time>
      </trkpt>
      <trkpt lat="42.85755" lon="0.26608">
        <ele>1566.4</ele>
        <time>2017-02-22T08:02:51Z</time>
      </trkpt>
      <trkpt lat="42.85755" lon="0.26605">
        <ele>1567</ele>
        <time>2017-02-22T08:02:56Z</time>
      </trkpt>
      <trkpt lat="42.85752" lon="0.26603">
        <ele>1568</ele>
        <time>2017-02-22T08:03:02Z</time>
      </trkpt>
      <trkpt lat="42.85751" lon="0.26602">
        <ele>1566.8</ele>
        <time>2017-02-22T08:03:07Z</time>
      </trkpt>
      <trkpt lat="42.85751" lon="0.26601">
        <ele>1562.8</ele>
        <time>2017-02-22T08:03:12Z</time>
      </trkpt>
      <trkpt lat="42.85752" lon="0.26596">
        <ele>1566.6</ele>
        <time>2017-02-22T08:03:17Z</time>
      </trkpt>
      <trkpt lat="42.85753" lon="0.26593">
        <ele>1570.2</ele>
        <time>2017-02-22T08:03:22Z</time>
      </trkpt>
      <trkpt lat="42.85755" lon="0.26589">
        <ele>1569.6</ele>
        <time>2017-02-22T08:03:27Z</time>
      </trkpt>
      <trkpt lat="42.85757" lon="0.26585">
        <ele>1569.4</ele>
        <time>2017-02-22T08:03:32Z</time>
      </trkpt>
      <trkpt lat="42.85757" lon="0.26582">
        <ele>1571.2</ele>
        <time>2017-02-22T08:03:37Z</time>
      </trkpt>
      <trkpt lat="42.85758" lon="0.26581">
        <ele>1569.4</ele>
        <time>2017-02-22T08:03:42Z</time>
      </trkpt>
      <trkpt lat="42.85759" lon="0.26578">
        <ele>1569.4</ele>
        <time>2017-02-22T08:03:47Z</time>
      </trkpt>
      <trkpt lat="42.85761" lon="0.26574">
        <ele>1568.4</ele>
        <time>2017-02-22T08:03:52Z</time>
      </trkpt>
      <trkpt lat="42.85762" lon="0.26571">
        <ele>1569</ele>
        <time>2017-02-22T08:03:57Z</time>
      </trkpt>
      <trkpt lat="42.85763" lon="0.2657">
        <ele>1571</ele>
        <time>2017-02-22T08:04:02Z</time>
      </trkpt>
      <trkpt lat="42.85764" lon="0.26568">
        <ele>1571.6</ele>
        <time>2017-02-22T08:04:07Z</time>
      </trkpt>
      <trkpt lat="42.85766" lon="0.26566">
        <ele>1574.6</ele>
        <time>2017-02-22T08:04:12Z</time>
      </trkpt>
      <trkpt lat="42.85766" lon="0.26564">
        <ele>1574.2</ele>
        <time>2017-02-22T08:04:17Z</time>
      </trkpt>
      <trkpt lat="42.85767" lon="0.26561">
        <ele>1574</ele>
        <time>2017-02-22T08:04:22Z</time>
      </trkpt>
      <trkpt lat="42.85767" lon="0.26558">
        <ele>1575</ele>
        <time>2017-02-22T08:04:27Z</time>
      </trkpt>
      <trkpt lat="42.85768" lon="0.26554">
        <ele>1574.2</ele>
        <time>2017-02-22T08:04:32Z</time>
      </trkpt>
      <trkpt lat="42.85768" lon="0.26552">
        <ele>1575.2</ele>
        <time>2017-02-22T08:04:37Z</time>
      </trkpt>
      <trkpt lat="42.85769" lon="0.26549">
        <ele>1574.2</ele>
        <time>2017-02-22T08:04:42Z</time>
      </trkpt>
      <trkpt lat="42.8577" lon="0.26548">
        <ele>1576.8</ele>
        <time>2017-02-22T08:04:47Z</time>
      </trkpt>
      <trkpt lat="42.8577" lon="0.26546">
        <ele>1577.2</ele>
        <time>2017-02-22T08:04:52Z</time>
      </trkpt>
      <trkpt lat="42.85771" lon="0.26544">
        <ele>1577.4</ele>
        <time>2017-02-22T08:04:57Z</time>
      </trkpt>
      <trkpt lat="42.85772" lon="0.26542">
        <ele>1579.4</ele>
        <time>2017-02-22T08:05:02Z</time>
      </trkpt>
      <trkpt lat="42.85773" lon="0.2654">
        <ele>1581.2</ele>
        <time>2017-02-22T08:05:07Z</time>
      </trkpt>
      <trkpt lat="42.85775" lon="0.26539">
        <ele>1581.8</ele>
        <time>2017-02-22T08:05:12Z</time>
      </trkpt>
      <trkpt lat="42.85775" lon="0.26539">
        <ele>1582.2</ele>
        <time>2017-02-22T08:05:17Z</time>
      </trkpt>
      <trkpt lat="42.85775" lon="0.26537">
        <ele>1582.6</ele>
        <time>2017-02-22T08:05:22Z</time>
      </trkpt>
      <trkpt lat="42.85776" lon="0.26534">
        <ele>1584</ele>
        <time>2017-02-22T08:05:27Z</time>
      </trkpt>
      <trkpt lat="42.85776" lon="0.26531">
        <ele>1585.4</ele>
        <time>2017-02-22T08:05:32Z</time>
      </trkpt>
      <trkpt lat="42.85777" lon="0.26529">
        <ele>1585.4</ele>
        <time>2017-02-22T08:05:37Z</time>
      </trkpt>
      <trkpt lat="42.85778" lon="0.26527">
        <ele>1586.8</ele>
        <time>2017-02-22T08:05:42Z</time>
      </trkpt>
      <trkpt lat="42.85778" lon="0.26526">
        <ele>1587.8</ele>
        <time>2017-02-22T08:05:47Z</time>
      </trkpt>
      <trkpt lat="42.85779" lon="0.26523">
        <ele>1588.6</ele>
        <time>2017-02-22T08:05:52Z</time>
      </trkpt>
      <trkpt lat="42.8578" lon="0.2652">
        <ele>1590.2</ele>
        <time>2017-02-22T08:05:57Z</time>
      </trkpt>
      <trkpt lat="42.85781" lon="0.26517">
        <ele>1589.2</ele>
        <time>2017-02-22T08:06:02Z</time>
      </trkpt>
      <trkpt lat="42.85783" lon="0.26515">
        <ele>1591.8</ele>
        <time>2017-02-22T08:06:07Z</time>
      </trkpt>
      <trkpt lat="42.85785" lon="0.26513">
        <ele>1589.6</ele>
        <time>2017-02-22T08:06:12Z</time>
      </trkpt>
      <trkpt lat="42.85786" lon="0.26511">
        <ele>1592.8</ele>
        <time>2017-02-22T08:06:17Z</time>
      </trkpt>
      <trkpt lat="42.85788" lon="0.26508">
        <ele>1593.6</ele>
        <time>2017-02-22T08:06:22Z</time>
      </trkpt>
      <trkpt lat="42.85789" lon="0.26504">
        <ele>1592</ele>
        <time>2017-02-22T08:06:27Z</time>
      </trkpt>
      <trkpt lat="42.8579" lon="0.26502">
        <ele>1594.4</ele>
        <time>2017-02-22T08:06:32Z</time>
      </trkpt>
      <trkpt lat="42.8579" lon="0.26498">
        <ele>1592.8</ele>
        <time>2017-02-22T08:06:38Z</time>
      </trkpt>
      <trkpt lat="42.85791" lon="0.26494">
        <ele>1594.8</ele>
        <time>2017-02-22T08:06:43Z</time>
      </trkpt>
      <trkpt lat="42.85792" lon="0.26492">
        <ele>1594.8</ele>
        <time>2017-02-22T08:06:48Z</time>
      </trkpt>
      <trkpt lat="42.85792" lon="0.26492">
        <ele>1594.6</ele>
        <time>2017-02-22T08:06:53Z</time>
      </trkpt>
      <trkpt lat="42.85792" lon="0.26492">
        <ele>1594.6</ele>
        <time>2017-02-22T08:06:58Z</time>
      </trkpt>
      <trkpt lat="42.85792" lon="0.26492">
        <ele>1594.4</ele>
        <time>2017-02-22T08:07:03Z</time>
      </trkpt>
      <trkpt lat="42.85792" lon="0.26492">
        <ele>1594.4</ele>
        <time>2017-02-22T08:07:08Z</time>
      </trkpt>
      <trkpt lat="42.85792" lon="0.26492">
        <ele>1594.4</ele>
        <time>2017-02-22T08:07:13Z</time>
      </trkpt>
      <trkpt lat="42.85792" lon="0.26492">
        <ele>1594.6</ele>
        <time>2017-02-22T08:07:18Z</time>
      </trkpt>
      <trkpt lat="42.85792" lon="0.26492">
        <ele>1594.6</ele>
        <time>2017-02-22T08:07:23Z</time>
      </trkpt>
      <trkpt lat="42.85792" lon="0.26493">
        <ele>1595</ele>
        <time>2017-02-22T08:07:28Z</time>
      </trkpt>
      <trkpt lat="42.85792" lon="0.26493">
        <ele>1595</ele>
        <time>2017-02-22T08:07:33Z</time>
      </trkpt>
      <trkpt lat="42.85792" lon="0.26493">
        <ele>1595.2</ele>
        <time>2017-02-22T08:07:38Z</time>
      </trkpt>
      <trkpt lat="42.85791" lon="0.26493">
        <ele>1595.4</ele>
        <time>2017-02-22T08:07:43Z</time>
      </trkpt>
      <trkpt lat="42.85791" lon="0.26493">
        <ele>1594.6</ele>
        <time>2017-02-22T08:07:48Z</time>
      </trkpt>
      <trkpt lat="42.85791" lon="0.26493">
        <ele>1595.2</ele>
        <time>2017-02-22T08:07:53Z</time>
      </trkpt>
      <trkpt lat="42.85791" lon="0.26493">
        <ele>1595.4</ele>
        <time>2017-02-22T08:07:58Z</time>
      </trkpt>
      <trkpt lat="42.85791" lon="0.26493">
        <ele>1595.6</ele>
        <time>2017-02-22T08:08:03Z</time>
      </trkpt>
      <trkpt lat="42.85791" lon="0.26492">
        <ele>1595.8</ele>
        <time>2017-02-22T08:08:08Z</time>
      </trkpt>
      <trkpt lat="42.85791" lon="0.26492">
        <ele>1595.8</ele>
        <time>2017-02-22T08:08:13Z</time>
      </trkpt>
      <trkpt lat="42.85791" lon="0.26492">
        <ele>1595.8</ele>
        <time>2017-02-22T08:08:18Z</time>
      </trkpt>
      <trkpt lat="42.85791" lon="0.26492">
        <ele>1596</ele>
        <time>2017-02-22T08:08:23Z</time>
      </trkpt>
      <trkpt lat="42.85791" lon="0.26492">
        <ele>1597.8</ele>
        <time>2017-02-22T08:08:28Z</time>
      </trkpt>
      <trkpt lat="42.85791" lon="0.26492">
        <ele>1597.4</ele>
        <time>2017-02-22T08:08:33Z</time>
      </trkpt>
      <trkpt lat="42.85791" lon="0.26492">
        <ele>1597.2</ele>
        <time>2017-02-22T08:08:38Z</time>
      </trkpt>
      <trkpt lat="42.85791" lon="0.26492">
        <ele>1596.6</ele>
        <time>2017-02-22T08:08:43Z</time>
      </trkpt>
      <trkpt lat="42.85791" lon="0.26492">
        <ele>1596.2</ele>
        <time>2017-02-22T08:08:48Z</time>
      </trkpt>
      <trkpt lat="42.85791" lon="0.2649">
        <ele>1595.2</ele>
        <time>2017-02-22T08:08:53Z</time>
      </trkpt>
      <trkpt lat="42.85792" lon="0.26486">
        <ele>1595.8</ele>
        <time>2017-02-22T08:08:58Z</time>
      </trkpt>
      <trkpt lat="42.85793" lon="0.26483">
        <ele>1596</ele>
        <time>2017-02-22T08:09:03Z</time>
      </trkpt>
      <trkpt lat="42.85794" lon="0.26479">
        <ele>1597.8</ele>
        <time>2017-02-22T08:09:08Z</time>
      </trkpt>
      <trkpt lat="42.85794" lon="0.26476">
        <ele>1599.4</ele>
        <time>2017-02-22T08:09:13Z</time>
      </trkpt>
      <trkpt lat="42.85795" lon="0.26472">
        <ele>1597.2</ele>
        <time>2017-02-22T08:09:18Z</time>
      </trkpt>
      <trkpt lat="42.85796" lon="0.26469">
        <ele>1603.6</ele>
        <time>2017-02-22T08:09:23Z</time>
      </trkpt>
      <trkpt lat="42.85797" lon="0.26466">
        <ele>1602.8</ele>
        <time>2017-02-22T08:09:28Z</time>
      </trkpt>
      <trkpt lat="42.85798" lon="0.26465">
        <ele>1605.8</ele>
        <time>2017-02-22T08:09:33Z</time>
      </trkpt>
      <trkpt lat="42.85799" lon="0.26464">
        <ele>1605.8</ele>
        <time>2017-02-22T08:09:38Z</time>
      </trkpt>
      <trkpt lat="42.858" lon="0.26461">
        <ele>1607.4</ele>
        <time>2017-02-22T08:09:43Z</time>
      </trkpt>
      <trkpt lat="42.85801" lon="0.26457">
        <ele>1606.4</ele>
        <time>2017-02-22T08:09:48Z</time>
      </trkpt>
      <trkpt lat="42.85802" lon="0.26453">
        <ele>1607.4</ele>
        <time>2017-02-22T08:09:53Z</time>
      </trkpt>
      <trkpt lat="42.85803" lon="0.26449">
        <ele>1608</ele>
        <time>2017-02-22T08:09:58Z</time>
      </trkpt>
      <trkpt lat="42.85804" lon="0.26446">
        <ele>1605.6</ele>
        <time>2017-02-22T08:10:03Z</time>
      </trkpt>
      <trkpt lat="42.85805" lon="0.26442">
        <ele>1609.2</ele>
        <time>2017-02-22T08:10:08Z</time>
      </trkpt>
      <trkpt lat="42.85806" lon="0.26439">
        <ele>1607.2</ele>
        <time>2017-02-22T08:10:13Z</time>
      </trkpt>
      <trkpt lat="42.85806" lon="0.26435">
        <ele>1608.6</ele>
        <time>2017-02-22T08:10:18Z</time>
      </trkpt>
      <trkpt lat="42.85807" lon="0.26432">
        <ele>1607.8</ele>
        <time>2017-02-22T08:10:23Z</time>
      </trkpt>
      <trkpt lat="42.85807" lon="0.26431">
        <ele>1608.2</ele>
        <time>2017-02-22T08:10:28Z</time>
      </trkpt>
      <trkpt lat="42.85807" lon="0.26431">
        <ele>1608.4</ele>
        <time>2017-02-22T08:10:33Z</time>
      </trkpt>
      <trkpt lat="42.85808" lon="0.2643">
        <ele>1610.4</ele>
        <time>2017-02-22T08:10:38Z</time>
      </trkpt>
      <trkpt lat="42.85809" lon="0.26427">
        <ele>1610.2</ele>
        <time>2017-02-22T08:10:43Z</time>
      </trkpt>
      <trkpt lat="42.8581" lon="0.26422">
        <ele>1611.2</ele>
        <time>2017-02-22T08:10:48Z</time>
      </trkpt>
      <trkpt lat="42.85811" lon="0.26419">
        <ele>1611.2</ele>
        <time>2017-02-22T08:10:53Z</time>
      </trkpt>
      <trkpt lat="42.85812" lon="0.26416">
        <ele>1613.6</ele>
        <time>2017-02-22T08:10:58Z</time>
      </trkpt>
      <trkpt lat="42.85813" lon="0.26413">
        <ele>1614.6</ele>
        <time>2017-02-22T08:11:03Z</time>
      </trkpt>
      <trkpt lat="42.85815" lon="0.2641">
        <ele>1614</ele>
        <time>2017-02-22T08:11:08Z</time>
      </trkpt>
      <trkpt lat="42.85816" lon="0.26408">
        <ele>1616</ele>
        <time>2017-02-22T08:11:13Z</time>
      </trkpt>
      <trkpt lat="42.85818" lon="0.26405">
        <ele>1619</ele>
        <time>2017-02-22T08:11:18Z</time>
      </trkpt>
      <trkpt lat="42.85819" lon="0.26402">
        <ele>1615.2</ele>
        <time>2017-02-22T08:11:23Z</time>
      </trkpt>
      <trkpt lat="42.85821" lon="0.26401">
        <ele>1620.8</ele>
        <time>2017-02-22T08:11:28Z</time>
      </trkpt>
      <trkpt lat="42.85822" lon="0.26398">
        <ele>1617.2</ele>
        <time>2017-02-22T08:11:33Z</time>
      </trkpt>
      <trkpt lat="42.85823" lon="0.26394">
        <ele>1619.4</ele>
        <time>2017-02-22T08:11:38Z</time>
      </trkpt>
      <trkpt lat="42.85825" lon="0.26392">
        <ele>1622.8</ele>
        <time>2017-02-22T08:11:43Z</time>
      </trkpt>
      <trkpt lat="42.85827" lon="0.2639">
        <ele>1620</ele>
        <time>2017-02-22T08:11:48Z</time>
      </trkpt>
      <trkpt lat="42.85828" lon="0.26388">
        <ele>1622.6</ele>
        <time>2017-02-22T08:11:53Z</time>
      </trkpt>
      <trkpt lat="42.85829" lon="0.26386">
        <ele>1619.6</ele>
        <time>2017-02-22T08:11:58Z</time>
      </trkpt>
      <trkpt lat="42.8583" lon="0.26383">
        <ele>1623</ele>
        <time>2017-02-22T08:12:03Z</time>
      </trkpt>
      <trkpt lat="42.85832" lon="0.26382">
        <ele>1624.8</ele>
        <time>2017-02-22T08:12:08Z</time>
      </trkpt>
      <trkpt lat="42.85834" lon="0.26379">
        <ele>1623.8</ele>
        <time>2017-02-22T08:12:13Z</time>
      </trkpt>
      <trkpt lat="42.85835" lon="0.26377">
        <ele>1623</ele>
        <time>2017-02-22T08:12:18Z</time>
      </trkpt>
      <trkpt lat="42.85836" lon="0.26375">
        <ele>1627.2</ele>
        <time>2017-02-22T08:12:23Z</time>
      </trkpt>
      <trkpt lat="42.85837" lon="0.26373">
        <ele>1628.6</ele>
        <time>2017-02-22T08:12:28Z</time>
      </trkpt>
      <trkpt lat="42.85839" lon="0.2637">
        <ele>1633.2</ele>
        <time>2017-02-22T08:12:33Z</time>
      </trkpt>
      <trkpt lat="42.8584" lon="0.26367">
        <ele>1629.6</ele>
        <time>2017-02-22T08:12:38Z</time>
      </trkpt>
      <trkpt lat="42.85842" lon="0.26364">
        <ele>1633.2</ele>
        <time>2017-02-22T08:12:43Z</time>
      </trkpt>
      <trkpt lat="42.85842" lon="0.26362">
        <ele>1631.8</ele>
        <time>2017-02-22T08:12:48Z</time>
      </trkpt>
      <trkpt lat="42.85844" lon="0.26359">
        <ele>1631.2</ele>
        <time>2017-02-22T08:12:53Z</time>
      </trkpt>
      <trkpt lat="42.85846" lon="0.26356">
        <ele>1634.6</ele>
        <time>2017-02-22T08:12:58Z</time>
      </trkpt>
      <trkpt lat="42.85848" lon="0.26353">
        <ele>1633.4</ele>
        <time>2017-02-22T08:13:03Z</time>
      </trkpt>
      <trkpt lat="42.85849" lon="0.2635">
        <ele>1634.6</ele>
        <time>2017-02-22T08:13:08Z</time>
      </trkpt>
      <trkpt lat="42.85851" lon="0.26349">
        <ele>1634</ele>
        <time>2017-02-22T08:13:13Z</time>
      </trkpt>
      <trkpt lat="42.85853" lon="0.2635">
        <ele>1635.4</ele>
        <time>2017-02-22T08:13:18Z</time>
      </trkpt>
      <trkpt lat="42.85856" lon="0.26351">
        <ele>1640</ele>
        <time>2017-02-22T08:13:23Z</time>
      </trkpt>
      <trkpt lat="42.85857" lon="0.2635">
        <ele>1638.6</ele>
        <time>2017-02-22T08:13:28Z</time>
      </trkpt>
      <trkpt lat="42.85858" lon="0.26348">
        <ele>1637.8</ele>
        <time>2017-02-22T08:13:34Z</time>
      </trkpt>
      <trkpt lat="42.85859" lon="0.26348">
        <ele>1636.4</ele>
        <time>2017-02-22T08:13:39Z</time>
      </trkpt>
      <trkpt lat="42.85859" lon="0.26349">
        <ele>1636.2</ele>
        <time>2017-02-22T08:13:44Z</time>
      </trkpt>
      <trkpt lat="42.85861" lon="0.26349">
        <ele>1634</ele>
        <time>2017-02-22T08:13:49Z</time>
      </trkpt>
      <trkpt lat="42.85863" lon="0.26351">
        <ele>1637.4</ele>
        <time>2017-02-22T08:13:54Z</time>
      </trkpt>
      <trkpt lat="42.85865" lon="0.26349">
        <ele>1638.4</ele>
        <time>2017-02-22T08:13:59Z</time>
      </trkpt>
      <trkpt lat="42.85864" lon="0.26348">
        <ele>1637.8</ele>
        <time>2017-02-22T08:14:04Z</time>
      </trkpt>
      <trkpt lat="42.85866" lon="0.26348">
        <ele>1640.2</ele>
        <time>2017-02-22T08:14:09Z</time>
      </trkpt>
      <trkpt lat="42.85868" lon="0.26349">
        <ele>1639.8</ele>
        <time>2017-02-22T08:14:14Z</time>
      </trkpt>
      <trkpt lat="42.8587" lon="0.26351">
        <ele>1641.6</ele>
        <time>2017-02-22T08:14:19Z</time>
      </trkpt>
      <trkpt lat="42.85872" lon="0.26348">
        <ele>1643.2</ele>
        <time>2017-02-22T08:14:24Z</time>
      </trkpt>
      <trkpt lat="42.85873" lon="0.26345">
        <ele>1645.6</ele>
        <time>2017-02-22T08:14:29Z</time>
      </trkpt>
      <trkpt lat="42.85875" lon="0.26342">
        <ele>1645.6</ele>
        <time>2017-02-22T08:14:34Z</time>
      </trkpt>
      <trkpt lat="42.85877" lon="0.26339">
        <ele>1646.2</ele>
        <time>2017-02-22T08:14:39Z</time>
      </trkpt>
      <trkpt lat="42.85879" lon="0.26337">
        <ele>1645</ele>
        <time>2017-02-22T08:14:44Z</time>
      </trkpt>
      <trkpt lat="42.85879" lon="0.26337">
        <ele>1645.4</ele>
        <time>2017-02-22T08:14:49Z</time>
      </trkpt>
      <trkpt lat="42.85879" lon="0.26337">
        <ele>1645.6</ele>
        <time>2017-02-22T08:14:54Z</time>
      </trkpt>
      <trkpt lat="42.85879" lon="0.26337">
        <ele>1645.8</ele>
        <time>2017-02-22T08:14:59Z</time>
      </trkpt>
      <trkpt lat="42.85879" lon="0.26337">
        <ele>1646</ele>
        <time>2017-02-22T08:15:04Z</time>
      </trkpt>
      <trkpt lat="42.85879" lon="0.26337">
        <ele>1646</ele>
        <time>2017-02-22T08:15:09Z</time>
      </trkpt>
      <trkpt lat="42.85879" lon="0.26337">
        <ele>1646.2</ele>
        <time>2017-02-22T08:15:14Z</time>
      </trkpt>
      <trkpt lat="42.85879" lon="0.26336">
        <ele>1647.6</ele>
        <time>2017-02-22T08:15:19Z</time>
      </trkpt>
      <trkpt lat="42.85879" lon="0.26336">
        <ele>1647.8</ele>
        <time>2017-02-22T08:15:24Z</time>
      </trkpt>
      <trkpt lat="42.85879" lon="0.26336">
        <ele>1647.4</ele>
        <time>2017-02-22T08:15:29Z</time>
      </trkpt>
      <trkpt lat="42.85879" lon="0.26336">
        <ele>1647</ele>
        <time>2017-02-22T08:15:34Z</time>
      </trkpt>
      <trkpt lat="42.85879" lon="0.26336">
        <ele>1646.6</ele>
        <time>2017-02-22T08:15:39Z</time>
      </trkpt>
      <trkpt lat="42.85879" lon="0.26336">
        <ele>1646.6</ele>
        <time>2017-02-22T08:15:44Z</time>
      </trkpt>
      <trkpt lat="42.85879" lon="0.26336">
        <ele>1646.4</ele>
        <time>2017-02-22T08:15:49Z</time>
      </trkpt>
      <trkpt lat="42.85879" lon="0.26336">
        <ele>1646.2</ele>
        <time>2017-02-22T08:15:54Z</time>
      </trkpt>
      <trkpt lat="42.85879" lon="0.26336">
        <ele>1646.2</ele>
        <time>2017-02-22T08:15:59Z</time>
      </trkpt>
      <trkpt lat="42.85879" lon="0.26336">
        <ele>1646</ele>
        <time>2017-02-22T08:16:04Z</time>
      </trkpt>
      <trkpt lat="42.85879" lon="0.26336">
        <ele>1646</ele>
        <time>2017-02-22T08:16:09Z</time>
      </trkpt>
      <trkpt lat="42.85879" lon="0.26336">
        <ele>1645.8</ele>
        <time>2017-02-22T08:16:14Z</time>
      </trkpt>
      <trkpt lat="42.85879" lon="0.26336">
        <ele>1645.8</ele>
        <time>2017-02-22T08:16:19Z</time>
      </trkpt>
      <trkpt lat="42.85879" lon="0.26336">
        <ele>1645.8</ele>
        <time>2017-02-22T08:16:24Z</time>
      </trkpt>
      <trkpt lat="42.85879" lon="0.26336">
        <ele>1645.8</ele>
        <time>2017-02-22T08:16:29Z</time>
      </trkpt>
      <trkpt lat="42.85879" lon="0.26336">
        <ele>1645.8</ele>
        <time>2017-02-22T08:16:34Z</time>
      </trkpt>
      <trkpt lat="42.85879" lon="0.26336">
        <ele>1645.8</ele>
        <time>2017-02-22T08:16:39Z</time>
      </trkpt>
      <trkpt lat="42.85879" lon="0.26336">
        <ele>1645.8</ele>
        <time>2017-02-22T08:16:44Z</time>
      </trkpt>
      <trkpt lat="42.85879" lon="0.26336">
        <ele>1645.6</ele>
        <time>2017-02-22T08:16:49Z</time>
      </trkpt>
      <trkpt lat="42.85879" lon="0.26336">
        <ele>1645.6</ele>
        <time>2017-02-22T08:16:54Z</time>
      </trkpt>
      <trkpt lat="42.85879" lon="0.26336">
        <ele>1645.6</ele>
        <time>2017-02-22T08:16:59Z</time>
      </trkpt>
      <trkpt lat="42.8588" lon="0.26335">
        <ele>1648.6</ele>
        <time>2017-02-22T08:17:04Z</time>
      </trkpt>
      <trkpt lat="42.85882" lon="0.26332">
        <ele>1645.2</ele>
        <time>2017-02-22T08:17:09Z</time>
      </trkpt>
      <trkpt lat="42.85884" lon="0.2633">
        <ele>1647</ele>
        <time>2017-02-22T08:17:14Z</time>
      </trkpt>
      <trkpt lat="42.85886" lon="0.26328">
        <ele>1648.2</ele>
        <time>2017-02-22T08:17:19Z</time>
      </trkpt>
      <trkpt lat="42.85888" lon="0.26325">
        <ele>1647.8</ele>
        <time>2017-02-22T08:17:24Z</time>
      </trkpt>
      <trkpt lat="42.8589" lon="0.26323">
        <ele>1649.4</ele>
        <time>2017-02-22T08:17:29Z</time>
      </trkpt>
      <trkpt lat="42.85892" lon="0.2632">
        <ele>1650.8</ele>
        <time>2017-02-22T08:17:34Z</time>
      </trkpt>
      <trkpt lat="42.85893" lon="0.26317">
        <ele>1651.6</ele>
        <time>2017-02-22T08:17:39Z</time>
      </trkpt>
      <trkpt lat="42.85895" lon="0.26315">
        <ele>1651.2</ele>
        <time>2017-02-22T08:17:44Z</time>
      </trkpt>
      <trkpt lat="42.85898" lon="0.26312">
        <ele>1649.4</ele>
        <time>2017-02-22T08:17:49Z</time>
      </trkpt>
      <trkpt lat="42.859" lon="0.26311">
        <ele>1652</ele>
        <time>2017-02-22T08:17:54Z</time>
      </trkpt>
      <trkpt lat="42.85903" lon="0.26309">
        <ele>1650.4</ele>
        <time>2017-02-22T08:17:59Z</time>
      </trkpt>
      <trkpt lat="42.85905" lon="0.26306">
        <ele>1651</ele>
        <time>2017-02-22T08:18:04Z</time>
      </trkpt>
      <trkpt lat="42.85907" lon="0.26304">
        <ele>1654.4</ele>
        <time>2017-02-22T08:18:09Z</time>
      </trkpt>
      <trkpt lat="42.8591" lon="0.26301">
        <ele>1655.6</ele>
        <time>2017-02-22T08:18:14Z</time>
      </trkpt>
      <trkpt lat="42.85913" lon="0.26299">
        <ele>1656.8</ele>
        <time>2017-02-22T08:18:19Z</time>
      </trkpt>
      <trkpt lat="42.85915" lon="0.26296">
        <ele>1657.6</ele>
        <time>2017-02-22T08:18:24Z</time>
      </trkpt>
      <trkpt lat="42.85918" lon="0.26293">
        <ele>1657.2</ele>
        <time>2017-02-22T08:18:29Z</time>
      </trkpt>
      <trkpt lat="42.85921" lon="0.26291">
        <ele>1655.2</ele>
        <time>2017-02-22T08:18:34Z</time>
      </trkpt>
      <trkpt lat="42.85924" lon="0.26288">
        <ele>1659.8</ele>
        <time>2017-02-22T08:18:39Z</time>
      </trkpt>
      <trkpt lat="42.85926" lon="0.26284">
        <ele>1658.2</ele>
        <time>2017-02-22T08:18:44Z</time>
      </trkpt>
      <trkpt lat="42.85929" lon="0.26281">
        <ele>1658</ele>
        <time>2017-02-22T08:18:49Z</time>
      </trkpt>
      <trkpt lat="42.85931" lon="0.26278">
        <ele>1654.2</ele>
        <time>2017-02-22T08:18:54Z</time>
      </trkpt>
      <trkpt lat="42.85934" lon="0.26275">
        <ele>1657.6</ele>
        <time>2017-02-22T08:18:59Z</time>
      </trkpt>
      <trkpt lat="42.85936" lon="0.26272">
        <ele>1658</ele>
        <time>2017-02-22T08:19:04Z</time>
      </trkpt>
      <trkpt lat="42.85937" lon="0.26268">
        <ele>1660.2</ele>
        <time>2017-02-22T08:19:09Z</time>
      </trkpt>
      <trkpt lat="42.85939" lon="0.26265">
        <ele>1658.4</ele>
        <time>2017-02-22T08:19:14Z</time>
      </trkpt>
      <trkpt lat="42.85942" lon="0.26262">
        <ele>1660.4</ele>
        <time>2017-02-22T08:19:19Z</time>
      </trkpt>
      <trkpt lat="42.85945" lon="0.26258">
        <ele>1661.4</ele>
        <time>2017-02-22T08:19:24Z</time>
      </trkpt>
      <trkpt lat="42.85947" lon="0.26254">
        <ele>1660</ele>
        <time>2017-02-22T08:19:29Z</time>
      </trkpt>
      <trkpt lat="42.85949" lon="0.26251">
        <ele>1661.2</ele>
        <time>2017-02-22T08:19:34Z</time>
      </trkpt>
      <trkpt lat="42.85952" lon="0.26247">
        <ele>1661.2</ele>
        <time>2017-02-22T08:19:39Z</time>
      </trkpt>
      <trkpt lat="42.85951" lon="0.26249">
        <ele>1660.4</ele>
        <time>2017-02-22T08:19:44Z</time>
      </trkpt>
      <trkpt lat="42.85952" lon="0.26248">
        <ele>1660.6</ele>
        <time>2017-02-22T08:19:49Z</time>
      </trkpt>
      <trkpt lat="42.85954" lon="0.26244">
        <ele>1661.6</ele>
        <time>2017-02-22T08:19:54Z</time>
      </trkpt>
      <trkpt lat="42.85957" lon="0.2624">
        <ele>1662</ele>
        <time>2017-02-22T08:19:59Z</time>
      </trkpt>
      <trkpt lat="42.8596" lon="0.26236">
        <ele>1661</ele>
        <time>2017-02-22T08:20:04Z</time>
      </trkpt>
      <trkpt lat="42.85962" lon="0.26233">
        <ele>1662.8</ele>
        <time>2017-02-22T08:20:09Z</time>
      </trkpt>
      <trkpt lat="42.85964" lon="0.26231">
        <ele>1660.6</ele>
        <time>2017-02-22T08:20:14Z</time>
      </trkpt>
      <trkpt lat="42.85964" lon="0.26231">
        <ele>1661.4</ele>
        <time>2017-02-22T08:20:19Z</time>
      </trkpt>
      <trkpt lat="42.85964" lon="0.26231">
        <ele>1661.8</ele>
        <time>2017-02-22T08:20:24Z</time>
      </trkpt>
      <trkpt lat="42.85965" lon="0.26229">
        <ele>1660.8</ele>
        <time>2017-02-22T08:20:29Z</time>
      </trkpt>
      <trkpt lat="42.85968" lon="0.26226">
        <ele>1665</ele>
        <time>2017-02-22T08:20:34Z</time>
      </trkpt>
      <trkpt lat="42.85971" lon="0.26223">
        <ele>1665.2</ele>
        <time>2017-02-22T08:20:39Z</time>
      </trkpt>
      <trkpt lat="42.85974" lon="0.26218">
        <ele>1664.8</ele>
        <time>2017-02-22T08:20:44Z</time>
      </trkpt>
      <trkpt lat="42.85977" lon="0.26214">
        <ele>1665.2</ele>
        <time>2017-02-22T08:20:49Z</time>
      </trkpt>
      <trkpt lat="42.85981" lon="0.26211">
        <ele>1667</ele>
        <time>2017-02-22T08:20:54Z</time>
      </trkpt>
      <trkpt lat="42.85984" lon="0.26208">
        <ele>1666</ele>
        <time>2017-02-22T08:20:59Z</time>
      </trkpt>
      <trkpt lat="42.85987" lon="0.26204">
        <ele>1668.2</ele>
        <time>2017-02-22T08:21:04Z</time>
      </trkpt>
      <trkpt lat="42.8599" lon="0.26202">
        <ele>1667.4</ele>
        <time>2017-02-22T08:21:09Z</time>
      </trkpt>
      <trkpt lat="42.85991" lon="0.26202">
        <ele>1667</ele>
        <time>2017-02-22T08:21:14Z</time>
      </trkpt>
      <trkpt lat="42.85991" lon="0.26202">
        <ele>1667.2</ele>
        <time>2017-02-22T08:21:19Z</time>
      </trkpt>
      <trkpt lat="42.85991" lon="0.26201">
        <ele>1665.8</ele>
        <time>2017-02-22T08:21:24Z</time>
      </trkpt>
      <trkpt lat="42.85994" lon="0.26199">
        <ele>1667.8</ele>
        <time>2017-02-22T08:21:29Z</time>
      </trkpt>
      <trkpt lat="42.85998" lon="0.26197">
        <ele>1669</ele>
        <time>2017-02-22T08:21:34Z</time>
      </trkpt>
      <trkpt lat="42.86002" lon="0.26195">
        <ele>1668.2</ele>
        <time>2017-02-22T08:21:39Z</time>
      </trkpt>
      <trkpt lat="42.86006" lon="0.26195">
        <ele>1668.8</ele>
        <time>2017-02-22T08:21:44Z</time>
      </trkpt>
      <trkpt lat="42.86008" lon="0.26199">
        <ele>1671.8</ele>
        <time>2017-02-22T08:21:49Z</time>
      </trkpt>
      <trkpt lat="42.86009" lon="0.26202">
        <ele>1671</ele>
        <time>2017-02-22T08:21:54Z</time>
      </trkpt>
      <trkpt lat="42.8601" lon="0.26206">
        <ele>1673.4</ele>
        <time>2017-02-22T08:21:59Z</time>
      </trkpt>
      <trkpt lat="42.86011" lon="0.2621">
        <ele>1674.6</ele>
        <time>2017-02-22T08:22:04Z</time>
      </trkpt>
      <trkpt lat="42.86012" lon="0.26214">
        <ele>1675</ele>
        <time>2017-02-22T08:22:09Z</time>
      </trkpt>
      <trkpt lat="42.86012" lon="0.26219">
        <ele>1676.4</ele>
        <time>2017-02-22T08:22:14Z</time>
      </trkpt>
      <trkpt lat="42.86012" lon="0.26223">
        <ele>1676.2</ele>
        <time>2017-02-22T08:22:19Z</time>
      </trkpt>
      <trkpt lat="42.86012" lon="0.26226">
        <ele>1678.8</ele>
        <time>2017-02-22T08:22:24Z</time>
      </trkpt>
      <trkpt lat="42.86012" lon="0.26229">
        <ele>1677.6</ele>
        <time>2017-02-22T08:22:29Z</time>
      </trkpt>
      <trkpt lat="42.86012" lon="0.26232">
        <ele>1679.8</ele>
        <time>2017-02-22T08:22:34Z</time>
      </trkpt>
      <trkpt lat="42.86012" lon="0.26234">
        <ele>1682.8</ele>
        <time>2017-02-22T08:22:39Z</time>
      </trkpt>
      <trkpt lat="42.86013" lon="0.26236">
        <ele>1681.8</ele>
        <time>2017-02-22T08:22:44Z</time>
      </trkpt>
      <trkpt lat="42.86013" lon="0.2624">
        <ele>1679.2</ele>
        <time>2017-02-22T08:22:49Z</time>
      </trkpt>
      <trkpt lat="42.86014" lon="0.26244">
        <ele>1680</ele>
        <time>2017-02-22T08:22:54Z</time>
      </trkpt>
      <trkpt lat="42.86014" lon="0.26247">
        <ele>1681.4</ele>
        <time>2017-02-22T08:22:59Z</time>
      </trkpt>
      <trkpt lat="42.86016" lon="0.26248">
        <ele>1680.6</ele>
        <time>2017-02-22T08:23:04Z</time>
      </trkpt>
      <trkpt lat="42.86017" lon="0.26247">
        <ele>1680.6</ele>
        <time>2017-02-22T08:23:09Z</time>
      </trkpt>
      <trkpt lat="42.86018" lon="0.26245">
        <ele>1680.2</ele>
        <time>2017-02-22T08:23:14Z</time>
      </trkpt>
      <trkpt lat="42.8602" lon="0.26242">
        <ele>1683.2</ele>
        <time>2017-02-22T08:23:19Z</time>
      </trkpt>
      <trkpt lat="42.86023" lon="0.26239">
        <ele>1682.6</ele>
        <time>2017-02-22T08:23:24Z</time>
      </trkpt>
      <trkpt lat="42.86025" lon="0.26237">
        <ele>1685.4</ele>
        <time>2017-02-22T08:23:29Z</time>
      </trkpt>
      <trkpt lat="42.86027" lon="0.26234">
        <ele>1683.2</ele>
        <time>2017-02-22T08:23:34Z</time>
      </trkpt>
      <trkpt lat="42.86029" lon="0.26232">
        <ele>1685.2</ele>
        <time>2017-02-22T08:23:39Z</time>
      </trkpt>
      <trkpt lat="42.86032" lon="0.2623">
        <ele>1685.4</ele>
        <time>2017-02-22T08:23:44Z</time>
      </trkpt>
      <trkpt lat="42.86034" lon="0.26228">
        <ele>1686</ele>
        <time>2017-02-22T08:23:49Z</time>
      </trkpt>
      <trkpt lat="42.86036" lon="0.26225">
        <ele>1687.4</ele>
        <time>2017-02-22T08:23:54Z</time>
      </trkpt>
      <trkpt lat="42.86038" lon="0.26223">
        <ele>1685.8</ele>
        <time>2017-02-22T08:23:59Z</time>
      </trkpt>
      <trkpt lat="42.86041" lon="0.26221">
        <ele>1688</ele>
        <time>2017-02-22T08:24:04Z</time>
      </trkpt>
      <trkpt lat="42.86043" lon="0.26219">
        <ele>1686.2</ele>
        <time>2017-02-22T08:24:09Z</time>
      </trkpt>
      <trkpt lat="42.86045" lon="0.26217">
        <ele>1687.4</ele>
        <time>2017-02-22T08:24:14Z</time>
      </trkpt>
      <trkpt lat="42.86047" lon="0.26214">
        <ele>1687</ele>
        <time>2017-02-22T08:24:19Z</time>
      </trkpt>
      <trkpt lat="42.8605" lon="0.26213">
        <ele>1690.6</ele>
        <time>2017-02-22T08:24:24Z</time>
      </trkpt>
      <trkpt lat="42.86052" lon="0.26211">
        <ele>1688.6</ele>
        <time>2017-02-22T08:24:29Z</time>
      </trkpt>
      <trkpt lat="42.86055" lon="0.2621">
        <ele>1691</ele>
        <time>2017-02-22T08:24:34Z</time>
      </trkpt>
      <trkpt lat="42.86058" lon="0.2621">
        <ele>1692</ele>
        <time>2017-02-22T08:24:40Z</time>
      </trkpt>
      <trkpt lat="42.86061" lon="0.26209">
        <ele>1689.8</ele>
        <time>2017-02-22T08:24:45Z</time>
      </trkpt>
      <trkpt lat="42.86064" lon="0.26208">
        <ele>1692.2</ele>
        <time>2017-02-22T08:24:50Z</time>
      </trkpt>
      <trkpt lat="42.86066" lon="0.26206">
        <ele>1693.6</ele>
        <time>2017-02-22T08:24:55Z</time>
      </trkpt>
      <trkpt lat="42.86069" lon="0.26205">
        <ele>1693.2</ele>
        <time>2017-02-22T08:25:00Z</time>
      </trkpt>
      <trkpt lat="42.86072" lon="0.26204">
        <ele>1694.8</ele>
        <time>2017-02-22T08:25:05Z</time>
      </trkpt>
      <trkpt lat="42.86075" lon="0.26203">
        <ele>1695</ele>
        <time>2017-02-22T08:25:10Z</time>
      </trkpt>
      <trkpt lat="42.86077" lon="0.26202">
        <ele>1698</ele>
        <time>2017-02-22T08:25:15Z</time>
      </trkpt>
      <trkpt lat="42.8608" lon="0.26201">
        <ele>1695.8</ele>
        <time>2017-02-22T08:25:20Z</time>
      </trkpt>
      <trkpt lat="42.86082" lon="0.262">
        <ele>1695.2</ele>
        <time>2017-02-22T08:25:25Z</time>
      </trkpt>
      <trkpt lat="42.86084" lon="0.26199">
        <ele>1698.2</ele>
        <time>2017-02-22T08:25:30Z</time>
      </trkpt>
      <trkpt lat="42.86086" lon="0.26198">
        <ele>1696.4</ele>
        <time>2017-02-22T08:25:35Z</time>
      </trkpt>
      <trkpt lat="42.86088" lon="0.26197">
        <ele>1697.2</ele>
        <time>2017-02-22T08:25:40Z</time>
      </trkpt>
      <trkpt lat="42.8609" lon="0.26195">
        <ele>1701</ele>
        <time>2017-02-22T08:25:45Z</time>
      </trkpt>
      <trkpt lat="42.86093" lon="0.26194">
        <ele>1696.4</ele>
        <time>2017-02-22T08:25:50Z</time>
      </trkpt>
      <trkpt lat="42.86095" lon="0.26193">
        <ele>1698.8</ele>
        <time>2017-02-22T08:25:55Z</time>
      </trkpt>
      <trkpt lat="42.86097" lon="0.26191">
        <ele>1700</ele>
        <time>2017-02-22T08:26:00Z</time>
      </trkpt>
      <trkpt lat="42.861" lon="0.26189">
        <ele>1701</ele>
        <time>2017-02-22T08:26:05Z</time>
      </trkpt>
      <trkpt lat="42.86102" lon="0.26187">
        <ele>1701.2</ele>
        <time>2017-02-22T08:26:10Z</time>
      </trkpt>
      <trkpt lat="42.86104" lon="0.26184">
        <ele>1702.8</ele>
        <time>2017-02-22T08:26:15Z</time>
      </trkpt>
      <trkpt lat="42.86107" lon="0.26183">
        <ele>1702</ele>
        <time>2017-02-22T08:26:20Z</time>
      </trkpt>
      <trkpt lat="42.86109" lon="0.26181">
        <ele>1703.6</ele>
        <time>2017-02-22T08:26:25Z</time>
      </trkpt>
      <trkpt lat="42.86111" lon="0.2618">
        <ele>1704.2</ele>
        <time>2017-02-22T08:26:30Z</time>
      </trkpt>
      <trkpt lat="42.86111" lon="0.26181">
        <ele>1704.2</ele>
        <time>2017-02-22T08:26:35Z</time>
      </trkpt>
      <trkpt lat="42.86111" lon="0.2618">
        <ele>1704</ele>
        <time>2017-02-22T08:26:40Z</time>
      </trkpt>
      <trkpt lat="42.86111" lon="0.2618">
        <ele>1704</ele>
        <time>2017-02-22T08:26:45Z</time>
      </trkpt>
      <trkpt lat="42.86111" lon="0.2618">
        <ele>1703.8</ele>
        <time>2017-02-22T08:26:50Z</time>
      </trkpt>
      <trkpt lat="42.86114" lon="0.26179">
        <ele>1702.2</ele>
        <time>2017-02-22T08:26:55Z</time>
      </trkpt>
      <trkpt lat="42.86117" lon="0.26177">
        <ele>1703.8</ele>
        <time>2017-02-22T08:27:00Z</time>
      </trkpt>
      <trkpt lat="42.86121" lon="0.26175">
        <ele>1704.4</ele>
        <time>2017-02-22T08:27:05Z</time>
      </trkpt>
      <trkpt lat="42.86123" lon="0.26173">
        <ele>1703.2</ele>
        <time>2017-02-22T08:27:10Z</time>
      </trkpt>
      <trkpt lat="42.86126" lon="0.26171">
        <ele>1711.8</ele>
        <time>2017-02-22T08:27:15Z</time>
      </trkpt>
      <trkpt lat="42.86129" lon="0.26169">
        <ele>1707.4</ele>
        <time>2017-02-22T08:27:20Z</time>
      </trkpt>
      <trkpt lat="42.86132" lon="0.26169">
        <ele>1705.8</ele>
        <time>2017-02-22T08:27:25Z</time>
      </trkpt>
      <trkpt lat="42.86135" lon="0.26169">
        <ele>1710</ele>
        <time>2017-02-22T08:27:30Z</time>
      </trkpt>
      <trkpt lat="42.86138" lon="0.26168">
        <ele>1708.6</ele>
        <time>2017-02-22T08:27:35Z</time>
      </trkpt>
      <trkpt lat="42.86141" lon="0.26168">
        <ele>1712</ele>
        <time>2017-02-22T08:27:40Z</time>
      </trkpt>
      <trkpt lat="42.86143" lon="0.26167">
        <ele>1711.2</ele>
        <time>2017-02-22T08:27:45Z</time>
      </trkpt>
      <trkpt lat="42.86146" lon="0.26167">
        <ele>1714.2</ele>
        <time>2017-02-22T08:27:50Z</time>
      </trkpt>
      <trkpt lat="42.86149" lon="0.26167">
        <ele>1711.8</ele>
        <time>2017-02-22T08:27:55Z</time>
      </trkpt>
      <trkpt lat="42.86151" lon="0.26166">
        <ele>1713.6</ele>
        <time>2017-02-22T08:28:00Z</time>
      </trkpt>
      <trkpt lat="42.86154" lon="0.26166">
        <ele>1713.8</ele>
        <time>2017-02-22T08:28:05Z</time>
      </trkpt>
      <trkpt lat="42.86157" lon="0.26166">
        <ele>1714.4</ele>
        <time>2017-02-22T08:28:10Z</time>
      </trkpt>
      <trkpt lat="42.86159" lon="0.26167">
        <ele>1715.6</ele>
        <time>2017-02-22T08:28:15Z</time>
      </trkpt>
      <trkpt lat="42.86161" lon="0.26165">
        <ele>1717</ele>
        <time>2017-02-22T08:28:20Z</time>
      </trkpt>
      <trkpt lat="42.86163" lon="0.26164">
        <ele>1717.8</ele>
        <time>2017-02-22T08:28:25Z</time>
      </trkpt>
      <trkpt lat="42.86166" lon="0.26164">
        <ele>1718.2</ele>
        <time>2017-02-22T08:28:30Z</time>
      </trkpt>
      <trkpt lat="42.86168" lon="0.26163">
        <ele>1722.2</ele>
        <time>2017-02-22T08:28:35Z</time>
      </trkpt>
      <trkpt lat="42.86171" lon="0.26162">
        <ele>1721</ele>
        <time>2017-02-22T08:28:40Z</time>
      </trkpt>
      <trkpt lat="42.86174" lon="0.26162">
        <ele>1723</ele>
        <time>2017-02-22T08:28:45Z</time>
      </trkpt>
      <trkpt lat="42.86177" lon="0.2616">
        <ele>1725.2</ele>
        <time>2017-02-22T08:28:50Z</time>
      </trkpt>
      <trkpt lat="42.8618" lon="0.26159">
        <ele>1725</ele>
        <time>2017-02-22T08:28:55Z</time>
      </trkpt>
      <trkpt lat="42.86184" lon="0.26159">
        <ele>1725.4</ele>
        <time>2017-02-22T08:29:00Z</time>
      </trkpt>
      <trkpt lat="42.86186" lon="0.26157">
        <ele>1722.6</ele>
        <time>2017-02-22T08:29:05Z</time>
      </trkpt>
      <trkpt lat="42.86189" lon="0.26156">
        <ele>1725.2</ele>
        <time>2017-02-22T08:29:10Z</time>
      </trkpt>
      <trkpt lat="42.86192" lon="0.26155">
        <ele>1726.2</ele>
        <time>2017-02-22T08:29:15Z</time>
      </trkpt>
      <trkpt lat="42.86195" lon="0.26154">
        <ele>1727.2</ele>
        <time>2017-02-22T08:29:20Z</time>
      </trkpt>
      <trkpt lat="42.86198" lon="0.26154">
        <ele>1723.4</ele>
        <time>2017-02-22T08:29:25Z</time>
      </trkpt>
      <trkpt lat="42.86201" lon="0.26154">
        <ele>1729</ele>
        <time>2017-02-22T08:29:30Z</time>
      </trkpt>
      <trkpt lat="42.86203" lon="0.26155">
        <ele>1728.8</ele>
        <time>2017-02-22T08:29:35Z</time>
      </trkpt>
      <trkpt lat="42.86206" lon="0.26155">
        <ele>1730.2</ele>
        <time>2017-02-22T08:29:40Z</time>
      </trkpt>
      <trkpt lat="42.86208" lon="0.26153">
        <ele>1730</ele>
        <time>2017-02-22T08:29:45Z</time>
      </trkpt>
      <trkpt lat="42.86209" lon="0.26149">
        <ele>1731.4</ele>
        <time>2017-02-22T08:29:50Z</time>
      </trkpt>
      <trkpt lat="42.86209" lon="0.26145">
        <ele>1728.2</ele>
        <time>2017-02-22T08:29:55Z</time>
      </trkpt>
      <trkpt lat="42.86208" lon="0.26141">
        <ele>1733.4</ele>
        <time>2017-02-22T08:30:00Z</time>
      </trkpt>
      <trkpt lat="42.86209" lon="0.26138">
        <ele>1731.8</ele>
        <time>2017-02-22T08:30:05Z</time>
      </trkpt>
      <trkpt lat="42.86211" lon="0.26135">
        <ele>1734.4</ele>
        <time>2017-02-22T08:30:10Z</time>
      </trkpt>
      <trkpt lat="42.86213" lon="0.26132">
        <ele>1736.8</ele>
        <time>2017-02-22T08:30:15Z</time>
      </trkpt>
      <trkpt lat="42.86215" lon="0.26128">
        <ele>1736</ele>
        <time>2017-02-22T08:30:20Z</time>
      </trkpt>
      <trkpt lat="42.86217" lon="0.26124">
        <ele>1734.4</ele>
        <time>2017-02-22T08:30:25Z</time>
      </trkpt>
      <trkpt lat="42.86219" lon="0.2612">
        <ele>1736.6</ele>
        <time>2017-02-22T08:30:30Z</time>
      </trkpt>
      <trkpt lat="42.86221" lon="0.26116">
        <ele>1736.2</ele>
        <time>2017-02-22T08:30:35Z</time>
      </trkpt>
      <trkpt lat="42.86222" lon="0.26112">
        <ele>1738</ele>
        <time>2017-02-22T08:30:40Z</time>
      </trkpt>
      <trkpt lat="42.86221" lon="0.26109">
        <ele>1738.4</ele>
        <time>2017-02-22T08:30:45Z</time>
      </trkpt>
      <trkpt lat="42.8622" lon="0.26107">
        <ele>1739.6</ele>
        <time>2017-02-22T08:30:50Z</time>
      </trkpt>
      <trkpt lat="42.8622" lon="0.26107">
        <ele>1739.6</ele>
        <time>2017-02-22T08:30:55Z</time>
      </trkpt>
      <trkpt lat="42.8622" lon="0.26107">
        <ele>1739.4</ele>
        <time>2017-02-22T08:31:00Z</time>
      </trkpt>
      <trkpt lat="42.86221" lon="0.26104">
        <ele>1741.8</ele>
        <time>2017-02-22T08:31:06Z</time>
      </trkpt>
      <trkpt lat="42.86222" lon="0.261">
        <ele>1744.4</ele>
        <time>2017-02-22T08:31:11Z</time>
      </trkpt>
      <trkpt lat="42.86224" lon="0.26096">
        <ele>1744.6</ele>
        <time>2017-02-22T08:31:16Z</time>
      </trkpt>
      <trkpt lat="42.86225" lon="0.26092">
        <ele>1743.6</ele>
        <time>2017-02-22T08:31:21Z</time>
      </trkpt>
      <trkpt lat="42.86228" lon="0.26088">
        <ele>1742</ele>
        <time>2017-02-22T08:31:27Z</time>
      </trkpt>
      <trkpt lat="42.8623" lon="0.26085">
        <ele>1744.8</ele>
        <time>2017-02-22T08:31:32Z</time>
      </trkpt>
      <trkpt lat="42.86232" lon="0.26083">
        <ele>1744</ele>
        <time>2017-02-22T08:31:37Z</time>
      </trkpt>
      <trkpt lat="42.86235" lon="0.2608">
        <ele>1745</ele>
        <time>2017-02-22T08:31:42Z</time>
      </trkpt>
      <trkpt lat="42.86237" lon="0.26077">
        <ele>1746</ele>
        <time>2017-02-22T08:31:47Z</time>
      </trkpt>
      <trkpt lat="42.86239" lon="0.26074">
        <ele>1746.6</ele>
        <time>2017-02-22T08:31:52Z</time>
      </trkpt>
      <trkpt lat="42.86241" lon="0.26071">
        <ele>1747.2</ele>
        <time>2017-02-22T08:31:57Z</time>
      </trkpt>
      <trkpt lat="42.86243" lon="0.26068">
        <ele>1749</ele>
        <time>2017-02-22T08:32:02Z</time>
      </trkpt>
      <trkpt lat="42.86245" lon="0.26065">
        <ele>1747.8</ele>
        <time>2017-02-22T08:32:07Z</time>
      </trkpt>
      <trkpt lat="42.86248" lon="0.26063">
        <ele>1751.4</ele>
        <time>2017-02-22T08:32:12Z</time>
      </trkpt>
      <trkpt lat="42.8625" lon="0.26064">
        <ele>1749.8</ele>
        <time>2017-02-22T08:32:17Z</time>
      </trkpt>
      <trkpt lat="42.86253" lon="0.26065">
        <ele>1749.4</ele>
        <time>2017-02-22T08:32:22Z</time>
      </trkpt>
      <trkpt lat="42.86256" lon="0.26065">
        <ele>1749.8</ele>
        <time>2017-02-22T08:32:27Z</time>
      </trkpt>
      <trkpt lat="42.86259" lon="0.26066">
        <ele>1750.8</ele>
        <time>2017-02-22T08:32:32Z</time>
      </trkpt>
      <trkpt lat="42.8626" lon="0.26064">
        <ele>1750.4</ele>
        <time>2017-02-22T08:32:37Z</time>
      </trkpt>
      <trkpt lat="42.8626" lon="0.26063">
        <ele>1751.4</ele>
        <time>2017-02-22T08:32:42Z</time>
      </trkpt>
      <trkpt lat="42.8626" lon="0.26063">
        <ele>1751.6</ele>
        <time>2017-02-22T08:32:47Z</time>
      </trkpt>
      <trkpt lat="42.8626" lon="0.26063">
        <ele>1752</ele>
        <time>2017-02-22T08:32:52Z</time>
      </trkpt>
      <trkpt lat="42.8626" lon="0.26064">
        <ele>1752.2</ele>
        <time>2017-02-22T08:32:57Z</time>
      </trkpt>
      <trkpt lat="42.86259" lon="0.26064">
        <ele>1752.2</ele>
        <time>2017-02-22T08:33:02Z</time>
      </trkpt>
      <trkpt lat="42.86259" lon="0.26064">
        <ele>1752.2</ele>
        <time>2017-02-22T08:33:07Z</time>
      </trkpt>
      <trkpt lat="42.86259" lon="0.26064">
        <ele>1752.4</ele>
        <time>2017-02-22T08:33:12Z</time>
      </trkpt>
      <trkpt lat="42.8626" lon="0.26062">
        <ele>1755.4</ele>
        <time>2017-02-22T08:33:17Z</time>
      </trkpt>
      <trkpt lat="42.86262" lon="0.26058">
        <ele>1754.6</ele>
        <time>2017-02-22T08:33:22Z</time>
      </trkpt>
      <trkpt lat="42.86264" lon="0.26055">
        <ele>1752.6</ele>
        <time>2017-02-22T08:33:27Z</time>
      </trkpt>
      <trkpt lat="42.86265" lon="0.26052">
        <ele>1757</ele>
        <time>2017-02-22T08:33:32Z</time>
      </trkpt>
      <trkpt lat="42.86266" lon="0.26048">
        <ele>1755.4</ele>
        <time>2017-02-22T08:33:37Z</time>
      </trkpt>
      <trkpt lat="42.86267" lon="0.26045">
        <ele>1754.8</ele>
        <time>2017-02-22T08:33:42Z</time>
      </trkpt>
      <trkpt lat="42.86269" lon="0.26041">
        <ele>1757</ele>
        <time>2017-02-22T08:33:47Z</time>
      </trkpt>
      <trkpt lat="42.86272" lon="0.26041">
        <ele>1757.2</ele>
        <time>2017-02-22T08:33:52Z</time>
      </trkpt>
      <trkpt lat="42.86275" lon="0.26041">
        <ele>1757</ele>
        <time>2017-02-22T08:33:57Z</time>
      </trkpt>
      <trkpt lat="42.86278" lon="0.26042">
        <ele>1760.6</ele>
        <time>2017-02-22T08:34:02Z</time>
      </trkpt>
      <trkpt lat="42.86281" lon="0.26042">
        <ele>1758</ele>
        <time>2017-02-22T08:34:07Z</time>
      </trkpt>
      <trkpt lat="42.86284" lon="0.26043">
        <ele>1759.4</ele>
        <time>2017-02-22T08:34:12Z</time>
      </trkpt>
      <trkpt lat="42.86287" lon="0.26043">
        <ele>1763</ele>
        <time>2017-02-22T08:34:17Z</time>
      </trkpt>
      <trkpt lat="42.8629" lon="0.26043">
        <ele>1760.2</ele>
        <time>2017-02-22T08:34:22Z</time>
      </trkpt>
      <trkpt lat="42.86292" lon="0.26043">
        <ele>1762</ele>
        <time>2017-02-22T08:34:27Z</time>
      </trkpt>
      <trkpt lat="42.86295" lon="0.26043">
        <ele>1764.2</ele>
        <time>2017-02-22T08:34:32Z</time>
      </trkpt>
      <trkpt lat="42.86297" lon="0.26043">
        <ele>1764.4</ele>
        <time>2017-02-22T08:34:37Z</time>
      </trkpt>
      <trkpt lat="42.86297" lon="0.26039">
        <ele>1761.4</ele>
        <time>2017-02-22T08:34:42Z</time>
      </trkpt>
      <trkpt lat="42.86298" lon="0.26035">
        <ele>1765.8</ele>
        <time>2017-02-22T08:34:47Z</time>
      </trkpt>
      <trkpt lat="42.86299" lon="0.26032">
        <ele>1767.4</ele>
        <time>2017-02-22T08:34:52Z</time>
      </trkpt>
      <trkpt lat="42.863" lon="0.26029">
        <ele>1769.6</ele>
        <time>2017-02-22T08:34:57Z</time>
      </trkpt>
      <trkpt lat="42.863" lon="0.26025">
        <ele>1769.6</ele>
        <time>2017-02-22T08:35:02Z</time>
      </trkpt>
      <trkpt lat="42.86302" lon="0.26022">
        <ele>1768.2</ele>
        <time>2017-02-22T08:35:07Z</time>
      </trkpt>
      <trkpt lat="42.86304" lon="0.26023">
        <ele>1770.2</ele>
        <time>2017-02-22T08:35:12Z</time>
      </trkpt>
      <trkpt lat="42.86307" lon="0.26025">
        <ele>1769</ele>
        <time>2017-02-22T08:35:17Z</time>
      </trkpt>
      <trkpt lat="42.86309" lon="0.26026">
        <ele>1772.6</ele>
        <time>2017-02-22T08:35:22Z</time>
      </trkpt>
      <trkpt lat="42.86312" lon="0.26028">
        <ele>1773.8</ele>
        <time>2017-02-22T08:35:27Z</time>
      </trkpt>
      <trkpt lat="42.86314" lon="0.26029">
        <ele>1773.6</ele>
        <time>2017-02-22T08:35:32Z</time>
      </trkpt>
      <trkpt lat="42.86317" lon="0.2603">
        <ele>1777.2</ele>
        <time>2017-02-22T08:35:37Z</time>
      </trkpt>
      <trkpt lat="42.86319" lon="0.2603">
        <ele>1775.8</ele>
        <time>2017-02-22T08:35:42Z</time>
      </trkpt>
      <trkpt lat="42.8632" lon="0.26028">
        <ele>1775.8</ele>
        <time>2017-02-22T08:35:47Z</time>
      </trkpt>
      <trkpt lat="42.86321" lon="0.26025">
        <ele>1779.2</ele>
        <time>2017-02-22T08:35:52Z</time>
      </trkpt>
      <trkpt lat="42.86321" lon="0.26021">
        <ele>1777.4</ele>
        <time>2017-02-22T08:35:57Z</time>
      </trkpt>
      <trkpt lat="42.86322" lon="0.26018">
        <ele>1777.4</ele>
        <time>2017-02-22T08:36:02Z</time>
      </trkpt>
      <trkpt lat="42.86323" lon="0.26015">
        <ele>1779.8</ele>
        <time>2017-02-22T08:36:07Z</time>
      </trkpt>
      <trkpt lat="42.86324" lon="0.26012">
        <ele>1782.6</ele>
        <time>2017-02-22T08:36:12Z</time>
      </trkpt>
      <trkpt lat="42.86326" lon="0.26011">
        <ele>1778.6</ele>
        <time>2017-02-22T08:36:17Z</time>
      </trkpt>
      <trkpt lat="42.86328" lon="0.26013">
        <ele>1779.8</ele>
        <time>2017-02-22T08:36:22Z</time>
      </trkpt>
      <trkpt lat="42.8633" lon="0.26015">
        <ele>1782.6</ele>
        <time>2017-02-22T08:36:27Z</time>
      </trkpt>
      <trkpt lat="42.86333" lon="0.26016">
        <ele>1784</ele>
        <time>2017-02-22T08:36:32Z</time>
      </trkpt>
      <trkpt lat="42.86335" lon="0.26019">
        <ele>1783.8</ele>
        <time>2017-02-22T08:36:37Z</time>
      </trkpt>
      <trkpt lat="42.86337" lon="0.2602">
        <ele>1784.6</ele>
        <time>2017-02-22T08:36:42Z</time>
      </trkpt>
      <trkpt lat="42.86339" lon="0.26019">
        <ele>1788.2</ele>
        <time>2017-02-22T08:36:47Z</time>
      </trkpt>
      <trkpt lat="42.8634" lon="0.26015">
        <ele>1786.4</ele>
        <time>2017-02-22T08:36:52Z</time>
      </trkpt>
      <trkpt lat="42.86341" lon="0.26012">
        <ele>1784.8</ele>
        <time>2017-02-22T08:36:57Z</time>
      </trkpt>
      <trkpt lat="42.86342" lon="0.26009">
        <ele>1786.6</ele>
        <time>2017-02-22T08:37:02Z</time>
      </trkpt>
      <trkpt lat="42.86342" lon="0.26005">
        <ele>1788.2</ele>
        <time>2017-02-22T08:37:07Z</time>
      </trkpt>
      <trkpt lat="42.86343" lon="0.26002">
        <ele>1790</ele>
        <time>2017-02-22T08:37:12Z</time>
      </trkpt>
      <trkpt lat="42.86344" lon="0.25998">
        <ele>1788.2</ele>
        <time>2017-02-22T08:37:17Z</time>
      </trkpt>
      <trkpt lat="42.86344" lon="0.25994">
        <ele>1788.8</ele>
        <time>2017-02-22T08:37:22Z</time>
      </trkpt>
      <trkpt lat="42.86344" lon="0.25991">
        <ele>1793.6</ele>
        <time>2017-02-22T08:37:27Z</time>
      </trkpt>
      <trkpt lat="42.86344" lon="0.25987">
        <ele>1792.6</ele>
        <time>2017-02-22T08:37:32Z</time>
      </trkpt>
      <trkpt lat="42.86344" lon="0.25984">
        <ele>1792</ele>
        <time>2017-02-22T08:37:37Z</time>
      </trkpt>
      <trkpt lat="42.86345" lon="0.25981">
        <ele>1793</ele>
        <time>2017-02-22T08:37:42Z</time>
      </trkpt>
      <trkpt lat="42.86346" lon="0.25978">
        <ele>1793</ele>
        <time>2017-02-22T08:37:47Z</time>
      </trkpt>
      <trkpt lat="42.86346" lon="0.25975">
        <ele>1792.8</ele>
        <time>2017-02-22T08:37:52Z</time>
      </trkpt>
      <trkpt lat="42.86346" lon="0.25972">
        <ele>1794.4</ele>
        <time>2017-02-22T08:37:57Z</time>
      </trkpt>
      <trkpt lat="42.86347" lon="0.25969">
        <ele>1796.4</ele>
        <time>2017-02-22T08:38:02Z</time>
      </trkpt>
      <trkpt lat="42.86346" lon="0.25966">
        <ele>1797.8</ele>
        <time>2017-02-22T08:38:07Z</time>
      </trkpt>
      <trkpt lat="42.86346" lon="0.25963">
        <ele>1794.4</ele>
        <time>2017-02-22T08:38:12Z</time>
      </trkpt>
      <trkpt lat="42.86346" lon="0.2596">
        <ele>1799</ele>
        <time>2017-02-22T08:38:17Z</time>
      </trkpt>
      <trkpt lat="42.86346" lon="0.25957">
        <ele>1799</ele>
        <time>2017-02-22T08:38:22Z</time>
      </trkpt>
      <trkpt lat="42.86346" lon="0.25954">
        <ele>1799</ele>
        <time>2017-02-22T08:38:27Z</time>
      </trkpt>
      <trkpt lat="42.86345" lon="0.25951">
        <ele>1800</ele>
        <time>2017-02-22T08:38:32Z</time>
      </trkpt>
      <trkpt lat="42.86345" lon="0.25947">
        <ele>1801.2</ele>
        <time>2017-02-22T08:38:37Z</time>
      </trkpt>
      <trkpt lat="42.86345" lon="0.25944">
        <ele>1803.4</ele>
        <time>2017-02-22T08:38:42Z</time>
      </trkpt>
      <trkpt lat="42.86344" lon="0.25941">
        <ele>1803</ele>
        <time>2017-02-22T08:38:47Z</time>
      </trkpt>
      <trkpt lat="42.86344" lon="0.25938">
        <ele>1803.6</ele>
        <time>2017-02-22T08:38:52Z</time>
      </trkpt>
      <trkpt lat="42.86343" lon="0.25936">
        <ele>1804.8</ele>
        <time>2017-02-22T08:38:57Z</time>
      </trkpt>
      <trkpt lat="42.86343" lon="0.25933">
        <ele>1806.2</ele>
        <time>2017-02-22T08:39:02Z</time>
      </trkpt>
      <trkpt lat="42.86343" lon="0.2593">
        <ele>1803.6</ele>
        <time>2017-02-22T08:39:07Z</time>
      </trkpt>
      <trkpt lat="42.86343" lon="0.25927">
        <ele>1805.8</ele>
        <time>2017-02-22T08:39:12Z</time>
      </trkpt>
      <trkpt lat="42.86344" lon="0.25925">
        <ele>1807</ele>
        <time>2017-02-22T08:39:17Z</time>
      </trkpt>
      <trkpt lat="42.86344" lon="0.25922">
        <ele>1804.8</ele>
        <time>2017-02-22T08:39:22Z</time>
      </trkpt>
      <trkpt lat="42.86344" lon="0.25919">
        <ele>1807.2</ele>
        <time>2017-02-22T08:39:27Z</time>
      </trkpt>
      <trkpt lat="42.86344" lon="0.25916">
        <ele>1807.8</ele>
        <time>2017-02-22T08:39:32Z</time>
      </trkpt>
      <trkpt lat="42.86346" lon="0.25914">
        <ele>1807.8</ele>
        <time>2017-02-22T08:39:37Z</time>
      </trkpt>
      <trkpt lat="42.86349" lon="0.25914">
        <ele>1810.4</ele>
        <time>2017-02-22T08:39:42Z</time>
      </trkpt>
      <trkpt lat="42.86352" lon="0.25916">
        <ele>1812.4</ele>
        <time>2017-02-22T08:39:47Z</time>
      </trkpt>
      <trkpt lat="42.86355" lon="0.25917">
        <ele>1809.8</ele>
        <time>2017-02-22T08:39:52Z</time>
      </trkpt>
      <trkpt lat="42.86357" lon="0.25917">
        <ele>1813.4</ele>
        <time>2017-02-22T08:39:57Z</time>
      </trkpt>
      <trkpt lat="42.86359" lon="0.25918">
        <ele>1813</ele>
        <time>2017-02-22T08:40:02Z</time>
      </trkpt>
      <trkpt lat="42.86362" lon="0.25919">
        <ele>1812.4</ele>
        <time>2017-02-22T08:40:07Z</time>
      </trkpt>
      <trkpt lat="42.86364" lon="0.2592">
        <ele>1815</ele>
        <time>2017-02-22T08:40:12Z</time>
      </trkpt>
      <trkpt lat="42.86366" lon="0.25921">
        <ele>1817.4</ele>
        <time>2017-02-22T08:40:17Z</time>
      </trkpt>
      <trkpt lat="42.86368" lon="0.25922">
        <ele>1811.8</ele>
        <time>2017-02-22T08:40:22Z</time>
      </trkpt>
      <trkpt lat="42.86371" lon="0.25923">
        <ele>1815.2</ele>
        <time>2017-02-22T08:40:27Z</time>
      </trkpt>
      <trkpt lat="42.86373" lon="0.25924">
        <ele>1818.8</ele>
        <time>2017-02-22T08:40:32Z</time>
      </trkpt>
      <trkpt lat="42.86376" lon="0.25924">
        <ele>1817</ele>
        <time>2017-02-22T08:40:37Z</time>
      </trkpt>
      <trkpt lat="42.86378" lon="0.25925">
        <ele>1817.2</ele>
        <time>2017-02-22T08:40:42Z</time>
      </trkpt>
      <trkpt lat="42.86381" lon="0.25925">
        <ele>1817.4</ele>
        <time>2017-02-22T08:40:47Z</time>
      </trkpt>
      <trkpt lat="42.86383" lon="0.25925">
        <ele>1820.2</ele>
        <time>2017-02-22T08:40:52Z</time>
      </trkpt>
      <trkpt lat="42.86383" lon="0.25922">
        <ele>1819.6</ele>
        <time>2017-02-22T08:40:57Z</time>
      </trkpt>
      <trkpt lat="42.86381" lon="0.25919">
        <ele>1820.8</ele>
        <time>2017-02-22T08:41:02Z</time>
      </trkpt>
      <trkpt lat="42.86379" lon="0.25916">
        <ele>1822</ele>
        <time>2017-02-22T08:41:07Z</time>
      </trkpt>
      <trkpt lat="42.86378" lon="0.25912">
        <ele>1822.4</ele>
        <time>2017-02-22T08:41:12Z</time>
      </trkpt>
      <trkpt lat="42.86377" lon="0.25909">
        <ele>1822.6</ele>
        <time>2017-02-22T08:41:17Z</time>
      </trkpt>
      <trkpt lat="42.86377" lon="0.25906">
        <ele>1820.8</ele>
        <time>2017-02-22T08:41:22Z</time>
      </trkpt>
      <trkpt lat="42.86377" lon="0.25903">
        <ele>1825.6</ele>
        <time>2017-02-22T08:41:27Z</time>
      </trkpt>
      <trkpt lat="42.86378" lon="0.25901">
        <ele>1824.4</ele>
        <time>2017-02-22T08:41:32Z</time>
      </trkpt>
      <trkpt lat="42.86379" lon="0.25898">
        <ele>1826</ele>
        <time>2017-02-22T08:41:37Z</time>
      </trkpt>
      <trkpt lat="42.86381" lon="0.25896">
        <ele>1826.4</ele>
        <time>2017-02-22T08:41:42Z</time>
      </trkpt>
      <trkpt lat="42.86383" lon="0.25897">
        <ele>1827.8</ele>
        <time>2017-02-22T08:41:47Z</time>
      </trkpt>
      <trkpt lat="42.86384" lon="0.259">
        <ele>1826.4</ele>
        <time>2017-02-22T08:41:52Z</time>
      </trkpt>
      <trkpt lat="42.86384" lon="0.259">
        <ele>1826.6</ele>
        <time>2017-02-22T08:41:57Z</time>
      </trkpt>
      <trkpt lat="42.86384" lon="0.259">
        <ele>1826.8</ele>
        <time>2017-02-22T08:42:02Z</time>
      </trkpt>
      <trkpt lat="42.86384" lon="0.259">
        <ele>1826.8</ele>
        <time>2017-02-22T08:42:07Z</time>
      </trkpt>
      <trkpt lat="42.86384" lon="0.259">
        <ele>1827</ele>
        <time>2017-02-22T08:42:12Z</time>
      </trkpt>
      <trkpt lat="42.86385" lon="0.259">
        <ele>1826.6</ele>
        <time>2017-02-22T08:42:17Z</time>
      </trkpt>
      <trkpt lat="42.86385" lon="0.259">
        <ele>1826.6</ele>
        <time>2017-02-22T08:42:22Z</time>
      </trkpt>
      <trkpt lat="42.86385" lon="0.259">
        <ele>1826.8</ele>
        <time>2017-02-22T08:42:27Z</time>
      </trkpt>
      <trkpt lat="42.86385" lon="0.259">
        <ele>1826.8</ele>
        <time>2017-02-22T08:42:32Z</time>
      </trkpt>
      <trkpt lat="42.86385" lon="0.259">
        <ele>1826.8</ele>
        <time>2017-02-22T08:42:37Z</time>
      </trkpt>
      <trkpt lat="42.86385" lon="0.259">
        <ele>1826.8</ele>
        <time>2017-02-22T08:42:42Z</time>
      </trkpt>
      <trkpt lat="42.86385" lon="0.259">
        <ele>1826.8</ele>
        <time>2017-02-22T08:42:47Z</time>
      </trkpt>
      <trkpt lat="42.86385" lon="0.259">
        <ele>1826.8</ele>
        <time>2017-02-22T08:42:52Z</time>
      </trkpt>
      <trkpt lat="42.86385" lon="0.259">
        <ele>1826.6</ele>
        <time>2017-02-22T08:42:57Z</time>
      </trkpt>
      <trkpt lat="42.86385" lon="0.259">
        <ele>1826.6</ele>
        <time>2017-02-22T08:43:02Z</time>
      </trkpt>
      <trkpt lat="42.86385" lon="0.259">
        <ele>1826.6</ele>
        <time>2017-02-22T08:43:07Z</time>
      </trkpt>
      <trkpt lat="42.86385" lon="0.259">
        <ele>1826.6</ele>
        <time>2017-02-22T08:43:12Z</time>
      </trkpt>
      <trkpt lat="42.86385" lon="0.259">
        <ele>1826.6</ele>
        <time>2017-02-22T08:43:17Z</time>
      </trkpt>
      <trkpt lat="42.86385" lon="0.25899">
        <ele>1826.4</ele>
        <time>2017-02-22T08:43:22Z</time>
      </trkpt>
      <trkpt lat="42.86385" lon="0.25899">
        <ele>1826</ele>
        <time>2017-02-22T08:43:27Z</time>
      </trkpt>
      <trkpt lat="42.86386" lon="0.25899">
        <ele>1825.6</ele>
        <time>2017-02-22T08:43:32Z</time>
      </trkpt>
      <trkpt lat="42.86386" lon="0.25898">
        <ele>1827.2</ele>
        <time>2017-02-22T08:43:37Z</time>
      </trkpt>
      <trkpt lat="42.8639" lon="0.25897">
        <ele>1828</ele>
        <time>2017-02-22T08:43:42Z</time>
      </trkpt>
      <trkpt lat="42.86394" lon="0.25896">
        <ele>1825.6</ele>
        <time>2017-02-22T08:43:47Z</time>
      </trkpt>
      <trkpt lat="42.86398" lon="0.25896">
        <ele>1825.8</ele>
        <time>2017-02-22T08:43:52Z</time>
      </trkpt>
      <trkpt lat="42.86401" lon="0.25896">
        <ele>1825.8</ele>
        <time>2017-02-22T08:43:57Z</time>
      </trkpt>
      <trkpt lat="42.86404" lon="0.25895">
        <ele>1824.4</ele>
        <time>2017-02-22T08:44:02Z</time>
      </trkpt>
      <trkpt lat="42.86406" lon="0.25896">
        <ele>1823.8</ele>
        <time>2017-02-22T08:44:07Z</time>
      </trkpt>
      <trkpt lat="42.86408" lon="0.25896">
        <ele>1821.6</ele>
        <time>2017-02-22T08:44:12Z</time>
      </trkpt>
      <trkpt lat="42.86411" lon="0.25897">
        <ele>1820.2</ele>
        <time>2017-02-22T08:44:17Z</time>
      </trkpt>
      <trkpt lat="42.86413" lon="0.25898">
        <ele>1819.4</ele>
        <time>2017-02-22T08:44:22Z</time>
      </trkpt>
      <trkpt lat="42.86416" lon="0.259">
        <ele>1819.2</ele>
        <time>2017-02-22T08:44:27Z</time>
      </trkpt>
      <trkpt lat="42.86418" lon="0.25901">
        <ele>1819</ele>
        <time>2017-02-22T08:44:32Z</time>
      </trkpt>
      <trkpt lat="42.86419" lon="0.25898">
        <ele>1819.4</ele>
        <time>2017-02-22T08:44:37Z</time>
      </trkpt>
      <trkpt lat="42.86419" lon="0.25895">
        <ele>1821.2</ele>
        <time>2017-02-22T08:44:42Z</time>
      </trkpt>
      <trkpt lat="42.86419" lon="0.25892">
        <ele>1826.4</ele>
        <time>2017-02-22T08:44:47Z</time>
      </trkpt>
      <trkpt lat="42.86418" lon="0.2589">
        <ele>1827.2</ele>
        <time>2017-02-22T08:44:52Z</time>
      </trkpt>
      <trkpt lat="42.86417" lon="0.25888">
        <ele>1827.2</ele>
        <time>2017-02-22T08:44:57Z</time>
      </trkpt>
      <trkpt lat="42.86415" lon="0.25885">
        <ele>1829</ele>
        <time>2017-02-22T08:45:02Z</time>
      </trkpt>
      <trkpt lat="42.86416" lon="0.25883">
        <ele>1832.4</ele>
        <time>2017-02-22T08:45:07Z</time>
      </trkpt>
      <trkpt lat="42.86419" lon="0.25884">
        <ele>1833</ele>
        <time>2017-02-22T08:45:12Z</time>
      </trkpt>
      <trkpt lat="42.86422" lon="0.25885">
        <ele>1835</ele>
        <time>2017-02-22T08:45:17Z</time>
      </trkpt>
      <trkpt lat="42.86425" lon="0.25886">
        <ele>1835.2</ele>
        <time>2017-02-22T08:45:22Z</time>
      </trkpt>
      <trkpt lat="42.86427" lon="0.25888">
        <ele>1838</ele>
        <time>2017-02-22T08:45:27Z</time>
      </trkpt>
      <trkpt lat="42.8643" lon="0.2589">
        <ele>1839.6</ele>
        <time>2017-02-22T08:45:32Z</time>
      </trkpt>
      <trkpt lat="42.86432" lon="0.25891">
        <ele>1839.6</ele>
        <time>2017-02-22T08:45:37Z</time>
      </trkpt>
      <trkpt lat="42.86432" lon="0.25891">
        <ele>1839</ele>
        <time>2017-02-22T08:45:42Z</time>
      </trkpt>
      <trkpt lat="42.86432" lon="0.25887">
        <ele>1842.6</ele>
        <time>2017-02-22T08:45:47Z</time>
      </trkpt>
      <trkpt lat="42.86431" lon="0.25884">
        <ele>1841.8</ele>
        <time>2017-02-22T08:45:52Z</time>
      </trkpt>
      <trkpt lat="42.8643" lon="0.2588">
        <ele>1841.4</ele>
        <time>2017-02-22T08:45:57Z</time>
      </trkpt>
      <trkpt lat="42.8643" lon="0.25877">
        <ele>1842.6</ele>
        <time>2017-02-22T08:46:02Z</time>
      </trkpt>
      <trkpt lat="42.8643" lon="0.25875">
        <ele>1842.2</ele>
        <time>2017-02-22T08:46:07Z</time>
      </trkpt>
      <trkpt lat="42.86429" lon="0.25872">
        <ele>1844.8</ele>
        <time>2017-02-22T08:46:12Z</time>
      </trkpt>
      <trkpt lat="42.86429" lon="0.25869">
        <ele>1845</ele>
        <time>2017-02-22T08:46:17Z</time>
      </trkpt>
      <trkpt lat="42.86428" lon="0.25866">
        <ele>1851.6</ele>
        <time>2017-02-22T08:46:22Z</time>
      </trkpt>
      <trkpt lat="42.86427" lon="0.25863">
        <ele>1852.2</ele>
        <time>2017-02-22T08:46:27Z</time>
      </trkpt>
      <trkpt lat="42.86427" lon="0.2586">
        <ele>1850.4</ele>
        <time>2017-02-22T08:46:32Z</time>
      </trkpt>
      <trkpt lat="42.86427" lon="0.25858">
        <ele>1851.8</ele>
        <time>2017-02-22T08:46:37Z</time>
      </trkpt>
      <trkpt lat="42.86428" lon="0.25859">
        <ele>1846.6</ele>
        <time>2017-02-22T08:46:42Z</time>
      </trkpt>
      <trkpt lat="42.86428" lon="0.25859">
        <ele>1849.6</ele>
        <time>2017-02-22T08:46:47Z</time>
      </trkpt>
      <trkpt lat="42.8643" lon="0.25859">
        <ele>1846.8</ele>
        <time>2017-02-22T08:46:52Z</time>
      </trkpt>
      <trkpt lat="42.8643" lon="0.25859">
        <ele>1848</ele>
        <time>2017-02-22T08:46:57Z</time>
      </trkpt>
      <trkpt lat="42.8643" lon="0.25859">
        <ele>1848.8</ele>
        <time>2017-02-22T08:47:02Z</time>
      </trkpt>
      <trkpt lat="42.8643" lon="0.25859">
        <ele>1849.2</ele>
        <time>2017-02-22T08:47:07Z</time>
      </trkpt>
      <trkpt lat="42.86433" lon="0.2586">
        <ele>1851</ele>
        <time>2017-02-22T08:47:12Z</time>
      </trkpt>
      <trkpt lat="42.86436" lon="0.25861">
        <ele>1853.2</ele>
        <time>2017-02-22T08:47:17Z</time>
      </trkpt>
      <trkpt lat="42.86439" lon="0.25862">
        <ele>1853.4</ele>
        <time>2017-02-22T08:47:22Z</time>
      </trkpt>
      <trkpt lat="42.86441" lon="0.25864">
        <ele>1852.6</ele>
        <time>2017-02-22T08:47:27Z</time>
      </trkpt>
      <trkpt lat="42.86444" lon="0.25867">
        <ele>1853</ele>
        <time>2017-02-22T08:47:32Z</time>
      </trkpt>
      <trkpt lat="42.86445" lon="0.25865">
        <ele>1855.6</ele>
        <time>2017-02-22T08:47:37Z</time>
      </trkpt>
      <trkpt lat="42.86445" lon="0.25862">
        <ele>1857.4</ele>
        <time>2017-02-22T08:47:42Z</time>
      </trkpt>
      <trkpt lat="42.86445" lon="0.2586">
        <ele>1854.6</ele>
        <time>2017-02-22T08:47:47Z</time>
      </trkpt>
      <trkpt lat="42.86445" lon="0.2586">
        <ele>1855</ele>
        <time>2017-02-22T08:47:52Z</time>
      </trkpt>
      <trkpt lat="42.86445" lon="0.2586">
        <ele>1855.4</ele>
        <time>2017-02-22T08:47:57Z</time>
      </trkpt>
      <trkpt lat="42.86444" lon="0.25858">
        <ele>1855.4</ele>
        <time>2017-02-22T08:48:02Z</time>
      </trkpt>
      <trkpt lat="42.86444" lon="0.25855">
        <ele>1859.4</ele>
        <time>2017-02-22T08:48:07Z</time>
      </trkpt>
      <trkpt lat="42.86444" lon="0.25852">
        <ele>1857</ele>
        <time>2017-02-22T08:48:12Z</time>
      </trkpt>
      <trkpt lat="42.86443" lon="0.2585">
        <ele>1857.4</ele>
        <time>2017-02-22T08:48:17Z</time>
      </trkpt>
      <trkpt lat="42.86441" lon="0.25847">
        <ele>1860</ele>
        <time>2017-02-22T08:48:22Z</time>
      </trkpt>
      <trkpt lat="42.8644" lon="0.25844">
        <ele>1859.4</ele>
        <time>2017-02-22T08:48:27Z</time>
      </trkpt>
      <trkpt lat="42.86439" lon="0.25842">
        <ele>1861.4</ele>
        <time>2017-02-22T08:48:32Z</time>
      </trkpt>
      <trkpt lat="42.86438" lon="0.25839">
        <ele>1860.2</ele>
        <time>2017-02-22T08:48:37Z</time>
      </trkpt>
      <trkpt lat="42.86436" lon="0.25836">
        <ele>1863.8</ele>
        <time>2017-02-22T08:48:42Z</time>
      </trkpt>
      <trkpt lat="42.86434" lon="0.25833">
        <ele>1866</ele>
        <time>2017-02-22T08:48:47Z</time>
      </trkpt>
      <trkpt lat="42.86433" lon="0.2583">
        <ele>1866</ele>
        <time>2017-02-22T08:48:52Z</time>
      </trkpt>
      <trkpt lat="42.86432" lon="0.25828">
        <ele>1866.8</ele>
        <time>2017-02-22T08:48:57Z</time>
      </trkpt>
      <trkpt lat="42.86431" lon="0.25825">
        <ele>1866</ele>
        <time>2017-02-22T08:49:02Z</time>
      </trkpt>
      <trkpt lat="42.8643" lon="0.25823">
        <ele>1868.2</ele>
        <time>2017-02-22T08:49:07Z</time>
      </trkpt>
      <trkpt lat="42.86429" lon="0.25821">
        <ele>1870</ele>
        <time>2017-02-22T08:49:12Z</time>
      </trkpt>
      <trkpt lat="42.86429" lon="0.25819">
        <ele>1867.2</ele>
        <time>2017-02-22T08:49:17Z</time>
      </trkpt>
      <trkpt lat="42.86429" lon="0.25819">
        <ele>1868.2</ele>
        <time>2017-02-22T08:49:22Z</time>
      </trkpt>
      <trkpt lat="42.86429" lon="0.25819">
        <ele>1869</ele>
        <time>2017-02-22T08:49:27Z</time>
      </trkpt>
      <trkpt lat="42.86429" lon="0.25819">
        <ele>1869.4</ele>
        <time>2017-02-22T08:49:32Z</time>
      </trkpt>
      <trkpt lat="42.8643" lon="0.25818">
        <ele>1870</ele>
        <time>2017-02-22T08:49:37Z</time>
      </trkpt>
      <trkpt lat="42.86431" lon="0.25815">
        <ele>1873.2</ele>
        <time>2017-02-22T08:49:42Z</time>
      </trkpt>
      <trkpt lat="42.86431" lon="0.25811">
        <ele>1872</ele>
        <time>2017-02-22T08:49:47Z</time>
      </trkpt>
      <trkpt lat="42.8643" lon="0.25808">
        <ele>1874</ele>
        <time>2017-02-22T08:49:52Z</time>
      </trkpt>
      <trkpt lat="42.86428" lon="0.25805">
        <ele>1873.8</ele>
        <time>2017-02-22T08:49:57Z</time>
      </trkpt>
      <trkpt lat="42.86426" lon="0.25802">
        <ele>1873.2</ele>
        <time>2017-02-22T08:50:02Z</time>
      </trkpt>
      <trkpt lat="42.86425" lon="0.25801">
        <ele>1873.6</ele>
        <time>2017-02-22T08:50:07Z</time>
      </trkpt>
      <trkpt lat="42.86425" lon="0.258">
        <ele>1870.6</ele>
        <time>2017-02-22T08:50:12Z</time>
      </trkpt>
      <trkpt lat="42.86423" lon="0.25798">
        <ele>1872.4</ele>
        <time>2017-02-22T08:50:17Z</time>
      </trkpt>
      <trkpt lat="42.86422" lon="0.25795">
        <ele>1873.2</ele>
        <time>2017-02-22T08:50:22Z</time>
      </trkpt>
      <trkpt lat="42.86421" lon="0.25792">
        <ele>1877</ele>
        <time>2017-02-22T08:50:27Z</time>
      </trkpt>
      <trkpt lat="42.86421" lon="0.25789">
        <ele>1875.2</ele>
        <time>2017-02-22T08:50:32Z</time>
      </trkpt>
      <trkpt lat="42.8642" lon="0.25786">
        <ele>1876.4</ele>
        <time>2017-02-22T08:50:37Z</time>
      </trkpt>
      <trkpt lat="42.8642" lon="0.25782">
        <ele>1877</ele>
        <time>2017-02-22T08:50:42Z</time>
      </trkpt>
      <trkpt lat="42.86419" lon="0.25779">
        <ele>1878.2</ele>
        <time>2017-02-22T08:50:47Z</time>
      </trkpt>
      <trkpt lat="42.86418" lon="0.25776">
        <ele>1878.6</ele>
        <time>2017-02-22T08:50:52Z</time>
      </trkpt>
      <trkpt lat="42.86417" lon="0.25774">
        <ele>1879.8</ele>
        <time>2017-02-22T08:50:57Z</time>
      </trkpt>
      <trkpt lat="42.86416" lon="0.25771">
        <ele>1879.2</ele>
        <time>2017-02-22T08:51:02Z</time>
      </trkpt>
      <trkpt lat="42.86416" lon="0.2577">
        <ele>1879.6</ele>
        <time>2017-02-22T08:51:07Z</time>
      </trkpt>
      <trkpt lat="42.86415" lon="0.2577">
        <ele>1879</ele>
        <time>2017-02-22T08:51:12Z</time>
      </trkpt>
      <trkpt lat="42.86414" lon="0.25767">
        <ele>1881.2</ele>
        <time>2017-02-22T08:51:17Z</time>
      </trkpt>
      <trkpt lat="42.86412" lon="0.25763">
        <ele>1879</ele>
        <time>2017-02-22T08:51:22Z</time>
      </trkpt>
      <trkpt lat="42.86411" lon="0.2576">
        <ele>1880.6</ele>
        <time>2017-02-22T08:51:27Z</time>
      </trkpt>
      <trkpt lat="42.8641" lon="0.25757">
        <ele>1882.8</ele>
        <time>2017-02-22T08:51:32Z</time>
      </trkpt>
      <trkpt lat="42.86409" lon="0.25755">
        <ele>1883.6</ele>
        <time>2017-02-22T08:51:37Z</time>
      </trkpt>
      <trkpt lat="42.86409" lon="0.25755">
        <ele>1883.4</ele>
        <time>2017-02-22T08:51:42Z</time>
      </trkpt>
      <trkpt lat="42.86409" lon="0.25755">
        <ele>1883.4</ele>
        <time>2017-02-22T08:51:47Z</time>
      </trkpt>
      <trkpt lat="42.86409" lon="0.25753">
        <ele>1882</ele>
        <time>2017-02-22T08:51:52Z</time>
      </trkpt>
      <trkpt lat="42.8641" lon="0.25752">
        <ele>1885</ele>
        <time>2017-02-22T08:51:57Z</time>
      </trkpt>
      <trkpt lat="42.86413" lon="0.25752">
        <ele>1884.2</ele>
        <time>2017-02-22T08:52:02Z</time>
      </trkpt>
      <trkpt lat="42.86416" lon="0.25752">
        <ele>1884.2</ele>
        <time>2017-02-22T08:52:07Z</time>
      </trkpt>
      <trkpt lat="42.86419" lon="0.25753">
        <ele>1884.8</ele>
        <time>2017-02-22T08:52:12Z</time>
      </trkpt>
      <trkpt lat="42.86421" lon="0.25754">
        <ele>1884.6</ele>
        <time>2017-02-22T08:52:17Z</time>
      </trkpt>
      <trkpt lat="42.86424" lon="0.25755">
        <ele>1885</ele>
        <time>2017-02-22T08:52:22Z</time>
      </trkpt>
      <trkpt lat="42.86427" lon="0.25757">
        <ele>1887</ele>
        <time>2017-02-22T08:52:27Z</time>
      </trkpt>
      <trkpt lat="42.86429" lon="0.25757">
        <ele>1884</ele>
        <time>2017-02-22T08:52:32Z</time>
      </trkpt>
      <trkpt lat="42.86432" lon="0.25758">
        <ele>1884.6</ele>
        <time>2017-02-22T08:52:37Z</time>
      </trkpt>
      <trkpt lat="42.86434" lon="0.25758">
        <ele>1888.2</ele>
        <time>2017-02-22T08:52:42Z</time>
      </trkpt>
      <trkpt lat="42.86437" lon="0.25759">
        <ele>1887.4</ele>
        <time>2017-02-22T08:52:47Z</time>
      </trkpt>
      <trkpt lat="42.86439" lon="0.25759">
        <ele>1889.8</ele>
        <time>2017-02-22T08:52:52Z</time>
      </trkpt>
      <trkpt lat="42.86439" lon="0.25759">
        <ele>1889.4</ele>
        <time>2017-02-22T08:52:57Z</time>
      </trkpt>
      <trkpt lat="42.86441" lon="0.25758">
        <ele>1889.2</ele>
        <time>2017-02-22T08:53:02Z</time>
      </trkpt>
      <trkpt lat="42.86444" lon="0.25759">
        <ele>1892.8</ele>
        <time>2017-02-22T08:53:07Z</time>
      </trkpt>
      <trkpt lat="42.86445" lon="0.25758">
        <ele>1891.6</ele>
        <time>2017-02-22T08:53:12Z</time>
      </trkpt>
      <trkpt lat="42.86445" lon="0.25758">
        <ele>1891.2</ele>
        <time>2017-02-22T08:53:17Z</time>
      </trkpt>
      <trkpt lat="42.86444" lon="0.25758">
        <ele>1890.8</ele>
        <time>2017-02-22T08:53:22Z</time>
      </trkpt>
      <trkpt lat="42.86445" lon="0.25758">
        <ele>1892.4</ele>
        <time>2017-02-22T08:53:27Z</time>
      </trkpt>
      <trkpt lat="42.86445" lon="0.25758">
        <ele>1891.8</ele>
        <time>2017-02-22T08:53:32Z</time>
      </trkpt>
      <trkpt lat="42.86445" lon="0.25758">
        <ele>1891.4</ele>
        <time>2017-02-22T08:53:37Z</time>
      </trkpt>
      <trkpt lat="42.86446" lon="0.25757">
        <ele>1892.2</ele>
        <time>2017-02-22T08:53:42Z</time>
      </trkpt>
      <trkpt lat="42.86445" lon="0.25755">
        <ele>1893.6</ele>
        <time>2017-02-22T08:53:47Z</time>
      </trkpt>
      <trkpt lat="42.86443" lon="0.25751">
        <ele>1894</ele>
        <time>2017-02-22T08:53:52Z</time>
      </trkpt>
      <trkpt lat="42.86441" lon="0.25749">
        <ele>1892.8</ele>
        <time>2017-02-22T08:53:57Z</time>
      </trkpt>
      <trkpt lat="42.8644" lon="0.25746">
        <ele>1894.4</ele>
        <time>2017-02-22T08:54:02Z</time>
      </trkpt>
      <trkpt lat="42.86438" lon="0.25744">
        <ele>1897.2</ele>
        <time>2017-02-22T08:54:07Z</time>
      </trkpt>
      <trkpt lat="42.86437" lon="0.25741">
        <ele>1897</ele>
        <time>2017-02-22T08:54:12Z</time>
      </trkpt>
      <trkpt lat="42.86436" lon="0.25737">
        <ele>1899.6</ele>
        <time>2017-02-22T08:54:17Z</time>
      </trkpt>
      <trkpt lat="42.86435" lon="0.25734">
        <ele>1900.2</ele>
        <time>2017-02-22T08:54:22Z</time>
      </trkpt>
      <trkpt lat="42.86434" lon="0.25731">
        <ele>1901.2</ele>
        <time>2017-02-22T08:54:27Z</time>
      </trkpt>
      <trkpt lat="42.86433" lon="0.25727">
        <ele>1901.6</ele>
        <time>2017-02-22T08:54:32Z</time>
      </trkpt>
      <trkpt lat="42.86433" lon="0.25724">
        <ele>1905</ele>
        <time>2017-02-22T08:54:37Z</time>
      </trkpt>
      <trkpt lat="42.86433" lon="0.25721">
        <ele>1906.6</ele>
        <time>2017-02-22T08:54:42Z</time>
      </trkpt>
      <trkpt lat="42.86432" lon="0.25717">
        <ele>1907</ele>
        <time>2017-02-22T08:54:47Z</time>
      </trkpt>
      <trkpt lat="42.86432" lon="0.25714">
        <ele>1908.2</ele>
        <time>2017-02-22T08:54:52Z</time>
      </trkpt>
      <trkpt lat="42.86432" lon="0.25711">
        <ele>1909.2</ele>
        <time>2017-02-22T08:54:57Z</time>
      </trkpt>
      <trkpt lat="42.86432" lon="0.25708">
        <ele>1907.8</ele>
        <time>2017-02-22T08:55:02Z</time>
      </trkpt>
      <trkpt lat="42.86435" lon="0.25709">
        <ele>1908</ele>
        <time>2017-02-22T08:55:07Z</time>
      </trkpt>
      <trkpt lat="42.86439" lon="0.2571">
        <ele>1911</ele>
        <time>2017-02-22T08:55:12Z</time>
      </trkpt>
      <trkpt lat="42.86442" lon="0.25712">
        <ele>1913</ele>
        <time>2017-02-22T08:55:17Z</time>
      </trkpt>
      <trkpt lat="42.86445" lon="0.25713">
        <ele>1915.8</ele>
        <time>2017-02-22T08:55:22Z</time>
      </trkpt>
      <trkpt lat="42.86448" lon="0.25713">
        <ele>1913.8</ele>
        <time>2017-02-22T08:55:27Z</time>
      </trkpt>
      <trkpt lat="42.86452" lon="0.25714">
        <ele>1920.2</ele>
        <time>2017-02-22T08:55:32Z</time>
      </trkpt>
      <trkpt lat="42.86454" lon="0.25715">
        <ele>1920</ele>
        <time>2017-02-22T08:55:37Z</time>
      </trkpt>
      <trkpt lat="42.86456" lon="0.25715">
        <ele>1921.6</ele>
        <time>2017-02-22T08:55:42Z</time>
      </trkpt>
      <trkpt lat="42.86458" lon="0.25715">
        <ele>1919.8</ele>
        <time>2017-02-22T08:55:47Z</time>
      </trkpt>
      <trkpt lat="42.86459" lon="0.25713">
        <ele>1921</ele>
        <time>2017-02-22T08:55:52Z</time>
      </trkpt>
      <trkpt lat="42.86458" lon="0.25711">
        <ele>1920</ele>
        <time>2017-02-22T08:55:57Z</time>
      </trkpt>
      <trkpt lat="42.86457" lon="0.25709">
        <ele>1918.2</ele>
        <time>2017-02-22T08:56:02Z</time>
      </trkpt>
      <trkpt lat="42.86456" lon="0.25707">
        <ele>1921.2</ele>
        <time>2017-02-22T08:56:07Z</time>
      </trkpt>
      <trkpt lat="42.86455" lon="0.25704">
        <ele>1923</ele>
        <time>2017-02-22T08:56:12Z</time>
      </trkpt>
      <trkpt lat="42.86454" lon="0.25701">
        <ele>1920.6</ele>
        <time>2017-02-22T08:56:17Z</time>
      </trkpt>
      <trkpt lat="42.86453" lon="0.25698">
        <ele>1921.8</ele>
        <time>2017-02-22T08:56:22Z</time>
      </trkpt>
      <trkpt lat="42.86452" lon="0.25694">
        <ele>1922.8</ele>
        <time>2017-02-22T08:56:27Z</time>
      </trkpt>
      <trkpt lat="42.86451" lon="0.25691">
        <ele>1920.8</ele>
        <time>2017-02-22T08:56:32Z</time>
      </trkpt>
      <trkpt lat="42.86451" lon="0.25688">
        <ele>1925.2</ele>
        <time>2017-02-22T08:56:37Z</time>
      </trkpt>
      <trkpt lat="42.8645" lon="0.25685">
        <ele>1921.8</ele>
        <time>2017-02-22T08:56:42Z</time>
      </trkpt>
      <trkpt lat="42.8645" lon="0.25682">
        <ele>1924.2</ele>
        <time>2017-02-22T08:56:47Z</time>
      </trkpt>
      <trkpt lat="42.86449" lon="0.25678">
        <ele>1923.2</ele>
        <time>2017-02-22T08:56:52Z</time>
      </trkpt>
      <trkpt lat="42.86448" lon="0.25674">
        <ele>1923.4</ele>
        <time>2017-02-22T08:56:57Z</time>
      </trkpt>
      <trkpt lat="42.86447" lon="0.25671">
        <ele>1925.4</ele>
        <time>2017-02-22T08:57:02Z</time>
      </trkpt>
      <trkpt lat="42.86447" lon="0.25671">
        <ele>1925.8</ele>
        <time>2017-02-22T08:57:07Z</time>
      </trkpt>
      <trkpt lat="42.86447" lon="0.25671">
        <ele>1926</ele>
        <time>2017-02-22T08:57:12Z</time>
      </trkpt>
      <trkpt lat="42.86446" lon="0.2567">
        <ele>1929.6</ele>
        <time>2017-02-22T08:57:17Z</time>
      </trkpt>
      <trkpt lat="42.86446" lon="0.25666">
        <ele>1930</ele>
        <time>2017-02-22T08:57:22Z</time>
      </trkpt>
      <trkpt lat="42.86448" lon="0.25667">
        <ele>1931.6</ele>
        <time>2017-02-22T08:57:27Z</time>
      </trkpt>
      <trkpt lat="42.8645" lon="0.25667">
        <ele>1930.2</ele>
        <time>2017-02-22T08:57:32Z</time>
      </trkpt>
      <trkpt lat="42.86453" lon="0.25667">
        <ele>1930.6</ele>
        <time>2017-02-22T08:57:37Z</time>
      </trkpt>
      <trkpt lat="42.86455" lon="0.25668">
        <ele>1929</ele>
        <time>2017-02-22T08:57:42Z</time>
      </trkpt>
      <trkpt lat="42.86458" lon="0.25669">
        <ele>1931.4</ele>
        <time>2017-02-22T08:57:47Z</time>
      </trkpt>
      <trkpt lat="42.8646" lon="0.25669">
        <ele>1932.4</ele>
        <time>2017-02-22T08:57:52Z</time>
      </trkpt>
      <trkpt lat="42.86463" lon="0.2567">
        <ele>1932.8</ele>
        <time>2017-02-22T08:57:57Z</time>
      </trkpt>
      <trkpt lat="42.86465" lon="0.2567">
        <ele>1935</ele>
        <time>2017-02-22T08:58:02Z</time>
      </trkpt>
      <trkpt lat="42.86468" lon="0.25671">
        <ele>1933.2</ele>
        <time>2017-02-22T08:58:07Z</time>
      </trkpt>
      <trkpt lat="42.8647" lon="0.25672">
        <ele>1936</ele>
        <time>2017-02-22T08:58:12Z</time>
      </trkpt>
      <trkpt lat="42.86473" lon="0.25673">
        <ele>1938</ele>
        <time>2017-02-22T08:58:17Z</time>
      </trkpt>
      <trkpt lat="42.86475" lon="0.25673">
        <ele>1940</ele>
        <time>2017-02-22T08:58:22Z</time>
      </trkpt>
      <trkpt lat="42.86477" lon="0.25673">
        <ele>1941.8</ele>
        <time>2017-02-22T08:58:27Z</time>
      </trkpt>
      <trkpt lat="42.8648" lon="0.25674">
        <ele>1940.6</ele>
        <time>2017-02-22T08:58:33Z</time>
      </trkpt>
      <trkpt lat="42.86479" lon="0.25674">
        <ele>1940.4</ele>
        <time>2017-02-22T08:58:38Z</time>
      </trkpt>
      <trkpt lat="42.86479" lon="0.25674">
        <ele>1940.4</ele>
        <time>2017-02-22T08:58:44Z</time>
      </trkpt>
      <trkpt lat="42.86481" lon="0.25674">
        <ele>1939.2</ele>
        <time>2017-02-22T08:58:49Z</time>
      </trkpt>
      <trkpt lat="42.86482" lon="0.25673">
        <ele>1943</ele>
        <time>2017-02-22T08:58:54Z</time>
      </trkpt>
      <trkpt lat="42.8648" lon="0.2567">
        <ele>1945.4</ele>
        <time>2017-02-22T08:58:59Z</time>
      </trkpt>
      <trkpt lat="42.86479" lon="0.25667">
        <ele>1941.6</ele>
        <time>2017-02-22T08:59:04Z</time>
      </trkpt>
      <trkpt lat="42.86478" lon="0.25664">
        <ele>1942</ele>
        <time>2017-02-22T08:59:09Z</time>
      </trkpt>
      <trkpt lat="42.86477" lon="0.25661">
        <ele>1941.2</ele>
        <time>2017-02-22T08:59:14Z</time>
      </trkpt>
      <trkpt lat="42.86476" lon="0.25657">
        <ele>1943</ele>
        <time>2017-02-22T08:59:19Z</time>
      </trkpt>
      <trkpt lat="42.86476" lon="0.25654">
        <ele>1940.4</ele>
        <time>2017-02-22T08:59:24Z</time>
      </trkpt>
      <trkpt lat="42.86475" lon="0.2565">
        <ele>1942.6</ele>
        <time>2017-02-22T08:59:29Z</time>
      </trkpt>
      <trkpt lat="42.86474" lon="0.25647">
        <ele>1943.6</ele>
        <time>2017-02-22T08:59:34Z</time>
      </trkpt>
      <trkpt lat="42.86473" lon="0.25644">
        <ele>1943</ele>
        <time>2017-02-22T08:59:39Z</time>
      </trkpt>
      <trkpt lat="42.86472" lon="0.25641">
        <ele>1943.4</ele>
        <time>2017-02-22T08:59:44Z</time>
      </trkpt>
      <trkpt lat="42.86472" lon="0.2564">
        <ele>1946.2</ele>
        <time>2017-02-22T08:59:49Z</time>
      </trkpt>
      <trkpt lat="42.86472" lon="0.2564">
        <ele>1945.8</ele>
        <time>2017-02-22T08:59:54Z</time>
      </trkpt>
      <trkpt lat="42.86472" lon="0.2564">
        <ele>1945.6</ele>
        <time>2017-02-22T08:59:59Z</time>
      </trkpt>
      <trkpt lat="42.86472" lon="0.2564">
        <ele>1945.4</ele>
        <time>2017-02-22T09:00:04Z</time>
      </trkpt>
      <trkpt lat="42.86472" lon="0.2564">
        <ele>1945.4</ele>
        <time>2017-02-22T09:00:09Z</time>
      </trkpt>
      <trkpt lat="42.86472" lon="0.25638">
        <ele>1945.8</ele>
        <time>2017-02-22T09:00:14Z</time>
      </trkpt>
      <trkpt lat="42.86473" lon="0.25638">
        <ele>1944.2</ele>
        <time>2017-02-22T09:00:19Z</time>
      </trkpt>
      <trkpt lat="42.86475" lon="0.25638">
        <ele>1944.4</ele>
        <time>2017-02-22T09:00:24Z</time>
      </trkpt>
      <trkpt lat="42.86478" lon="0.25637">
        <ele>1947.2</ele>
        <time>2017-02-22T09:00:29Z</time>
      </trkpt>
      <trkpt lat="42.86481" lon="0.25637">
        <ele>1943.6</ele>
        <time>2017-02-22T09:00:34Z</time>
      </trkpt>
      <trkpt lat="42.86483" lon="0.25638">
        <ele>1945.6</ele>
        <time>2017-02-22T09:00:39Z</time>
      </trkpt>
      <trkpt lat="42.86486" lon="0.25639">
        <ele>1947.8</ele>
        <time>2017-02-22T09:00:44Z</time>
      </trkpt>
      <trkpt lat="42.86489" lon="0.2564">
        <ele>1947.6</ele>
        <time>2017-02-22T09:00:49Z</time>
      </trkpt>
      <trkpt lat="42.86491" lon="0.25641">
        <ele>1950.2</ele>
        <time>2017-02-22T09:00:54Z</time>
      </trkpt>
      <trkpt lat="42.86494" lon="0.25642">
        <ele>1950</ele>
        <time>2017-02-22T09:00:59Z</time>
      </trkpt>
      <trkpt lat="42.86496" lon="0.25643">
        <ele>1951.6</ele>
        <time>2017-02-22T09:01:04Z</time>
      </trkpt>
      <trkpt lat="42.86499" lon="0.25644">
        <ele>1954.4</ele>
        <time>2017-02-22T09:01:09Z</time>
      </trkpt>
      <trkpt lat="42.86501" lon="0.25646">
        <ele>1953.8</ele>
        <time>2017-02-22T09:01:14Z</time>
      </trkpt>
      <trkpt lat="42.86503" lon="0.25647">
        <ele>1953.6</ele>
        <time>2017-02-22T09:01:19Z</time>
      </trkpt>
      <trkpt lat="42.86505" lon="0.25648">
        <ele>1955.6</ele>
        <time>2017-02-22T09:01:24Z</time>
      </trkpt>
      <trkpt lat="42.86507" lon="0.25649">
        <ele>1956.8</ele>
        <time>2017-02-22T09:01:29Z</time>
      </trkpt>
      <trkpt lat="42.86507" lon="0.25649">
        <ele>1957</ele>
        <time>2017-02-22T09:01:34Z</time>
      </trkpt>
      <trkpt lat="42.86507" lon="0.25649">
        <ele>1957.2</ele>
        <time>2017-02-22T09:01:39Z</time>
      </trkpt>
      <trkpt lat="42.86508" lon="0.25649">
        <ele>1957</ele>
        <time>2017-02-22T09:01:44Z</time>
      </trkpt>
      <trkpt lat="42.86508" lon="0.25649">
        <ele>1957.2</ele>
        <time>2017-02-22T09:01:49Z</time>
      </trkpt>
      <trkpt lat="42.86508" lon="0.25649">
        <ele>1957.4</ele>
        <time>2017-02-22T09:01:54Z</time>
      </trkpt>
      <trkpt lat="42.86508" lon="0.25649">
        <ele>1957.6</ele>
        <time>2017-02-22T09:01:59Z</time>
      </trkpt>
      <trkpt lat="42.86508" lon="0.25649">
        <ele>1957.4</ele>
        <time>2017-02-22T09:02:04Z</time>
      </trkpt>
      <trkpt lat="42.86508" lon="0.25649">
        <ele>1957.4</ele>
        <time>2017-02-22T09:02:09Z</time>
      </trkpt>
      <trkpt lat="42.86508" lon="0.25649">
        <ele>1957.4</ele>
        <time>2017-02-22T09:02:14Z</time>
      </trkpt>
      <trkpt lat="42.86508" lon="0.25649">
        <ele>1957.4</ele>
        <time>2017-02-22T09:02:20Z</time>
      </trkpt>
      <trkpt lat="42.86508" lon="0.25649">
        <ele>1957.4</ele>
        <time>2017-02-22T09:02:25Z</time>
      </trkpt>
      <trkpt lat="42.86508" lon="0.25649">
        <ele>1957.4</ele>
        <time>2017-02-22T09:02:30Z</time>
      </trkpt>
      <trkpt lat="42.86508" lon="0.25649">
        <ele>1957.4</ele>
        <time>2017-02-22T09:02:35Z</time>
      </trkpt>
      <trkpt lat="42.86508" lon="0.25649">
        <ele>1957.4</ele>
        <time>2017-02-22T09:02:40Z</time>
      </trkpt>
      <trkpt lat="42.86509" lon="0.25649">
        <ele>1957.4</ele>
        <time>2017-02-22T09:02:45Z</time>
      </trkpt>
      <trkpt lat="42.86509" lon="0.25649">
        <ele>1957.4</ele>
        <time>2017-02-22T09:02:50Z</time>
      </trkpt>
      <trkpt lat="42.86509" lon="0.25649">
        <ele>1957.4</ele>
        <time>2017-02-22T09:02:55Z</time>
      </trkpt>
      <trkpt lat="42.86509" lon="0.25649">
        <ele>1957.4</ele>
        <time>2017-02-22T09:03:00Z</time>
      </trkpt>
      <trkpt lat="42.86509" lon="0.25649">
        <ele>1957.4</ele>
        <time>2017-02-22T09:03:05Z</time>
      </trkpt>
      <trkpt lat="42.86509" lon="0.25649">
        <ele>1957.4</ele>
        <time>2017-02-22T09:03:10Z</time>
      </trkpt>
      <trkpt lat="42.86509" lon="0.25649">
        <ele>1957.4</ele>
        <time>2017-02-22T09:03:15Z</time>
      </trkpt>
      <trkpt lat="42.86509" lon="0.25649">
        <ele>1957.4</ele>
        <time>2017-02-22T09:03:20Z</time>
      </trkpt>
      <trkpt lat="42.86509" lon="0.2565">
        <ele>1957.6</ele>
        <time>2017-02-22T09:03:25Z</time>
      </trkpt>
      <trkpt lat="42.86509" lon="0.2565">
        <ele>1957.6</ele>
        <time>2017-02-22T09:03:30Z</time>
      </trkpt>
      <trkpt lat="42.86509" lon="0.2565">
        <ele>1957.6</ele>
        <time>2017-02-22T09:03:35Z</time>
      </trkpt>
      <trkpt lat="42.86509" lon="0.2565">
        <ele>1957.6</ele>
        <time>2017-02-22T09:03:40Z</time>
      </trkpt>
      <trkpt lat="42.86509" lon="0.2565">
        <ele>1957.6</ele>
        <time>2017-02-22T09:03:45Z</time>
      </trkpt>
      <trkpt lat="42.86509" lon="0.25647">
        <ele>1957.2</ele>
        <time>2017-02-22T09:03:50Z</time>
      </trkpt>
      <trkpt lat="42.86508" lon="0.25643">
        <ele>1958.4</ele>
        <time>2017-02-22T09:03:55Z</time>
      </trkpt>
      <trkpt lat="42.86508" lon="0.2564">
        <ele>1958.2</ele>
        <time>2017-02-22T09:04:00Z</time>
      </trkpt>
      <trkpt lat="42.86508" lon="0.25636">
        <ele>1959.2</ele>
        <time>2017-02-22T09:04:05Z</time>
      </trkpt>
      <trkpt lat="42.86507" lon="0.25632">
        <ele>1959.2</ele>
        <time>2017-02-22T09:04:10Z</time>
      </trkpt>
      <trkpt lat="42.86506" lon="0.25628">
        <ele>1961.8</ele>
        <time>2017-02-22T09:04:15Z</time>
      </trkpt>
      <trkpt lat="42.86506" lon="0.25625">
        <ele>1961.2</ele>
        <time>2017-02-22T09:04:20Z</time>
      </trkpt>
      <trkpt lat="42.86505" lon="0.25622">
        <ele>1962.8</ele>
        <time>2017-02-22T09:04:25Z</time>
      </trkpt>
      <trkpt lat="42.86505" lon="0.25618">
        <ele>1961.4</ele>
        <time>2017-02-22T09:04:30Z</time>
      </trkpt>
      <trkpt lat="42.86504" lon="0.25616">
        <ele>1963.2</ele>
        <time>2017-02-22T09:04:35Z</time>
      </trkpt>
      <trkpt lat="42.86503" lon="0.25613">
        <ele>1963.2</ele>
        <time>2017-02-22T09:04:40Z</time>
      </trkpt>
      <trkpt lat="42.86503" lon="0.2561">
        <ele>1966.2</ele>
        <time>2017-02-22T09:04:45Z</time>
      </trkpt>
      <trkpt lat="42.86502" lon="0.25608">
        <ele>1966.2</ele>
        <time>2017-02-22T09:04:50Z</time>
      </trkpt>
      <trkpt lat="42.86502" lon="0.25608">
        <ele>1966.8</ele>
        <time>2017-02-22T09:04:55Z</time>
      </trkpt>
      <trkpt lat="42.86502" lon="0.25608">
        <ele>1967</ele>
        <time>2017-02-22T09:05:00Z</time>
      </trkpt>
      <trkpt lat="42.86502" lon="0.25608">
        <ele>1967.2</ele>
        <time>2017-02-22T09:05:05Z</time>
      </trkpt>
      <trkpt lat="42.86501" lon="0.25608">
        <ele>1967.4</ele>
        <time>2017-02-22T09:05:10Z</time>
      </trkpt>
      <trkpt lat="42.86503" lon="0.25608">
        <ele>1965</ele>
        <time>2017-02-22T09:05:15Z</time>
      </trkpt>
      <trkpt lat="42.86504" lon="0.2561">
        <ele>1969.4</ele>
        <time>2017-02-22T09:05:20Z</time>
      </trkpt>
      <trkpt lat="42.86506" lon="0.25611">
        <ele>1972.8</ele>
        <time>2017-02-22T09:05:25Z</time>
      </trkpt>
      <trkpt lat="42.86508" lon="0.25612">
        <ele>1970.2</ele>
        <time>2017-02-22T09:05:30Z</time>
      </trkpt>
      <trkpt lat="42.8651" lon="0.25613">
        <ele>1971.8</ele>
        <time>2017-02-22T09:05:35Z</time>
      </trkpt>
      <trkpt lat="42.86512" lon="0.25614">
        <ele>1975.8</ele>
        <time>2017-02-22T09:05:40Z</time>
      </trkpt>
      <trkpt lat="42.86513" lon="0.25616">
        <ele>1975.6</ele>
        <time>2017-02-22T09:05:45Z</time>
      </trkpt>
      <trkpt lat="42.86514" lon="0.25618">
        <ele>1974.4</ele>
        <time>2017-02-22T09:05:50Z</time>
      </trkpt>
      <trkpt lat="42.86516" lon="0.25619">
        <ele>1975.8</ele>
        <time>2017-02-22T09:05:55Z</time>
      </trkpt>
      <trkpt lat="42.86517" lon="0.2562">
        <ele>1974.6</ele>
        <time>2017-02-22T09:06:00Z</time>
      </trkpt>
      <trkpt lat="42.86518" lon="0.25622">
        <ele>1975.6</ele>
        <time>2017-02-22T09:06:05Z</time>
      </trkpt>
      <trkpt lat="42.8652" lon="0.25623">
        <ele>1977.6</ele>
        <time>2017-02-22T09:06:11Z</time>
      </trkpt>
      <trkpt lat="42.86522" lon="0.25624">
        <ele>1978.6</ele>
        <time>2017-02-22T09:06:16Z</time>
      </trkpt>
      <trkpt lat="42.86524" lon="0.25625">
        <ele>1979.2</ele>
        <time>2017-02-22T09:06:21Z</time>
      </trkpt>
      <trkpt lat="42.86528" lon="0.25625">
        <ele>1982</ele>
        <time>2017-02-22T09:06:26Z</time>
      </trkpt>
      <trkpt lat="42.8653" lon="0.25625">
        <ele>1978.6</ele>
        <time>2017-02-22T09:06:31Z</time>
      </trkpt>
      <trkpt lat="42.86533" lon="0.25624">
        <ele>1980.8</ele>
        <time>2017-02-22T09:06:36Z</time>
      </trkpt>
      <trkpt lat="42.86535" lon="0.25624">
        <ele>1984</ele>
        <time>2017-02-22T09:06:41Z</time>
      </trkpt>
      <trkpt lat="42.86536" lon="0.25624">
        <ele>1984</ele>
        <time>2017-02-22T09:06:46Z</time>
      </trkpt>
      <trkpt lat="42.86538" lon="0.25626">
        <ele>1981.8</ele>
        <time>2017-02-22T09:06:51Z</time>
      </trkpt>
      <trkpt lat="42.86541" lon="0.25627">
        <ele>1985.8</ele>
        <time>2017-02-22T09:06:56Z</time>
      </trkpt>
      <trkpt lat="42.86544" lon="0.25628">
        <ele>1985</ele>
        <time>2017-02-22T09:07:01Z</time>
      </trkpt>
      <trkpt lat="42.86546" lon="0.25629">
        <ele>1984.8</ele>
        <time>2017-02-22T09:07:06Z</time>
      </trkpt>
      <trkpt lat="42.86546" lon="0.2563">
        <ele>1988</ele>
        <time>2017-02-22T09:07:11Z</time>
      </trkpt>
      <trkpt lat="42.86546" lon="0.2563">
        <ele>1988.6</ele>
        <time>2017-02-22T09:07:16Z</time>
      </trkpt>
      <trkpt lat="42.86546" lon="0.2563">
        <ele>1989.8</ele>
        <time>2017-02-22T09:07:21Z</time>
      </trkpt>
      <trkpt lat="42.86546" lon="0.2563">
        <ele>1989.8</ele>
        <time>2017-02-22T09:07:26Z</time>
      </trkpt>
      <trkpt lat="42.86546" lon="0.2563">
        <ele>1989.8</ele>
        <time>2017-02-22T09:07:31Z</time>
      </trkpt>
      <trkpt lat="42.86546" lon="0.2563">
        <ele>1989.8</ele>
        <time>2017-02-22T09:07:36Z</time>
      </trkpt>
      <trkpt lat="42.86546" lon="0.2563">
        <ele>1989.8</ele>
        <time>2017-02-22T09:07:41Z</time>
      </trkpt>
      <trkpt lat="42.86546" lon="0.2563">
        <ele>1989.8</ele>
        <time>2017-02-22T09:07:46Z</time>
      </trkpt>
      <trkpt lat="42.86546" lon="0.25627">
        <ele>1995</ele>
        <time>2017-02-22T09:07:51Z</time>
      </trkpt>
      <trkpt lat="42.86546" lon="0.25623">
        <ele>1990.6</ele>
        <time>2017-02-22T09:07:56Z</time>
      </trkpt>
      <trkpt lat="42.86545" lon="0.2562">
        <ele>1992.4</ele>
        <time>2017-02-22T09:08:01Z</time>
      </trkpt>
      <trkpt lat="42.86545" lon="0.25617">
        <ele>1993.6</ele>
        <time>2017-02-22T09:08:06Z</time>
      </trkpt>
      <trkpt lat="42.86544" lon="0.25614">
        <ele>1992.4</ele>
        <time>2017-02-22T09:08:11Z</time>
      </trkpt>
      <trkpt lat="42.86544" lon="0.25611">
        <ele>1993.4</ele>
        <time>2017-02-22T09:08:16Z</time>
      </trkpt>
      <trkpt lat="42.86544" lon="0.25607">
        <ele>1990.4</ele>
        <time>2017-02-22T09:08:21Z</time>
      </trkpt>
      <trkpt lat="42.86544" lon="0.25605">
        <ele>1992.8</ele>
        <time>2017-02-22T09:08:26Z</time>
      </trkpt>
      <trkpt lat="42.86544" lon="0.25601">
        <ele>1992.2</ele>
        <time>2017-02-22T09:08:31Z</time>
      </trkpt>
      <trkpt lat="42.86544" lon="0.25598">
        <ele>1992.2</ele>
        <time>2017-02-22T09:08:36Z</time>
      </trkpt>
      <trkpt lat="42.86544" lon="0.25595">
        <ele>1993.2</ele>
        <time>2017-02-22T09:08:41Z</time>
      </trkpt>
      <trkpt lat="42.86544" lon="0.25594">
        <ele>1992.6</ele>
        <time>2017-02-22T09:08:46Z</time>
      </trkpt>
      <trkpt lat="42.86544" lon="0.25594">
        <ele>1992.2</ele>
        <time>2017-02-22T09:08:51Z</time>
      </trkpt>
      <trkpt lat="42.86544" lon="0.25594">
        <ele>1992</ele>
        <time>2017-02-22T09:08:56Z</time>
      </trkpt>
      <trkpt lat="42.86544" lon="0.25594">
        <ele>1991.8</ele>
        <time>2017-02-22T09:09:01Z</time>
      </trkpt>
      <trkpt lat="42.86544" lon="0.25595">
        <ele>1991.6</ele>
        <time>2017-02-22T09:09:06Z</time>
      </trkpt>
      <trkpt lat="42.86546" lon="0.25595">
        <ele>1994.2</ele>
        <time>2017-02-22T09:09:11Z</time>
      </trkpt>
      <trkpt lat="42.86548" lon="0.25596">
        <ele>1992</ele>
        <time>2017-02-22T09:09:16Z</time>
      </trkpt>
      <trkpt lat="42.8655" lon="0.25598">
        <ele>1994.4</ele>
        <time>2017-02-22T09:09:21Z</time>
      </trkpt>
      <trkpt lat="42.86552" lon="0.25599">
        <ele>1995</ele>
        <time>2017-02-22T09:09:26Z</time>
      </trkpt>
      <trkpt lat="42.86555" lon="0.25601">
        <ele>1993.6</ele>
        <time>2017-02-22T09:09:31Z</time>
      </trkpt>
      <trkpt lat="42.86558" lon="0.25602">
        <ele>1995</ele>
        <time>2017-02-22T09:09:36Z</time>
      </trkpt>
      <trkpt lat="42.8656" lon="0.25604">
        <ele>1996.8</ele>
        <time>2017-02-22T09:09:41Z</time>
      </trkpt>
      <trkpt lat="42.86562" lon="0.25606">
        <ele>2001.4</ele>
        <time>2017-02-22T09:09:46Z</time>
      </trkpt>
      <trkpt lat="42.86564" lon="0.25608">
        <ele>1997.8</ele>
        <time>2017-02-22T09:09:51Z</time>
      </trkpt>
      <trkpt lat="42.86567" lon="0.2561">
        <ele>1999.2</ele>
        <time>2017-02-22T09:09:56Z</time>
      </trkpt>
      <trkpt lat="42.86569" lon="0.25612">
        <ele>2002</ele>
        <time>2017-02-22T09:10:01Z</time>
      </trkpt>
      <trkpt lat="42.86571" lon="0.25615">
        <ele>2001.6</ele>
        <time>2017-02-22T09:10:06Z</time>
      </trkpt>
      <trkpt lat="42.86573" lon="0.25617">
        <ele>2002.2</ele>
        <time>2017-02-22T09:10:11Z</time>
      </trkpt>
      <trkpt lat="42.86574" lon="0.25619">
        <ele>2003.8</ele>
        <time>2017-02-22T09:10:16Z</time>
      </trkpt>
      <trkpt lat="42.86576" lon="0.25621">
        <ele>2002.6</ele>
        <time>2017-02-22T09:10:21Z</time>
      </trkpt>
      <trkpt lat="42.86578" lon="0.25622">
        <ele>2005.4</ele>
        <time>2017-02-22T09:10:26Z</time>
      </trkpt>
      <trkpt lat="42.86581" lon="0.25623">
        <ele>2009.6</ele>
        <time>2017-02-22T09:10:31Z</time>
      </trkpt>
      <trkpt lat="42.86583" lon="0.25625">
        <ele>2010.8</ele>
        <time>2017-02-22T09:10:36Z</time>
      </trkpt>
      <trkpt lat="42.86586" lon="0.25626">
        <ele>2012.4</ele>
        <time>2017-02-22T09:10:41Z</time>
      </trkpt>
      <trkpt lat="42.86588" lon="0.25627">
        <ele>2016.2</ele>
        <time>2017-02-22T09:10:47Z</time>
      </trkpt>
      <trkpt lat="42.8659" lon="0.25626">
        <ele>2017.4</ele>
        <time>2017-02-22T09:10:52Z</time>
      </trkpt>
      <trkpt lat="42.8659" lon="0.25623">
        <ele>2017.4</ele>
        <time>2017-02-22T09:10:57Z</time>
      </trkpt>
      <trkpt lat="42.8659" lon="0.25622">
        <ele>2015.4</ele>
        <time>2017-02-22T09:11:02Z</time>
      </trkpt>
      <trkpt lat="42.86589" lon="0.25619">
        <ele>2014.8</ele>
        <time>2017-02-22T09:11:07Z</time>
      </trkpt>
      <trkpt lat="42.86589" lon="0.25617">
        <ele>2012.8</ele>
        <time>2017-02-22T09:11:12Z</time>
      </trkpt>
      <trkpt lat="42.8659" lon="0.25615">
        <ele>2015.6</ele>
        <time>2017-02-22T09:11:17Z</time>
      </trkpt>
      <trkpt lat="42.86589" lon="0.25615">
        <ele>2016.4</ele>
        <time>2017-02-22T09:11:22Z</time>
      </trkpt>
      <trkpt lat="42.86589" lon="0.25612">
        <ele>2013</ele>
        <time>2017-02-22T09:11:27Z</time>
      </trkpt>
      <trkpt lat="42.86589" lon="0.2561">
        <ele>2016.4</ele>
        <time>2017-02-22T09:11:32Z</time>
      </trkpt>
      <trkpt lat="42.8659" lon="0.25607">
        <ele>2013.2</ele>
        <time>2017-02-22T09:11:37Z</time>
      </trkpt>
      <trkpt lat="42.8659" lon="0.25603">
        <ele>2010.2</ele>
        <time>2017-02-22T09:11:42Z</time>
      </trkpt>
      <trkpt lat="42.86591" lon="0.256">
        <ele>2012</ele>
        <time>2017-02-22T09:11:47Z</time>
      </trkpt>
      <trkpt lat="42.86591" lon="0.25599">
        <ele>2010.6</ele>
        <time>2017-02-22T09:11:52Z</time>
      </trkpt>
      <trkpt lat="42.86591" lon="0.25599">
        <ele>2010</ele>
        <time>2017-02-22T09:11:57Z</time>
      </trkpt>
      <trkpt lat="42.86591" lon="0.25599">
        <ele>2009.6</ele>
        <time>2017-02-22T09:12:02Z</time>
      </trkpt>
      <trkpt lat="42.86591" lon="0.25598">
        <ele>2009.8</ele>
        <time>2017-02-22T09:12:07Z</time>
      </trkpt>
      <trkpt lat="42.86592" lon="0.25597">
        <ele>2009.2</ele>
        <time>2017-02-22T09:12:12Z</time>
      </trkpt>
      <trkpt lat="42.86595" lon="0.25599">
        <ele>2012.8</ele>
        <time>2017-02-22T09:12:17Z</time>
      </trkpt>
      <trkpt lat="42.86597" lon="0.25601">
        <ele>2014.6</ele>
        <time>2017-02-22T09:12:22Z</time>
      </trkpt>
      <trkpt lat="42.86599" lon="0.25603">
        <ele>2017.6</ele>
        <time>2017-02-22T09:12:27Z</time>
      </trkpt>
      <trkpt lat="42.86602" lon="0.25604">
        <ele>2017</ele>
        <time>2017-02-22T09:12:32Z</time>
      </trkpt>
      <trkpt lat="42.86604" lon="0.25604">
        <ele>2019.8</ele>
        <time>2017-02-22T09:12:37Z</time>
      </trkpt>
      <trkpt lat="42.86604" lon="0.25604">
        <ele>2022.6</ele>
        <time>2017-02-22T09:12:42Z</time>
      </trkpt>
      <trkpt lat="42.86605" lon="0.25603">
        <ele>2024.2</ele>
        <time>2017-02-22T09:12:47Z</time>
      </trkpt>
      <trkpt lat="42.86608" lon="0.25603">
        <ele>2025.8</ele>
        <time>2017-02-22T09:12:52Z</time>
      </trkpt>
      <trkpt lat="42.8661" lon="0.25603">
        <ele>2029</ele>
        <time>2017-02-22T09:12:57Z</time>
      </trkpt>
      <trkpt lat="42.86613" lon="0.25604">
        <ele>2032.8</ele>
        <time>2017-02-22T09:13:02Z</time>
      </trkpt>
      <trkpt lat="42.86615" lon="0.25605">
        <ele>2035</ele>
        <time>2017-02-22T09:13:07Z</time>
      </trkpt>
      <trkpt lat="42.86618" lon="0.25606">
        <ele>2037.6</ele>
        <time>2017-02-22T09:13:12Z</time>
      </trkpt>
      <trkpt lat="42.86619" lon="0.25607">
        <ele>2037.4</ele>
        <time>2017-02-22T09:13:17Z</time>
      </trkpt>
      <trkpt lat="42.8662" lon="0.25608">
        <ele>2039.2</ele>
        <time>2017-02-22T09:13:22Z</time>
      </trkpt>
      <trkpt lat="42.86621" lon="0.25608">
        <ele>2038.4</ele>
        <time>2017-02-22T09:13:27Z</time>
      </trkpt>
      <trkpt lat="42.86621" lon="0.25608">
        <ele>2038</ele>
        <time>2017-02-22T09:13:32Z</time>
      </trkpt>
      <trkpt lat="42.86621" lon="0.25608">
        <ele>2037.8</ele>
        <time>2017-02-22T09:13:37Z</time>
      </trkpt>
      <trkpt lat="42.86622" lon="0.25609">
        <ele>2038</ele>
        <time>2017-02-22T09:13:42Z</time>
      </trkpt>
      <trkpt lat="42.86622" lon="0.25608">
        <ele>2037.6</ele>
        <time>2017-02-22T09:13:47Z</time>
      </trkpt>
      <trkpt lat="42.86622" lon="0.25604">
        <ele>2039.8</ele>
        <time>2017-02-22T09:13:52Z</time>
      </trkpt>
      <trkpt lat="42.86621" lon="0.256">
        <ele>2040.6</ele>
        <time>2017-02-22T09:13:57Z</time>
      </trkpt>
      <trkpt lat="42.86621" lon="0.25596">
        <ele>2039.2</ele>
        <time>2017-02-22T09:14:02Z</time>
      </trkpt>
      <trkpt lat="42.86621" lon="0.25593">
        <ele>2039.6</ele>
        <time>2017-02-22T09:14:07Z</time>
      </trkpt>
      <trkpt lat="42.86621" lon="0.2559">
        <ele>2038.6</ele>
        <time>2017-02-22T09:14:12Z</time>
      </trkpt>
      <trkpt lat="42.86621" lon="0.25586">
        <ele>2039.6</ele>
        <time>2017-02-22T09:14:17Z</time>
      </trkpt>
      <trkpt lat="42.8662" lon="0.25583">
        <ele>2039.6</ele>
        <time>2017-02-22T09:14:22Z</time>
      </trkpt>
      <trkpt lat="42.8662" lon="0.25581">
        <ele>2035.8</ele>
        <time>2017-02-22T09:14:27Z</time>
      </trkpt>
      <trkpt lat="42.8662" lon="0.25577">
        <ele>2037.2</ele>
        <time>2017-02-22T09:14:32Z</time>
      </trkpt>
      <trkpt lat="42.8662" lon="0.25573">
        <ele>2038.8</ele>
        <time>2017-02-22T09:14:37Z</time>
      </trkpt>
      <trkpt lat="42.8662" lon="0.2557">
        <ele>2036.8</ele>
        <time>2017-02-22T09:14:42Z</time>
      </trkpt>
      <trkpt lat="42.8662" lon="0.2557">
        <ele>2036.8</ele>
        <time>2017-02-22T09:14:47Z</time>
      </trkpt>
      <trkpt lat="42.8662" lon="0.2557">
        <ele>2036.8</ele>
        <time>2017-02-22T09:14:52Z</time>
      </trkpt>
      <trkpt lat="42.86621" lon="0.25569">
        <ele>2036.8</ele>
        <time>2017-02-22T09:14:57Z</time>
      </trkpt>
      <trkpt lat="42.86624" lon="0.25569">
        <ele>2038.6</ele>
        <time>2017-02-22T09:15:02Z</time>
      </trkpt>
      <trkpt lat="42.86627" lon="0.25569">
        <ele>2035.2</ele>
        <time>2017-02-22T09:15:07Z</time>
      </trkpt>
      <trkpt lat="42.86629" lon="0.25571">
        <ele>2040</ele>
        <time>2017-02-22T09:15:12Z</time>
      </trkpt>
      <trkpt lat="42.86632" lon="0.25572">
        <ele>2039.4</ele>
        <time>2017-02-22T09:15:17Z</time>
      </trkpt>
      <trkpt lat="42.86633" lon="0.25574">
        <ele>2039.6</ele>
        <time>2017-02-22T09:15:22Z</time>
      </trkpt>
      <trkpt lat="42.86636" lon="0.25575">
        <ele>2038.8</ele>
        <time>2017-02-22T09:15:28Z</time>
      </trkpt>
      <trkpt lat="42.86639" lon="0.25576">
        <ele>2037</ele>
        <time>2017-02-22T09:15:34Z</time>
      </trkpt>
      <trkpt lat="42.86641" lon="0.25577">
        <ele>2039.8</ele>
        <time>2017-02-22T09:15:39Z</time>
      </trkpt>
      <trkpt lat="42.86645" lon="0.25579">
        <ele>2040.4</ele>
        <time>2017-02-22T09:15:45Z</time>
      </trkpt>
      <trkpt lat="42.86648" lon="0.25582">
        <ele>2041.8</ele>
        <time>2017-02-22T09:15:50Z</time>
      </trkpt>
      <trkpt lat="42.8665" lon="0.25585">
        <ele>2041.8</ele>
        <time>2017-02-22T09:15:55Z</time>
      </trkpt>
      <trkpt lat="42.86653" lon="0.25585">
        <ele>2042.8</ele>
        <time>2017-02-22T09:16:00Z</time>
      </trkpt>
      <trkpt lat="42.86654" lon="0.25582">
        <ele>2041.6</ele>
        <time>2017-02-22T09:16:05Z</time>
      </trkpt>
      <trkpt lat="42.86654" lon="0.25577">
        <ele>2043.2</ele>
        <time>2017-02-22T09:16:10Z</time>
      </trkpt>
      <trkpt lat="42.86654" lon="0.25573">
        <ele>2044.8</ele>
        <time>2017-02-22T09:16:15Z</time>
      </trkpt>
      <trkpt lat="42.86653" lon="0.2557">
        <ele>2046.6</ele>
        <time>2017-02-22T09:16:20Z</time>
      </trkpt>
      <trkpt lat="42.86652" lon="0.25567">
        <ele>2049</ele>
        <time>2017-02-22T09:16:25Z</time>
      </trkpt>
      <trkpt lat="42.86651" lon="0.25564">
        <ele>2049.8</ele>
        <time>2017-02-22T09:16:30Z</time>
      </trkpt>
      <trkpt lat="42.8665" lon="0.25563">
        <ele>2049</ele>
        <time>2017-02-22T09:16:35Z</time>
      </trkpt>
      <trkpt lat="42.8665" lon="0.25563">
        <ele>2049</ele>
        <time>2017-02-22T09:16:40Z</time>
      </trkpt>
      <trkpt lat="42.8665" lon="0.25563">
        <ele>2051.8</ele>
        <time>2017-02-22T09:16:45Z</time>
      </trkpt>
      <trkpt lat="42.86649" lon="0.25561">
        <ele>2050</ele>
        <time>2017-02-22T09:16:50Z</time>
      </trkpt>
      <trkpt lat="42.86651" lon="0.2556">
        <ele>2046.8</ele>
        <time>2017-02-22T09:16:55Z</time>
      </trkpt>
      <trkpt lat="42.86655" lon="0.2556">
        <ele>2050.8</ele>
        <time>2017-02-22T09:17:00Z</time>
      </trkpt>
      <trkpt lat="42.86658" lon="0.2556">
        <ele>2051.2</ele>
        <time>2017-02-22T09:17:05Z</time>
      </trkpt>
      <trkpt lat="42.8666" lon="0.2556">
        <ele>2052.6</ele>
        <time>2017-02-22T09:17:10Z</time>
      </trkpt>
      <trkpt lat="42.86663" lon="0.2556">
        <ele>2052.4</ele>
        <time>2017-02-22T09:17:15Z</time>
      </trkpt>
      <trkpt lat="42.86666" lon="0.2556">
        <ele>2053</ele>
        <time>2017-02-22T09:17:20Z</time>
      </trkpt>
      <trkpt lat="42.86668" lon="0.2556">
        <ele>2053.4</ele>
        <time>2017-02-22T09:17:25Z</time>
      </trkpt>
      <trkpt lat="42.86671" lon="0.25559">
        <ele>2053.8</ele>
        <time>2017-02-22T09:17:30Z</time>
      </trkpt>
      <trkpt lat="42.86674" lon="0.25559">
        <ele>2054.6</ele>
        <time>2017-02-22T09:17:35Z</time>
      </trkpt>
      <trkpt lat="42.86676" lon="0.2556">
        <ele>2055.4</ele>
        <time>2017-02-22T09:17:40Z</time>
      </trkpt>
      <trkpt lat="42.86679" lon="0.25561">
        <ele>2060.8</ele>
        <time>2017-02-22T09:17:45Z</time>
      </trkpt>
      <trkpt lat="42.86681" lon="0.25563">
        <ele>2057</ele>
        <time>2017-02-22T09:17:50Z</time>
      </trkpt>
      <trkpt lat="42.86683" lon="0.25566">
        <ele>2063</ele>
        <time>2017-02-22T09:17:55Z</time>
      </trkpt>
      <trkpt lat="42.86686" lon="0.2557">
        <ele>2062.8</ele>
        <time>2017-02-22T09:18:00Z</time>
      </trkpt>
      <trkpt lat="42.86687" lon="0.25575">
        <ele>2063</ele>
        <time>2017-02-22T09:18:05Z</time>
      </trkpt>
      <trkpt lat="42.86687" lon="0.2558">
        <ele>2064</ele>
        <time>2017-02-22T09:18:10Z</time>
      </trkpt>
      <trkpt lat="42.86687" lon="0.25583">
        <ele>2065.6</ele>
        <time>2017-02-22T09:18:15Z</time>
      </trkpt>
      <trkpt lat="42.86687" lon="0.25587">
        <ele>2063.2</ele>
        <time>2017-02-22T09:18:20Z</time>
      </trkpt>
      <trkpt lat="42.86687" lon="0.25592">
        <ele>2064.6</ele>
        <time>2017-02-22T09:18:25Z</time>
      </trkpt>
      <trkpt lat="42.86689" lon="0.25594">
        <ele>2067.6</ele>
        <time>2017-02-22T09:18:30Z</time>
      </trkpt>
      <trkpt lat="42.86689" lon="0.25594">
        <ele>2067</ele>
        <time>2017-02-22T09:18:35Z</time>
      </trkpt>
      <trkpt lat="42.86689" lon="0.25594">
        <ele>2066.8</ele>
        <time>2017-02-22T09:18:40Z</time>
      </trkpt>
      <trkpt lat="42.86689" lon="0.25594">
        <ele>2066.4</ele>
        <time>2017-02-22T09:18:45Z</time>
      </trkpt>
      <trkpt lat="42.86689" lon="0.25594">
        <ele>2066.2</ele>
        <time>2017-02-22T09:18:50Z</time>
      </trkpt>
      <trkpt lat="42.86689" lon="0.25594">
        <ele>2066.2</ele>
        <time>2017-02-22T09:18:55Z</time>
      </trkpt>
      <trkpt lat="42.86689" lon="0.25594">
        <ele>2066</ele>
        <time>2017-02-22T09:19:00Z</time>
      </trkpt>
      <trkpt lat="42.86689" lon="0.25594">
        <ele>2066</ele>
        <time>2017-02-22T09:19:05Z</time>
      </trkpt>
      <trkpt lat="42.86689" lon="0.25594">
        <ele>2065.8</ele>
        <time>2017-02-22T09:19:10Z</time>
      </trkpt>
      <trkpt lat="42.86689" lon="0.25593">
        <ele>2065.8</ele>
        <time>2017-02-22T09:19:15Z</time>
      </trkpt>
      <trkpt lat="42.86689" lon="0.25593">
        <ele>2065.8</ele>
        <time>2017-02-22T09:19:20Z</time>
      </trkpt>
      <trkpt lat="42.86689" lon="0.25593">
        <ele>2065.8</ele>
        <time>2017-02-22T09:19:25Z</time>
      </trkpt>
      <trkpt lat="42.86689" lon="0.25593">
        <ele>2065.8</ele>
        <time>2017-02-22T09:19:30Z</time>
      </trkpt>
      <trkpt lat="42.86689" lon="0.25593">
        <ele>2065.8</ele>
        <time>2017-02-22T09:19:35Z</time>
      </trkpt>
      <trkpt lat="42.86689" lon="0.25593">
        <ele>2065.8</ele>
        <time>2017-02-22T09:19:40Z</time>
      </trkpt>
      <trkpt lat="42.86689" lon="0.25593">
        <ele>2065.8</ele>
        <time>2017-02-22T09:19:45Z</time>
      </trkpt>
      <trkpt lat="42.86689" lon="0.25593">
        <ele>2065.8</ele>
        <time>2017-02-22T09:19:50Z</time>
      </trkpt>
      <trkpt lat="42.86689" lon="0.25592">
        <ele>2066</ele>
        <time>2017-02-22T09:19:55Z</time>
      </trkpt>
      <trkpt lat="42.86689" lon="0.25592">
        <ele>2066</ele>
        <time>2017-02-22T09:20:00Z</time>
      </trkpt>
      <trkpt lat="42.86689" lon="0.25592">
        <ele>2066</ele>
        <time>2017-02-22T09:20:05Z</time>
      </trkpt>
      <trkpt lat="42.86689" lon="0.25592">
        <ele>2066.2</ele>
        <time>2017-02-22T09:20:10Z</time>
      </trkpt>
      <trkpt lat="42.86689" lon="0.25592">
        <ele>2066.2</ele>
        <time>2017-02-22T09:20:15Z</time>
      </trkpt>
      <trkpt lat="42.86689" lon="0.25592">
        <ele>2066.2</ele>
        <time>2017-02-22T09:20:20Z</time>
      </trkpt>
      <trkpt lat="42.86689" lon="0.25592">
        <ele>2066.2</ele>
        <time>2017-02-22T09:20:25Z</time>
      </trkpt>
      <trkpt lat="42.86689" lon="0.25592">
        <ele>2066.2</ele>
        <time>2017-02-22T09:20:30Z</time>
      </trkpt>
      <trkpt lat="42.86689" lon="0.25592">
        <ele>2066.2</ele>
        <time>2017-02-22T09:20:35Z</time>
      </trkpt>
      <trkpt lat="42.86689" lon="0.25591">
        <ele>2066.4</ele>
        <time>2017-02-22T09:20:40Z</time>
      </trkpt>
      <trkpt lat="42.86689" lon="0.25591">
        <ele>2066.2</ele>
        <time>2017-02-22T09:20:45Z</time>
      </trkpt>
      <trkpt lat="42.86689" lon="0.25591">
        <ele>2066.2</ele>
        <time>2017-02-22T09:20:50Z</time>
      </trkpt>
      <trkpt lat="42.86689" lon="0.25591">
        <ele>2066</ele>
        <time>2017-02-22T09:20:55Z</time>
      </trkpt>
      <trkpt lat="42.86689" lon="0.25591">
        <ele>2065.8</ele>
        <time>2017-02-22T09:21:00Z</time>
      </trkpt>
      <trkpt lat="42.86689" lon="0.25591">
        <ele>2065.6</ele>
        <time>2017-02-22T09:21:05Z</time>
      </trkpt>
      <trkpt lat="42.86689" lon="0.25591">
        <ele>2065.4</ele>
        <time>2017-02-22T09:21:10Z</time>
      </trkpt>
      <trkpt lat="42.86689" lon="0.25591">
        <ele>2065.2</ele>
        <time>2017-02-22T09:21:15Z</time>
      </trkpt>
      <trkpt lat="42.86689" lon="0.25591">
        <ele>2065.2</ele>
        <time>2017-02-22T09:21:20Z</time>
      </trkpt>
      <trkpt lat="42.86689" lon="0.25591">
        <ele>2065</ele>
        <time>2017-02-22T09:21:25Z</time>
      </trkpt>
      <trkpt lat="42.86689" lon="0.25591">
        <ele>2065</ele>
        <time>2017-02-22T09:21:30Z</time>
      </trkpt>
      <trkpt lat="42.86689" lon="0.25591">
        <ele>2065</ele>
        <time>2017-02-22T09:21:35Z</time>
      </trkpt>
      <trkpt lat="42.86689" lon="0.25591">
        <ele>2064.8</ele>
        <time>2017-02-22T09:21:40Z</time>
      </trkpt>
      <trkpt lat="42.86688" lon="0.25591">
        <ele>2064.8</ele>
        <time>2017-02-22T09:21:45Z</time>
      </trkpt>
      <trkpt lat="42.86688" lon="0.25591">
        <ele>2064.6</ele>
        <time>2017-02-22T09:21:50Z</time>
      </trkpt>
      <trkpt lat="42.86688" lon="0.25591">
        <ele>2064.4</ele>
        <time>2017-02-22T09:21:55Z</time>
      </trkpt>
      <trkpt lat="42.86687" lon="0.2559">
        <ele>2064.2</ele>
        <time>2017-02-22T09:22:00Z</time>
      </trkpt>
      <trkpt lat="42.86687" lon="0.2559">
        <ele>2064</ele>
        <time>2017-02-22T09:22:05Z</time>
      </trkpt>
      <trkpt lat="42.86687" lon="0.2559">
        <ele>2063.8</ele>
        <time>2017-02-22T09:22:10Z</time>
      </trkpt>
      <trkpt lat="42.86687" lon="0.2559">
        <ele>2063.8</ele>
        <time>2017-02-22T09:22:15Z</time>
      </trkpt>
      <trkpt lat="42.86687" lon="0.2559">
        <ele>2063.8</ele>
        <time>2017-02-22T09:22:20Z</time>
      </trkpt>
      <trkpt lat="42.86687" lon="0.2559">
        <ele>2063.6</ele>
        <time>2017-02-22T09:22:25Z</time>
      </trkpt>
      <trkpt lat="42.86687" lon="0.2559">
        <ele>2063.8</ele>
        <time>2017-02-22T09:22:30Z</time>
      </trkpt>
      <trkpt lat="42.86687" lon="0.2559">
        <ele>2063.8</ele>
        <time>2017-02-22T09:22:35Z</time>
      </trkpt>
      <trkpt lat="42.86687" lon="0.2559">
        <ele>2063.8</ele>
        <time>2017-02-22T09:22:40Z</time>
      </trkpt>
      <trkpt lat="42.86687" lon="0.2559">
        <ele>2064</ele>
        <time>2017-02-22T09:22:45Z</time>
      </trkpt>
      <trkpt lat="42.86687" lon="0.2559">
        <ele>2064.2</ele>
        <time>2017-02-22T09:22:50Z</time>
      </trkpt>
      <trkpt lat="42.86687" lon="0.25589">
        <ele>2064.6</ele>
        <time>2017-02-22T09:22:55Z</time>
      </trkpt>
      <trkpt lat="42.86687" lon="0.25589">
        <ele>2064.8</ele>
        <time>2017-02-22T09:23:00Z</time>
      </trkpt>
      <trkpt lat="42.86687" lon="0.25589">
        <ele>2065</ele>
        <time>2017-02-22T09:23:05Z</time>
      </trkpt>
      <trkpt lat="42.86687" lon="0.25589">
        <ele>2065.2</ele>
        <time>2017-02-22T09:23:10Z</time>
      </trkpt>
      <trkpt lat="42.86687" lon="0.25589">
        <ele>2065.4</ele>
        <time>2017-02-22T09:23:15Z</time>
      </trkpt>
      <trkpt lat="42.86687" lon="0.25589">
        <ele>2065.6</ele>
        <time>2017-02-22T09:23:20Z</time>
      </trkpt>
      <trkpt lat="42.86687" lon="0.25589">
        <ele>2065.6</ele>
        <time>2017-02-22T09:23:25Z</time>
      </trkpt>
      <trkpt lat="42.86687" lon="0.2559">
        <ele>2065.6</ele>
        <time>2017-02-22T09:23:30Z</time>
      </trkpt>
      <trkpt lat="42.86687" lon="0.2559">
        <ele>2065.8</ele>
        <time>2017-02-22T09:23:35Z</time>
      </trkpt>
      <trkpt lat="42.86687" lon="0.2559">
        <ele>2065.8</ele>
        <time>2017-02-22T09:23:40Z</time>
      </trkpt>
      <trkpt lat="42.86686" lon="0.25591">
        <ele>2065.8</ele>
        <time>2017-02-22T09:23:45Z</time>
      </trkpt>
      <trkpt lat="42.86686" lon="0.25591">
        <ele>2065.6</ele>
        <time>2017-02-22T09:23:50Z</time>
      </trkpt>
      <trkpt lat="42.86686" lon="0.25591">
        <ele>2065.6</ele>
        <time>2017-02-22T09:23:55Z</time>
      </trkpt>
      <trkpt lat="42.86686" lon="0.25591">
        <ele>2065.4</ele>
        <time>2017-02-22T09:24:00Z</time>
      </trkpt>
      <trkpt lat="42.86686" lon="0.25591">
        <ele>2065.4</ele>
        <time>2017-02-22T09:24:05Z</time>
      </trkpt>
      <trkpt lat="42.86686" lon="0.25591">
        <ele>2065.2</ele>
        <time>2017-02-22T09:24:10Z</time>
      </trkpt>
      <trkpt lat="42.86686" lon="0.25591">
        <ele>2065.2</ele>
        <time>2017-02-22T09:24:15Z</time>
      </trkpt>
      <trkpt lat="42.86686" lon="0.25591">
        <ele>2065.2</ele>
        <time>2017-02-22T09:24:20Z</time>
      </trkpt>
      <trkpt lat="42.86686" lon="0.25591">
        <ele>2065.2</ele>
        <time>2017-02-22T09:24:25Z</time>
      </trkpt>
      <trkpt lat="42.86686" lon="0.25591">
        <ele>2065.2</ele>
        <time>2017-02-22T09:24:30Z</time>
      </trkpt>
      <trkpt lat="42.86686" lon="0.25591">
        <ele>2065.2</ele>
        <time>2017-02-22T09:24:35Z</time>
      </trkpt>
      <trkpt lat="42.86686" lon="0.25591">
        <ele>2065</ele>
        <time>2017-02-22T09:24:40Z</time>
      </trkpt>
      <trkpt lat="42.86686" lon="0.25591">
        <ele>2065</ele>
        <time>2017-02-22T09:24:45Z</time>
      </trkpt>
      <trkpt lat="42.86686" lon="0.25591">
        <ele>2065</ele>
        <time>2017-02-22T09:24:50Z</time>
      </trkpt>
      <trkpt lat="42.86686" lon="0.25591">
        <ele>2065</ele>
        <time>2017-02-22T09:24:55Z</time>
      </trkpt>
      <trkpt lat="42.86686" lon="0.25591">
        <ele>2065</ele>
        <time>2017-02-22T09:25:01Z</time>
      </trkpt>
      <trkpt lat="42.86686" lon="0.25591">
        <ele>2065</ele>
        <time>2017-02-22T09:25:06Z</time>
      </trkpt>
      <trkpt lat="42.86686" lon="0.25591">
        <ele>2064.8</ele>
        <time>2017-02-22T09:25:11Z</time>
      </trkpt>
      <trkpt lat="42.86686" lon="0.25591">
        <ele>2064.6</ele>
        <time>2017-02-22T09:25:16Z</time>
      </trkpt>
      <trkpt lat="42.86686" lon="0.25591">
        <ele>2064.6</ele>
        <time>2017-02-22T09:25:21Z</time>
      </trkpt>
      <trkpt lat="42.86686" lon="0.25591">
        <ele>2064.6</ele>
        <time>2017-02-22T09:25:26Z</time>
      </trkpt>
      <trkpt lat="42.86686" lon="0.25591">
        <ele>2064.4</ele>
        <time>2017-02-22T09:25:31Z</time>
      </trkpt>
      <trkpt lat="42.86686" lon="0.25591">
        <ele>2064.4</ele>
        <time>2017-02-22T09:25:36Z</time>
      </trkpt>
      <trkpt lat="42.86686" lon="0.25591">
        <ele>2064.4</ele>
        <time>2017-02-22T09:25:41Z</time>
      </trkpt>
      <trkpt lat="42.86686" lon="0.25591">
        <ele>2064.4</ele>
        <time>2017-02-22T09:25:46Z</time>
      </trkpt>
      <trkpt lat="42.86686" lon="0.25591">
        <ele>2064.4</ele>
        <time>2017-02-22T09:25:51Z</time>
      </trkpt>
      <trkpt lat="42.86686" lon="0.25591">
        <ele>2064.4</ele>
        <time>2017-02-22T09:25:56Z</time>
      </trkpt>
      <trkpt lat="42.86686" lon="0.25591">
        <ele>2064.4</ele>
        <time>2017-02-22T09:26:01Z</time>
      </trkpt>
      <trkpt lat="42.86686" lon="0.25591">
        <ele>2064.4</ele>
        <time>2017-02-22T09:26:06Z</time>
      </trkpt>
      <trkpt lat="42.86686" lon="0.25591">
        <ele>2064.2</ele>
        <time>2017-02-22T09:26:11Z</time>
      </trkpt>
      <trkpt lat="42.86687" lon="0.25592">
        <ele>2065.6</ele>
        <time>2017-02-22T09:26:16Z</time>
      </trkpt>
      <trkpt lat="42.86689" lon="0.25593">
        <ele>2064</ele>
        <time>2017-02-22T09:26:21Z</time>
      </trkpt>
      <trkpt lat="42.86692" lon="0.25594">
        <ele>2063.8</ele>
        <time>2017-02-22T09:26:26Z</time>
      </trkpt>
      <trkpt lat="42.86697" lon="0.25595">
        <ele>2064.4</ele>
        <time>2017-02-22T09:26:31Z</time>
      </trkpt>
      <trkpt lat="42.867" lon="0.25597">
        <ele>2063</ele>
        <time>2017-02-22T09:26:36Z</time>
      </trkpt>
      <trkpt lat="42.86703" lon="0.25599">
        <ele>2063.2</ele>
        <time>2017-02-22T09:26:41Z</time>
      </trkpt>
      <trkpt lat="42.86706" lon="0.25603">
        <ele>2063.8</ele>
        <time>2017-02-22T09:26:46Z</time>
      </trkpt>
      <trkpt lat="42.86708" lon="0.25607">
        <ele>2067.4</ele>
        <time>2017-02-22T09:26:51Z</time>
      </trkpt>
      <trkpt lat="42.86711" lon="0.25609">
        <ele>2065.4</ele>
        <time>2017-02-22T09:26:56Z</time>
      </trkpt>
      <trkpt lat="42.86714" lon="0.25613">
        <ele>2067.4</ele>
        <time>2017-02-22T09:27:01Z</time>
      </trkpt>
      <trkpt lat="42.86716" lon="0.25616">
        <ele>2070.6</ele>
        <time>2017-02-22T09:27:06Z</time>
      </trkpt>
      <trkpt lat="42.86718" lon="0.2562">
        <ele>2068.4</ele>
        <time>2017-02-22T09:27:11Z</time>
      </trkpt>
      <trkpt lat="42.86721" lon="0.25623">
        <ele>2068.4</ele>
        <time>2017-02-22T09:27:16Z</time>
      </trkpt>
      <trkpt lat="42.86723" lon="0.25625">
        <ele>2074.2</ele>
        <time>2017-02-22T09:27:21Z</time>
      </trkpt>
      <trkpt lat="42.86726" lon="0.25626">
        <ele>2076</ele>
        <time>2017-02-22T09:27:26Z</time>
      </trkpt>
      <trkpt lat="42.86729" lon="0.25627">
        <ele>2074.4</ele>
        <time>2017-02-22T09:27:31Z</time>
      </trkpt>
      <trkpt lat="42.86731" lon="0.25627">
        <ele>2077</ele>
        <time>2017-02-22T09:27:36Z</time>
      </trkpt>
      <trkpt lat="42.86733" lon="0.25628">
        <ele>2079</ele>
        <time>2017-02-22T09:27:41Z</time>
      </trkpt>
      <trkpt lat="42.86736" lon="0.25628">
        <ele>2081.8</ele>
        <time>2017-02-22T09:27:46Z</time>
      </trkpt>
      <trkpt lat="42.86738" lon="0.25628">
        <ele>2081.8</ele>
        <time>2017-02-22T09:27:51Z</time>
      </trkpt>
      <trkpt lat="42.86738" lon="0.25629">
        <ele>2083.4</ele>
        <time>2017-02-22T09:27:56Z</time>
      </trkpt>
      <trkpt lat="42.86738" lon="0.2563">
        <ele>2081</ele>
        <time>2017-02-22T09:28:01Z</time>
      </trkpt>
      <trkpt lat="42.86739" lon="0.2563">
        <ele>2084.2</ele>
        <time>2017-02-22T09:28:06Z</time>
      </trkpt>
      <trkpt lat="42.86741" lon="0.25629">
        <ele>2082.6</ele>
        <time>2017-02-22T09:28:11Z</time>
      </trkpt>
      <trkpt lat="42.86741" lon="0.25629">
        <ele>2081.2</ele>
        <time>2017-02-22T09:28:16Z</time>
      </trkpt>
      <trkpt lat="42.86742" lon="0.25627">
        <ele>2081</ele>
        <time>2017-02-22T09:28:21Z</time>
      </trkpt>
      <trkpt lat="42.86743" lon="0.25626">
        <ele>2079.6</ele>
        <time>2017-02-22T09:28:26Z</time>
      </trkpt>
      <trkpt lat="42.86744" lon="0.25624">
        <ele>2078</ele>
        <time>2017-02-22T09:28:31Z</time>
      </trkpt>
      <trkpt lat="42.86745" lon="0.25622">
        <ele>2075</ele>
        <time>2017-02-22T09:28:36Z</time>
      </trkpt>
      <trkpt lat="42.86746" lon="0.2562">
        <ele>2075.8</ele>
        <time>2017-02-22T09:28:41Z</time>
      </trkpt>
      <trkpt lat="42.86748" lon="0.25618">
        <ele>2073.4</ele>
        <time>2017-02-22T09:28:46Z</time>
      </trkpt>
      <trkpt lat="42.8675" lon="0.25616">
        <ele>2073.2</ele>
        <time>2017-02-22T09:28:51Z</time>
      </trkpt>
      <trkpt lat="42.86752" lon="0.25616">
        <ele>2076.8</ele>
        <time>2017-02-22T09:28:56Z</time>
      </trkpt>
      <trkpt lat="42.86754" lon="0.25614">
        <ele>2078.4</ele>
        <time>2017-02-22T09:29:01Z</time>
      </trkpt>
      <trkpt lat="42.86755" lon="0.25612">
        <ele>2077.4</ele>
        <time>2017-02-22T09:29:06Z</time>
      </trkpt>
      <trkpt lat="42.86756" lon="0.2561">
        <ele>2077.6</ele>
        <time>2017-02-22T09:29:11Z</time>
      </trkpt>
      <trkpt lat="42.86757" lon="0.25607">
        <ele>2076.8</ele>
        <time>2017-02-22T09:29:16Z</time>
      </trkpt>
      <trkpt lat="42.86759" lon="0.25605">
        <ele>2075.4</ele>
        <time>2017-02-22T09:29:21Z</time>
      </trkpt>
      <trkpt lat="42.86761" lon="0.25602">
        <ele>2079</ele>
        <time>2017-02-22T09:29:26Z</time>
      </trkpt>
      <trkpt lat="42.86762" lon="0.25601">
        <ele>2078.2</ele>
        <time>2017-02-22T09:29:31Z</time>
      </trkpt>
      <trkpt lat="42.86764" lon="0.25599">
        <ele>2079.8</ele>
        <time>2017-02-22T09:29:36Z</time>
      </trkpt>
      <trkpt lat="42.86766" lon="0.25597">
        <ele>2082</ele>
        <time>2017-02-22T09:29:41Z</time>
      </trkpt>
      <trkpt lat="42.86769" lon="0.25596">
        <ele>2080.8</ele>
        <time>2017-02-22T09:29:46Z</time>
      </trkpt>
      <trkpt lat="42.86771" lon="0.25595">
        <ele>2079.8</ele>
        <time>2017-02-22T09:29:51Z</time>
      </trkpt>
      <trkpt lat="42.86772" lon="0.25594">
        <ele>2080.8</ele>
        <time>2017-02-22T09:29:56Z</time>
      </trkpt>
      <trkpt lat="42.86772" lon="0.25594">
        <ele>2082</ele>
        <time>2017-02-22T09:30:01Z</time>
      </trkpt>
      <trkpt lat="42.86772" lon="0.25594">
        <ele>2083</ele>
        <time>2017-02-22T09:30:06Z</time>
      </trkpt>
      <trkpt lat="42.86774" lon="0.25595">
        <ele>2081</ele>
        <time>2017-02-22T09:30:11Z</time>
      </trkpt>
      <trkpt lat="42.86776" lon="0.25597">
        <ele>2083.2</ele>
        <time>2017-02-22T09:30:16Z</time>
      </trkpt>
      <trkpt lat="42.86778" lon="0.25598">
        <ele>2086.2</ele>
        <time>2017-02-22T09:30:21Z</time>
      </trkpt>
      <trkpt lat="42.8678" lon="0.25599">
        <ele>2085</ele>
        <time>2017-02-22T09:30:26Z</time>
      </trkpt>
      <trkpt lat="42.86783" lon="0.256">
        <ele>2088.8</ele>
        <time>2017-02-22T09:30:31Z</time>
      </trkpt>
      <trkpt lat="42.86786" lon="0.25599">
        <ele>2088.4</ele>
        <time>2017-02-22T09:30:36Z</time>
      </trkpt>
      <trkpt lat="42.86787" lon="0.25597">
        <ele>2088.6</ele>
        <time>2017-02-22T09:30:42Z</time>
      </trkpt>
      <trkpt lat="42.86787" lon="0.25595">
        <ele>2088.4</ele>
        <time>2017-02-22T09:30:47Z</time>
      </trkpt>
      <trkpt lat="42.86787" lon="0.25595">
        <ele>2088.6</ele>
        <time>2017-02-22T09:30:52Z</time>
      </trkpt>
      <trkpt lat="42.86788" lon="0.25592">
        <ele>2090.8</ele>
        <time>2017-02-22T09:30:57Z</time>
      </trkpt>
      <trkpt lat="42.8679" lon="0.25592">
        <ele>2091</ele>
        <time>2017-02-22T09:31:02Z</time>
      </trkpt>
      <trkpt lat="42.86792" lon="0.25593">
        <ele>2095.4</ele>
        <time>2017-02-22T09:31:07Z</time>
      </trkpt>
      <trkpt lat="42.86794" lon="0.25594">
        <ele>2094.8</ele>
        <time>2017-02-22T09:31:12Z</time>
      </trkpt>
      <trkpt lat="42.86796" lon="0.25596">
        <ele>2094.8</ele>
        <time>2017-02-22T09:31:17Z</time>
      </trkpt>
      <trkpt lat="42.86798" lon="0.25598">
        <ele>2096.2</ele>
        <time>2017-02-22T09:31:22Z</time>
      </trkpt>
      <trkpt lat="42.86799" lon="0.25597">
        <ele>2093</ele>
        <time>2017-02-22T09:31:27Z</time>
      </trkpt>
      <trkpt lat="42.86801" lon="0.25594">
        <ele>2092.8</ele>
        <time>2017-02-22T09:31:32Z</time>
      </trkpt>
      <trkpt lat="42.86802" lon="0.25592">
        <ele>2091.8</ele>
        <time>2017-02-22T09:31:37Z</time>
      </trkpt>
      <trkpt lat="42.86803" lon="0.2559">
        <ele>2093.2</ele>
        <time>2017-02-22T09:31:42Z</time>
      </trkpt>
      <trkpt lat="42.86804" lon="0.25588">
        <ele>2093.6</ele>
        <time>2017-02-22T09:31:47Z</time>
      </trkpt>
      <trkpt lat="42.86806" lon="0.25587">
        <ele>2094.4</ele>
        <time>2017-02-22T09:31:52Z</time>
      </trkpt>
      <trkpt lat="42.86808" lon="0.25588">
        <ele>2095.2</ele>
        <time>2017-02-22T09:31:57Z</time>
      </trkpt>
      <trkpt lat="42.8681" lon="0.2559">
        <ele>2095.8</ele>
        <time>2017-02-22T09:32:02Z</time>
      </trkpt>
      <trkpt lat="42.86812" lon="0.25592">
        <ele>2099.4</ele>
        <time>2017-02-22T09:32:07Z</time>
      </trkpt>
      <trkpt lat="42.86814" lon="0.25593">
        <ele>2100.2</ele>
        <time>2017-02-22T09:32:12Z</time>
      </trkpt>
      <trkpt lat="42.86814" lon="0.2559">
        <ele>2101.2</ele>
        <time>2017-02-22T09:32:17Z</time>
      </trkpt>
      <trkpt lat="42.86814" lon="0.25588">
        <ele>2099</ele>
        <time>2017-02-22T09:32:22Z</time>
      </trkpt>
      <trkpt lat="42.86814" lon="0.25585">
        <ele>2100.6</ele>
        <time>2017-02-22T09:32:27Z</time>
      </trkpt>
      <trkpt lat="42.86814" lon="0.25582">
        <ele>2100.4</ele>
        <time>2017-02-22T09:32:32Z</time>
      </trkpt>
      <trkpt lat="42.86814" lon="0.2558">
        <ele>2100.4</ele>
        <time>2017-02-22T09:32:37Z</time>
      </trkpt>
      <trkpt lat="42.86814" lon="0.2558">
        <ele>2099.6</ele>
        <time>2017-02-22T09:32:42Z</time>
      </trkpt>
      <trkpt lat="42.86814" lon="0.2558">
        <ele>2099</ele>
        <time>2017-02-22T09:32:47Z</time>
      </trkpt>
      <trkpt lat="42.86815" lon="0.2558">
        <ele>2098.6</ele>
        <time>2017-02-22T09:32:52Z</time>
      </trkpt>
      <trkpt lat="42.86815" lon="0.2558">
        <ele>2097.8</ele>
        <time>2017-02-22T09:32:57Z</time>
      </trkpt>
      <trkpt lat="42.86817" lon="0.25579">
        <ele>2098.2</ele>
        <time>2017-02-22T09:33:02Z</time>
      </trkpt>
      <trkpt lat="42.8682" lon="0.2558">
        <ele>2098.6</ele>
        <time>2017-02-22T09:33:07Z</time>
      </trkpt>
      <trkpt lat="42.86823" lon="0.2558">
        <ele>2098.6</ele>
        <time>2017-02-22T09:33:12Z</time>
      </trkpt>
      <trkpt lat="42.86826" lon="0.25581">
        <ele>2096</ele>
        <time>2017-02-22T09:33:17Z</time>
      </trkpt>
      <trkpt lat="42.86829" lon="0.25583">
        <ele>2099</ele>
        <time>2017-02-22T09:33:22Z</time>
      </trkpt>
      <trkpt lat="42.86832" lon="0.25585">
        <ele>2096.8</ele>
        <time>2017-02-22T09:33:27Z</time>
      </trkpt>
      <trkpt lat="42.86833" lon="0.25585">
        <ele>2098.2</ele>
        <time>2017-02-22T09:33:32Z</time>
      </trkpt>
      <trkpt lat="42.86833" lon="0.25585">
        <ele>2099</ele>
        <time>2017-02-22T09:33:37Z</time>
      </trkpt>
      <trkpt lat="42.86833" lon="0.25585">
        <ele>2099.4</ele>
        <time>2017-02-22T09:33:42Z</time>
      </trkpt>
      <trkpt lat="42.86833" lon="0.25585">
        <ele>2100</ele>
        <time>2017-02-22T09:33:47Z</time>
      </trkpt>
      <trkpt lat="42.86833" lon="0.25585">
        <ele>2100.2</ele>
        <time>2017-02-22T09:33:52Z</time>
      </trkpt>
      <trkpt lat="42.86833" lon="0.25585">
        <ele>2100.4</ele>
        <time>2017-02-22T09:33:57Z</time>
      </trkpt>
      <trkpt lat="42.86833" lon="0.25585">
        <ele>2100.6</ele>
        <time>2017-02-22T09:34:02Z</time>
      </trkpt>
      <trkpt lat="42.86833" lon="0.25585">
        <ele>2100.8</ele>
        <time>2017-02-22T09:34:07Z</time>
      </trkpt>
      <trkpt lat="42.86833" lon="0.25585">
        <ele>2101</ele>
        <time>2017-02-22T09:34:12Z</time>
      </trkpt>
      <trkpt lat="42.86833" lon="0.25585">
        <ele>2101.2</ele>
        <time>2017-02-22T09:34:17Z</time>
      </trkpt>
      <trkpt lat="42.86833" lon="0.25584">
        <ele>2099.6</ele>
        <time>2017-02-22T09:34:22Z</time>
      </trkpt>
      <trkpt lat="42.86836" lon="0.25582">
        <ele>2101.2</ele>
        <time>2017-02-22T09:34:27Z</time>
      </trkpt>
      <trkpt lat="42.86838" lon="0.2558">
        <ele>2104</ele>
        <time>2017-02-22T09:34:32Z</time>
      </trkpt>
      <trkpt lat="42.8684" lon="0.25578">
        <ele>2105.8</ele>
        <time>2017-02-22T09:34:37Z</time>
      </trkpt>
      <trkpt lat="42.86843" lon="0.25576">
        <ele>2105.8</ele>
        <time>2017-02-22T09:34:42Z</time>
      </trkpt>
      <trkpt lat="42.86844" lon="0.25573">
        <ele>2107.4</ele>
        <time>2017-02-22T09:34:47Z</time>
      </trkpt>
      <trkpt lat="42.86846" lon="0.25571">
        <ele>2108.8</ele>
        <time>2017-02-22T09:34:52Z</time>
      </trkpt>
      <trkpt lat="42.86848" lon="0.25568">
        <ele>2106.8</ele>
        <time>2017-02-22T09:34:57Z</time>
      </trkpt>
      <trkpt lat="42.8685" lon="0.25565">
        <ele>2110.2</ele>
        <time>2017-02-22T09:35:02Z</time>
      </trkpt>
      <trkpt lat="42.86851" lon="0.25563">
        <ele>2111.2</ele>
        <time>2017-02-22T09:35:07Z</time>
      </trkpt>
      <trkpt lat="42.86853" lon="0.2556">
        <ele>2111.2</ele>
        <time>2017-02-22T09:35:12Z</time>
      </trkpt>
      <trkpt lat="42.86855" lon="0.25557">
        <ele>2114.6</ele>
        <time>2017-02-22T09:35:17Z</time>
      </trkpt>
      <trkpt lat="42.86855" lon="0.25555">
        <ele>2118.6</ele>
        <time>2017-02-22T09:35:22Z</time>
      </trkpt>
      <trkpt lat="42.86857" lon="0.25552">
        <ele>2117.2</ele>
        <time>2017-02-22T09:35:27Z</time>
      </trkpt>
      <trkpt lat="42.86859" lon="0.2555">
        <ele>2119.4</ele>
        <time>2017-02-22T09:35:32Z</time>
      </trkpt>
      <trkpt lat="42.86861" lon="0.25547">
        <ele>2119.8</ele>
        <time>2017-02-22T09:35:37Z</time>
      </trkpt>
      <trkpt lat="42.86863" lon="0.25545">
        <ele>2121.6</ele>
        <time>2017-02-22T09:35:42Z</time>
      </trkpt>
      <trkpt lat="42.86865" lon="0.25543">
        <ele>2119.2</ele>
        <time>2017-02-22T09:35:47Z</time>
      </trkpt>
      <trkpt lat="42.86867" lon="0.25541">
        <ele>2121.8</ele>
        <time>2017-02-22T09:35:52Z</time>
      </trkpt>
      <trkpt lat="42.8687" lon="0.25539">
        <ele>2120.6</ele>
        <time>2017-02-22T09:35:57Z</time>
      </trkpt>
      <trkpt lat="42.86872" lon="0.25537">
        <ele>2122</ele>
        <time>2017-02-22T09:36:02Z</time>
      </trkpt>
      <trkpt lat="42.86874" lon="0.25534">
        <ele>2125.6</ele>
        <time>2017-02-22T09:36:07Z</time>
      </trkpt>
      <trkpt lat="42.86875" lon="0.25532">
        <ele>2130.4</ele>
        <time>2017-02-22T09:36:12Z</time>
      </trkpt>
      <trkpt lat="42.86877" lon="0.2553">
        <ele>2128</ele>
        <time>2017-02-22T09:36:17Z</time>
      </trkpt>
      <trkpt lat="42.86879" lon="0.25528">
        <ele>2130.4</ele>
        <time>2017-02-22T09:36:22Z</time>
      </trkpt>
      <trkpt lat="42.86882" lon="0.25526">
        <ele>2132</ele>
        <time>2017-02-22T09:36:27Z</time>
      </trkpt>
      <trkpt lat="42.86884" lon="0.25524">
        <ele>2134</ele>
        <time>2017-02-22T09:36:32Z</time>
      </trkpt>
      <trkpt lat="42.86886" lon="0.25522">
        <ele>2133.8</ele>
        <time>2017-02-22T09:36:37Z</time>
      </trkpt>
      <trkpt lat="42.86887" lon="0.2552">
        <ele>2134.2</ele>
        <time>2017-02-22T09:36:42Z</time>
      </trkpt>
      <trkpt lat="42.86889" lon="0.25518">
        <ele>2139.8</ele>
        <time>2017-02-22T09:36:47Z</time>
      </trkpt>
      <trkpt lat="42.8689" lon="0.25516">
        <ele>2138.4</ele>
        <time>2017-02-22T09:36:52Z</time>
      </trkpt>
      <trkpt lat="42.86892" lon="0.25513">
        <ele>2140</ele>
        <time>2017-02-22T09:36:57Z</time>
      </trkpt>
      <trkpt lat="42.86893" lon="0.25511">
        <ele>2137</ele>
        <time>2017-02-22T09:37:02Z</time>
      </trkpt>
      <trkpt lat="42.86895" lon="0.25509">
        <ele>2139</ele>
        <time>2017-02-22T09:37:07Z</time>
      </trkpt>
      <trkpt lat="42.86896" lon="0.25507">
        <ele>2140</ele>
        <time>2017-02-22T09:37:12Z</time>
      </trkpt>
      <trkpt lat="42.86898" lon="0.25505">
        <ele>2140.2</ele>
        <time>2017-02-22T09:37:17Z</time>
      </trkpt>
      <trkpt lat="42.86899" lon="0.25502">
        <ele>2135.8</ele>
        <time>2017-02-22T09:37:22Z</time>
      </trkpt>
      <trkpt lat="42.86901" lon="0.255">
        <ele>2140.4</ele>
        <time>2017-02-22T09:37:27Z</time>
      </trkpt>
      <trkpt lat="42.86902" lon="0.25498">
        <ele>2139.6</ele>
        <time>2017-02-22T09:37:32Z</time>
      </trkpt>
      <trkpt lat="42.86904" lon="0.25496">
        <ele>2141</ele>
        <time>2017-02-22T09:37:37Z</time>
      </trkpt>
      <trkpt lat="42.86905" lon="0.25494">
        <ele>2139.6</ele>
        <time>2017-02-22T09:37:42Z</time>
      </trkpt>
      <trkpt lat="42.86907" lon="0.25492">
        <ele>2141.2</ele>
        <time>2017-02-22T09:37:47Z</time>
      </trkpt>
      <trkpt lat="42.86909" lon="0.25491">
        <ele>2141</ele>
        <time>2017-02-22T09:37:52Z</time>
      </trkpt>
      <trkpt lat="42.86911" lon="0.2549">
        <ele>2146.8</ele>
        <time>2017-02-22T09:37:57Z</time>
      </trkpt>
      <trkpt lat="42.86912" lon="0.25488">
        <ele>2144.2</ele>
        <time>2017-02-22T09:38:02Z</time>
      </trkpt>
      <trkpt lat="42.86914" lon="0.25485">
        <ele>2148.6</ele>
        <time>2017-02-22T09:38:07Z</time>
      </trkpt>
      <trkpt lat="42.86916" lon="0.25483">
        <ele>2148.4</ele>
        <time>2017-02-22T09:38:12Z</time>
      </trkpt>
      <trkpt lat="42.86918" lon="0.25481">
        <ele>2149.8</ele>
        <time>2017-02-22T09:38:17Z</time>
      </trkpt>
      <trkpt lat="42.86919" lon="0.25479">
        <ele>2152.2</ele>
        <time>2017-02-22T09:38:22Z</time>
      </trkpt>
      <trkpt lat="42.8692" lon="0.25477">
        <ele>2156.6</ele>
        <time>2017-02-22T09:38:27Z</time>
      </trkpt>
      <trkpt lat="42.86921" lon="0.25474">
        <ele>2156</ele>
        <time>2017-02-22T09:38:32Z</time>
      </trkpt>
      <trkpt lat="42.86921" lon="0.25472">
        <ele>2154.2</ele>
        <time>2017-02-22T09:38:37Z</time>
      </trkpt>
      <trkpt lat="42.86922" lon="0.2547">
        <ele>2154.2</ele>
        <time>2017-02-22T09:38:42Z</time>
      </trkpt>
      <trkpt lat="42.86924" lon="0.25468">
        <ele>2153.8</ele>
        <time>2017-02-22T09:38:47Z</time>
      </trkpt>
      <trkpt lat="42.86926" lon="0.25467">
        <ele>2153.4</ele>
        <time>2017-02-22T09:38:52Z</time>
      </trkpt>
      <trkpt lat="42.86929" lon="0.25465">
        <ele>2153.4</ele>
        <time>2017-02-22T09:38:57Z</time>
      </trkpt>
      <trkpt lat="42.8693" lon="0.25464">
        <ele>2156</ele>
        <time>2017-02-22T09:39:02Z</time>
      </trkpt>
      <trkpt lat="42.86931" lon="0.25462">
        <ele>2156.2</ele>
        <time>2017-02-22T09:39:07Z</time>
      </trkpt>
      <trkpt lat="42.86931" lon="0.25459">
        <ele>2154.4</ele>
        <time>2017-02-22T09:39:12Z</time>
      </trkpt>
      <trkpt lat="42.86932" lon="0.25457">
        <ele>2154.8</ele>
        <time>2017-02-22T09:39:17Z</time>
      </trkpt>
      <trkpt lat="42.86933" lon="0.25455">
        <ele>2156.4</ele>
        <time>2017-02-22T09:39:22Z</time>
      </trkpt>
      <trkpt lat="42.86934" lon="0.25452">
        <ele>2158.6</ele>
        <time>2017-02-22T09:39:27Z</time>
      </trkpt>
      <trkpt lat="42.86935" lon="0.2545">
        <ele>2154.2</ele>
        <time>2017-02-22T09:39:32Z</time>
      </trkpt>
      <trkpt lat="42.86935" lon="0.25447">
        <ele>2156.6</ele>
        <time>2017-02-22T09:39:37Z</time>
      </trkpt>
      <trkpt lat="42.86937" lon="0.25446">
        <ele>2158</ele>
        <time>2017-02-22T09:39:42Z</time>
      </trkpt>
      <trkpt lat="42.86939" lon="0.25446">
        <ele>2157.2</ele>
        <time>2017-02-22T09:39:47Z</time>
      </trkpt>
      <trkpt lat="42.86941" lon="0.25447">
        <ele>2155.6</ele>
        <time>2017-02-22T09:39:52Z</time>
      </trkpt>
      <trkpt lat="42.86943" lon="0.25448">
        <ele>2156</ele>
        <time>2017-02-22T09:39:57Z</time>
      </trkpt>
      <trkpt lat="42.86944" lon="0.25449">
        <ele>2156.6</ele>
        <time>2017-02-22T09:40:02Z</time>
      </trkpt>
      <trkpt lat="42.86946" lon="0.2545">
        <ele>2160</ele>
        <time>2017-02-22T09:40:07Z</time>
      </trkpt>
      <trkpt lat="42.86948" lon="0.25452">
        <ele>2160.6</ele>
        <time>2017-02-22T09:40:12Z</time>
      </trkpt>
      <trkpt lat="42.8695" lon="0.25453">
        <ele>2161.6</ele>
        <time>2017-02-22T09:40:17Z</time>
      </trkpt>
      <trkpt lat="42.86952" lon="0.25454">
        <ele>2161</ele>
        <time>2017-02-22T09:40:22Z</time>
      </trkpt>
      <trkpt lat="42.86954" lon="0.25455">
        <ele>2164.2</ele>
        <time>2017-02-22T09:40:27Z</time>
      </trkpt>
      <trkpt lat="42.86956" lon="0.25456">
        <ele>2161.4</ele>
        <time>2017-02-22T09:40:32Z</time>
      </trkpt>
      <trkpt lat="42.86958" lon="0.25457">
        <ele>2161.6</ele>
        <time>2017-02-22T09:40:37Z</time>
      </trkpt>
      <trkpt lat="42.8696" lon="0.25457">
        <ele>2161.6</ele>
        <time>2017-02-22T09:40:42Z</time>
      </trkpt>
      <trkpt lat="42.86963" lon="0.25456">
        <ele>2162.6</ele>
        <time>2017-02-22T09:40:47Z</time>
      </trkpt>
      <trkpt lat="42.86967" lon="0.25455">
        <ele>2162.6</ele>
        <time>2017-02-22T09:40:53Z</time>
      </trkpt>
      <trkpt lat="42.86969" lon="0.25454">
        <ele>2164.2</ele>
        <time>2017-02-22T09:40:58Z</time>
      </trkpt>
      <trkpt lat="42.86972" lon="0.25454">
        <ele>2164.8</ele>
        <time>2017-02-22T09:41:03Z</time>
      </trkpt>
      <trkpt lat="42.86972" lon="0.25451">
        <ele>2162.8</ele>
        <time>2017-02-22T09:41:08Z</time>
      </trkpt>
      <trkpt lat="42.86972" lon="0.25449">
        <ele>2158.8</ele>
        <time>2017-02-22T09:41:13Z</time>
      </trkpt>
      <trkpt lat="42.86972" lon="0.25446">
        <ele>2164.2</ele>
        <time>2017-02-22T09:41:18Z</time>
      </trkpt>
      <trkpt lat="42.86972" lon="0.25443">
        <ele>2159.8</ele>
        <time>2017-02-22T09:41:23Z</time>
      </trkpt>
      <trkpt lat="42.86972" lon="0.25441">
        <ele>2157.2</ele>
        <time>2017-02-22T09:41:28Z</time>
      </trkpt>
      <trkpt lat="42.86972" lon="0.25438">
        <ele>2156.4</ele>
        <time>2017-02-22T09:41:33Z</time>
      </trkpt>
      <trkpt lat="42.86973" lon="0.25435">
        <ele>2156.6</ele>
        <time>2017-02-22T09:41:38Z</time>
      </trkpt>
      <trkpt lat="42.86973" lon="0.25432">
        <ele>2157</ele>
        <time>2017-02-22T09:41:43Z</time>
      </trkpt>
      <trkpt lat="42.86973" lon="0.25429">
        <ele>2155.2</ele>
        <time>2017-02-22T09:41:48Z</time>
      </trkpt>
      <trkpt lat="42.86973" lon="0.25426">
        <ele>2160.8</ele>
        <time>2017-02-22T09:41:53Z</time>
      </trkpt>
      <trkpt lat="42.86974" lon="0.25423">
        <ele>2158.2</ele>
        <time>2017-02-22T09:41:58Z</time>
      </trkpt>
      <trkpt lat="42.86974" lon="0.25421">
        <ele>2160.6</ele>
        <time>2017-02-22T09:42:03Z</time>
      </trkpt>
      <trkpt lat="42.86974" lon="0.25418">
        <ele>2163.8</ele>
        <time>2017-02-22T09:42:08Z</time>
      </trkpt>
      <trkpt lat="42.86975" lon="0.25415">
        <ele>2161.6</ele>
        <time>2017-02-22T09:42:13Z</time>
      </trkpt>
      <trkpt lat="42.86975" lon="0.25412">
        <ele>2165</ele>
        <time>2017-02-22T09:42:18Z</time>
      </trkpt>
      <trkpt lat="42.86975" lon="0.25409">
        <ele>2164.8</ele>
        <time>2017-02-22T09:42:23Z</time>
      </trkpt>
      <trkpt lat="42.86976" lon="0.25406">
        <ele>2164.6</ele>
        <time>2017-02-22T09:42:28Z</time>
      </trkpt>
      <trkpt lat="42.86977" lon="0.25404">
        <ele>2167.2</ele>
        <time>2017-02-22T09:42:33Z</time>
      </trkpt>
      <trkpt lat="42.86977" lon="0.25401">
        <ele>2170.2</ele>
        <time>2017-02-22T09:42:38Z</time>
      </trkpt>
      <trkpt lat="42.86978" lon="0.25398">
        <ele>2167.8</ele>
        <time>2017-02-22T09:42:43Z</time>
      </trkpt>
      <trkpt lat="42.86979" lon="0.25395">
        <ele>2169.8</ele>
        <time>2017-02-22T09:42:48Z</time>
      </trkpt>
      <trkpt lat="42.8698" lon="0.25393">
        <ele>2172.8</ele>
        <time>2017-02-22T09:42:53Z</time>
      </trkpt>
      <trkpt lat="42.86981" lon="0.2539">
        <ele>2174.2</ele>
        <time>2017-02-22T09:42:58Z</time>
      </trkpt>
      <trkpt lat="42.86982" lon="0.25388">
        <ele>2175.2</ele>
        <time>2017-02-22T09:43:03Z</time>
      </trkpt>
      <trkpt lat="42.86983" lon="0.25385">
        <ele>2170.6</ele>
        <time>2017-02-22T09:43:08Z</time>
      </trkpt>
      <trkpt lat="42.86984" lon="0.25382">
        <ele>2171.4</ele>
        <time>2017-02-22T09:43:13Z</time>
      </trkpt>
      <trkpt lat="42.86985" lon="0.2538">
        <ele>2173</ele>
        <time>2017-02-22T09:43:18Z</time>
      </trkpt>
      <trkpt lat="42.86986" lon="0.25377">
        <ele>2171.8</ele>
        <time>2017-02-22T09:43:23Z</time>
      </trkpt>
      <trkpt lat="42.86986" lon="0.25375">
        <ele>2173.8</ele>
        <time>2017-02-22T09:43:28Z</time>
      </trkpt>
      <trkpt lat="42.86987" lon="0.25372">
        <ele>2176.4</ele>
        <time>2017-02-22T09:43:33Z</time>
      </trkpt>
      <trkpt lat="42.86988" lon="0.2537">
        <ele>2178.4</ele>
        <time>2017-02-22T09:43:38Z</time>
      </trkpt>
      <trkpt lat="42.86989" lon="0.25367">
        <ele>2177.6</ele>
        <time>2017-02-22T09:43:43Z</time>
      </trkpt>
      <trkpt lat="42.8699" lon="0.25364">
        <ele>2177.8</ele>
        <time>2017-02-22T09:43:48Z</time>
      </trkpt>
      <trkpt lat="42.86991" lon="0.25362">
        <ele>2176.8</ele>
        <time>2017-02-22T09:43:53Z</time>
      </trkpt>
      <trkpt lat="42.86991" lon="0.25358">
        <ele>2178.8</ele>
        <time>2017-02-22T09:43:58Z</time>
      </trkpt>
      <trkpt lat="42.86992" lon="0.25355">
        <ele>2178.8</ele>
        <time>2017-02-22T09:44:03Z</time>
      </trkpt>
      <trkpt lat="42.86993" lon="0.25353">
        <ele>2181.2</ele>
        <time>2017-02-22T09:44:08Z</time>
      </trkpt>
      <trkpt lat="42.86993" lon="0.25349">
        <ele>2182.8</ele>
        <time>2017-02-22T09:44:13Z</time>
      </trkpt>
      <trkpt lat="42.86993" lon="0.25346">
        <ele>2181.6</ele>
        <time>2017-02-22T09:44:18Z</time>
      </trkpt>
      <trkpt lat="42.86993" lon="0.25343">
        <ele>2182.2</ele>
        <time>2017-02-22T09:44:23Z</time>
      </trkpt>
      <trkpt lat="42.86993" lon="0.2534">
        <ele>2183.8</ele>
        <time>2017-02-22T09:44:28Z</time>
      </trkpt>
      <trkpt lat="42.86994" lon="0.25338">
        <ele>2184.8</ele>
        <time>2017-02-22T09:44:33Z</time>
      </trkpt>
      <trkpt lat="42.86994" lon="0.25335">
        <ele>2183.4</ele>
        <time>2017-02-22T09:44:38Z</time>
      </trkpt>
      <trkpt lat="42.86993" lon="0.25333">
        <ele>2182.6</ele>
        <time>2017-02-22T09:44:43Z</time>
      </trkpt>
      <trkpt lat="42.86993" lon="0.25331">
        <ele>2183.4</ele>
        <time>2017-02-22T09:44:48Z</time>
      </trkpt>
      <trkpt lat="42.86993" lon="0.25328">
        <ele>2183.6</ele>
        <time>2017-02-22T09:44:53Z</time>
      </trkpt>
      <trkpt lat="42.86993" lon="0.25326">
        <ele>2184</ele>
        <time>2017-02-22T09:44:58Z</time>
      </trkpt>
      <trkpt lat="42.86993" lon="0.25322">
        <ele>2183.4</ele>
        <time>2017-02-22T09:45:04Z</time>
      </trkpt>
      <trkpt lat="42.86993" lon="0.2532">
        <ele>2183.8</ele>
        <time>2017-02-22T09:45:09Z</time>
      </trkpt>
      <trkpt lat="42.86994" lon="0.25318">
        <ele>2183.8</ele>
        <time>2017-02-22T09:45:15Z</time>
      </trkpt>
      <trkpt lat="42.86996" lon="0.25316">
        <ele>2185.4</ele>
        <time>2017-02-22T09:45:20Z</time>
      </trkpt>
      <trkpt lat="42.86998" lon="0.25315">
        <ele>2186.8</ele>
        <time>2017-02-22T09:45:25Z</time>
      </trkpt>
      <trkpt lat="42.87" lon="0.25314">
        <ele>2187.2</ele>
        <time>2017-02-22T09:45:30Z</time>
      </trkpt>
      <trkpt lat="42.87002" lon="0.25314">
        <ele>2187</ele>
        <time>2017-02-22T09:45:35Z</time>
      </trkpt>
      <trkpt lat="42.87004" lon="0.25312">
        <ele>2187.2</ele>
        <time>2017-02-22T09:45:40Z</time>
      </trkpt>
      <trkpt lat="42.87006" lon="0.25311">
        <ele>2188.4</ele>
        <time>2017-02-22T09:45:45Z</time>
      </trkpt>
      <trkpt lat="42.87009" lon="0.2531">
        <ele>2186</ele>
        <time>2017-02-22T09:45:50Z</time>
      </trkpt>
      <trkpt lat="42.87011" lon="0.25309">
        <ele>2187.4</ele>
        <time>2017-02-22T09:45:55Z</time>
      </trkpt>
      <trkpt lat="42.87013" lon="0.25308">
        <ele>2188.8</ele>
        <time>2017-02-22T09:46:00Z</time>
      </trkpt>
      <trkpt lat="42.87016" lon="0.25307">
        <ele>2189.6</ele>
        <time>2017-02-22T09:46:05Z</time>
      </trkpt>
      <trkpt lat="42.87018" lon="0.25306">
        <ele>2189.2</ele>
        <time>2017-02-22T09:46:10Z</time>
      </trkpt>
      <trkpt lat="42.8702" lon="0.25306">
        <ele>2191.8</ele>
        <time>2017-02-22T09:46:15Z</time>
      </trkpt>
      <trkpt lat="42.87023" lon="0.25305">
        <ele>2195.8</ele>
        <time>2017-02-22T09:46:20Z</time>
      </trkpt>
      <trkpt lat="42.87025" lon="0.25305">
        <ele>2194.8</ele>
        <time>2017-02-22T09:46:25Z</time>
      </trkpt>
      <trkpt lat="42.87028" lon="0.25304">
        <ele>2198</ele>
        <time>2017-02-22T09:46:30Z</time>
      </trkpt>
      <trkpt lat="42.8703" lon="0.25304">
        <ele>2197</ele>
        <time>2017-02-22T09:46:35Z</time>
      </trkpt>
      <trkpt lat="42.87032" lon="0.25304">
        <ele>2199.2</ele>
        <time>2017-02-22T09:46:40Z</time>
      </trkpt>
      <trkpt lat="42.87034" lon="0.25303">
        <ele>2201.6</ele>
        <time>2017-02-22T09:46:45Z</time>
      </trkpt>
      <trkpt lat="42.87037" lon="0.25302">
        <ele>2202.8</ele>
        <time>2017-02-22T09:46:50Z</time>
      </trkpt>
      <trkpt lat="42.87039" lon="0.25301">
        <ele>2201.8</ele>
        <time>2017-02-22T09:46:55Z</time>
      </trkpt>
      <trkpt lat="42.8704" lon="0.253">
        <ele>2202</ele>
        <time>2017-02-22T09:47:00Z</time>
      </trkpt>
      <trkpt lat="42.87042" lon="0.25297">
        <ele>2204.8</ele>
        <time>2017-02-22T09:47:05Z</time>
      </trkpt>
      <trkpt lat="42.87043" lon="0.25295">
        <ele>2204.2</ele>
        <time>2017-02-22T09:47:10Z</time>
      </trkpt>
      <trkpt lat="42.87044" lon="0.25293">
        <ele>2205</ele>
        <time>2017-02-22T09:47:15Z</time>
      </trkpt>
      <trkpt lat="42.87044" lon="0.25291">
        <ele>2203.2</ele>
        <time>2017-02-22T09:47:20Z</time>
      </trkpt>
      <trkpt lat="42.87044" lon="0.25289">
        <ele>2202.8</ele>
        <time>2017-02-22T09:47:25Z</time>
      </trkpt>
      <trkpt lat="42.87045" lon="0.25287">
        <ele>2203.4</ele>
        <time>2017-02-22T09:47:30Z</time>
      </trkpt>
      <trkpt lat="42.87046" lon="0.25285">
        <ele>2201.4</ele>
        <time>2017-02-22T09:47:35Z</time>
      </trkpt>
      <trkpt lat="42.87047" lon="0.25283">
        <ele>2202.4</ele>
        <time>2017-02-22T09:47:40Z</time>
      </trkpt>
      <trkpt lat="42.87048" lon="0.25281">
        <ele>2204.6</ele>
        <time>2017-02-22T09:47:45Z</time>
      </trkpt>
      <trkpt lat="42.8705" lon="0.25279">
        <ele>2205.4</ele>
        <time>2017-02-22T09:47:50Z</time>
      </trkpt>
      <trkpt lat="42.87051" lon="0.25277">
        <ele>2206.2</ele>
        <time>2017-02-22T09:47:55Z</time>
      </trkpt>
      <trkpt lat="42.87052" lon="0.25274">
        <ele>2205</ele>
        <time>2017-02-22T09:48:00Z</time>
      </trkpt>
      <trkpt lat="42.87053" lon="0.25272">
        <ele>2208.2</ele>
        <time>2017-02-22T09:48:05Z</time>
      </trkpt>
      <trkpt lat="42.87054" lon="0.2527">
        <ele>2209.8</ele>
        <time>2017-02-22T09:48:10Z</time>
      </trkpt>
      <trkpt lat="42.87056" lon="0.25267">
        <ele>2210.8</ele>
        <time>2017-02-22T09:48:15Z</time>
      </trkpt>
      <trkpt lat="42.87057" lon="0.25265">
        <ele>2213</ele>
        <time>2017-02-22T09:48:20Z</time>
      </trkpt>
      <trkpt lat="42.87059" lon="0.25263">
        <ele>2213.8</ele>
        <time>2017-02-22T09:48:25Z</time>
      </trkpt>
      <trkpt lat="42.87061" lon="0.25261">
        <ele>2214.6</ele>
        <time>2017-02-22T09:48:30Z</time>
      </trkpt>
      <trkpt lat="42.87062" lon="0.25259">
        <ele>2213.8</ele>
        <time>2017-02-22T09:48:35Z</time>
      </trkpt>
      <trkpt lat="42.87064" lon="0.25256">
        <ele>2218.8</ele>
        <time>2017-02-22T09:48:40Z</time>
      </trkpt>
      <trkpt lat="42.87066" lon="0.25254">
        <ele>2219.2</ele>
        <time>2017-02-22T09:48:45Z</time>
      </trkpt>
      <trkpt lat="42.87067" lon="0.25252">
        <ele>2221.2</ele>
        <time>2017-02-22T09:48:50Z</time>
      </trkpt>
      <trkpt lat="42.87069" lon="0.2525">
        <ele>2220.4</ele>
        <time>2017-02-22T09:48:55Z</time>
      </trkpt>
      <trkpt lat="42.8707" lon="0.25249">
        <ele>2222.2</ele>
        <time>2017-02-22T09:49:00Z</time>
      </trkpt>
      <trkpt lat="42.87072" lon="0.2525">
        <ele>2223.2</ele>
        <time>2017-02-22T09:49:05Z</time>
      </trkpt>
      <trkpt lat="42.87074" lon="0.2525">
        <ele>2222.8</ele>
        <time>2017-02-22T09:49:10Z</time>
      </trkpt>
      <trkpt lat="42.87076" lon="0.25251">
        <ele>2224.4</ele>
        <time>2017-02-22T09:49:15Z</time>
      </trkpt>
      <trkpt lat="42.87079" lon="0.25251">
        <ele>2224</ele>
        <time>2017-02-22T09:49:20Z</time>
      </trkpt>
      <trkpt lat="42.87081" lon="0.25252">
        <ele>2225.6</ele>
        <time>2017-02-22T09:49:25Z</time>
      </trkpt>
      <trkpt lat="42.87084" lon="0.25253">
        <ele>2224.6</ele>
        <time>2017-02-22T09:49:30Z</time>
      </trkpt>
      <trkpt lat="42.87086" lon="0.25253">
        <ele>2225.4</ele>
        <time>2017-02-22T09:49:35Z</time>
      </trkpt>
      <trkpt lat="42.87088" lon="0.25253">
        <ele>2228</ele>
        <time>2017-02-22T09:49:40Z</time>
      </trkpt>
      <trkpt lat="42.8709" lon="0.25255">
        <ele>2225.2</ele>
        <time>2017-02-22T09:49:45Z</time>
      </trkpt>
      <trkpt lat="42.87092" lon="0.25256">
        <ele>2225</ele>
        <time>2017-02-22T09:49:50Z</time>
      </trkpt>
      <trkpt lat="42.87095" lon="0.25257">
        <ele>2228</ele>
        <time>2017-02-22T09:49:55Z</time>
      </trkpt>
      <trkpt lat="42.87097" lon="0.25258">
        <ele>2229.6</ele>
        <time>2017-02-22T09:50:00Z</time>
      </trkpt>
      <trkpt lat="42.87097" lon="0.25256">
        <ele>2228.4</ele>
        <time>2017-02-22T09:50:05Z</time>
      </trkpt>
      <trkpt lat="42.87098" lon="0.25253">
        <ele>2226.4</ele>
        <time>2017-02-22T09:50:10Z</time>
      </trkpt>
      <trkpt lat="42.87098" lon="0.25251">
        <ele>2226.4</ele>
        <time>2017-02-22T09:50:15Z</time>
      </trkpt>
      <trkpt lat="42.87098" lon="0.25249">
        <ele>2227.8</ele>
        <time>2017-02-22T09:50:20Z</time>
      </trkpt>
      <trkpt lat="42.87098" lon="0.25249">
        <ele>2226.2</ele>
        <time>2017-02-22T09:50:25Z</time>
      </trkpt>
      <trkpt lat="42.87098" lon="0.25249">
        <ele>2225.2</ele>
        <time>2017-02-22T09:50:30Z</time>
      </trkpt>
      <trkpt lat="42.87097" lon="0.25247">
        <ele>2224.4</ele>
        <time>2017-02-22T09:50:35Z</time>
      </trkpt>
      <trkpt lat="42.87097" lon="0.25247">
        <ele>2222.2</ele>
        <time>2017-02-22T09:50:40Z</time>
      </trkpt>
      <trkpt lat="42.87097" lon="0.25247">
        <ele>2222.4</ele>
        <time>2017-02-22T09:50:45Z</time>
      </trkpt>
      <trkpt lat="42.87097" lon="0.25247">
        <ele>2222.6</ele>
        <time>2017-02-22T09:50:50Z</time>
      </trkpt>
      <trkpt lat="42.87097" lon="0.25247">
        <ele>2222.6</ele>
        <time>2017-02-22T09:50:55Z</time>
      </trkpt>
      <trkpt lat="42.87097" lon="0.25247">
        <ele>2222.6</ele>
        <time>2017-02-22T09:51:00Z</time>
      </trkpt>
      <trkpt lat="42.87097" lon="0.25247">
        <ele>2222.8</ele>
        <time>2017-02-22T09:51:05Z</time>
      </trkpt>
      <trkpt lat="42.87097" lon="0.25247">
        <ele>2222.8</ele>
        <time>2017-02-22T09:51:10Z</time>
      </trkpt>
      <trkpt lat="42.87097" lon="0.25247">
        <ele>2222.8</ele>
        <time>2017-02-22T09:51:15Z</time>
      </trkpt>
      <trkpt lat="42.87097" lon="0.25247">
        <ele>2222.8</ele>
        <time>2017-02-22T09:51:20Z</time>
      </trkpt>
      <trkpt lat="42.87097" lon="0.25247">
        <ele>2222.8</ele>
        <time>2017-02-22T09:51:25Z</time>
      </trkpt>
      <trkpt lat="42.87097" lon="0.25247">
        <ele>2222.8</ele>
        <time>2017-02-22T09:51:30Z</time>
      </trkpt>
      <trkpt lat="42.87097" lon="0.25247">
        <ele>2222.8</ele>
        <time>2017-02-22T09:51:35Z</time>
      </trkpt>
      <trkpt lat="42.87097" lon="0.25247">
        <ele>2222.8</ele>
        <time>2017-02-22T09:51:40Z</time>
      </trkpt>
      <trkpt lat="42.87097" lon="0.25247">
        <ele>2222.8</ele>
        <time>2017-02-22T09:51:45Z</time>
      </trkpt>
      <trkpt lat="42.87097" lon="0.25247">
        <ele>2222.8</ele>
        <time>2017-02-22T09:51:50Z</time>
      </trkpt>
      <trkpt lat="42.87097" lon="0.25247">
        <ele>2222.8</ele>
        <time>2017-02-22T09:51:55Z</time>
      </trkpt>
      <trkpt lat="42.87097" lon="0.25247">
        <ele>2222.8</ele>
        <time>2017-02-22T09:52:00Z</time>
      </trkpt>
      <trkpt lat="42.87097" lon="0.25247">
        <ele>2222.8</ele>
        <time>2017-02-22T09:52:05Z</time>
      </trkpt>
      <trkpt lat="42.87097" lon="0.25247">
        <ele>2222.8</ele>
        <time>2017-02-22T09:52:10Z</time>
      </trkpt>
      <trkpt lat="42.87097" lon="0.25247">
        <ele>2222.8</ele>
        <time>2017-02-22T09:52:15Z</time>
      </trkpt>
      <trkpt lat="42.87097" lon="0.25247">
        <ele>2222.8</ele>
        <time>2017-02-22T09:52:20Z</time>
      </trkpt>
      <trkpt lat="42.87097" lon="0.25247">
        <ele>2222.8</ele>
        <time>2017-02-22T09:52:25Z</time>
      </trkpt>
      <trkpt lat="42.87097" lon="0.25247">
        <ele>2222.8</ele>
        <time>2017-02-22T09:52:30Z</time>
      </trkpt>
      <trkpt lat="42.87097" lon="0.25246">
        <ele>2221.4</ele>
        <time>2017-02-22T09:52:35Z</time>
      </trkpt>
      <trkpt lat="42.87096" lon="0.25246">
        <ele>2222.4</ele>
        <time>2017-02-22T09:52:40Z</time>
      </trkpt>
      <trkpt lat="42.87096" lon="0.25244">
        <ele>2222.6</ele>
        <time>2017-02-22T09:52:45Z</time>
      </trkpt>
      <trkpt lat="42.87096" lon="0.25241">
        <ele>2222</ele>
        <time>2017-02-22T09:52:50Z</time>
      </trkpt>
      <trkpt lat="42.87096" lon="0.25238">
        <ele>2222.6</ele>
        <time>2017-02-22T09:52:55Z</time>
      </trkpt>
      <trkpt lat="42.87096" lon="0.25236">
        <ele>2223.8</ele>
        <time>2017-02-22T09:53:00Z</time>
      </trkpt>
      <trkpt lat="42.87096" lon="0.25236">
        <ele>2224.6</ele>
        <time>2017-02-22T09:53:05Z</time>
      </trkpt>
      <trkpt lat="42.87096" lon="0.25235">
        <ele>2225.4</ele>
        <time>2017-02-22T09:53:10Z</time>
      </trkpt>
      <trkpt lat="42.87095" lon="0.25232">
        <ele>2226</ele>
        <time>2017-02-22T09:53:15Z</time>
      </trkpt>
      <trkpt lat="42.87094" lon="0.25228">
        <ele>2227.2</ele>
        <time>2017-02-22T09:53:20Z</time>
      </trkpt>
      <trkpt lat="42.87094" lon="0.25226">
        <ele>2227</ele>
        <time>2017-02-22T09:53:25Z</time>
      </trkpt>
      <trkpt lat="42.87094" lon="0.25223">
        <ele>2228.6</ele>
        <time>2017-02-22T09:53:30Z</time>
      </trkpt>
      <trkpt lat="42.87094" lon="0.2522">
        <ele>2228.4</ele>
        <time>2017-02-22T09:53:35Z</time>
      </trkpt>
      <trkpt lat="42.87094" lon="0.25217">
        <ele>2229.8</ele>
        <time>2017-02-22T09:53:40Z</time>
      </trkpt>
      <trkpt lat="42.87093" lon="0.25214">
        <ele>2233.6</ele>
        <time>2017-02-22T09:53:45Z</time>
      </trkpt>
      <trkpt lat="42.87093" lon="0.25211">
        <ele>2234</ele>
        <time>2017-02-22T09:53:50Z</time>
      </trkpt>
      <trkpt lat="42.87092" lon="0.25208">
        <ele>2228.6</ele>
        <time>2017-02-22T09:53:55Z</time>
      </trkpt>
      <trkpt lat="42.87091" lon="0.25205">
        <ele>2234.2</ele>
        <time>2017-02-22T09:54:00Z</time>
      </trkpt>
      <trkpt lat="42.87091" lon="0.25202">
        <ele>2236.8</ele>
        <time>2017-02-22T09:54:06Z</time>
      </trkpt>
      <trkpt lat="42.8709" lon="0.25199">
        <ele>2234</ele>
        <time>2017-02-22T09:54:11Z</time>
      </trkpt>
      <trkpt lat="42.8709" lon="0.25196">
        <ele>2234</ele>
        <time>2017-02-22T09:54:16Z</time>
      </trkpt>
      <trkpt lat="42.8709" lon="0.25193">
        <ele>2231.8</ele>
        <time>2017-02-22T09:54:21Z</time>
      </trkpt>
      <trkpt lat="42.8709" lon="0.2519">
        <ele>2235.4</ele>
        <time>2017-02-22T09:54:26Z</time>
      </trkpt>
      <trkpt lat="42.87089" lon="0.25186">
        <ele>2239.2</ele>
        <time>2017-02-22T09:54:31Z</time>
      </trkpt>
      <trkpt lat="42.87089" lon="0.25183">
        <ele>2237.6</ele>
        <time>2017-02-22T09:54:36Z</time>
      </trkpt>
      <trkpt lat="42.87089" lon="0.25181">
        <ele>2242</ele>
        <time>2017-02-22T09:54:41Z</time>
      </trkpt>
      <trkpt lat="42.87089" lon="0.25178">
        <ele>2239.6</ele>
        <time>2017-02-22T09:54:46Z</time>
      </trkpt>
      <trkpt lat="42.87088" lon="0.25177">
        <ele>2237</ele>
        <time>2017-02-22T09:54:51Z</time>
      </trkpt>
      <trkpt lat="42.87087" lon="0.25174">
        <ele>2235.4</ele>
        <time>2017-02-22T09:54:56Z</time>
      </trkpt>
      <trkpt lat="42.87087" lon="0.25172">
        <ele>2235.2</ele>
        <time>2017-02-22T09:55:01Z</time>
      </trkpt>
      <trkpt lat="42.87086" lon="0.25169">
        <ele>2234.4</ele>
        <time>2017-02-22T09:55:06Z</time>
      </trkpt>
      <trkpt lat="42.87086" lon="0.25166">
        <ele>2234.6</ele>
        <time>2017-02-22T09:55:11Z</time>
      </trkpt>
      <trkpt lat="42.87085" lon="0.25163">
        <ele>2235</ele>
        <time>2017-02-22T09:55:16Z</time>
      </trkpt>
      <trkpt lat="42.87085" lon="0.25159">
        <ele>2236.6</ele>
        <time>2017-02-22T09:55:21Z</time>
      </trkpt>
      <trkpt lat="42.87085" lon="0.25156">
        <ele>2235.8</ele>
        <time>2017-02-22T09:55:26Z</time>
      </trkpt>
      <trkpt lat="42.87084" lon="0.25152">
        <ele>2238.2</ele>
        <time>2017-02-22T09:55:31Z</time>
      </trkpt>
      <trkpt lat="42.87084" lon="0.2515">
        <ele>2237.2</ele>
        <time>2017-02-22T09:55:36Z</time>
      </trkpt>
      <trkpt lat="42.87083" lon="0.25147">
        <ele>2236.4</ele>
        <time>2017-02-22T09:55:41Z</time>
      </trkpt>
      <trkpt lat="42.87083" lon="0.25144">
        <ele>2235.4</ele>
        <time>2017-02-22T09:55:46Z</time>
      </trkpt>
      <trkpt lat="42.87083" lon="0.25141">
        <ele>2238</ele>
        <time>2017-02-22T09:55:51Z</time>
      </trkpt>
      <trkpt lat="42.87082" lon="0.25137">
        <ele>2234.8</ele>
        <time>2017-02-22T09:55:56Z</time>
      </trkpt>
      <trkpt lat="42.8708" lon="0.25131">
        <ele>2243.4</ele>
        <time>2017-02-22T09:56:01Z</time>
      </trkpt>
      <trkpt lat="42.87079" lon="0.25128">
        <ele>2241.8</ele>
        <time>2017-02-22T09:56:06Z</time>
      </trkpt>
      <trkpt lat="42.87078" lon="0.25124">
        <ele>2246.2</ele>
        <time>2017-02-22T09:56:11Z</time>
      </trkpt>
      <trkpt lat="42.87077" lon="0.2512">
        <ele>2246.6</ele>
        <time>2017-02-22T09:56:16Z</time>
      </trkpt>
      <trkpt lat="42.87075" lon="0.25116">
        <ele>2249.4</ele>
        <time>2017-02-22T09:56:21Z</time>
      </trkpt>
      <trkpt lat="42.87073" lon="0.25112">
        <ele>2254.6</ele>
        <time>2017-02-22T09:56:26Z</time>
      </trkpt>
      <trkpt lat="42.87072" lon="0.25108">
        <ele>2258.4</ele>
        <time>2017-02-22T09:56:31Z</time>
      </trkpt>
      <trkpt lat="42.8707" lon="0.25106">
        <ele>2261.8</ele>
        <time>2017-02-22T09:56:36Z</time>
      </trkpt>
      <trkpt lat="42.8707" lon="0.25104">
        <ele>2265.2</ele>
        <time>2017-02-22T09:56:41Z</time>
      </trkpt>
      <trkpt lat="42.8707" lon="0.25104">
        <ele>2266.6</ele>
        <time>2017-02-22T09:56:46Z</time>
      </trkpt>
      <trkpt lat="42.8707" lon="0.25104">
        <ele>2267.4</ele>
        <time>2017-02-22T09:56:51Z</time>
      </trkpt>
      <trkpt lat="42.8707" lon="0.25104">
        <ele>2268.2</ele>
        <time>2017-02-22T09:56:56Z</time>
      </trkpt>
      <trkpt lat="42.8707" lon="0.25104">
        <ele>2268.8</ele>
        <time>2017-02-22T09:57:01Z</time>
      </trkpt>
      <trkpt lat="42.87068" lon="0.251">
        <ele>2269.8</ele>
        <time>2017-02-22T09:57:06Z</time>
      </trkpt>
      <trkpt lat="42.87069" lon="0.25102">
        <ele>2271.8</ele>
        <time>2017-02-22T09:57:11Z</time>
      </trkpt>
      <trkpt lat="42.87072" lon="0.25104">
        <ele>2274.8</ele>
        <time>2017-02-22T09:57:16Z</time>
      </trkpt>
      <trkpt lat="42.87076" lon="0.25106">
        <ele>2275.2</ele>
        <time>2017-02-22T09:57:21Z</time>
      </trkpt>
      <trkpt lat="42.87081" lon="0.25107">
        <ele>2276.8</ele>
        <time>2017-02-22T09:57:26Z</time>
      </trkpt>
      <trkpt lat="42.87083" lon="0.25108">
        <ele>2276</ele>
        <time>2017-02-22T09:57:31Z</time>
      </trkpt>
      <trkpt lat="42.87087" lon="0.2511">
        <ele>2277.2</ele>
        <time>2017-02-22T09:57:36Z</time>
      </trkpt>
      <trkpt lat="42.87089" lon="0.25111">
        <ele>2276.8</ele>
        <time>2017-02-22T09:57:41Z</time>
      </trkpt>
      <trkpt lat="42.87091" lon="0.25112">
        <ele>2277.4</ele>
        <time>2017-02-22T09:57:46Z</time>
      </trkpt>
      <trkpt lat="42.87093" lon="0.25112">
        <ele>2277</ele>
        <time>2017-02-22T09:57:51Z</time>
      </trkpt>
      <trkpt lat="42.87096" lon="0.25113">
        <ele>2277.2</ele>
        <time>2017-02-22T09:57:56Z</time>
      </trkpt>
      <trkpt lat="42.87098" lon="0.25114">
        <ele>2275.8</ele>
        <time>2017-02-22T09:58:01Z</time>
      </trkpt>
      <trkpt lat="42.871" lon="0.25114">
        <ele>2276.2</ele>
        <time>2017-02-22T09:58:06Z</time>
      </trkpt>
      <trkpt lat="42.87102" lon="0.25114">
        <ele>2275.8</ele>
        <time>2017-02-22T09:58:11Z</time>
      </trkpt>
      <trkpt lat="42.87105" lon="0.25114">
        <ele>2277.2</ele>
        <time>2017-02-22T09:58:16Z</time>
      </trkpt>
      <trkpt lat="42.87107" lon="0.25114">
        <ele>2277</ele>
        <time>2017-02-22T09:58:21Z</time>
      </trkpt>
      <trkpt lat="42.87109" lon="0.25114">
        <ele>2277.6</ele>
        <time>2017-02-22T09:58:26Z</time>
      </trkpt>
      <trkpt lat="42.87112" lon="0.25114">
        <ele>2277.6</ele>
        <time>2017-02-22T09:58:32Z</time>
      </trkpt>
      <trkpt lat="42.87114" lon="0.25114">
        <ele>2278</ele>
        <time>2017-02-22T09:58:37Z</time>
      </trkpt>
      <trkpt lat="42.87115" lon="0.25114">
        <ele>2277.4</ele>
        <time>2017-02-22T09:58:42Z</time>
      </trkpt>
      <trkpt lat="42.87117" lon="0.25114">
        <ele>2277.2</ele>
        <time>2017-02-22T09:58:47Z</time>
      </trkpt>
      <trkpt lat="42.87119" lon="0.25114">
        <ele>2278.8</ele>
        <time>2017-02-22T09:58:52Z</time>
      </trkpt>
      <trkpt lat="42.87121" lon="0.25115">
        <ele>2275.8</ele>
        <time>2017-02-22T09:58:57Z</time>
      </trkpt>
      <trkpt lat="42.87123" lon="0.25115">
        <ele>2274.8</ele>
        <time>2017-02-22T09:59:02Z</time>
      </trkpt>
      <trkpt lat="42.87126" lon="0.25116">
        <ele>2277.4</ele>
        <time>2017-02-22T09:59:07Z</time>
      </trkpt>
      <trkpt lat="42.87129" lon="0.25118">
        <ele>2277.8</ele>
        <time>2017-02-22T09:59:12Z</time>
      </trkpt>
      <trkpt lat="42.87131" lon="0.25118">
        <ele>2278.2</ele>
        <time>2017-02-22T09:59:17Z</time>
      </trkpt>
      <trkpt lat="42.87133" lon="0.25119">
        <ele>2279</ele>
        <time>2017-02-22T09:59:22Z</time>
      </trkpt>
      <trkpt lat="42.87135" lon="0.2512">
        <ele>2279.4</ele>
        <time>2017-02-22T09:59:27Z</time>
      </trkpt>
      <trkpt lat="42.87137" lon="0.25121">
        <ele>2281.4</ele>
        <time>2017-02-22T09:59:32Z</time>
      </trkpt>
      <trkpt lat="42.87139" lon="0.25122">
        <ele>2283.8</ele>
        <time>2017-02-22T09:59:37Z</time>
      </trkpt>
      <trkpt lat="42.8714" lon="0.25123">
        <ele>2285.8</ele>
        <time>2017-02-22T09:59:42Z</time>
      </trkpt>
      <trkpt lat="42.87141" lon="0.25124">
        <ele>2282.8</ele>
        <time>2017-02-22T09:59:47Z</time>
      </trkpt>
      <trkpt lat="42.87143" lon="0.25125">
        <ele>2282.6</ele>
        <time>2017-02-22T09:59:52Z</time>
      </trkpt>
      <trkpt lat="42.87145" lon="0.25125">
        <ele>2283</ele>
        <time>2017-02-22T09:59:57Z</time>
      </trkpt>
      <trkpt lat="42.87146" lon="0.25126">
        <ele>2287</ele>
        <time>2017-02-22T10:00:02Z</time>
      </trkpt>
      <trkpt lat="42.87149" lon="0.25127">
        <ele>2288.8</ele>
        <time>2017-02-22T10:00:07Z</time>
      </trkpt>
      <trkpt lat="42.87151" lon="0.25128">
        <ele>2289</ele>
        <time>2017-02-22T10:00:12Z</time>
      </trkpt>
      <trkpt lat="42.87153" lon="0.25129">
        <ele>2289.8</ele>
        <time>2017-02-22T10:00:17Z</time>
      </trkpt>
      <trkpt lat="42.87153" lon="0.25129">
        <ele>2289.4</ele>
        <time>2017-02-22T10:00:22Z</time>
      </trkpt>
      <trkpt lat="42.87153" lon="0.25129">
        <ele>2289.2</ele>
        <time>2017-02-22T10:00:27Z</time>
      </trkpt>
      <trkpt lat="42.87153" lon="0.25129">
        <ele>2288.8</ele>
        <time>2017-02-22T10:00:32Z</time>
      </trkpt>
      <trkpt lat="42.87153" lon="0.25129">
        <ele>2289.4</ele>
        <time>2017-02-22T10:00:37Z</time>
      </trkpt>
      <trkpt lat="42.87154" lon="0.25126">
        <ele>2289.4</ele>
        <time>2017-02-22T10:00:42Z</time>
      </trkpt>
      <trkpt lat="42.87154" lon="0.25123">
        <ele>2290.2</ele>
        <time>2017-02-22T10:00:47Z</time>
      </trkpt>
      <trkpt lat="42.87154" lon="0.2512">
        <ele>2288.8</ele>
        <time>2017-02-22T10:00:52Z</time>
      </trkpt>
      <trkpt lat="42.87154" lon="0.25117">
        <ele>2289.6</ele>
        <time>2017-02-22T10:00:57Z</time>
      </trkpt>
      <trkpt lat="42.87153" lon="0.25115">
        <ele>2289.2</ele>
        <time>2017-02-22T10:01:02Z</time>
      </trkpt>
      <trkpt lat="42.87153" lon="0.25113">
        <ele>2289.4</ele>
        <time>2017-02-22T10:01:07Z</time>
      </trkpt>
      <trkpt lat="42.87153" lon="0.25111">
        <ele>2290</ele>
        <time>2017-02-22T10:01:12Z</time>
      </trkpt>
      <trkpt lat="42.87152" lon="0.25108">
        <ele>2291</ele>
        <time>2017-02-22T10:01:17Z</time>
      </trkpt>
      <trkpt lat="42.87152" lon="0.25105">
        <ele>2290.8</ele>
        <time>2017-02-22T10:01:22Z</time>
      </trkpt>
      <trkpt lat="42.87152" lon="0.25102">
        <ele>2291</ele>
        <time>2017-02-22T10:01:27Z</time>
      </trkpt>
      <trkpt lat="42.87152" lon="0.251">
        <ele>2287.4</ele>
        <time>2017-02-22T10:01:32Z</time>
      </trkpt>
      <trkpt lat="42.87152" lon="0.25097">
        <ele>2292.2</ele>
        <time>2017-02-22T10:01:37Z</time>
      </trkpt>
      <trkpt lat="42.87152" lon="0.25094">
        <ele>2292.8</ele>
        <time>2017-02-22T10:01:42Z</time>
      </trkpt>
      <trkpt lat="42.87152" lon="0.25091">
        <ele>2293.2</ele>
        <time>2017-02-22T10:01:47Z</time>
      </trkpt>
      <trkpt lat="42.87153" lon="0.25088">
        <ele>2295</ele>
        <time>2017-02-22T10:01:52Z</time>
      </trkpt>
      <trkpt lat="42.87153" lon="0.25087">
        <ele>2294.4</ele>
        <time>2017-02-22T10:01:57Z</time>
      </trkpt>
      <trkpt lat="42.87153" lon="0.25088">
        <ele>2293.8</ele>
        <time>2017-02-22T10:02:02Z</time>
      </trkpt>
      <trkpt lat="42.87153" lon="0.25088">
        <ele>2293.6</ele>
        <time>2017-02-22T10:02:07Z</time>
      </trkpt>
      <trkpt lat="42.87153" lon="0.25088">
        <ele>2293.4</ele>
        <time>2017-02-22T10:02:12Z</time>
      </trkpt>
      <trkpt lat="42.87153" lon="0.25088">
        <ele>2293.2</ele>
        <time>2017-02-22T10:02:17Z</time>
      </trkpt>
      <trkpt lat="42.87153" lon="0.25088">
        <ele>2293.2</ele>
        <time>2017-02-22T10:02:22Z</time>
      </trkpt>
      <trkpt lat="42.87153" lon="0.25088">
        <ele>2293.2</ele>
        <time>2017-02-22T10:02:27Z</time>
      </trkpt>
      <trkpt lat="42.87153" lon="0.25088">
        <ele>2293</ele>
        <time>2017-02-22T10:02:32Z</time>
      </trkpt>
      <trkpt lat="42.87153" lon="0.25088">
        <ele>2293</ele>
        <time>2017-02-22T10:02:37Z</time>
      </trkpt>
      <trkpt lat="42.87153" lon="0.25088">
        <ele>2293</ele>
        <time>2017-02-22T10:02:42Z</time>
      </trkpt>
      <trkpt lat="42.87153" lon="0.25088">
        <ele>2293</ele>
        <time>2017-02-22T10:02:47Z</time>
      </trkpt>
      <trkpt lat="42.87153" lon="0.25088">
        <ele>2293.2</ele>
        <time>2017-02-22T10:02:52Z</time>
      </trkpt>
      <trkpt lat="42.87153" lon="0.25088">
        <ele>2293.2</ele>
        <time>2017-02-22T10:02:57Z</time>
      </trkpt>
      <trkpt lat="42.87153" lon="0.25088">
        <ele>2293.2</ele>
        <time>2017-02-22T10:03:02Z</time>
      </trkpt>
      <trkpt lat="42.87153" lon="0.25088">
        <ele>2293.2</ele>
        <time>2017-02-22T10:03:07Z</time>
      </trkpt>
      <trkpt lat="42.87153" lon="0.25088">
        <ele>2293.2</ele>
        <time>2017-02-22T10:03:12Z</time>
      </trkpt>
      <trkpt lat="42.87153" lon="0.25088">
        <ele>2293.2</ele>
        <time>2017-02-22T10:03:17Z</time>
      </trkpt>
      <trkpt lat="42.87154" lon="0.25088">
        <ele>2293.2</ele>
        <time>2017-02-22T10:03:22Z</time>
      </trkpt>
      <trkpt lat="42.87155" lon="0.25088">
        <ele>2293.4</ele>
        <time>2017-02-22T10:03:27Z</time>
      </trkpt>
      <trkpt lat="42.87155" lon="0.25088">
        <ele>2293.4</ele>
        <time>2017-02-22T10:03:32Z</time>
      </trkpt>
      <trkpt lat="42.87155" lon="0.25088">
        <ele>2293.4</ele>
        <time>2017-02-22T10:03:37Z</time>
      </trkpt>
      <trkpt lat="42.87155" lon="0.25088">
        <ele>2293.4</ele>
        <time>2017-02-22T10:03:42Z</time>
      </trkpt>
      <trkpt lat="42.87155" lon="0.25088">
        <ele>2293.4</ele>
        <time>2017-02-22T10:03:47Z</time>
      </trkpt>
      <trkpt lat="42.87155" lon="0.25088">
        <ele>2293.4</ele>
        <time>2017-02-22T10:03:52Z</time>
      </trkpt>
      <trkpt lat="42.87155" lon="0.25088">
        <ele>2293.2</ele>
        <time>2017-02-22T10:03:57Z</time>
      </trkpt>
      <trkpt lat="42.87155" lon="0.25088">
        <ele>2293.2</ele>
        <time>2017-02-22T10:04:02Z</time>
      </trkpt>
      <trkpt lat="42.87155" lon="0.25088">
        <ele>2293</ele>
        <time>2017-02-22T10:04:07Z</time>
      </trkpt>
      <trkpt lat="42.87155" lon="0.25088">
        <ele>2293</ele>
        <time>2017-02-22T10:04:12Z</time>
      </trkpt>
      <trkpt lat="42.87155" lon="0.25088">
        <ele>2292.8</ele>
        <time>2017-02-22T10:04:17Z</time>
      </trkpt>
      <trkpt lat="42.87155" lon="0.25088">
        <ele>2292.8</ele>
        <time>2017-02-22T10:04:22Z</time>
      </trkpt>
      <trkpt lat="42.87155" lon="0.25088">
        <ele>2292.8</ele>
        <time>2017-02-22T10:04:27Z</time>
      </trkpt>
      <trkpt lat="42.87156" lon="0.25089">
        <ele>2292.8</ele>
        <time>2017-02-22T10:04:32Z</time>
      </trkpt>
      <trkpt lat="42.87156" lon="0.25089">
        <ele>2293</ele>
        <time>2017-02-22T10:04:37Z</time>
      </trkpt>
      <trkpt lat="42.87156" lon="0.25089">
        <ele>2292.8</ele>
        <time>2017-02-22T10:04:42Z</time>
      </trkpt>
      <trkpt lat="42.87156" lon="0.25089">
        <ele>2292.8</ele>
        <time>2017-02-22T10:04:47Z</time>
      </trkpt>
      <trkpt lat="42.87156" lon="0.25089">
        <ele>2292.8</ele>
        <time>2017-02-22T10:04:52Z</time>
      </trkpt>
      <trkpt lat="42.87156" lon="0.25089">
        <ele>2293</ele>
        <time>2017-02-22T10:04:57Z</time>
      </trkpt>
      <trkpt lat="42.87155" lon="0.25089">
        <ele>2293.4</ele>
        <time>2017-02-22T10:05:03Z</time>
      </trkpt>
      <trkpt lat="42.87155" lon="0.25088">
        <ele>2294</ele>
        <time>2017-02-22T10:05:08Z</time>
      </trkpt>
      <trkpt lat="42.87153" lon="0.25087">
        <ele>2295</ele>
        <time>2017-02-22T10:05:13Z</time>
      </trkpt>
      <trkpt lat="42.87154" lon="0.25087">
        <ele>2295.6</ele>
        <time>2017-02-22T10:05:19Z</time>
      </trkpt>
      <trkpt lat="42.87153" lon="0.25087">
        <ele>2295.8</ele>
        <time>2017-02-22T10:05:24Z</time>
      </trkpt>
      <trkpt lat="42.87153" lon="0.25086">
        <ele>2296.2</ele>
        <time>2017-02-22T10:05:29Z</time>
      </trkpt>
      <trkpt lat="42.87154" lon="0.25085">
        <ele>2298.4</ele>
        <time>2017-02-22T10:05:34Z</time>
      </trkpt>
      <trkpt lat="42.87156" lon="0.25085">
        <ele>2299.2</ele>
        <time>2017-02-22T10:05:39Z</time>
      </trkpt>
      <trkpt lat="42.87158" lon="0.25085">
        <ele>2298.4</ele>
        <time>2017-02-22T10:05:44Z</time>
      </trkpt>
      <trkpt lat="42.87159" lon="0.25085">
        <ele>2300.4</ele>
        <time>2017-02-22T10:05:49Z</time>
      </trkpt>
      <trkpt lat="42.87159" lon="0.25085">
        <ele>2299.4</ele>
        <time>2017-02-22T10:05:54Z</time>
      </trkpt>
      <trkpt lat="42.87159" lon="0.25085">
        <ele>2298.8</ele>
        <time>2017-02-22T10:05:59Z</time>
      </trkpt>
      <trkpt lat="42.87159" lon="0.25084">
        <ele>2299.4</ele>
        <time>2017-02-22T10:06:04Z</time>
      </trkpt>
      <trkpt lat="42.87159" lon="0.25084">
        <ele>2300.2</ele>
        <time>2017-02-22T10:06:09Z</time>
      </trkpt>
      <trkpt lat="42.87159" lon="0.25084">
        <ele>2300.8</ele>
        <time>2017-02-22T10:06:14Z</time>
      </trkpt>
      <trkpt lat="42.87158" lon="0.25084">
        <ele>2301.2</ele>
        <time>2017-02-22T10:06:19Z</time>
      </trkpt>
      <trkpt lat="42.87158" lon="0.25084">
        <ele>2301.6</ele>
        <time>2017-02-22T10:06:24Z</time>
      </trkpt>
      <trkpt lat="42.87158" lon="0.25084">
        <ele>2302</ele>
        <time>2017-02-22T10:06:29Z</time>
      </trkpt>
      <trkpt lat="42.8716" lon="0.25085">
        <ele>2301.8</ele>
        <time>2017-02-22T10:06:34Z</time>
      </trkpt>
      <trkpt lat="42.87163" lon="0.25085">
        <ele>2301.8</ele>
        <time>2017-02-22T10:06:39Z</time>
      </trkpt>
      <trkpt lat="42.87166" lon="0.25085">
        <ele>2303</ele>
        <time>2017-02-22T10:06:44Z</time>
      </trkpt>
      <trkpt lat="42.87168" lon="0.25086">
        <ele>2305.2</ele>
        <time>2017-02-22T10:06:49Z</time>
      </trkpt>
      <trkpt lat="42.87171" lon="0.25086">
        <ele>2304.2</ele>
        <time>2017-02-22T10:06:54Z</time>
      </trkpt>
      <trkpt lat="42.87173" lon="0.25087">
        <ele>2308.8</ele>
        <time>2017-02-22T10:06:59Z</time>
      </trkpt>
      <trkpt lat="42.87175" lon="0.25088">
        <ele>2303.6</ele>
        <time>2017-02-22T10:07:04Z</time>
      </trkpt>
      <trkpt lat="42.87177" lon="0.25089">
        <ele>2305</ele>
        <time>2017-02-22T10:07:09Z</time>
      </trkpt>
      <trkpt lat="42.87179" lon="0.25091">
        <ele>2305.4</ele>
        <time>2017-02-22T10:07:14Z</time>
      </trkpt>
      <trkpt lat="42.87182" lon="0.25093">
        <ele>2307.4</ele>
        <time>2017-02-22T10:07:19Z</time>
      </trkpt>
      <trkpt lat="42.87183" lon="0.25095">
        <ele>2305.8</ele>
        <time>2017-02-22T10:07:24Z</time>
      </trkpt>
      <trkpt lat="42.87183" lon="0.25095">
        <ele>2306</ele>
        <time>2017-02-22T10:07:29Z</time>
      </trkpt>
      <trkpt lat="42.87183" lon="0.25095">
        <ele>2306</ele>
        <time>2017-02-22T10:07:34Z</time>
      </trkpt>
      <trkpt lat="42.87184" lon="0.25096">
        <ele>2306.4</ele>
        <time>2017-02-22T10:07:39Z</time>
      </trkpt>
      <trkpt lat="42.87185" lon="0.25095">
        <ele>2306.4</ele>
        <time>2017-02-22T10:07:44Z</time>
      </trkpt>
      <trkpt lat="42.87186" lon="0.25095">
        <ele>2307</ele>
        <time>2017-02-22T10:07:49Z</time>
      </trkpt>
      <trkpt lat="42.87187" lon="0.25093">
        <ele>2306.4</ele>
        <time>2017-02-22T10:07:54Z</time>
      </trkpt>
      <trkpt lat="42.87187" lon="0.25091">
        <ele>2307</ele>
        <time>2017-02-22T10:07:59Z</time>
      </trkpt>
      <trkpt lat="42.87187" lon="0.25089">
        <ele>2307.6</ele>
        <time>2017-02-22T10:08:04Z</time>
      </trkpt>
      <trkpt lat="42.87187" lon="0.25086">
        <ele>2309</ele>
        <time>2017-02-22T10:08:09Z</time>
      </trkpt>
      <trkpt lat="42.87186" lon="0.25083">
        <ele>2308.6</ele>
        <time>2017-02-22T10:08:14Z</time>
      </trkpt>
      <trkpt lat="42.87185" lon="0.2508">
        <ele>2310.8</ele>
        <time>2017-02-22T10:08:19Z</time>
      </trkpt>
      <trkpt lat="42.87184" lon="0.25076">
        <ele>2309.2</ele>
        <time>2017-02-22T10:08:24Z</time>
      </trkpt>
      <trkpt lat="42.87182" lon="0.25072">
        <ele>2313.8</ele>
        <time>2017-02-22T10:08:29Z</time>
      </trkpt>
      <trkpt lat="42.87181" lon="0.25069">
        <ele>2313</ele>
        <time>2017-02-22T10:08:34Z</time>
      </trkpt>
      <trkpt lat="42.8718" lon="0.25066">
        <ele>2314</ele>
        <time>2017-02-22T10:08:39Z</time>
      </trkpt>
      <trkpt lat="42.87179" lon="0.25063">
        <ele>2312.2</ele>
        <time>2017-02-22T10:08:44Z</time>
      </trkpt>
      <trkpt lat="42.87178" lon="0.2506">
        <ele>2316.2</ele>
        <time>2017-02-22T10:08:49Z</time>
      </trkpt>
      <trkpt lat="42.87177" lon="0.25057">
        <ele>2315.2</ele>
        <time>2017-02-22T10:08:54Z</time>
      </trkpt>
      <trkpt lat="42.87176" lon="0.25054">
        <ele>2320.4</ele>
        <time>2017-02-22T10:08:59Z</time>
      </trkpt>
      <trkpt lat="42.87175" lon="0.2505">
        <ele>2319.8</ele>
        <time>2017-02-22T10:09:04Z</time>
      </trkpt>
      <trkpt lat="42.87173" lon="0.25046">
        <ele>2320.8</ele>
        <time>2017-02-22T10:09:09Z</time>
      </trkpt>
      <trkpt lat="42.87173" lon="0.25043">
        <ele>2318.4</ele>
        <time>2017-02-22T10:09:14Z</time>
      </trkpt>
      <trkpt lat="42.87173" lon="0.25042">
        <ele>2316.6</ele>
        <time>2017-02-22T10:09:19Z</time>
      </trkpt>
      <trkpt lat="42.87174" lon="0.25041">
        <ele>2314.4</ele>
        <time>2017-02-22T10:09:24Z</time>
      </trkpt>
      <trkpt lat="42.87173" lon="0.2504">
        <ele>2312.8</ele>
        <time>2017-02-22T10:09:29Z</time>
      </trkpt>
      <trkpt lat="42.87173" lon="0.2504">
        <ele>2312.8</ele>
        <time>2017-02-22T10:09:34Z</time>
      </trkpt>
      <trkpt lat="42.87178" lon="0.2504">
        <ele>2309.8</ele>
        <time>2017-02-22T10:09:39Z</time>
      </trkpt>
      <trkpt lat="42.87181" lon="0.2504">
        <ele>2309.8</ele>
        <time>2017-02-22T10:09:44Z</time>
      </trkpt>
      <trkpt lat="42.87185" lon="0.2504">
        <ele>2312</ele>
        <time>2017-02-22T10:09:49Z</time>
      </trkpt>
      <trkpt lat="42.87188" lon="0.25041">
        <ele>2311.6</ele>
        <time>2017-02-22T10:09:54Z</time>
      </trkpt>
      <trkpt lat="42.8719" lon="0.25041">
        <ele>2316</ele>
        <time>2017-02-22T10:09:59Z</time>
      </trkpt>
      <trkpt lat="42.87193" lon="0.25041">
        <ele>2313.6</ele>
        <time>2017-02-22T10:10:04Z</time>
      </trkpt>
      <trkpt lat="42.87196" lon="0.25042">
        <ele>2318</ele>
        <time>2017-02-22T10:10:09Z</time>
      </trkpt>
      <trkpt lat="42.87199" lon="0.25043">
        <ele>2319.6</ele>
        <time>2017-02-22T10:10:15Z</time>
      </trkpt>
      <trkpt lat="42.87202" lon="0.25042">
        <ele>2321</ele>
        <time>2017-02-22T10:10:20Z</time>
      </trkpt>
      <trkpt lat="42.87205" lon="0.25042">
        <ele>2322.6</ele>
        <time>2017-02-22T10:10:25Z</time>
      </trkpt>
      <trkpt lat="42.87208" lon="0.25044">
        <ele>2325.2</ele>
        <time>2017-02-22T10:10:30Z</time>
      </trkpt>
      <trkpt lat="42.8721" lon="0.25045">
        <ele>2326.6</ele>
        <time>2017-02-22T10:10:35Z</time>
      </trkpt>
      <trkpt lat="42.87213" lon="0.25047">
        <ele>2330</ele>
        <time>2017-02-22T10:10:40Z</time>
      </trkpt>
      <trkpt lat="42.87216" lon="0.25049">
        <ele>2331.6</ele>
        <time>2017-02-22T10:10:45Z</time>
      </trkpt>
      <trkpt lat="42.87218" lon="0.2505">
        <ele>2330.2</ele>
        <time>2017-02-22T10:10:50Z</time>
      </trkpt>
      <trkpt lat="42.87219" lon="0.2505">
        <ele>2328.4</ele>
        <time>2017-02-22T10:10:55Z</time>
      </trkpt>
      <trkpt lat="42.87221" lon="0.2505">
        <ele>2329.8</ele>
        <time>2017-02-22T10:11:00Z</time>
      </trkpt>
      <trkpt lat="42.8722" lon="0.25051">
        <ele>2330.8</ele>
        <time>2017-02-22T10:11:05Z</time>
      </trkpt>
      <trkpt lat="42.87222" lon="0.25053">
        <ele>2332.4</ele>
        <time>2017-02-22T10:11:10Z</time>
      </trkpt>
      <trkpt lat="42.87224" lon="0.25055">
        <ele>2333.4</ele>
        <time>2017-02-22T10:11:15Z</time>
      </trkpt>
      <trkpt lat="42.87225" lon="0.25056">
        <ele>2333.8</ele>
        <time>2017-02-22T10:11:20Z</time>
      </trkpt>
      <trkpt lat="42.87226" lon="0.25058">
        <ele>2334.8</ele>
        <time>2017-02-22T10:11:25Z</time>
      </trkpt>
      <trkpt lat="42.87229" lon="0.2506">
        <ele>2335</ele>
        <time>2017-02-22T10:11:30Z</time>
      </trkpt>
      <trkpt lat="42.87231" lon="0.25062">
        <ele>2338.6</ele>
        <time>2017-02-22T10:11:35Z</time>
      </trkpt>
      <trkpt lat="42.87233" lon="0.25063">
        <ele>2339.2</ele>
        <time>2017-02-22T10:11:40Z</time>
      </trkpt>
      <trkpt lat="42.87235" lon="0.25065">
        <ele>2338.8</ele>
        <time>2017-02-22T10:11:45Z</time>
      </trkpt>
      <trkpt lat="42.87236" lon="0.25066">
        <ele>2339.6</ele>
        <time>2017-02-22T10:11:50Z</time>
      </trkpt>
      <trkpt lat="42.87238" lon="0.25068">
        <ele>2342.4</ele>
        <time>2017-02-22T10:11:55Z</time>
      </trkpt>
      <trkpt lat="42.87239" lon="0.2507">
        <ele>2342.2</ele>
        <time>2017-02-22T10:12:00Z</time>
      </trkpt>
      <trkpt lat="42.8724" lon="0.25072">
        <ele>2342</ele>
        <time>2017-02-22T10:12:05Z</time>
      </trkpt>
      <trkpt lat="42.87242" lon="0.25074">
        <ele>2345.4</ele>
        <time>2017-02-22T10:12:10Z</time>
      </trkpt>
      <trkpt lat="42.87243" lon="0.25076">
        <ele>2343.2</ele>
        <time>2017-02-22T10:12:15Z</time>
      </trkpt>
      <trkpt lat="42.87244" lon="0.25079">
        <ele>2343.2</ele>
        <time>2017-02-22T10:12:20Z</time>
      </trkpt>
      <trkpt lat="42.87246" lon="0.25081">
        <ele>2342.2</ele>
        <time>2017-02-22T10:12:25Z</time>
      </trkpt>
      <trkpt lat="42.87247" lon="0.25083">
        <ele>2343.6</ele>
        <time>2017-02-22T10:12:30Z</time>
      </trkpt>
      <trkpt lat="42.87249" lon="0.25086">
        <ele>2345.2</ele>
        <time>2017-02-22T10:12:35Z</time>
      </trkpt>
      <trkpt lat="42.8725" lon="0.25089">
        <ele>2345</ele>
        <time>2017-02-22T10:12:40Z</time>
      </trkpt>
      <trkpt lat="42.8725" lon="0.2509">
        <ele>2344.6</ele>
        <time>2017-02-22T10:12:45Z</time>
      </trkpt>
      <trkpt lat="42.8725" lon="0.2509">
        <ele>2345</ele>
        <time>2017-02-22T10:12:50Z</time>
      </trkpt>
      <trkpt lat="42.87251" lon="0.2509">
        <ele>2345.4</ele>
        <time>2017-02-22T10:12:55Z</time>
      </trkpt>
      <trkpt lat="42.87251" lon="0.25091">
        <ele>2347.6</ele>
        <time>2017-02-22T10:13:00Z</time>
      </trkpt>
      <trkpt lat="42.87252" lon="0.25091">
        <ele>2347.8</ele>
        <time>2017-02-22T10:13:05Z</time>
      </trkpt>
      <trkpt lat="42.87254" lon="0.25088">
        <ele>2348.8</ele>
        <time>2017-02-22T10:13:10Z</time>
      </trkpt>
      <trkpt lat="42.87255" lon="0.25086">
        <ele>2347</ele>
        <time>2017-02-22T10:13:15Z</time>
      </trkpt>
      <trkpt lat="42.87256" lon="0.25084">
        <ele>2347.8</ele>
        <time>2017-02-22T10:13:20Z</time>
      </trkpt>
      <trkpt lat="42.87257" lon="0.25082">
        <ele>2344.2</ele>
        <time>2017-02-22T10:13:25Z</time>
      </trkpt>
      <trkpt lat="42.87257" lon="0.25079">
        <ele>2347.2</ele>
        <time>2017-02-22T10:13:30Z</time>
      </trkpt>
      <trkpt lat="42.87256" lon="0.2508">
        <ele>2347.4</ele>
        <time>2017-02-22T10:13:35Z</time>
      </trkpt>
      <trkpt lat="42.87256" lon="0.2508">
        <ele>2347.8</ele>
        <time>2017-02-22T10:13:40Z</time>
      </trkpt>
      <trkpt lat="42.87255" lon="0.25081">
        <ele>2348.2</ele>
        <time>2017-02-22T10:13:45Z</time>
      </trkpt>
      <trkpt lat="42.87255" lon="0.25079">
        <ele>2348.6</ele>
        <time>2017-02-22T10:13:50Z</time>
      </trkpt>
      <trkpt lat="42.87257" lon="0.25081">
        <ele>2346.6</ele>
        <time>2017-02-22T10:13:55Z</time>
      </trkpt>
      <trkpt lat="42.87258" lon="0.25083">
        <ele>2347.8</ele>
        <time>2017-02-22T10:14:00Z</time>
      </trkpt>
      <trkpt lat="42.87258" lon="0.25084">
        <ele>2351.2</ele>
        <time>2017-02-22T10:14:05Z</time>
      </trkpt>
      <trkpt lat="42.8726" lon="0.25086">
        <ele>2353.2</ele>
        <time>2017-02-22T10:14:10Z</time>
      </trkpt>
      <trkpt lat="42.87261" lon="0.25087">
        <ele>2353.4</ele>
        <time>2017-02-22T10:14:15Z</time>
      </trkpt>
      <trkpt lat="42.87262" lon="0.25089">
        <ele>2353.8</ele>
        <time>2017-02-22T10:14:20Z</time>
      </trkpt>
      <trkpt lat="42.87263" lon="0.25091">
        <ele>2355</ele>
        <time>2017-02-22T10:14:25Z</time>
      </trkpt>
      <trkpt lat="42.87265" lon="0.25094">
        <ele>2357.8</ele>
        <time>2017-02-22T10:14:30Z</time>
      </trkpt>
      <trkpt lat="42.87266" lon="0.25095">
        <ele>2360.2</ele>
        <time>2017-02-22T10:14:35Z</time>
      </trkpt>
      <trkpt lat="42.87266" lon="0.25097">
        <ele>2358.4</ele>
        <time>2017-02-22T10:14:40Z</time>
      </trkpt>
      <trkpt lat="42.87267" lon="0.25098">
        <ele>2357.4</ele>
        <time>2017-02-22T10:14:45Z</time>
      </trkpt>
      <trkpt lat="42.87269" lon="0.251">
        <ele>2357.6</ele>
        <time>2017-02-22T10:14:50Z</time>
      </trkpt>
      <trkpt lat="42.8727" lon="0.25103">
        <ele>2355.8</ele>
        <time>2017-02-22T10:14:55Z</time>
      </trkpt>
      <trkpt lat="42.87271" lon="0.25105">
        <ele>2359</ele>
        <time>2017-02-22T10:15:00Z</time>
      </trkpt>
      <trkpt lat="42.8727" lon="0.2511">
        <ele>2357.6</ele>
        <time>2017-02-22T10:15:05Z</time>
      </trkpt>
      <trkpt lat="42.8727" lon="0.2511">
        <ele>2357.2</ele>
        <time>2017-02-22T10:15:10Z</time>
      </trkpt>
      <trkpt lat="42.8727" lon="0.2511">
        <ele>2357</ele>
        <time>2017-02-22T10:15:15Z</time>
      </trkpt>
      <trkpt lat="42.8727" lon="0.2511">
        <ele>2356.8</ele>
        <time>2017-02-22T10:15:20Z</time>
      </trkpt>
      <trkpt lat="42.8727" lon="0.25109">
        <ele>2356.8</ele>
        <time>2017-02-22T10:15:25Z</time>
      </trkpt>
      <trkpt lat="42.87271" lon="0.25109">
        <ele>2356.8</ele>
        <time>2017-02-22T10:15:30Z</time>
      </trkpt>
      <trkpt lat="42.87273" lon="0.25107">
        <ele>2358.2</ele>
        <time>2017-02-22T10:15:35Z</time>
      </trkpt>
      <trkpt lat="42.87275" lon="0.25106">
        <ele>2359.4</ele>
        <time>2017-02-22T10:15:40Z</time>
      </trkpt>
      <trkpt lat="42.87277" lon="0.25104">
        <ele>2357.6</ele>
        <time>2017-02-22T10:15:45Z</time>
      </trkpt>
      <trkpt lat="42.87277" lon="0.25102">
        <ele>2359.8</ele>
        <time>2017-02-22T10:15:50Z</time>
      </trkpt>
      <trkpt lat="42.87278" lon="0.251">
        <ele>2360.6</ele>
        <time>2017-02-22T10:15:55Z</time>
      </trkpt>
      <trkpt lat="42.87279" lon="0.25098">
        <ele>2359</ele>
        <time>2017-02-22T10:16:00Z</time>
      </trkpt>
      <trkpt lat="42.87279" lon="0.25098">
        <ele>2360.6</ele>
        <time>2017-02-22T10:16:05Z</time>
      </trkpt>
      <trkpt lat="42.87279" lon="0.25097">
        <ele>2363</ele>
        <time>2017-02-22T10:16:10Z</time>
      </trkpt>
      <trkpt lat="42.8728" lon="0.25099">
        <ele>2362</ele>
        <time>2017-02-22T10:16:15Z</time>
      </trkpt>
      <trkpt lat="42.8728" lon="0.25101">
        <ele>2364.4</ele>
        <time>2017-02-22T10:16:20Z</time>
      </trkpt>
      <trkpt lat="42.87281" lon="0.25104">
        <ele>2363.2</ele>
        <time>2017-02-22T10:16:25Z</time>
      </trkpt>
      <trkpt lat="42.87282" lon="0.25106">
        <ele>2361.2</ele>
        <time>2017-02-22T10:16:30Z</time>
      </trkpt>
      <trkpt lat="42.87282" lon="0.25109">
        <ele>2361.6</ele>
        <time>2017-02-22T10:16:35Z</time>
      </trkpt>
      <trkpt lat="42.87283" lon="0.25111">
        <ele>2363.4</ele>
        <time>2017-02-22T10:16:40Z</time>
      </trkpt>
      <trkpt lat="42.87282" lon="0.25115">
        <ele>2365.6</ele>
        <time>2017-02-22T10:16:45Z</time>
      </trkpt>
      <trkpt lat="42.87282" lon="0.25118">
        <ele>2363.2</ele>
        <time>2017-02-22T10:16:50Z</time>
      </trkpt>
      <trkpt lat="42.87282" lon="0.25121">
        <ele>2363.4</ele>
        <time>2017-02-22T10:16:55Z</time>
      </trkpt>
      <trkpt lat="42.87281" lon="0.25123">
        <ele>2365</ele>
        <time>2017-02-22T10:17:00Z</time>
      </trkpt>
      <trkpt lat="42.87281" lon="0.25125">
        <ele>2365.2</ele>
        <time>2017-02-22T10:17:05Z</time>
      </trkpt>
      <trkpt lat="42.87282" lon="0.25125">
        <ele>2365.4</ele>
        <time>2017-02-22T10:17:10Z</time>
      </trkpt>
      <trkpt lat="42.87282" lon="0.25124">
        <ele>2365.6</ele>
        <time>2017-02-22T10:17:15Z</time>
      </trkpt>
      <trkpt lat="42.87282" lon="0.25124">
        <ele>2365.6</ele>
        <time>2017-02-22T10:17:20Z</time>
      </trkpt>
      <trkpt lat="42.87282" lon="0.25124">
        <ele>2365.6</ele>
        <time>2017-02-22T10:17:25Z</time>
      </trkpt>
      <trkpt lat="42.87282" lon="0.25125">
        <ele>2365.6</ele>
        <time>2017-02-22T10:17:30Z</time>
      </trkpt>
      <trkpt lat="42.87282" lon="0.25126">
        <ele>2365.8</ele>
        <time>2017-02-22T10:17:35Z</time>
      </trkpt>
      <trkpt lat="42.87282" lon="0.25127">
        <ele>2365.6</ele>
        <time>2017-02-22T10:17:40Z</time>
      </trkpt>
      <trkpt lat="42.87284" lon="0.25127">
        <ele>2367.2</ele>
        <time>2017-02-22T10:17:45Z</time>
      </trkpt>
      <trkpt lat="42.87286" lon="0.25126">
        <ele>2370.6</ele>
        <time>2017-02-22T10:17:50Z</time>
      </trkpt>
      <trkpt lat="42.87288" lon="0.25125">
        <ele>2370.4</ele>
        <time>2017-02-22T10:17:55Z</time>
      </trkpt>
      <trkpt lat="42.87289" lon="0.25123">
        <ele>2371</ele>
        <time>2017-02-22T10:18:00Z</time>
      </trkpt>
      <trkpt lat="42.87291" lon="0.2512">
        <ele>2372</ele>
        <time>2017-02-22T10:18:05Z</time>
      </trkpt>
      <trkpt lat="42.87292" lon="0.25118">
        <ele>2371.6</ele>
        <time>2017-02-22T10:18:10Z</time>
      </trkpt>
      <trkpt lat="42.87293" lon="0.25116">
        <ele>2373</ele>
        <time>2017-02-22T10:18:15Z</time>
      </trkpt>
      <trkpt lat="42.87293" lon="0.25115">
        <ele>2374.8</ele>
        <time>2017-02-22T10:18:20Z</time>
      </trkpt>
      <trkpt lat="42.87293" lon="0.25115">
        <ele>2373.6</ele>
        <time>2017-02-22T10:18:25Z</time>
      </trkpt>
      <trkpt lat="42.87293" lon="0.25115">
        <ele>2372.8</ele>
        <time>2017-02-22T10:18:30Z</time>
      </trkpt>
      <trkpt lat="42.87293" lon="0.25115">
        <ele>2371.8</ele>
        <time>2017-02-22T10:18:35Z</time>
      </trkpt>
      <trkpt lat="42.87294" lon="0.25115">
        <ele>2370.8</ele>
        <time>2017-02-22T10:18:40Z</time>
      </trkpt>
      <trkpt lat="42.87295" lon="0.25119">
        <ele>2369.8</ele>
        <time>2017-02-22T10:18:45Z</time>
      </trkpt>
      <trkpt lat="42.87296" lon="0.25124">
        <ele>2371.8</ele>
        <time>2017-02-22T10:18:50Z</time>
      </trkpt>
      <trkpt lat="42.87297" lon="0.25129">
        <ele>2371.8</ele>
        <time>2017-02-22T10:18:55Z</time>
      </trkpt>
      <trkpt lat="42.87297" lon="0.25133">
        <ele>2371.2</ele>
        <time>2017-02-22T10:19:00Z</time>
      </trkpt>
      <trkpt lat="42.87297" lon="0.25137">
        <ele>2376.6</ele>
        <time>2017-02-22T10:19:05Z</time>
      </trkpt>
      <trkpt lat="42.87297" lon="0.25141">
        <ele>2375</ele>
        <time>2017-02-22T10:19:10Z</time>
      </trkpt>
      <trkpt lat="42.87297" lon="0.25145">
        <ele>2376.4</ele>
        <time>2017-02-22T10:19:15Z</time>
      </trkpt>
      <trkpt lat="42.87297" lon="0.25149">
        <ele>2377</ele>
        <time>2017-02-22T10:19:20Z</time>
      </trkpt>
      <trkpt lat="42.87297" lon="0.25153">
        <ele>2378.8</ele>
        <time>2017-02-22T10:19:25Z</time>
      </trkpt>
      <trkpt lat="42.87297" lon="0.25154">
        <ele>2378</ele>
        <time>2017-02-22T10:19:30Z</time>
      </trkpt>
      <trkpt lat="42.87297" lon="0.25154">
        <ele>2378</ele>
        <time>2017-02-22T10:19:35Z</time>
      </trkpt>
      <trkpt lat="42.87297" lon="0.25154">
        <ele>2377.8</ele>
        <time>2017-02-22T10:19:40Z</time>
      </trkpt>
      <trkpt lat="42.87297" lon="0.25154">
        <ele>2377.8</ele>
        <time>2017-02-22T10:19:45Z</time>
      </trkpt>
      <trkpt lat="42.87297" lon="0.25154">
        <ele>2377.8</ele>
        <time>2017-02-22T10:19:50Z</time>
      </trkpt>
      <trkpt lat="42.87297" lon="0.25154">
        <ele>2377.6</ele>
        <time>2017-02-22T10:19:55Z</time>
      </trkpt>
      <trkpt lat="42.87297" lon="0.25154">
        <ele>2377.6</ele>
        <time>2017-02-22T10:20:00Z</time>
      </trkpt>
      <trkpt lat="42.87297" lon="0.25154">
        <ele>2377.6</ele>
        <time>2017-02-22T10:20:05Z</time>
      </trkpt>
      <trkpt lat="42.87297" lon="0.25154">
        <ele>2377.6</ele>
        <time>2017-02-22T10:20:10Z</time>
      </trkpt>
      <trkpt lat="42.87297" lon="0.25153">
        <ele>2377.6</ele>
        <time>2017-02-22T10:20:15Z</time>
      </trkpt>
      <trkpt lat="42.87297" lon="0.25154">
        <ele>2377.6</ele>
        <time>2017-02-22T10:20:20Z</time>
      </trkpt>
      <trkpt lat="42.87295" lon="0.25158">
        <ele>2379.8</ele>
        <time>2017-02-22T10:20:25Z</time>
      </trkpt>
      <trkpt lat="42.87294" lon="0.25162">
        <ele>2379</ele>
        <time>2017-02-22T10:20:30Z</time>
      </trkpt>
      <trkpt lat="42.87295" lon="0.25165">
        <ele>2381.8</ele>
        <time>2017-02-22T10:20:35Z</time>
      </trkpt>
      <trkpt lat="42.87296" lon="0.25165">
        <ele>2381.4</ele>
        <time>2017-02-22T10:20:40Z</time>
      </trkpt>
      <trkpt lat="42.87296" lon="0.25165">
        <ele>2380.6</ele>
        <time>2017-02-22T10:20:45Z</time>
      </trkpt>
      <trkpt lat="42.87296" lon="0.25165">
        <ele>2380</ele>
        <time>2017-02-22T10:20:50Z</time>
      </trkpt>
      <trkpt lat="42.87296" lon="0.25165">
        <ele>2379.6</ele>
        <time>2017-02-22T10:20:55Z</time>
      </trkpt>
      <trkpt lat="42.87296" lon="0.25165">
        <ele>2379.2</ele>
        <time>2017-02-22T10:21:00Z</time>
      </trkpt>
      <trkpt lat="42.87296" lon="0.25165">
        <ele>2379</ele>
        <time>2017-02-22T10:21:05Z</time>
      </trkpt>
      <trkpt lat="42.87296" lon="0.25165">
        <ele>2379</ele>
        <time>2017-02-22T10:21:10Z</time>
      </trkpt>
      <trkpt lat="42.87296" lon="0.25165">
        <ele>2378.8</ele>
        <time>2017-02-22T10:21:15Z</time>
      </trkpt>
      <trkpt lat="42.87296" lon="0.25165">
        <ele>2378.8</ele>
        <time>2017-02-22T10:21:20Z</time>
      </trkpt>
      <trkpt lat="42.87296" lon="0.25165">
        <ele>2378.8</ele>
        <time>2017-02-22T10:21:25Z</time>
      </trkpt>
      <trkpt lat="42.87296" lon="0.25165">
        <ele>2378.8</ele>
        <time>2017-02-22T10:21:30Z</time>
      </trkpt>
      <trkpt lat="42.87296" lon="0.25164">
        <ele>2378.6</ele>
        <time>2017-02-22T10:21:35Z</time>
      </trkpt>
      <trkpt lat="42.87296" lon="0.25164">
        <ele>2378.6</ele>
        <time>2017-02-22T10:21:40Z</time>
      </trkpt>
      <trkpt lat="42.87296" lon="0.25164">
        <ele>2378.6</ele>
        <time>2017-02-22T10:21:45Z</time>
      </trkpt>
      <trkpt lat="42.87296" lon="0.25164">
        <ele>2378.6</ele>
        <time>2017-02-22T10:21:50Z</time>
      </trkpt>
      <trkpt lat="42.87296" lon="0.25164">
        <ele>2378.6</ele>
        <time>2017-02-22T10:21:55Z</time>
      </trkpt>
      <trkpt lat="42.87295" lon="0.25163">
        <ele>2378.6</ele>
        <time>2017-02-22T10:22:00Z</time>
      </trkpt>
      <trkpt lat="42.87295" lon="0.25163">
        <ele>2378.4</ele>
        <time>2017-02-22T10:22:05Z</time>
      </trkpt>
      <trkpt lat="42.87296" lon="0.25163">
        <ele>2376.8</ele>
        <time>2017-02-22T10:22:10Z</time>
      </trkpt>
      <trkpt lat="42.87298" lon="0.25166">
        <ele>2378</ele>
        <time>2017-02-22T10:22:15Z</time>
      </trkpt>
      <trkpt lat="42.873" lon="0.2517">
        <ele>2380.2</ele>
        <time>2017-02-22T10:22:20Z</time>
      </trkpt>
      <trkpt lat="42.87301" lon="0.25175">
        <ele>2379.2</ele>
        <time>2017-02-22T10:22:25Z</time>
      </trkpt>
      <trkpt lat="42.87303" lon="0.25178">
        <ele>2377</ele>
        <time>2017-02-22T10:22:30Z</time>
      </trkpt>
      <trkpt lat="42.87305" lon="0.25181">
        <ele>2377.4</ele>
        <time>2017-02-22T10:22:35Z</time>
      </trkpt>
      <trkpt lat="42.87307" lon="0.25183">
        <ele>2377.8</ele>
        <time>2017-02-22T10:22:40Z</time>
      </trkpt>
      <trkpt lat="42.87309" lon="0.25187">
        <ele>2378.2</ele>
        <time>2017-02-22T10:22:45Z</time>
      </trkpt>
      <trkpt lat="42.87312" lon="0.25189">
        <ele>2379.4</ele>
        <time>2017-02-22T10:22:50Z</time>
      </trkpt>
      <trkpt lat="42.87314" lon="0.25191">
        <ele>2382.8</ele>
        <time>2017-02-22T10:22:55Z</time>
      </trkpt>
      <trkpt lat="42.87317" lon="0.25192">
        <ele>2383.2</ele>
        <time>2017-02-22T10:23:00Z</time>
      </trkpt>
      <trkpt lat="42.87319" lon="0.25194">
        <ele>2384.2</ele>
        <time>2017-02-22T10:23:05Z</time>
      </trkpt>
      <trkpt lat="42.87321" lon="0.25196">
        <ele>2385.4</ele>
        <time>2017-02-22T10:23:10Z</time>
      </trkpt>
      <trkpt lat="42.87323" lon="0.25197">
        <ele>2386.4</ele>
        <time>2017-02-22T10:23:15Z</time>
      </trkpt>
      <trkpt lat="42.87326" lon="0.25199">
        <ele>2387</ele>
        <time>2017-02-22T10:23:20Z</time>
      </trkpt>
      <trkpt lat="42.87327" lon="0.25199">
        <ele>2387.4</ele>
        <time>2017-02-22T10:23:25Z</time>
      </trkpt>
      <trkpt lat="42.87326" lon="0.252">
        <ele>2387.8</ele>
        <time>2017-02-22T10:23:30Z</time>
      </trkpt>
      <trkpt lat="42.87326" lon="0.252">
        <ele>2389.4</ele>
        <time>2017-02-22T10:23:35Z</time>
      </trkpt>
      <trkpt lat="42.87326" lon="0.252">
        <ele>2389.2</ele>
        <time>2017-02-22T10:23:41Z</time>
      </trkpt>
      <trkpt lat="42.87327" lon="0.252">
        <ele>2389.6</ele>
        <time>2017-02-22T10:23:46Z</time>
      </trkpt>
      <trkpt lat="42.87329" lon="0.25201">
        <ele>2391</ele>
        <time>2017-02-22T10:23:51Z</time>
      </trkpt>
      <trkpt lat="42.87332" lon="0.25203">
        <ele>2388.6</ele>
        <time>2017-02-22T10:23:56Z</time>
      </trkpt>
      <trkpt lat="42.87334" lon="0.25204">
        <ele>2391.2</ele>
        <time>2017-02-22T10:24:01Z</time>
      </trkpt>
      <trkpt lat="42.87337" lon="0.25206">
        <ele>2391.8</ele>
        <time>2017-02-22T10:24:06Z</time>
      </trkpt>
      <trkpt lat="42.87339" lon="0.25209">
        <ele>2393.2</ele>
        <time>2017-02-22T10:24:11Z</time>
      </trkpt>
      <trkpt lat="42.87341" lon="0.25211">
        <ele>2395.4</ele>
        <time>2017-02-22T10:24:16Z</time>
      </trkpt>
      <trkpt lat="42.87341" lon="0.25212">
        <ele>2395</ele>
        <time>2017-02-22T10:24:21Z</time>
      </trkpt>
      <trkpt lat="42.87343" lon="0.25214">
        <ele>2393</ele>
        <time>2017-02-22T10:24:26Z</time>
      </trkpt>
      <trkpt lat="42.87344" lon="0.25217">
        <ele>2395.2</ele>
        <time>2017-02-22T10:24:31Z</time>
      </trkpt>
      <trkpt lat="42.87344" lon="0.25219">
        <ele>2396</ele>
        <time>2017-02-22T10:24:36Z</time>
      </trkpt>
      <trkpt lat="42.87345" lon="0.25222">
        <ele>2397.6</ele>
        <time>2017-02-22T10:24:41Z</time>
      </trkpt>
      <trkpt lat="42.87346" lon="0.25226">
        <ele>2399</ele>
        <time>2017-02-22T10:24:46Z</time>
      </trkpt>
      <trkpt lat="42.87346" lon="0.25228">
        <ele>2398.8</ele>
        <time>2017-02-22T10:24:51Z</time>
      </trkpt>
      <trkpt lat="42.87347" lon="0.25232">
        <ele>2398.6</ele>
        <time>2017-02-22T10:24:56Z</time>
      </trkpt>
      <trkpt lat="42.87348" lon="0.25235">
        <ele>2399.8</ele>
        <time>2017-02-22T10:25:01Z</time>
      </trkpt>
      <trkpt lat="42.87349" lon="0.25239">
        <ele>2400</ele>
        <time>2017-02-22T10:25:06Z</time>
      </trkpt>
      <trkpt lat="42.87349" lon="0.25242">
        <ele>2402.6</ele>
        <time>2017-02-22T10:25:11Z</time>
      </trkpt>
      <trkpt lat="42.8735" lon="0.25245">
        <ele>2403.2</ele>
        <time>2017-02-22T10:25:16Z</time>
      </trkpt>
      <trkpt lat="42.87349" lon="0.25246">
        <ele>2400.8</ele>
        <time>2017-02-22T10:25:21Z</time>
      </trkpt>
      <trkpt lat="42.87349" lon="0.25246">
        <ele>2400.8</ele>
        <time>2017-02-22T10:25:26Z</time>
      </trkpt>
      <trkpt lat="42.87349" lon="0.25246">
        <ele>2400.8</ele>
        <time>2017-02-22T10:25:31Z</time>
      </trkpt>
      <trkpt lat="42.87349" lon="0.25246">
        <ele>2400.8</ele>
        <time>2017-02-22T10:25:36Z</time>
      </trkpt>
      <trkpt lat="42.87349" lon="0.25246">
        <ele>2400.8</ele>
        <time>2017-02-22T10:25:41Z</time>
      </trkpt>
      <trkpt lat="42.8735" lon="0.25246">
        <ele>2400.8</ele>
        <time>2017-02-22T10:25:46Z</time>
      </trkpt>
      <trkpt lat="42.8735" lon="0.25246">
        <ele>2400.6</ele>
        <time>2017-02-22T10:25:51Z</time>
      </trkpt>
      <trkpt lat="42.87351" lon="0.25249">
        <ele>2402.2</ele>
        <time>2017-02-22T10:25:56Z</time>
      </trkpt>
      <trkpt lat="42.87353" lon="0.25252">
        <ele>2401.4</ele>
        <time>2017-02-22T10:26:01Z</time>
      </trkpt>
      <trkpt lat="42.87353" lon="0.25256">
        <ele>2401.2</ele>
        <time>2017-02-22T10:26:06Z</time>
      </trkpt>
      <trkpt lat="42.87355" lon="0.25258">
        <ele>2400.8</ele>
        <time>2017-02-22T10:26:11Z</time>
      </trkpt>
      <trkpt lat="42.87358" lon="0.25258">
        <ele>2402.4</ele>
        <time>2017-02-22T10:26:16Z</time>
      </trkpt>
      <trkpt lat="42.87361" lon="0.25258">
        <ele>2403.4</ele>
        <time>2017-02-22T10:26:21Z</time>
      </trkpt>
      <trkpt lat="42.87363" lon="0.25258">
        <ele>2401.2</ele>
        <time>2017-02-22T10:26:26Z</time>
      </trkpt>
      <trkpt lat="42.87365" lon="0.25257">
        <ele>2404</ele>
        <time>2017-02-22T10:26:31Z</time>
      </trkpt>
      <trkpt lat="42.87367" lon="0.25256">
        <ele>2405.8</ele>
        <time>2017-02-22T10:26:36Z</time>
      </trkpt>
      <trkpt lat="42.87369" lon="0.25255">
        <ele>2405.4</ele>
        <time>2017-02-22T10:26:41Z</time>
      </trkpt>
      <trkpt lat="42.8737" lon="0.25254">
        <ele>2405.8</ele>
        <time>2017-02-22T10:26:46Z</time>
      </trkpt>
      <trkpt lat="42.87372" lon="0.25254">
        <ele>2408.8</ele>
        <time>2017-02-22T10:26:51Z</time>
      </trkpt>
      <trkpt lat="42.87374" lon="0.25254">
        <ele>2409</ele>
        <time>2017-02-22T10:26:56Z</time>
      </trkpt>
      <trkpt lat="42.87376" lon="0.25254">
        <ele>2410.8</ele>
        <time>2017-02-22T10:27:01Z</time>
      </trkpt>
      <trkpt lat="42.87378" lon="0.25253">
        <ele>2410.2</ele>
        <time>2017-02-22T10:27:06Z</time>
      </trkpt>
      <trkpt lat="42.8738" lon="0.25253">
        <ele>2413.4</ele>
        <time>2017-02-22T10:27:11Z</time>
      </trkpt>
      <trkpt lat="42.87382" lon="0.25253">
        <ele>2413.4</ele>
        <time>2017-02-22T10:27:16Z</time>
      </trkpt>
      <trkpt lat="42.87384" lon="0.25253">
        <ele>2413.8</ele>
        <time>2017-02-22T10:27:21Z</time>
      </trkpt>
      <trkpt lat="42.87386" lon="0.25254">
        <ele>2415</ele>
        <time>2017-02-22T10:27:26Z</time>
      </trkpt>
      <trkpt lat="42.87388" lon="0.25254">
        <ele>2416</ele>
        <time>2017-02-22T10:27:31Z</time>
      </trkpt>
      <trkpt lat="42.87391" lon="0.25254">
        <ele>2418.2</ele>
        <time>2017-02-22T10:27:36Z</time>
      </trkpt>
      <trkpt lat="42.87393" lon="0.25254">
        <ele>2417.2</ele>
        <time>2017-02-22T10:27:41Z</time>
      </trkpt>
      <trkpt lat="42.87393" lon="0.25254">
        <ele>2418</ele>
        <time>2017-02-22T10:27:46Z</time>
      </trkpt>
      <trkpt lat="42.87393" lon="0.25254">
        <ele>2418.6</ele>
        <time>2017-02-22T10:27:51Z</time>
      </trkpt>
      <trkpt lat="42.87393" lon="0.25255">
        <ele>2418.8</ele>
        <time>2017-02-22T10:27:56Z</time>
      </trkpt>
      <trkpt lat="42.87395" lon="0.25255">
        <ele>2419.8</ele>
        <time>2017-02-22T10:28:01Z</time>
      </trkpt>
      <trkpt lat="42.87397" lon="0.25255">
        <ele>2420.2</ele>
        <time>2017-02-22T10:28:06Z</time>
      </trkpt>
      <trkpt lat="42.874" lon="0.25256">
        <ele>2421.8</ele>
        <time>2017-02-22T10:28:11Z</time>
      </trkpt>
      <trkpt lat="42.87402" lon="0.25256">
        <ele>2423.6</ele>
        <time>2017-02-22T10:28:16Z</time>
      </trkpt>
      <trkpt lat="42.87404" lon="0.25257">
        <ele>2424.2</ele>
        <time>2017-02-22T10:28:21Z</time>
      </trkpt>
      <trkpt lat="42.87407" lon="0.25257">
        <ele>2423</ele>
        <time>2017-02-22T10:28:26Z</time>
      </trkpt>
      <trkpt lat="42.8741" lon="0.25258">
        <ele>2421.2</ele>
        <time>2017-02-22T10:28:31Z</time>
      </trkpt>
      <trkpt lat="42.87412" lon="0.25258">
        <ele>2426.4</ele>
        <time>2017-02-22T10:28:36Z</time>
      </trkpt>
      <trkpt lat="42.87415" lon="0.25259">
        <ele>2424.8</ele>
        <time>2017-02-22T10:28:42Z</time>
      </trkpt>
      <trkpt lat="42.87418" lon="0.25258">
        <ele>2425</ele>
        <time>2017-02-22T10:28:47Z</time>
      </trkpt>
      <trkpt lat="42.87421" lon="0.25258">
        <ele>2427.2</ele>
        <time>2017-02-22T10:28:52Z</time>
      </trkpt>
      <trkpt lat="42.87424" lon="0.25259">
        <ele>2426</ele>
        <time>2017-02-22T10:28:58Z</time>
      </trkpt>
      <trkpt lat="42.87427" lon="0.2526">
        <ele>2426.6</ele>
        <time>2017-02-22T10:29:03Z</time>
      </trkpt>
      <trkpt lat="42.8743" lon="0.2526">
        <ele>2429.2</ele>
        <time>2017-02-22T10:29:08Z</time>
      </trkpt>
      <trkpt lat="42.87433" lon="0.25261">
        <ele>2430</ele>
        <time>2017-02-22T10:29:13Z</time>
      </trkpt>
      <trkpt lat="42.87437" lon="0.25261">
        <ele>2429.4</ele>
        <time>2017-02-22T10:29:18Z</time>
      </trkpt>
      <trkpt lat="42.8744" lon="0.25262">
        <ele>2431.4</ele>
        <time>2017-02-22T10:29:23Z</time>
      </trkpt>
      <trkpt lat="42.87443" lon="0.25263">
        <ele>2432.2</ele>
        <time>2017-02-22T10:29:28Z</time>
      </trkpt>
      <trkpt lat="42.87446" lon="0.25264">
        <ele>2434.2</ele>
        <time>2017-02-22T10:29:33Z</time>
      </trkpt>
      <trkpt lat="42.87449" lon="0.25265">
        <ele>2435.2</ele>
        <time>2017-02-22T10:29:38Z</time>
      </trkpt>
      <trkpt lat="42.87453" lon="0.25265">
        <ele>2435.6</ele>
        <time>2017-02-22T10:29:43Z</time>
      </trkpt>
      <trkpt lat="42.87456" lon="0.25265">
        <ele>2436</ele>
        <time>2017-02-22T10:29:48Z</time>
      </trkpt>
      <trkpt lat="42.87459" lon="0.25266">
        <ele>2437.8</ele>
        <time>2017-02-22T10:29:53Z</time>
      </trkpt>
      <trkpt lat="42.87462" lon="0.25267">
        <ele>2439.6</ele>
        <time>2017-02-22T10:29:58Z</time>
      </trkpt>
      <trkpt lat="42.87465" lon="0.25268">
        <ele>2440.6</ele>
        <time>2017-02-22T10:30:03Z</time>
      </trkpt>
      <trkpt lat="42.87468" lon="0.25268">
        <ele>2442</ele>
        <time>2017-02-22T10:30:08Z</time>
      </trkpt>
      <trkpt lat="42.8747" lon="0.25268">
        <ele>2442.2</ele>
        <time>2017-02-22T10:30:13Z</time>
      </trkpt>
      <trkpt lat="42.87474" lon="0.25268">
        <ele>2439.8</ele>
        <time>2017-02-22T10:30:18Z</time>
      </trkpt>
      <trkpt lat="42.87477" lon="0.25269">
        <ele>2441.8</ele>
        <time>2017-02-22T10:30:23Z</time>
      </trkpt>
      <trkpt lat="42.87479" lon="0.2527">
        <ele>2442</ele>
        <time>2017-02-22T10:30:28Z</time>
      </trkpt>
      <trkpt lat="42.87479" lon="0.2527">
        <ele>2441.6</ele>
        <time>2017-02-22T10:30:33Z</time>
      </trkpt>
      <trkpt lat="42.87482" lon="0.25271">
        <ele>2441.2</ele>
        <time>2017-02-22T10:30:38Z</time>
      </trkpt>
      <trkpt lat="42.87484" lon="0.25271">
        <ele>2440.4</ele>
        <time>2017-02-22T10:30:43Z</time>
      </trkpt>
      <trkpt lat="42.87486" lon="0.25271">
        <ele>2443.2</ele>
        <time>2017-02-22T10:30:48Z</time>
      </trkpt>
      <trkpt lat="42.87489" lon="0.25271">
        <ele>2442.4</ele>
        <time>2017-02-22T10:30:53Z</time>
      </trkpt>
      <trkpt lat="42.8749" lon="0.25271">
        <ele>2442.6</ele>
        <time>2017-02-22T10:30:58Z</time>
      </trkpt>
      <trkpt lat="42.8749" lon="0.25271">
        <ele>2442.2</ele>
        <time>2017-02-22T10:31:03Z</time>
      </trkpt>
      <trkpt lat="42.8749" lon="0.25271">
        <ele>2442</ele>
        <time>2017-02-22T10:31:08Z</time>
      </trkpt>
      <trkpt lat="42.8749" lon="0.25271">
        <ele>2442</ele>
        <time>2017-02-22T10:31:13Z</time>
      </trkpt>
      <trkpt lat="42.8749" lon="0.25271">
        <ele>2441.8</ele>
        <time>2017-02-22T10:31:18Z</time>
      </trkpt>
      <trkpt lat="42.8749" lon="0.25272">
        <ele>2441.8</ele>
        <time>2017-02-22T10:31:23Z</time>
      </trkpt>
      <trkpt lat="42.8749" lon="0.25272">
        <ele>2441.6</ele>
        <time>2017-02-22T10:31:28Z</time>
      </trkpt>
      <trkpt lat="42.8749" lon="0.25272">
        <ele>2441.4</ele>
        <time>2017-02-22T10:31:33Z</time>
      </trkpt>
      <trkpt lat="42.8749" lon="0.25272">
        <ele>2441.4</ele>
        <time>2017-02-22T10:31:38Z</time>
      </trkpt>
      <trkpt lat="42.8749" lon="0.25272">
        <ele>2441.4</ele>
        <time>2017-02-22T10:31:43Z</time>
      </trkpt>
      <trkpt lat="42.8749" lon="0.25272">
        <ele>2441.2</ele>
        <time>2017-02-22T10:31:48Z</time>
      </trkpt>
      <trkpt lat="42.8749" lon="0.25272">
        <ele>2441.2</ele>
        <time>2017-02-22T10:31:53Z</time>
      </trkpt>
      <trkpt lat="42.8749" lon="0.25272">
        <ele>2441.2</ele>
        <time>2017-02-22T10:31:58Z</time>
      </trkpt>
      <trkpt lat="42.8749" lon="0.25272">
        <ele>2441.2</ele>
        <time>2017-02-22T10:32:03Z</time>
      </trkpt>
      <trkpt lat="42.8749" lon="0.25272">
        <ele>2441</ele>
        <time>2017-02-22T10:32:08Z</time>
      </trkpt>
      <trkpt lat="42.8749" lon="0.25272">
        <ele>2441</ele>
        <time>2017-02-22T10:32:13Z</time>
      </trkpt>
      <trkpt lat="42.8749" lon="0.25272">
        <ele>2441</ele>
        <time>2017-02-22T10:32:18Z</time>
      </trkpt>
      <trkpt lat="42.8749" lon="0.25272">
        <ele>2441</ele>
        <time>2017-02-22T10:32:23Z</time>
      </trkpt>
      <trkpt lat="42.8749" lon="0.25272">
        <ele>2440.6</ele>
        <time>2017-02-22T10:32:28Z</time>
      </trkpt>
      <trkpt lat="42.8749" lon="0.25272">
        <ele>2440.4</ele>
        <time>2017-02-22T10:32:33Z</time>
      </trkpt>
      <trkpt lat="42.8749" lon="0.25272">
        <ele>2440.2</ele>
        <time>2017-02-22T10:32:38Z</time>
      </trkpt>
      <trkpt lat="42.87487" lon="0.25273">
        <ele>2442.8</ele>
        <time>2017-02-22T10:32:43Z</time>
      </trkpt>
      <trkpt lat="42.87487" lon="0.25273">
        <ele>2441</ele>
        <time>2017-02-22T10:32:48Z</time>
      </trkpt>
      <trkpt lat="42.87487" lon="0.25273">
        <ele>2439.6</ele>
        <time>2017-02-22T10:32:53Z</time>
      </trkpt>
      <trkpt lat="42.87487" lon="0.25273">
        <ele>2438.4</ele>
        <time>2017-02-22T10:32:58Z</time>
      </trkpt>
      <trkpt lat="42.87487" lon="0.25274">
        <ele>2437.6</ele>
        <time>2017-02-22T10:33:03Z</time>
      </trkpt>
      <trkpt lat="42.87487" lon="0.25275">
        <ele>2437</ele>
        <time>2017-02-22T10:33:08Z</time>
      </trkpt>
      <trkpt lat="42.87487" lon="0.25276">
        <ele>2436.8</ele>
        <time>2017-02-22T10:33:14Z</time>
      </trkpt>
      <trkpt lat="42.87487" lon="0.25276">
        <ele>2436.6</ele>
        <time>2017-02-22T10:33:19Z</time>
      </trkpt>
      <trkpt lat="42.87487" lon="0.25277">
        <ele>2436.4</ele>
        <time>2017-02-22T10:33:24Z</time>
      </trkpt>
      <trkpt lat="42.87487" lon="0.25277">
        <ele>2436.2</ele>
        <time>2017-02-22T10:33:30Z</time>
      </trkpt>
      <trkpt lat="42.87487" lon="0.25277">
        <ele>2436</ele>
        <time>2017-02-22T10:33:35Z</time>
      </trkpt>
      <trkpt lat="42.87488" lon="0.25276">
        <ele>2435.8</ele>
        <time>2017-02-22T10:33:40Z</time>
      </trkpt>
      <trkpt lat="42.87488" lon="0.25276">
        <ele>2435.6</ele>
        <time>2017-02-22T10:33:45Z</time>
      </trkpt>
      <trkpt lat="42.87488" lon="0.25276">
        <ele>2435.6</ele>
        <time>2017-02-22T10:33:50Z</time>
      </trkpt>
      <trkpt lat="42.87488" lon="0.25276">
        <ele>2435.4</ele>
        <time>2017-02-22T10:33:55Z</time>
      </trkpt>
      <trkpt lat="42.87488" lon="0.25276">
        <ele>2435</ele>
        <time>2017-02-22T10:34:00Z</time>
      </trkpt>
      <trkpt lat="42.87489" lon="0.25276">
        <ele>2434.6</ele>
        <time>2017-02-22T10:34:05Z</time>
      </trkpt>
      <trkpt lat="42.87488" lon="0.25274">
        <ele>2434.2</ele>
        <time>2017-02-22T10:34:10Z</time>
      </trkpt>
      <trkpt lat="42.8749" lon="0.25273">
        <ele>2433.8</ele>
        <time>2017-02-22T10:34:15Z</time>
      </trkpt>
      <trkpt lat="42.8749" lon="0.25272">
        <ele>2433</ele>
        <time>2017-02-22T10:34:20Z</time>
      </trkpt>
      <trkpt lat="42.8749" lon="0.25272">
        <ele>2432.6</ele>
        <time>2017-02-22T10:34:25Z</time>
      </trkpt>
      <trkpt lat="42.8749" lon="0.25272">
        <ele>2432.2</ele>
        <time>2017-02-22T10:34:30Z</time>
      </trkpt>
      <trkpt lat="42.8749" lon="0.25272">
        <ele>2432</ele>
        <time>2017-02-22T10:34:35Z</time>
      </trkpt>
      <trkpt lat="42.8749" lon="0.25272">
        <ele>2432</ele>
        <time>2017-02-22T10:34:40Z</time>
      </trkpt>
      <trkpt lat="42.8749" lon="0.25272">
        <ele>2432</ele>
        <time>2017-02-22T10:34:45Z</time>
      </trkpt>
      <trkpt lat="42.8749" lon="0.25272">
        <ele>2432</ele>
        <time>2017-02-22T10:34:50Z</time>
      </trkpt>
      <trkpt lat="42.8749" lon="0.25272">
        <ele>2432</ele>
        <time>2017-02-22T10:34:55Z</time>
      </trkpt>
      <trkpt lat="42.87491" lon="0.25272">
        <ele>2431.8</ele>
        <time>2017-02-22T10:35:00Z</time>
      </trkpt>
      <trkpt lat="42.87491" lon="0.25272">
        <ele>2431.6</ele>
        <time>2017-02-22T10:35:05Z</time>
      </trkpt>
      <trkpt lat="42.87491" lon="0.25272">
        <ele>2431.6</ele>
        <time>2017-02-22T10:35:10Z</time>
      </trkpt>
      <trkpt lat="42.87491" lon="0.25272">
        <ele>2431.6</ele>
        <time>2017-02-22T10:35:15Z</time>
      </trkpt>
      <trkpt lat="42.87491" lon="0.25272">
        <ele>2431.6</ele>
        <time>2017-02-22T10:35:20Z</time>
      </trkpt>
      <trkpt lat="42.87491" lon="0.25272">
        <ele>2431.6</ele>
        <time>2017-02-22T10:35:25Z</time>
      </trkpt>
      <trkpt lat="42.87491" lon="0.25272">
        <ele>2431.6</ele>
        <time>2017-02-22T10:35:30Z</time>
      </trkpt>
      <trkpt lat="42.87491" lon="0.25272">
        <ele>2431.6</ele>
        <time>2017-02-22T10:35:35Z</time>
      </trkpt>
      <trkpt lat="42.87491" lon="0.25272">
        <ele>2431.6</ele>
        <time>2017-02-22T10:35:40Z</time>
      </trkpt>
      <trkpt lat="42.87491" lon="0.25272">
        <ele>2431.6</ele>
        <time>2017-02-22T10:35:45Z</time>
      </trkpt>
      <trkpt lat="42.87491" lon="0.25272">
        <ele>2431.6</ele>
        <time>2017-02-22T10:35:50Z</time>
      </trkpt>
      <trkpt lat="42.87491" lon="0.25272">
        <ele>2431.6</ele>
        <time>2017-02-22T10:35:55Z</time>
      </trkpt>
      <trkpt lat="42.87491" lon="0.25272">
        <ele>2431.4</ele>
        <time>2017-02-22T10:36:00Z</time>
      </trkpt>
      <trkpt lat="42.87491" lon="0.25272">
        <ele>2431.4</ele>
        <time>2017-02-22T10:36:05Z</time>
      </trkpt>
      <trkpt lat="42.87491" lon="0.25273">
        <ele>2431.4</ele>
        <time>2017-02-22T10:36:10Z</time>
      </trkpt>
      <trkpt lat="42.87491" lon="0.25273">
        <ele>2431.4</ele>
        <time>2017-02-22T10:36:15Z</time>
      </trkpt>
      <trkpt lat="42.87491" lon="0.25273">
        <ele>2431.4</ele>
        <time>2017-02-22T10:36:20Z</time>
      </trkpt>
      <trkpt lat="42.87491" lon="0.25273">
        <ele>2431.4</ele>
        <time>2017-02-22T10:36:25Z</time>
      </trkpt>
      <trkpt lat="42.8749" lon="0.25274">
        <ele>2431.4</ele>
        <time>2017-02-22T10:36:30Z</time>
      </trkpt>
      <trkpt lat="42.8749" lon="0.25274">
        <ele>2431.4</ele>
        <time>2017-02-22T10:36:35Z</time>
      </trkpt>
      <trkpt lat="42.8749" lon="0.25275">
        <ele>2431.6</ele>
        <time>2017-02-22T10:36:40Z</time>
      </trkpt>
      <trkpt lat="42.87491" lon="0.25276">
        <ele>2431.6</ele>
        <time>2017-02-22T10:36:45Z</time>
      </trkpt>
      <trkpt lat="42.8749" lon="0.25277">
        <ele>2432</ele>
        <time>2017-02-22T10:36:50Z</time>
      </trkpt>
      <trkpt lat="42.8749" lon="0.25277">
        <ele>2431.8</ele>
        <time>2017-02-22T10:36:55Z</time>
      </trkpt>
      <trkpt lat="42.87491" lon="0.25277">
        <ele>2431.6</ele>
        <time>2017-02-22T10:37:00Z</time>
      </trkpt>
      <trkpt lat="42.87491" lon="0.25277">
        <ele>2431.2</ele>
        <time>2017-02-22T10:37:05Z</time>
      </trkpt>
      <trkpt lat="42.87491" lon="0.25276">
        <ele>2430.8</ele>
        <time>2017-02-22T10:37:10Z</time>
      </trkpt>
      <trkpt lat="42.87491" lon="0.25276">
        <ele>2430.4</ele>
        <time>2017-02-22T10:37:15Z</time>
      </trkpt>
      <trkpt lat="42.87491" lon="0.25276">
        <ele>2430</ele>
        <time>2017-02-22T10:37:20Z</time>
      </trkpt>
      <trkpt lat="42.87491" lon="0.25276">
        <ele>2429.8</ele>
        <time>2017-02-22T10:37:25Z</time>
      </trkpt>
      <trkpt lat="42.87491" lon="0.25276">
        <ele>2429.6</ele>
        <time>2017-02-22T10:37:30Z</time>
      </trkpt>
      <trkpt lat="42.87491" lon="0.25276">
        <ele>2429.2</ele>
        <time>2017-02-22T10:37:35Z</time>
      </trkpt>
      <trkpt lat="42.87491" lon="0.25276">
        <ele>2428.8</ele>
        <time>2017-02-22T10:37:40Z</time>
      </trkpt>
      <trkpt lat="42.87491" lon="0.25277">
        <ele>2428.6</ele>
        <time>2017-02-22T10:37:45Z</time>
      </trkpt>
      <trkpt lat="42.87491" lon="0.25276">
        <ele>2428.4</ele>
        <time>2017-02-22T10:37:50Z</time>
      </trkpt>
      <trkpt lat="42.87491" lon="0.25276">
        <ele>2428.6</ele>
        <time>2017-02-22T10:37:55Z</time>
      </trkpt>
      <trkpt lat="42.87491" lon="0.25275">
        <ele>2428.8</ele>
        <time>2017-02-22T10:38:00Z</time>
      </trkpt>
      <trkpt lat="42.87491" lon="0.25276">
        <ele>2429</ele>
        <time>2017-02-22T10:38:05Z</time>
      </trkpt>
      <trkpt lat="42.87491" lon="0.25276">
        <ele>2429</ele>
        <time>2017-02-22T10:38:10Z</time>
      </trkpt>
      <trkpt lat="42.87491" lon="0.25276">
        <ele>2428.8</ele>
        <time>2017-02-22T10:38:15Z</time>
      </trkpt>
      <trkpt lat="42.87491" lon="0.25277">
        <ele>2428.6</ele>
        <time>2017-02-22T10:38:20Z</time>
      </trkpt>
      <trkpt lat="42.8749" lon="0.25277">
        <ele>2428.4</ele>
        <time>2017-02-22T10:38:25Z</time>
      </trkpt>
      <trkpt lat="42.8749" lon="0.25278">
        <ele>2428.4</ele>
        <time>2017-02-22T10:38:30Z</time>
      </trkpt>
      <trkpt lat="42.87491" lon="0.25278">
        <ele>2428.8</ele>
        <time>2017-02-22T10:38:35Z</time>
      </trkpt>
      <trkpt lat="42.87491" lon="0.25278">
        <ele>2429</ele>
        <time>2017-02-22T10:38:40Z</time>
      </trkpt>
      <trkpt lat="42.87492" lon="0.25278">
        <ele>2429.2</ele>
        <time>2017-02-22T10:38:45Z</time>
      </trkpt>
      <trkpt lat="42.8749" lon="0.25277">
        <ele>2430.6</ele>
        <time>2017-02-22T10:38:50Z</time>
      </trkpt>
      <trkpt lat="42.8749" lon="0.25277">
        <ele>2430.6</ele>
        <time>2017-02-22T10:38:55Z</time>
      </trkpt>
      <trkpt lat="42.8749" lon="0.25278">
        <ele>2430.6</ele>
        <time>2017-02-22T10:39:00Z</time>
      </trkpt>
      <trkpt lat="42.87487" lon="0.25275">
        <ele>2433</ele>
        <time>2017-02-22T10:39:05Z</time>
      </trkpt>
      <trkpt lat="42.87486" lon="0.25275">
        <ele>2431.8</ele>
        <time>2017-02-22T10:39:10Z</time>
      </trkpt>
      <trkpt lat="42.87482" lon="0.25273">
        <ele>2433</ele>
        <time>2017-02-22T10:39:15Z</time>
      </trkpt>
      <trkpt lat="42.87471" lon="0.25267">
        <ele>2430</ele>
        <time>2017-02-22T10:39:20Z</time>
      </trkpt>
      <trkpt lat="42.87448" lon="0.25255">
        <ele>2425.6</ele>
        <time>2017-02-22T10:39:25Z</time>
      </trkpt>
      <trkpt lat="42.87422" lon="0.25249">
        <ele>2421.2</ele>
        <time>2017-02-22T10:39:30Z</time>
      </trkpt>
      <trkpt lat="42.87406" lon="0.25228">
        <ele>2417.8</ele>
        <time>2017-02-22T10:39:35Z</time>
      </trkpt>
      <trkpt lat="42.87386" lon="0.25219">
        <ele>2417.2</ele>
        <time>2017-02-22T10:39:40Z</time>
      </trkpt>
      <trkpt lat="42.87367" lon="0.25218">
        <ele>2410.4</ele>
        <time>2017-02-22T10:39:45Z</time>
      </trkpt>
      <trkpt lat="42.87351" lon="0.25204">
        <ele>2404.6</ele>
        <time>2017-02-22T10:39:50Z</time>
      </trkpt>
      <trkpt lat="42.87344" lon="0.25198">
        <ele>2405</ele>
        <time>2017-02-22T10:39:55Z</time>
      </trkpt>
      <trkpt lat="42.87344" lon="0.25198">
        <ele>2406.8</ele>
        <time>2017-02-22T10:40:00Z</time>
      </trkpt>
      <trkpt lat="42.87344" lon="0.25198">
        <ele>2408</ele>
        <time>2017-02-22T10:40:05Z</time>
      </trkpt>
      <trkpt lat="42.87344" lon="0.25198">
        <ele>2408.8</ele>
        <time>2017-02-22T10:40:10Z</time>
      </trkpt>
      <trkpt lat="42.87345" lon="0.252">
        <ele>2409</ele>
        <time>2017-02-22T10:40:15Z</time>
      </trkpt>
      <trkpt lat="42.87346" lon="0.25202">
        <ele>2409.2</ele>
        <time>2017-02-22T10:40:20Z</time>
      </trkpt>
      <trkpt lat="42.87346" lon="0.25202">
        <ele>2409</ele>
        <time>2017-02-22T10:40:25Z</time>
      </trkpt>
      <trkpt lat="42.87347" lon="0.25202">
        <ele>2408.8</ele>
        <time>2017-02-22T10:40:30Z</time>
      </trkpt>
      <trkpt lat="42.87348" lon="0.25202">
        <ele>2408.4</ele>
        <time>2017-02-22T10:40:35Z</time>
      </trkpt>
      <trkpt lat="42.87346" lon="0.2521">
        <ele>2406.8</ele>
        <time>2017-02-22T10:40:40Z</time>
      </trkpt>
      <trkpt lat="42.87327" lon="0.25208">
        <ele>2401.2</ele>
        <time>2017-02-22T10:40:45Z</time>
      </trkpt>
      <trkpt lat="42.87306" lon="0.25198">
        <ele>2397</ele>
        <time>2017-02-22T10:40:50Z</time>
      </trkpt>
      <trkpt lat="42.87297" lon="0.25176">
        <ele>2391.2</ele>
        <time>2017-02-22T10:40:55Z</time>
      </trkpt>
      <trkpt lat="42.87302" lon="0.25155">
        <ele>2387.2</ele>
        <time>2017-02-22T10:41:00Z</time>
      </trkpt>
      <trkpt lat="42.87304" lon="0.25126">
        <ele>2386.8</ele>
        <time>2017-02-22T10:41:05Z</time>
      </trkpt>
      <trkpt lat="42.87293" lon="0.25114">
        <ele>2377.4</ele>
        <time>2017-02-22T10:41:10Z</time>
      </trkpt>
      <trkpt lat="42.87283" lon="0.25082">
        <ele>2372.8</ele>
        <time>2017-02-22T10:41:15Z</time>
      </trkpt>
      <trkpt lat="42.87283" lon="0.25078">
        <ele>2372</ele>
        <time>2017-02-22T10:41:20Z</time>
      </trkpt>
      <trkpt lat="42.87282" lon="0.25074">
        <ele>2372</ele>
        <time>2017-02-22T10:41:25Z</time>
      </trkpt>
      <trkpt lat="42.87279" lon="0.25058">
        <ele>2367</ele>
        <time>2017-02-22T10:41:30Z</time>
      </trkpt>
      <trkpt lat="42.87277" lon="0.25038">
        <ele>2368</ele>
        <time>2017-02-22T10:41:35Z</time>
      </trkpt>
      <trkpt lat="42.87275" lon="0.25021">
        <ele>2368</ele>
        <time>2017-02-22T10:41:40Z</time>
      </trkpt>
      <trkpt lat="42.87271" lon="0.25004">
        <ele>2367.8</ele>
        <time>2017-02-22T10:41:45Z</time>
      </trkpt>
      <trkpt lat="42.87271" lon="0.25005">
        <ele>2365.8</ele>
        <time>2017-02-22T10:41:50Z</time>
      </trkpt>
      <trkpt lat="42.87271" lon="0.25005">
        <ele>2365.4</ele>
        <time>2017-02-22T10:41:55Z</time>
      </trkpt>
      <trkpt lat="42.87271" lon="0.25005">
        <ele>2365</ele>
        <time>2017-02-22T10:42:00Z</time>
      </trkpt>
      <trkpt lat="42.87271" lon="0.25006">
        <ele>2365</ele>
        <time>2017-02-22T10:42:05Z</time>
      </trkpt>
      <trkpt lat="42.87271" lon="0.25006">
        <ele>2364.8</ele>
        <time>2017-02-22T10:42:10Z</time>
      </trkpt>
      <trkpt lat="42.87271" lon="0.25006">
        <ele>2364.8</ele>
        <time>2017-02-22T10:42:15Z</time>
      </trkpt>
      <trkpt lat="42.87271" lon="0.25006">
        <ele>2364.8</ele>
        <time>2017-02-22T10:42:20Z</time>
      </trkpt>
      <trkpt lat="42.87272" lon="0.25006">
        <ele>2364.6</ele>
        <time>2017-02-22T10:42:25Z</time>
      </trkpt>
      <trkpt lat="42.87273" lon="0.25006">
        <ele>2364.2</ele>
        <time>2017-02-22T10:42:30Z</time>
      </trkpt>
      <trkpt lat="42.87273" lon="0.25006">
        <ele>2363.8</ele>
        <time>2017-02-22T10:42:35Z</time>
      </trkpt>
      <trkpt lat="42.87275" lon="0.25005">
        <ele>2363.2</ele>
        <time>2017-02-22T10:42:40Z</time>
      </trkpt>
      <trkpt lat="42.87276" lon="0.25005">
        <ele>2362.6</ele>
        <time>2017-02-22T10:42:45Z</time>
      </trkpt>
      <trkpt lat="42.87276" lon="0.25005">
        <ele>2361.6</ele>
        <time>2017-02-22T10:42:50Z</time>
      </trkpt>
      <trkpt lat="42.87276" lon="0.25005">
        <ele>2361</ele>
        <time>2017-02-22T10:42:55Z</time>
      </trkpt>
      <trkpt lat="42.87277" lon="0.25005">
        <ele>2360.6</ele>
        <time>2017-02-22T10:43:00Z</time>
      </trkpt>
      <trkpt lat="42.87277" lon="0.25005">
        <ele>2360.2</ele>
        <time>2017-02-22T10:43:05Z</time>
      </trkpt>
      <trkpt lat="42.87277" lon="0.25005">
        <ele>2360</ele>
        <time>2017-02-22T10:43:10Z</time>
      </trkpt>
      <trkpt lat="42.87277" lon="0.25005">
        <ele>2360</ele>
        <time>2017-02-22T10:43:15Z</time>
      </trkpt>
      <trkpt lat="42.87277" lon="0.25005">
        <ele>2360</ele>
        <time>2017-02-22T10:43:20Z</time>
      </trkpt>
      <trkpt lat="42.87277" lon="0.25005">
        <ele>2360</ele>
        <time>2017-02-22T10:43:25Z</time>
      </trkpt>
      <trkpt lat="42.87277" lon="0.25005">
        <ele>2360.2</ele>
        <time>2017-02-22T10:43:30Z</time>
      </trkpt>
      <trkpt lat="42.87277" lon="0.25005">
        <ele>2360.2</ele>
        <time>2017-02-22T10:43:35Z</time>
      </trkpt>
      <trkpt lat="42.87277" lon="0.25005">
        <ele>2360.2</ele>
        <time>2017-02-22T10:43:40Z</time>
      </trkpt>
      <trkpt lat="42.87278" lon="0.25004">
        <ele>2360.2</ele>
        <time>2017-02-22T10:43:45Z</time>
      </trkpt>
      <trkpt lat="42.87278" lon="0.25004">
        <ele>2359.8</ele>
        <time>2017-02-22T10:43:50Z</time>
      </trkpt>
      <trkpt lat="42.87278" lon="0.25005">
        <ele>2359</ele>
        <time>2017-02-22T10:43:55Z</time>
      </trkpt>
      <trkpt lat="42.87278" lon="0.25005">
        <ele>2358.4</ele>
        <time>2017-02-22T10:44:01Z</time>
      </trkpt>
      <trkpt lat="42.87278" lon="0.25005">
        <ele>2358.2</ele>
        <time>2017-02-22T10:44:06Z</time>
      </trkpt>
      <trkpt lat="42.87278" lon="0.25004">
        <ele>2358</ele>
        <time>2017-02-22T10:44:11Z</time>
      </trkpt>
      <trkpt lat="42.87278" lon="0.25004">
        <ele>2357.8</ele>
        <time>2017-02-22T10:44:16Z</time>
      </trkpt>
      <trkpt lat="42.87278" lon="0.25004">
        <ele>2357.8</ele>
        <time>2017-02-22T10:44:21Z</time>
      </trkpt>
      <trkpt lat="42.87278" lon="0.25004">
        <ele>2357.6</ele>
        <time>2017-02-22T10:44:26Z</time>
      </trkpt>
      <trkpt lat="42.87278" lon="0.25004">
        <ele>2357.6</ele>
        <time>2017-02-22T10:44:31Z</time>
      </trkpt>
      <trkpt lat="42.87278" lon="0.25004">
        <ele>2357.6</ele>
        <time>2017-02-22T10:44:36Z</time>
      </trkpt>
      <trkpt lat="42.87278" lon="0.25004">
        <ele>2357.6</ele>
        <time>2017-02-22T10:44:41Z</time>
      </trkpt>
      <trkpt lat="42.87278" lon="0.25004">
        <ele>2357.6</ele>
        <time>2017-02-22T10:44:46Z</time>
      </trkpt>
      <trkpt lat="42.87278" lon="0.25004">
        <ele>2357.8</ele>
        <time>2017-02-22T10:44:51Z</time>
      </trkpt>
      <trkpt lat="42.87278" lon="0.25004">
        <ele>2357.8</ele>
        <time>2017-02-22T10:44:56Z</time>
      </trkpt>
      <trkpt lat="42.87277" lon="0.25004">
        <ele>2357.8</ele>
        <time>2017-02-22T10:45:01Z</time>
      </trkpt>
      <trkpt lat="42.87277" lon="0.25004">
        <ele>2357.8</ele>
        <time>2017-02-22T10:45:06Z</time>
      </trkpt>
      <trkpt lat="42.87277" lon="0.25004">
        <ele>2357.8</ele>
        <time>2017-02-22T10:45:11Z</time>
      </trkpt>
      <trkpt lat="42.87277" lon="0.25004">
        <ele>2357.8</ele>
        <time>2017-02-22T10:45:16Z</time>
      </trkpt>
      <trkpt lat="42.87277" lon="0.25004">
        <ele>2357.8</ele>
        <time>2017-02-22T10:45:21Z</time>
      </trkpt>
      <trkpt lat="42.87277" lon="0.25004">
        <ele>2357.8</ele>
        <time>2017-02-22T10:45:26Z</time>
      </trkpt>
      <trkpt lat="42.87277" lon="0.25004">
        <ele>2357.8</ele>
        <time>2017-02-22T10:45:31Z</time>
      </trkpt>
      <trkpt lat="42.87277" lon="0.25004">
        <ele>2357.8</ele>
        <time>2017-02-22T10:45:36Z</time>
      </trkpt>
      <trkpt lat="42.87277" lon="0.25004">
        <ele>2357.8</ele>
        <time>2017-02-22T10:45:41Z</time>
      </trkpt>
      <trkpt lat="42.87277" lon="0.25004">
        <ele>2357.8</ele>
        <time>2017-02-22T10:45:46Z</time>
      </trkpt>
      <trkpt lat="42.87277" lon="0.25004">
        <ele>2357.8</ele>
        <time>2017-02-22T10:45:51Z</time>
      </trkpt>
      <trkpt lat="42.87277" lon="0.25004">
        <ele>2357.8</ele>
        <time>2017-02-22T10:45:56Z</time>
      </trkpt>
      <trkpt lat="42.87277" lon="0.25004">
        <ele>2357.8</ele>
        <time>2017-02-22T10:46:01Z</time>
      </trkpt>
      <trkpt lat="42.87277" lon="0.25004">
        <ele>2357.8</ele>
        <time>2017-02-22T10:46:06Z</time>
      </trkpt>
      <trkpt lat="42.87277" lon="0.25004">
        <ele>2357.6</ele>
        <time>2017-02-22T10:46:11Z</time>
      </trkpt>
      <trkpt lat="42.87278" lon="0.25004">
        <ele>2357.6</ele>
        <time>2017-02-22T10:46:16Z</time>
      </trkpt>
      <trkpt lat="42.87279" lon="0.25004">
        <ele>2357</ele>
        <time>2017-02-22T10:46:21Z</time>
      </trkpt>
      <trkpt lat="42.87279" lon="0.25004">
        <ele>2356.4</ele>
        <time>2017-02-22T10:46:26Z</time>
      </trkpt>
      <trkpt lat="42.87279" lon="0.25004">
        <ele>2356</ele>
        <time>2017-02-22T10:46:31Z</time>
      </trkpt>
      <trkpt lat="42.87279" lon="0.25004">
        <ele>2355.4</ele>
        <time>2017-02-22T10:46:36Z</time>
      </trkpt>
      <trkpt lat="42.87279" lon="0.25003">
        <ele>2355</ele>
        <time>2017-02-22T10:46:41Z</time>
      </trkpt>
      <trkpt lat="42.87279" lon="0.25003">
        <ele>2354.6</ele>
        <time>2017-02-22T10:46:46Z</time>
      </trkpt>
      <trkpt lat="42.87277" lon="0.25003">
        <ele>2354</ele>
        <time>2017-02-22T10:46:51Z</time>
      </trkpt>
      <trkpt lat="42.87277" lon="0.25004">
        <ele>2354</ele>
        <time>2017-02-22T10:46:56Z</time>
      </trkpt>
      <trkpt lat="42.87276" lon="0.25004">
        <ele>2353.8</ele>
        <time>2017-02-22T10:47:01Z</time>
      </trkpt>
      <trkpt lat="42.87275" lon="0.25004">
        <ele>2354</ele>
        <time>2017-02-22T10:47:06Z</time>
      </trkpt>
      <trkpt lat="42.87275" lon="0.25004">
        <ele>2354.4</ele>
        <time>2017-02-22T10:47:11Z</time>
      </trkpt>
      <trkpt lat="42.87276" lon="0.25004">
        <ele>2356.2</ele>
        <time>2017-02-22T10:47:16Z</time>
      </trkpt>
      <trkpt lat="42.87276" lon="0.25004">
        <ele>2355.4</ele>
        <time>2017-02-22T10:47:21Z</time>
      </trkpt>
      <trkpt lat="42.87276" lon="0.25003">
        <ele>2354.8</ele>
        <time>2017-02-22T10:47:26Z</time>
      </trkpt>
      <trkpt lat="42.87276" lon="0.25003">
        <ele>2354.2</ele>
        <time>2017-02-22T10:47:31Z</time>
      </trkpt>
      <trkpt lat="42.87276" lon="0.25003">
        <ele>2353.8</ele>
        <time>2017-02-22T10:47:36Z</time>
      </trkpt>
      <trkpt lat="42.87275" lon="0.25003">
        <ele>2354</ele>
        <time>2017-02-22T10:47:41Z</time>
      </trkpt>
      <trkpt lat="42.87275" lon="0.25002">
        <ele>2354.4</ele>
        <time>2017-02-22T10:47:46Z</time>
      </trkpt>
      <trkpt lat="42.87274" lon="0.25002">
        <ele>2355.2</ele>
        <time>2017-02-22T10:47:51Z</time>
      </trkpt>
      <trkpt lat="42.87274" lon="0.25002">
        <ele>2355.8</ele>
        <time>2017-02-22T10:47:56Z</time>
      </trkpt>
      <trkpt lat="42.87273" lon="0.25003">
        <ele>2355.2</ele>
        <time>2017-02-22T10:48:01Z</time>
      </trkpt>
      <trkpt lat="42.87274" lon="0.25003">
        <ele>2356.2</ele>
        <time>2017-02-22T10:48:06Z</time>
      </trkpt>
      <trkpt lat="42.87274" lon="0.25003">
        <ele>2356.8</ele>
        <time>2017-02-22T10:48:11Z</time>
      </trkpt>
      <trkpt lat="42.87274" lon="0.25003">
        <ele>2357.4</ele>
        <time>2017-02-22T10:48:16Z</time>
      </trkpt>
      <trkpt lat="42.87274" lon="0.25003">
        <ele>2357.8</ele>
        <time>2017-02-22T10:48:21Z</time>
      </trkpt>
      <trkpt lat="42.87274" lon="0.25003">
        <ele>2358</ele>
        <time>2017-02-22T10:48:26Z</time>
      </trkpt>
      <trkpt lat="42.87274" lon="0.25003">
        <ele>2358.2</ele>
        <time>2017-02-22T10:48:31Z</time>
      </trkpt>
      <trkpt lat="42.87273" lon="0.25003">
        <ele>2358.2</ele>
        <time>2017-02-22T10:48:36Z</time>
      </trkpt>
      <trkpt lat="42.87273" lon="0.25003">
        <ele>2358.6</ele>
        <time>2017-02-22T10:48:41Z</time>
      </trkpt>
      <trkpt lat="42.87273" lon="0.25003">
        <ele>2358.6</ele>
        <time>2017-02-22T10:48:46Z</time>
      </trkpt>
      <trkpt lat="42.87273" lon="0.25003">
        <ele>2358.8</ele>
        <time>2017-02-22T10:48:51Z</time>
      </trkpt>
      <trkpt lat="42.87273" lon="0.25003">
        <ele>2358.8</ele>
        <time>2017-02-22T10:48:56Z</time>
      </trkpt>
      <trkpt lat="42.87273" lon="0.25003">
        <ele>2358.8</ele>
        <time>2017-02-22T10:49:01Z</time>
      </trkpt>
      <trkpt lat="42.87273" lon="0.25003">
        <ele>2358.8</ele>
        <time>2017-02-22T10:49:06Z</time>
      </trkpt>
      <trkpt lat="42.87274" lon="0.25003">
        <ele>2358.8</ele>
        <time>2017-02-22T10:49:11Z</time>
      </trkpt>
      <trkpt lat="42.87274" lon="0.25003">
        <ele>2358.4</ele>
        <time>2017-02-22T10:49:16Z</time>
      </trkpt>
      <trkpt lat="42.87274" lon="0.25003">
        <ele>2358</ele>
        <time>2017-02-22T10:49:21Z</time>
      </trkpt>
      <trkpt lat="42.87274" lon="0.25004">
        <ele>2358.6</ele>
        <time>2017-02-22T10:49:26Z</time>
      </trkpt>
      <trkpt lat="42.87274" lon="0.25004">
        <ele>2358.6</ele>
        <time>2017-02-22T10:49:31Z</time>
      </trkpt>
      <trkpt lat="42.87275" lon="0.25004">
        <ele>2358.6</ele>
        <time>2017-02-22T10:49:36Z</time>
      </trkpt>
      <trkpt lat="42.87276" lon="0.25001">
        <ele>2359.6</ele>
        <time>2017-02-22T10:49:41Z</time>
      </trkpt>
      <trkpt lat="42.87276" lon="0.25001">
        <ele>2360</ele>
        <time>2017-02-22T10:49:46Z</time>
      </trkpt>
      <trkpt lat="42.87275" lon="0.25">
        <ele>2359.8</ele>
        <time>2017-02-22T10:49:51Z</time>
      </trkpt>
      <trkpt lat="42.87273" lon="0.24995">
        <ele>2361.2</ele>
        <time>2017-02-22T10:49:56Z</time>
      </trkpt>
      <trkpt lat="42.87273" lon="0.24995">
        <ele>2362.6</ele>
        <time>2017-02-22T10:50:01Z</time>
      </trkpt>
      <trkpt lat="42.87273" lon="0.24995">
        <ele>2362.6</ele>
        <time>2017-02-22T10:50:06Z</time>
      </trkpt>
      <trkpt lat="42.87273" lon="0.24995">
        <ele>2362.8</ele>
        <time>2017-02-22T10:50:11Z</time>
      </trkpt>
      <trkpt lat="42.87273" lon="0.24995">
        <ele>2362.8</ele>
        <time>2017-02-22T10:50:16Z</time>
      </trkpt>
      <trkpt lat="42.87273" lon="0.24995">
        <ele>2362.8</ele>
        <time>2017-02-22T10:50:21Z</time>
      </trkpt>
      <trkpt lat="42.87273" lon="0.24995">
        <ele>2363</ele>
        <time>2017-02-22T10:50:26Z</time>
      </trkpt>
      <trkpt lat="42.87273" lon="0.24997">
        <ele>2364.2</ele>
        <time>2017-02-22T10:50:31Z</time>
      </trkpt>
      <trkpt lat="42.87273" lon="0.24996">
        <ele>2364.2</ele>
        <time>2017-02-22T10:50:36Z</time>
      </trkpt>
      <trkpt lat="42.87273" lon="0.24996">
        <ele>2364.2</ele>
        <time>2017-02-22T10:50:41Z</time>
      </trkpt>
      <trkpt lat="42.87273" lon="0.24996">
        <ele>2364.2</ele>
        <time>2017-02-22T10:50:46Z</time>
      </trkpt>
      <trkpt lat="42.87273" lon="0.24996">
        <ele>2364.2</ele>
        <time>2017-02-22T10:50:51Z</time>
      </trkpt>
      <trkpt lat="42.87273" lon="0.24996">
        <ele>2364.2</ele>
        <time>2017-02-22T10:50:56Z</time>
      </trkpt>
      <trkpt lat="42.87273" lon="0.24996">
        <ele>2364.2</ele>
        <time>2017-02-22T10:51:01Z</time>
      </trkpt>
      <trkpt lat="42.87272" lon="0.24995">
        <ele>2366</ele>
        <time>2017-02-22T10:51:06Z</time>
      </trkpt>
      <trkpt lat="42.87272" lon="0.24993">
        <ele>2363.6</ele>
        <time>2017-02-22T10:51:11Z</time>
      </trkpt>
      <trkpt lat="42.87271" lon="0.2499">
        <ele>2365.8</ele>
        <time>2017-02-22T10:51:16Z</time>
      </trkpt>
      <trkpt lat="42.8727" lon="0.24987">
        <ele>2367.2</ele>
        <time>2017-02-22T10:51:21Z</time>
      </trkpt>
      <trkpt lat="42.87269" lon="0.24984">
        <ele>2367.8</ele>
        <time>2017-02-22T10:51:26Z</time>
      </trkpt>
      <trkpt lat="42.87268" lon="0.24981">
        <ele>2370.4</ele>
        <time>2017-02-22T10:51:31Z</time>
      </trkpt>
      <trkpt lat="42.87268" lon="0.2498">
        <ele>2370.6</ele>
        <time>2017-02-22T10:51:36Z</time>
      </trkpt>
      <trkpt lat="42.87268" lon="0.2498">
        <ele>2370.6</ele>
        <time>2017-02-22T10:51:41Z</time>
      </trkpt>
      <trkpt lat="42.87268" lon="0.2498">
        <ele>2370.8</ele>
        <time>2017-02-22T10:51:46Z</time>
      </trkpt>
      <trkpt lat="42.87268" lon="0.24981">
        <ele>2370.8</ele>
        <time>2017-02-22T10:51:51Z</time>
      </trkpt>
      <trkpt lat="42.87268" lon="0.24981">
        <ele>2370.8</ele>
        <time>2017-02-22T10:51:56Z</time>
      </trkpt>
      <trkpt lat="42.87268" lon="0.24981">
        <ele>2370.8</ele>
        <time>2017-02-22T10:52:01Z</time>
      </trkpt>
      <trkpt lat="42.87268" lon="0.24979">
        <ele>2371.4</ele>
        <time>2017-02-22T10:52:06Z</time>
      </trkpt>
      <trkpt lat="42.87267" lon="0.24975">
        <ele>2372.2</ele>
        <time>2017-02-22T10:52:11Z</time>
      </trkpt>
      <trkpt lat="42.87266" lon="0.24972">
        <ele>2374</ele>
        <time>2017-02-22T10:52:16Z</time>
      </trkpt>
      <trkpt lat="42.87265" lon="0.24969">
        <ele>2374</ele>
        <time>2017-02-22T10:52:21Z</time>
      </trkpt>
      <trkpt lat="42.87265" lon="0.24966">
        <ele>2373.2</ele>
        <time>2017-02-22T10:52:26Z</time>
      </trkpt>
      <trkpt lat="42.87265" lon="0.24964">
        <ele>2374</ele>
        <time>2017-02-22T10:52:31Z</time>
      </trkpt>
      <trkpt lat="42.87264" lon="0.24961">
        <ele>2375</ele>
        <time>2017-02-22T10:52:36Z</time>
      </trkpt>
      <trkpt lat="42.87263" lon="0.24958">
        <ele>2377</ele>
        <time>2017-02-22T10:52:41Z</time>
      </trkpt>
      <trkpt lat="42.87263" lon="0.24955">
        <ele>2374</ele>
        <time>2017-02-22T10:52:46Z</time>
      </trkpt>
      <trkpt lat="42.87262" lon="0.24952">
        <ele>2375.8</ele>
        <time>2017-02-22T10:52:51Z</time>
      </trkpt>
      <trkpt lat="42.87262" lon="0.2495">
        <ele>2379.4</ele>
        <time>2017-02-22T10:52:56Z</time>
      </trkpt>
      <trkpt lat="42.87261" lon="0.24948">
        <ele>2381.2</ele>
        <time>2017-02-22T10:53:01Z</time>
      </trkpt>
      <trkpt lat="42.8726" lon="0.24945">
        <ele>2379.4</ele>
        <time>2017-02-22T10:53:06Z</time>
      </trkpt>
      <trkpt lat="42.87259" lon="0.24943">
        <ele>2380</ele>
        <time>2017-02-22T10:53:11Z</time>
      </trkpt>
      <trkpt lat="42.87258" lon="0.2494">
        <ele>2382.6</ele>
        <time>2017-02-22T10:53:16Z</time>
      </trkpt>
      <trkpt lat="42.87256" lon="0.24937">
        <ele>2379.8</ele>
        <time>2017-02-22T10:53:21Z</time>
      </trkpt>
      <trkpt lat="42.87256" lon="0.24934">
        <ele>2381</ele>
        <time>2017-02-22T10:53:26Z</time>
      </trkpt>
      <trkpt lat="42.87255" lon="0.24932">
        <ele>2382</ele>
        <time>2017-02-22T10:53:31Z</time>
      </trkpt>
      <trkpt lat="42.87254" lon="0.24929">
        <ele>2382.4</ele>
        <time>2017-02-22T10:53:36Z</time>
      </trkpt>
      <trkpt lat="42.87253" lon="0.24927">
        <ele>2384.8</ele>
        <time>2017-02-22T10:53:41Z</time>
      </trkpt>
      <trkpt lat="42.87252" lon="0.24925">
        <ele>2382.4</ele>
        <time>2017-02-22T10:53:46Z</time>
      </trkpt>
      <trkpt lat="42.87252" lon="0.24924">
        <ele>2386.6</ele>
        <time>2017-02-22T10:53:51Z</time>
      </trkpt>
      <trkpt lat="42.87251" lon="0.24923">
        <ele>2385.8</ele>
        <time>2017-02-22T10:53:56Z</time>
      </trkpt>
      <trkpt lat="42.8725" lon="0.2492">
        <ele>2384.6</ele>
        <time>2017-02-22T10:54:01Z</time>
      </trkpt>
      <trkpt lat="42.8725" lon="0.24919">
        <ele>2385.6</ele>
        <time>2017-02-22T10:54:06Z</time>
      </trkpt>
      <trkpt lat="42.87253" lon="0.2492">
        <ele>2386</ele>
        <time>2017-02-22T10:54:11Z</time>
      </trkpt>
      <trkpt lat="42.87256" lon="0.2492">
        <ele>2387.4</ele>
        <time>2017-02-22T10:54:16Z</time>
      </trkpt>
      <trkpt lat="42.87258" lon="0.2492">
        <ele>2389.2</ele>
        <time>2017-02-22T10:54:21Z</time>
      </trkpt>
      <trkpt lat="42.87261" lon="0.24921">
        <ele>2391</ele>
        <time>2017-02-22T10:54:26Z</time>
      </trkpt>
      <trkpt lat="42.87263" lon="0.24921">
        <ele>2387.4</ele>
        <time>2017-02-22T10:54:31Z</time>
      </trkpt>
      <trkpt lat="42.87266" lon="0.24922">
        <ele>2390</ele>
        <time>2017-02-22T10:54:36Z</time>
      </trkpt>
      <trkpt lat="42.87268" lon="0.24922">
        <ele>2389.6</ele>
        <time>2017-02-22T10:54:41Z</time>
      </trkpt>
      <trkpt lat="42.8727" lon="0.24923">
        <ele>2389.6</ele>
        <time>2017-02-22T10:54:46Z</time>
      </trkpt>
      <trkpt lat="42.87272" lon="0.24924">
        <ele>2392.8</ele>
        <time>2017-02-22T10:54:51Z</time>
      </trkpt>
      <trkpt lat="42.87275" lon="0.24925">
        <ele>2390.6</ele>
        <time>2017-02-22T10:54:56Z</time>
      </trkpt>
      <trkpt lat="42.87278" lon="0.24926">
        <ele>2391.4</ele>
        <time>2017-02-22T10:55:01Z</time>
      </trkpt>
      <trkpt lat="42.87282" lon="0.24926">
        <ele>2394.6</ele>
        <time>2017-02-22T10:55:06Z</time>
      </trkpt>
      <trkpt lat="42.87284" lon="0.24927">
        <ele>2394.4</ele>
        <time>2017-02-22T10:55:11Z</time>
      </trkpt>
      <trkpt lat="42.87286" lon="0.24928">
        <ele>2397.2</ele>
        <time>2017-02-22T10:55:16Z</time>
      </trkpt>
      <trkpt lat="42.87288" lon="0.24929">
        <ele>2398.8</ele>
        <time>2017-02-22T10:55:21Z</time>
      </trkpt>
      <trkpt lat="42.8729" lon="0.2493">
        <ele>2398</ele>
        <time>2017-02-22T10:55:26Z</time>
      </trkpt>
      <trkpt lat="42.87293" lon="0.24931">
        <ele>2395.8</ele>
        <time>2017-02-22T10:55:31Z</time>
      </trkpt>
      <trkpt lat="42.87295" lon="0.24932">
        <ele>2398.4</ele>
        <time>2017-02-22T10:55:36Z</time>
      </trkpt>
      <trkpt lat="42.87298" lon="0.24933">
        <ele>2397.6</ele>
        <time>2017-02-22T10:55:41Z</time>
      </trkpt>
      <trkpt lat="42.87299" lon="0.24934">
        <ele>2401.2</ele>
        <time>2017-02-22T10:55:46Z</time>
      </trkpt>
      <trkpt lat="42.87301" lon="0.24935">
        <ele>2398.2</ele>
        <time>2017-02-22T10:55:51Z</time>
      </trkpt>
      <trkpt lat="42.87303" lon="0.24936">
        <ele>2398.2</ele>
        <time>2017-02-22T10:55:56Z</time>
      </trkpt>
      <trkpt lat="42.87305" lon="0.24937">
        <ele>2401.8</ele>
        <time>2017-02-22T10:56:01Z</time>
      </trkpt>
      <trkpt lat="42.87307" lon="0.24938">
        <ele>2400.2</ele>
        <time>2017-02-22T10:56:06Z</time>
      </trkpt>
      <trkpt lat="42.87308" lon="0.24939">
        <ele>2402</ele>
        <time>2017-02-22T10:56:11Z</time>
      </trkpt>
      <trkpt lat="42.8731" lon="0.24941">
        <ele>2401.6</ele>
        <time>2017-02-22T10:56:16Z</time>
      </trkpt>
      <trkpt lat="42.87312" lon="0.24942">
        <ele>2401</ele>
        <time>2017-02-22T10:56:21Z</time>
      </trkpt>
      <trkpt lat="42.87314" lon="0.24944">
        <ele>2401.6</ele>
        <time>2017-02-22T10:56:26Z</time>
      </trkpt>
      <trkpt lat="42.87314" lon="0.24944">
        <ele>2404.2</ele>
        <time>2017-02-22T10:56:31Z</time>
      </trkpt>
      <trkpt lat="42.87312" lon="0.24942">
        <ele>2405</ele>
        <time>2017-02-22T10:56:36Z</time>
      </trkpt>
      <trkpt lat="42.8731" lon="0.24937">
        <ele>2402.4</ele>
        <time>2017-02-22T10:56:42Z</time>
      </trkpt>
      <trkpt lat="42.8731" lon="0.24935">
        <ele>2403</ele>
        <time>2017-02-22T10:56:47Z</time>
      </trkpt>
      <trkpt lat="42.87309" lon="0.24931">
        <ele>2401.8</ele>
        <time>2017-02-22T10:56:52Z</time>
      </trkpt>
      <trkpt lat="42.87309" lon="0.24927">
        <ele>2401.6</ele>
        <time>2017-02-22T10:56:57Z</time>
      </trkpt>
      <trkpt lat="42.87308" lon="0.24924">
        <ele>2404.2</ele>
        <time>2017-02-22T10:57:02Z</time>
      </trkpt>
      <trkpt lat="42.87307" lon="0.24921">
        <ele>2404.4</ele>
        <time>2017-02-22T10:57:07Z</time>
      </trkpt>
      <trkpt lat="42.87306" lon="0.24918">
        <ele>2403.2</ele>
        <time>2017-02-22T10:57:12Z</time>
      </trkpt>
      <trkpt lat="42.87306" lon="0.24915">
        <ele>2404.4</ele>
        <time>2017-02-22T10:57:17Z</time>
      </trkpt>
      <trkpt lat="42.87305" lon="0.24912">
        <ele>2401</ele>
        <time>2017-02-22T10:57:22Z</time>
      </trkpt>
      <trkpt lat="42.87304" lon="0.2491">
        <ele>2404.4</ele>
        <time>2017-02-22T10:57:27Z</time>
      </trkpt>
      <trkpt lat="42.87303" lon="0.24907">
        <ele>2405.2</ele>
        <time>2017-02-22T10:57:32Z</time>
      </trkpt>
      <trkpt lat="42.87303" lon="0.24904">
        <ele>2403.8</ele>
        <time>2017-02-22T10:57:37Z</time>
      </trkpt>
      <trkpt lat="42.87303" lon="0.24901">
        <ele>2405.2</ele>
        <time>2017-02-22T10:57:42Z</time>
      </trkpt>
      <trkpt lat="42.87302" lon="0.24898">
        <ele>2405.8</ele>
        <time>2017-02-22T10:57:47Z</time>
      </trkpt>
      <trkpt lat="42.87301" lon="0.24896">
        <ele>2406.6</ele>
        <time>2017-02-22T10:57:52Z</time>
      </trkpt>
      <trkpt lat="42.873" lon="0.24893">
        <ele>2404.6</ele>
        <time>2017-02-22T10:57:57Z</time>
      </trkpt>
      <trkpt lat="42.87299" lon="0.2489">
        <ele>2405.2</ele>
        <time>2017-02-22T10:58:02Z</time>
      </trkpt>
      <trkpt lat="42.87298" lon="0.24888">
        <ele>2407.4</ele>
        <time>2017-02-22T10:58:07Z</time>
      </trkpt>
      <trkpt lat="42.87297" lon="0.24885">
        <ele>2408.4</ele>
        <time>2017-02-22T10:58:12Z</time>
      </trkpt>
      <trkpt lat="42.87296" lon="0.24883">
        <ele>2409.4</ele>
        <time>2017-02-22T10:58:17Z</time>
      </trkpt>
      <trkpt lat="42.87294" lon="0.2488">
        <ele>2407.4</ele>
        <time>2017-02-22T10:58:22Z</time>
      </trkpt>
      <trkpt lat="42.87292" lon="0.24877">
        <ele>2409</ele>
        <time>2017-02-22T10:58:27Z</time>
      </trkpt>
      <trkpt lat="42.87291" lon="0.24874">
        <ele>2412.8</ele>
        <time>2017-02-22T10:58:32Z</time>
      </trkpt>
      <trkpt lat="42.87289" lon="0.24871">
        <ele>2410.4</ele>
        <time>2017-02-22T10:58:37Z</time>
      </trkpt>
      <trkpt lat="42.87286" lon="0.24868">
        <ele>2412.2</ele>
        <time>2017-02-22T10:58:42Z</time>
      </trkpt>
      <trkpt lat="42.87285" lon="0.24865">
        <ele>2411.4</ele>
        <time>2017-02-22T10:58:47Z</time>
      </trkpt>
      <trkpt lat="42.87285" lon="0.24863">
        <ele>2414.6</ele>
        <time>2017-02-22T10:58:52Z</time>
      </trkpt>
      <trkpt lat="42.87284" lon="0.24861">
        <ele>2415.4</ele>
        <time>2017-02-22T10:58:57Z</time>
      </trkpt>
      <trkpt lat="42.87283" lon="0.24858">
        <ele>2414.8</ele>
        <time>2017-02-22T10:59:02Z</time>
      </trkpt>
      <trkpt lat="42.87282" lon="0.24856">
        <ele>2414</ele>
        <time>2017-02-22T10:59:07Z</time>
      </trkpt>
      <trkpt lat="42.87279" lon="0.24853">
        <ele>2416.8</ele>
        <time>2017-02-22T10:59:12Z</time>
      </trkpt>
      <trkpt lat="42.87278" lon="0.24851">
        <ele>2417.4</ele>
        <time>2017-02-22T10:59:17Z</time>
      </trkpt>
      <trkpt lat="42.87281" lon="0.2485">
        <ele>2419</ele>
        <time>2017-02-22T10:59:22Z</time>
      </trkpt>
      <trkpt lat="42.87284" lon="0.2485">
        <ele>2417.2</ele>
        <time>2017-02-22T10:59:27Z</time>
      </trkpt>
      <trkpt lat="42.87287" lon="0.2485">
        <ele>2416.4</ele>
        <time>2017-02-22T10:59:32Z</time>
      </trkpt>
      <trkpt lat="42.8729" lon="0.2485">
        <ele>2419.2</ele>
        <time>2017-02-22T10:59:37Z</time>
      </trkpt>
      <trkpt lat="42.87293" lon="0.2485">
        <ele>2420.2</ele>
        <time>2017-02-22T10:59:42Z</time>
      </trkpt>
      <trkpt lat="42.87296" lon="0.24851">
        <ele>2421</ele>
        <time>2017-02-22T10:59:47Z</time>
      </trkpt>
      <trkpt lat="42.87299" lon="0.24851">
        <ele>2421.2</ele>
        <time>2017-02-22T10:59:52Z</time>
      </trkpt>
      <trkpt lat="42.87301" lon="0.24851">
        <ele>2423</ele>
        <time>2017-02-22T10:59:57Z</time>
      </trkpt>
      <trkpt lat="42.87303" lon="0.24852">
        <ele>2421.8</ele>
        <time>2017-02-22T11:00:02Z</time>
      </trkpt>
      <trkpt lat="42.87305" lon="0.24852">
        <ele>2426</ele>
        <time>2017-02-22T11:00:07Z</time>
      </trkpt>
      <trkpt lat="42.87307" lon="0.24853">
        <ele>2423</ele>
        <time>2017-02-22T11:00:12Z</time>
      </trkpt>
      <trkpt lat="42.87309" lon="0.24853">
        <ele>2428.8</ele>
        <time>2017-02-22T11:00:17Z</time>
      </trkpt>
      <trkpt lat="42.87312" lon="0.24854">
        <ele>2425.4</ele>
        <time>2017-02-22T11:00:23Z</time>
      </trkpt>
      <trkpt lat="42.87314" lon="0.24854">
        <ele>2425.6</ele>
        <time>2017-02-22T11:00:28Z</time>
      </trkpt>
      <trkpt lat="42.87316" lon="0.24854">
        <ele>2427.4</ele>
        <time>2017-02-22T11:00:33Z</time>
      </trkpt>
      <trkpt lat="42.87319" lon="0.24855">
        <ele>2426.4</ele>
        <time>2017-02-22T11:00:38Z</time>
      </trkpt>
      <trkpt lat="42.87321" lon="0.24855">
        <ele>2430.2</ele>
        <time>2017-02-22T11:00:43Z</time>
      </trkpt>
      <trkpt lat="42.87323" lon="0.24856">
        <ele>2430.2</ele>
        <time>2017-02-22T11:00:48Z</time>
      </trkpt>
      <trkpt lat="42.87324" lon="0.24857">
        <ele>2429.6</ele>
        <time>2017-02-22T11:00:53Z</time>
      </trkpt>
      <trkpt lat="42.87327" lon="0.24858">
        <ele>2428</ele>
        <time>2017-02-22T11:00:58Z</time>
      </trkpt>
      <trkpt lat="42.87329" lon="0.24859">
        <ele>2433</ele>
        <time>2017-02-22T11:01:03Z</time>
      </trkpt>
      <trkpt lat="42.87332" lon="0.2486">
        <ele>2431.6</ele>
        <time>2017-02-22T11:01:08Z</time>
      </trkpt>
      <trkpt lat="42.87334" lon="0.2486">
        <ele>2431.8</ele>
        <time>2017-02-22T11:01:13Z</time>
      </trkpt>
      <trkpt lat="42.87336" lon="0.24861">
        <ele>2434.4</ele>
        <time>2017-02-22T11:01:18Z</time>
      </trkpt>
      <trkpt lat="42.87338" lon="0.24861">
        <ele>2437.2</ele>
        <time>2017-02-22T11:01:23Z</time>
      </trkpt>
      <trkpt lat="42.8734" lon="0.24862">
        <ele>2437.4</ele>
        <time>2017-02-22T11:01:28Z</time>
      </trkpt>
      <trkpt lat="42.87342" lon="0.24862">
        <ele>2438.8</ele>
        <time>2017-02-22T11:01:33Z</time>
      </trkpt>
      <trkpt lat="42.87344" lon="0.24863">
        <ele>2437.6</ele>
        <time>2017-02-22T11:01:38Z</time>
      </trkpt>
      <trkpt lat="42.87346" lon="0.24863">
        <ele>2438.6</ele>
        <time>2017-02-22T11:01:43Z</time>
      </trkpt>
      <trkpt lat="42.87349" lon="0.24864">
        <ele>2440</ele>
        <time>2017-02-22T11:01:48Z</time>
      </trkpt>
      <trkpt lat="42.87351" lon="0.24865">
        <ele>2439.8</ele>
        <time>2017-02-22T11:01:53Z</time>
      </trkpt>
      <trkpt lat="42.87352" lon="0.24865">
        <ele>2441.2</ele>
        <time>2017-02-22T11:01:58Z</time>
      </trkpt>
      <trkpt lat="42.87354" lon="0.24866">
        <ele>2441.4</ele>
        <time>2017-02-22T11:02:03Z</time>
      </trkpt>
      <trkpt lat="42.87356" lon="0.24867">
        <ele>2442.2</ele>
        <time>2017-02-22T11:02:08Z</time>
      </trkpt>
      <trkpt lat="42.87358" lon="0.24867">
        <ele>2442</ele>
        <time>2017-02-22T11:02:13Z</time>
      </trkpt>
      <trkpt lat="42.8736" lon="0.24868">
        <ele>2442</ele>
        <time>2017-02-22T11:02:18Z</time>
      </trkpt>
      <trkpt lat="42.87363" lon="0.24869">
        <ele>2441</ele>
        <time>2017-02-22T11:02:23Z</time>
      </trkpt>
      <trkpt lat="42.87366" lon="0.2487">
        <ele>2444</ele>
        <time>2017-02-22T11:02:28Z</time>
      </trkpt>
      <trkpt lat="42.87368" lon="0.24871">
        <ele>2442.4</ele>
        <time>2017-02-22T11:02:33Z</time>
      </trkpt>
      <trkpt lat="42.87369" lon="0.24873">
        <ele>2444.6</ele>
        <time>2017-02-22T11:02:38Z</time>
      </trkpt>
      <trkpt lat="42.8737" lon="0.24874">
        <ele>2442.8</ele>
        <time>2017-02-22T11:02:43Z</time>
      </trkpt>
      <trkpt lat="42.87373" lon="0.24876">
        <ele>2445</ele>
        <time>2017-02-22T11:02:48Z</time>
      </trkpt>
      <trkpt lat="42.87375" lon="0.24877">
        <ele>2444</ele>
        <time>2017-02-22T11:02:53Z</time>
      </trkpt>
      <trkpt lat="42.87377" lon="0.24878">
        <ele>2444.8</ele>
        <time>2017-02-22T11:02:58Z</time>
      </trkpt>
      <trkpt lat="42.87377" lon="0.24875">
        <ele>2443.8</ele>
        <time>2017-02-22T11:03:03Z</time>
      </trkpt>
      <trkpt lat="42.87377" lon="0.24872">
        <ele>2443.2</ele>
        <time>2017-02-22T11:03:08Z</time>
      </trkpt>
      <trkpt lat="42.87377" lon="0.24869">
        <ele>2444.6</ele>
        <time>2017-02-22T11:03:13Z</time>
      </trkpt>
      <trkpt lat="42.87376" lon="0.24866">
        <ele>2442.4</ele>
        <time>2017-02-22T11:03:18Z</time>
      </trkpt>
      <trkpt lat="42.87376" lon="0.24863">
        <ele>2443.2</ele>
        <time>2017-02-22T11:03:23Z</time>
      </trkpt>
      <trkpt lat="42.87376" lon="0.2486">
        <ele>2442</ele>
        <time>2017-02-22T11:03:28Z</time>
      </trkpt>
      <trkpt lat="42.87375" lon="0.24856">
        <ele>2447.6</ele>
        <time>2017-02-22T11:03:33Z</time>
      </trkpt>
      <trkpt lat="42.87376" lon="0.24856">
        <ele>2444.2</ele>
        <time>2017-02-22T11:03:38Z</time>
      </trkpt>
      <trkpt lat="42.87377" lon="0.24857">
        <ele>2446</ele>
        <time>2017-02-22T11:03:43Z</time>
      </trkpt>
      <trkpt lat="42.87379" lon="0.24858">
        <ele>2443.4</ele>
        <time>2017-02-22T11:03:48Z</time>
      </trkpt>
      <trkpt lat="42.87381" lon="0.24859">
        <ele>2445.2</ele>
        <time>2017-02-22T11:03:54Z</time>
      </trkpt>
      <trkpt lat="42.87384" lon="0.2486">
        <ele>2443</ele>
        <time>2017-02-22T11:03:59Z</time>
      </trkpt>
      <trkpt lat="42.87387" lon="0.2486">
        <ele>2446.8</ele>
        <time>2017-02-22T11:04:04Z</time>
      </trkpt>
      <trkpt lat="42.8739" lon="0.24862">
        <ele>2446.8</ele>
        <time>2017-02-22T11:04:09Z</time>
      </trkpt>
      <trkpt lat="42.87391" lon="0.24863">
        <ele>2446</ele>
        <time>2017-02-22T11:04:14Z</time>
      </trkpt>
      <trkpt lat="42.87393" lon="0.24864">
        <ele>2448.4</ele>
        <time>2017-02-22T11:04:19Z</time>
      </trkpt>
      <trkpt lat="42.87394" lon="0.24865">
        <ele>2448.8</ele>
        <time>2017-02-22T11:04:24Z</time>
      </trkpt>
      <trkpt lat="42.87395" lon="0.24865">
        <ele>2451.6</ele>
        <time>2017-02-22T11:04:29Z</time>
      </trkpt>
      <trkpt lat="42.87395" lon="0.24863">
        <ele>2452.4</ele>
        <time>2017-02-22T11:04:34Z</time>
      </trkpt>
      <trkpt lat="42.87394" lon="0.2486">
        <ele>2450</ele>
        <time>2017-02-22T11:04:39Z</time>
      </trkpt>
      <trkpt lat="42.87394" lon="0.24857">
        <ele>2452.6</ele>
        <time>2017-02-22T11:04:44Z</time>
      </trkpt>
      <trkpt lat="42.87394" lon="0.24853">
        <ele>2451.6</ele>
        <time>2017-02-22T11:04:49Z</time>
      </trkpt>
      <trkpt lat="42.87394" lon="0.2485">
        <ele>2451.6</ele>
        <time>2017-02-22T11:04:54Z</time>
      </trkpt>
      <trkpt lat="42.87394" lon="0.24849">
        <ele>2454.2</ele>
        <time>2017-02-22T11:04:59Z</time>
      </trkpt>
      <trkpt lat="42.87394" lon="0.24849">
        <ele>2454.2</ele>
        <time>2017-02-22T11:05:04Z</time>
      </trkpt>
      <trkpt lat="42.87394" lon="0.24849">
        <ele>2454.2</ele>
        <time>2017-02-22T11:05:09Z</time>
      </trkpt>
      <trkpt lat="42.87394" lon="0.24849">
        <ele>2454.2</ele>
        <time>2017-02-22T11:05:14Z</time>
      </trkpt>
      <trkpt lat="42.87394" lon="0.24849">
        <ele>2454.2</ele>
        <time>2017-02-22T11:05:19Z</time>
      </trkpt>
      <trkpt lat="42.87394" lon="0.24849">
        <ele>2454.2</ele>
        <time>2017-02-22T11:05:24Z</time>
      </trkpt>
      <trkpt lat="42.87394" lon="0.24849">
        <ele>2454.2</ele>
        <time>2017-02-22T11:05:29Z</time>
      </trkpt>
      <trkpt lat="42.87394" lon="0.24848">
        <ele>2454.4</ele>
        <time>2017-02-22T11:05:34Z</time>
      </trkpt>
      <trkpt lat="42.87394" lon="0.24844">
        <ele>2453.4</ele>
        <time>2017-02-22T11:05:39Z</time>
      </trkpt>
      <trkpt lat="42.87396" lon="0.24842">
        <ele>2455.6</ele>
        <time>2017-02-22T11:05:44Z</time>
      </trkpt>
      <trkpt lat="42.87398" lon="0.24843">
        <ele>2455.4</ele>
        <time>2017-02-22T11:05:49Z</time>
      </trkpt>
      <trkpt lat="42.87399" lon="0.24844">
        <ele>2455.8</ele>
        <time>2017-02-22T11:05:54Z</time>
      </trkpt>
      <trkpt lat="42.87399" lon="0.24844">
        <ele>2456</ele>
        <time>2017-02-22T11:05:59Z</time>
      </trkpt>
      <trkpt lat="42.87399" lon="0.24844">
        <ele>2456.4</ele>
        <time>2017-02-22T11:06:04Z</time>
      </trkpt>
      <trkpt lat="42.87401" lon="0.24845">
        <ele>2456.6</ele>
        <time>2017-02-22T11:06:09Z</time>
      </trkpt>
      <trkpt lat="42.87403" lon="0.24847">
        <ele>2459</ele>
        <time>2017-02-22T11:06:14Z</time>
      </trkpt>
      <trkpt lat="42.87405" lon="0.24849">
        <ele>2455.2</ele>
        <time>2017-02-22T11:06:19Z</time>
      </trkpt>
      <trkpt lat="42.87407" lon="0.24851">
        <ele>2458.6</ele>
        <time>2017-02-22T11:06:24Z</time>
      </trkpt>
      <trkpt lat="42.87409" lon="0.24853">
        <ele>2458</ele>
        <time>2017-02-22T11:06:29Z</time>
      </trkpt>
      <trkpt lat="42.87411" lon="0.24854">
        <ele>2459.6</ele>
        <time>2017-02-22T11:06:34Z</time>
      </trkpt>
      <trkpt lat="42.87413" lon="0.24855">
        <ele>2462.2</ele>
        <time>2017-02-22T11:06:39Z</time>
      </trkpt>
      <trkpt lat="42.87413" lon="0.24856">
        <ele>2462.4</ele>
        <time>2017-02-22T11:06:44Z</time>
      </trkpt>
      <trkpt lat="42.87414" lon="0.24858">
        <ele>2459.6</ele>
        <time>2017-02-22T11:06:49Z</time>
      </trkpt>
      <trkpt lat="42.87415" lon="0.2486">
        <ele>2464.6</ele>
        <time>2017-02-22T11:06:54Z</time>
      </trkpt>
      <trkpt lat="42.87417" lon="0.24862">
        <ele>2462.6</ele>
        <time>2017-02-22T11:06:59Z</time>
      </trkpt>
      <trkpt lat="42.87416" lon="0.2486">
        <ele>2461.6</ele>
        <time>2017-02-22T11:07:04Z</time>
      </trkpt>
      <trkpt lat="42.87416" lon="0.24858">
        <ele>2465.8</ele>
        <time>2017-02-22T11:07:09Z</time>
      </trkpt>
      <trkpt lat="42.87416" lon="0.24855">
        <ele>2465</ele>
        <time>2017-02-22T11:07:14Z</time>
      </trkpt>
      <trkpt lat="42.87416" lon="0.24853">
        <ele>2464.2</ele>
        <time>2017-02-22T11:07:19Z</time>
      </trkpt>
      <trkpt lat="42.87415" lon="0.2485">
        <ele>2464.6</ele>
        <time>2017-02-22T11:07:24Z</time>
      </trkpt>
      <trkpt lat="42.87415" lon="0.24847">
        <ele>2465.4</ele>
        <time>2017-02-22T11:07:29Z</time>
      </trkpt>
      <trkpt lat="42.87414" lon="0.24845">
        <ele>2462.2</ele>
        <time>2017-02-22T11:07:34Z</time>
      </trkpt>
      <trkpt lat="42.87413" lon="0.24843">
        <ele>2466</ele>
        <time>2017-02-22T11:07:39Z</time>
      </trkpt>
      <trkpt lat="42.87413" lon="0.2484">
        <ele>2465.8</ele>
        <time>2017-02-22T11:07:44Z</time>
      </trkpt>
      <trkpt lat="42.87412" lon="0.24837">
        <ele>2468.2</ele>
        <time>2017-02-22T11:07:49Z</time>
      </trkpt>
      <trkpt lat="42.87412" lon="0.24834">
        <ele>2468</ele>
        <time>2017-02-22T11:07:54Z</time>
      </trkpt>
      <trkpt lat="42.87412" lon="0.24834">
        <ele>2467.6</ele>
        <time>2017-02-22T11:07:59Z</time>
      </trkpt>
      <trkpt lat="42.87411" lon="0.24832">
        <ele>2467</ele>
        <time>2017-02-22T11:08:04Z</time>
      </trkpt>
      <trkpt lat="42.87411" lon="0.24828">
        <ele>2464.4</ele>
        <time>2017-02-22T11:08:09Z</time>
      </trkpt>
      <trkpt lat="42.87411" lon="0.24828">
        <ele>2469.2</ele>
        <time>2017-02-22T11:08:14Z</time>
      </trkpt>
      <trkpt lat="42.87411" lon="0.24829">
        <ele>2468.4</ele>
        <time>2017-02-22T11:08:19Z</time>
      </trkpt>
      <trkpt lat="42.87412" lon="0.24829">
        <ele>2467.8</ele>
        <time>2017-02-22T11:08:24Z</time>
      </trkpt>
      <trkpt lat="42.87412" lon="0.24829">
        <ele>2467.6</ele>
        <time>2017-02-22T11:08:29Z</time>
      </trkpt>
      <trkpt lat="42.87412" lon="0.24828">
        <ele>2467.4</ele>
        <time>2017-02-22T11:08:34Z</time>
      </trkpt>
      <trkpt lat="42.87411" lon="0.24828">
        <ele>2468.6</ele>
        <time>2017-02-22T11:08:39Z</time>
      </trkpt>
      <trkpt lat="42.8741" lon="0.24828">
        <ele>2468.2</ele>
        <time>2017-02-22T11:08:44Z</time>
      </trkpt>
      <trkpt lat="42.8741" lon="0.2483">
        <ele>2467.6</ele>
        <time>2017-02-22T11:08:49Z</time>
      </trkpt>
      <trkpt lat="42.87411" lon="0.2483">
        <ele>2465.6</ele>
        <time>2017-02-22T11:08:54Z</time>
      </trkpt>
      <trkpt lat="42.87411" lon="0.2483">
        <ele>2465.6</ele>
        <time>2017-02-22T11:08:59Z</time>
      </trkpt>
      <trkpt lat="42.87411" lon="0.2483">
        <ele>2465.8</ele>
        <time>2017-02-22T11:09:04Z</time>
      </trkpt>
      <trkpt lat="42.87411" lon="0.24829">
        <ele>2465.8</ele>
        <time>2017-02-22T11:09:09Z</time>
      </trkpt>
      <trkpt lat="42.87411" lon="0.24829">
        <ele>2467.2</ele>
        <time>2017-02-22T11:09:14Z</time>
      </trkpt>
      <trkpt lat="42.87413" lon="0.24828">
        <ele>2469.2</ele>
        <time>2017-02-22T11:09:19Z</time>
      </trkpt>
      <trkpt lat="42.87415" lon="0.24827">
        <ele>2469.2</ele>
        <time>2017-02-22T11:09:24Z</time>
      </trkpt>
      <trkpt lat="42.87417" lon="0.24827">
        <ele>2467.4</ele>
        <time>2017-02-22T11:09:29Z</time>
      </trkpt>
      <trkpt lat="42.87419" lon="0.24828">
        <ele>2466.6</ele>
        <time>2017-02-22T11:09:34Z</time>
      </trkpt>
      <trkpt lat="42.8742" lon="0.24829">
        <ele>2466</ele>
        <time>2017-02-22T11:09:39Z</time>
      </trkpt>
      <trkpt lat="42.87421" lon="0.2483">
        <ele>2464.6</ele>
        <time>2017-02-22T11:09:44Z</time>
      </trkpt>
      <trkpt lat="42.87422" lon="0.24831">
        <ele>2466.4</ele>
        <time>2017-02-22T11:09:49Z</time>
      </trkpt>
      <trkpt lat="42.87425" lon="0.24832">
        <ele>2465.4</ele>
        <time>2017-02-22T11:09:54Z</time>
      </trkpt>
      <trkpt lat="42.87427" lon="0.24833">
        <ele>2469</ele>
        <time>2017-02-22T11:09:59Z</time>
      </trkpt>
      <trkpt lat="42.87429" lon="0.24835">
        <ele>2469</ele>
        <time>2017-02-22T11:10:04Z</time>
      </trkpt>
      <trkpt lat="42.8743" lon="0.24836">
        <ele>2472</ele>
        <time>2017-02-22T11:10:09Z</time>
      </trkpt>
      <trkpt lat="42.87433" lon="0.24836">
        <ele>2474</ele>
        <time>2017-02-22T11:10:14Z</time>
      </trkpt>
      <trkpt lat="42.87435" lon="0.24837">
        <ele>2474.8</ele>
        <time>2017-02-22T11:10:19Z</time>
      </trkpt>
      <trkpt lat="42.87436" lon="0.24838">
        <ele>2475.6</ele>
        <time>2017-02-22T11:10:24Z</time>
      </trkpt>
      <trkpt lat="42.87437" lon="0.24839">
        <ele>2478.6</ele>
        <time>2017-02-22T11:10:29Z</time>
      </trkpt>
      <trkpt lat="42.87435" lon="0.24837">
        <ele>2479.4</ele>
        <time>2017-02-22T11:10:34Z</time>
      </trkpt>
      <trkpt lat="42.87435" lon="0.24835">
        <ele>2481.8</ele>
        <time>2017-02-22T11:10:39Z</time>
      </trkpt>
      <trkpt lat="42.87434" lon="0.24832">
        <ele>2480</ele>
        <time>2017-02-22T11:10:44Z</time>
      </trkpt>
      <trkpt lat="42.87434" lon="0.24832">
        <ele>2480</ele>
        <time>2017-02-22T11:10:49Z</time>
      </trkpt>
      <trkpt lat="42.87435" lon="0.24829">
        <ele>2481.2</ele>
        <time>2017-02-22T11:10:54Z</time>
      </trkpt>
      <trkpt lat="42.87434" lon="0.24827">
        <ele>2479.8</ele>
        <time>2017-02-22T11:10:59Z</time>
      </trkpt>
      <trkpt lat="42.87434" lon="0.24825">
        <ele>2481</ele>
        <time>2017-02-22T11:11:04Z</time>
      </trkpt>
      <trkpt lat="42.87434" lon="0.24822">
        <ele>2480.8</ele>
        <time>2017-02-22T11:11:09Z</time>
      </trkpt>
      <trkpt lat="42.87434" lon="0.2482">
        <ele>2480</ele>
        <time>2017-02-22T11:11:14Z</time>
      </trkpt>
      <trkpt lat="42.87434" lon="0.24818">
        <ele>2481</ele>
        <time>2017-02-22T11:11:19Z</time>
      </trkpt>
      <trkpt lat="42.87434" lon="0.24815">
        <ele>2482.8</ele>
        <time>2017-02-22T11:11:24Z</time>
      </trkpt>
      <trkpt lat="42.87434" lon="0.24813">
        <ele>2483.8</ele>
        <time>2017-02-22T11:11:29Z</time>
      </trkpt>
      <trkpt lat="42.87433" lon="0.24811">
        <ele>2484.2</ele>
        <time>2017-02-22T11:11:34Z</time>
      </trkpt>
      <trkpt lat="42.87432" lon="0.24808">
        <ele>2485.2</ele>
        <time>2017-02-22T11:11:39Z</time>
      </trkpt>
      <trkpt lat="42.87432" lon="0.24807">
        <ele>2487</ele>
        <time>2017-02-22T11:11:44Z</time>
      </trkpt>
      <trkpt lat="42.87431" lon="0.24807">
        <ele>2486.2</ele>
        <time>2017-02-22T11:11:49Z</time>
      </trkpt>
      <trkpt lat="42.87433" lon="0.24806">
        <ele>2485.8</ele>
        <time>2017-02-22T11:11:54Z</time>
      </trkpt>
      <trkpt lat="42.87433" lon="0.24806">
        <ele>2485.4</ele>
        <time>2017-02-22T11:11:59Z</time>
      </trkpt>
      <trkpt lat="42.87433" lon="0.24806">
        <ele>2485.2</ele>
        <time>2017-02-22T11:12:04Z</time>
      </trkpt>
      <trkpt lat="42.87434" lon="0.24806">
        <ele>2485.6</ele>
        <time>2017-02-22T11:12:09Z</time>
      </trkpt>
      <trkpt lat="42.87434" lon="0.24806">
        <ele>2487.4</ele>
        <time>2017-02-22T11:12:14Z</time>
      </trkpt>
      <trkpt lat="42.87434" lon="0.24806">
        <ele>2486.8</ele>
        <time>2017-02-22T11:12:19Z</time>
      </trkpt>
      <trkpt lat="42.87434" lon="0.24806">
        <ele>2486.4</ele>
        <time>2017-02-22T11:12:24Z</time>
      </trkpt>
      <trkpt lat="42.87434" lon="0.24806">
        <ele>2486.2</ele>
        <time>2017-02-22T11:12:29Z</time>
      </trkpt>
      <trkpt lat="42.87435" lon="0.24806">
        <ele>2485.8</ele>
        <time>2017-02-22T11:12:34Z</time>
      </trkpt>
      <trkpt lat="42.87435" lon="0.24806">
        <ele>2485.6</ele>
        <time>2017-02-22T11:12:39Z</time>
      </trkpt>
      <trkpt lat="42.87435" lon="0.24806">
        <ele>2485.6</ele>
        <time>2017-02-22T11:12:44Z</time>
      </trkpt>
      <trkpt lat="42.87435" lon="0.24806">
        <ele>2485.6</ele>
        <time>2017-02-22T11:12:49Z</time>
      </trkpt>
      <trkpt lat="42.87435" lon="0.24806">
        <ele>2485.4</ele>
        <time>2017-02-22T11:12:54Z</time>
      </trkpt>
      <trkpt lat="42.87435" lon="0.24806">
        <ele>2485.4</ele>
        <time>2017-02-22T11:12:59Z</time>
      </trkpt>
      <trkpt lat="42.87435" lon="0.24806">
        <ele>2485.4</ele>
        <time>2017-02-22T11:13:04Z</time>
      </trkpt>
      <trkpt lat="42.87435" lon="0.24806">
        <ele>2485.4</ele>
        <time>2017-02-22T11:13:09Z</time>
      </trkpt>
      <trkpt lat="42.87435" lon="0.24806">
        <ele>2485.4</ele>
        <time>2017-02-22T11:13:14Z</time>
      </trkpt>
      <trkpt lat="42.87434" lon="0.24806">
        <ele>2485.4</ele>
        <time>2017-02-22T11:13:19Z</time>
      </trkpt>
      <trkpt lat="42.87434" lon="0.24806">
        <ele>2485.2</ele>
        <time>2017-02-22T11:13:24Z</time>
      </trkpt>
      <trkpt lat="42.87434" lon="0.24806">
        <ele>2485.2</ele>
        <time>2017-02-22T11:13:29Z</time>
      </trkpt>
      <trkpt lat="42.87434" lon="0.24806">
        <ele>2485</ele>
        <time>2017-02-22T11:13:34Z</time>
      </trkpt>
      <trkpt lat="42.87434" lon="0.24806">
        <ele>2485</ele>
        <time>2017-02-22T11:13:39Z</time>
      </trkpt>
      <trkpt lat="42.87434" lon="0.24806">
        <ele>2485</ele>
        <time>2017-02-22T11:13:44Z</time>
      </trkpt>
      <trkpt lat="42.87434" lon="0.24806">
        <ele>2485</ele>
        <time>2017-02-22T11:13:49Z</time>
      </trkpt>
      <trkpt lat="42.87434" lon="0.24806">
        <ele>2485</ele>
        <time>2017-02-22T11:13:54Z</time>
      </trkpt>
      <trkpt lat="42.87434" lon="0.24806">
        <ele>2485</ele>
        <time>2017-02-22T11:13:59Z</time>
      </trkpt>
      <trkpt lat="42.87434" lon="0.24806">
        <ele>2485</ele>
        <time>2017-02-22T11:14:04Z</time>
      </trkpt>
      <trkpt lat="42.87434" lon="0.24806">
        <ele>2485</ele>
        <time>2017-02-22T11:14:10Z</time>
      </trkpt>
      <trkpt lat="42.87434" lon="0.24806">
        <ele>2484.8</ele>
        <time>2017-02-22T11:14:15Z</time>
      </trkpt>
      <trkpt lat="42.87434" lon="0.24806">
        <ele>2484.8</ele>
        <time>2017-02-22T11:14:20Z</time>
      </trkpt>
      <trkpt lat="42.87434" lon="0.24806">
        <ele>2484.8</ele>
        <time>2017-02-22T11:14:25Z</time>
      </trkpt>
      <trkpt lat="42.87434" lon="0.24806">
        <ele>2484.8</ele>
        <time>2017-02-22T11:14:30Z</time>
      </trkpt>
      <trkpt lat="42.87434" lon="0.24806">
        <ele>2484.8</ele>
        <time>2017-02-22T11:14:35Z</time>
      </trkpt>
      <trkpt lat="42.87434" lon="0.24806">
        <ele>2484.8</ele>
        <time>2017-02-22T11:14:40Z</time>
      </trkpt>
      <trkpt lat="42.87434" lon="0.24806">
        <ele>2484.8</ele>
        <time>2017-02-22T11:14:45Z</time>
      </trkpt>
      <trkpt lat="42.87434" lon="0.24806">
        <ele>2484.8</ele>
        <time>2017-02-22T11:14:50Z</time>
      </trkpt>
      <trkpt lat="42.87434" lon="0.24806">
        <ele>2484.6</ele>
        <time>2017-02-22T11:14:55Z</time>
      </trkpt>
      <trkpt lat="42.87434" lon="0.24806">
        <ele>2484.6</ele>
        <time>2017-02-22T11:15:00Z</time>
      </trkpt>
      <trkpt lat="42.87433" lon="0.24806">
        <ele>2484.6</ele>
        <time>2017-02-22T11:15:05Z</time>
      </trkpt>
      <trkpt lat="42.87433" lon="0.24807">
        <ele>2484.4</ele>
        <time>2017-02-22T11:15:10Z</time>
      </trkpt>
      <trkpt lat="42.87433" lon="0.24807">
        <ele>2484.4</ele>
        <time>2017-02-22T11:15:15Z</time>
      </trkpt>
      <trkpt lat="42.87434" lon="0.24807">
        <ele>2482.6</ele>
        <time>2017-02-22T11:15:20Z</time>
      </trkpt>
      <trkpt lat="42.87434" lon="0.24807">
        <ele>2483</ele>
        <time>2017-02-22T11:15:25Z</time>
      </trkpt>
      <trkpt lat="42.87434" lon="0.24807">
        <ele>2483.2</ele>
        <time>2017-02-22T11:15:30Z</time>
      </trkpt>
      <trkpt lat="42.87434" lon="0.24807">
        <ele>2483.2</ele>
        <time>2017-02-22T11:15:35Z</time>
      </trkpt>
      <trkpt lat="42.87434" lon="0.24806">
        <ele>2485.4</ele>
        <time>2017-02-22T11:15:40Z</time>
      </trkpt>
      <trkpt lat="42.87434" lon="0.24805">
        <ele>2484.4</ele>
        <time>2017-02-22T11:15:45Z</time>
      </trkpt>
      <trkpt lat="42.87434" lon="0.24805">
        <ele>2483.6</ele>
        <time>2017-02-22T11:15:50Z</time>
      </trkpt>
      <trkpt lat="42.87435" lon="0.24805">
        <ele>2483.2</ele>
        <time>2017-02-22T11:15:55Z</time>
      </trkpt>
      <trkpt lat="42.87438" lon="0.24805">
        <ele>2484.8</ele>
        <time>2017-02-22T11:16:00Z</time>
      </trkpt>
      <trkpt lat="42.8744" lon="0.24805">
        <ele>2482.8</ele>
        <time>2017-02-22T11:16:05Z</time>
      </trkpt>
      <trkpt lat="42.87443" lon="0.24806">
        <ele>2484.4</ele>
        <time>2017-02-22T11:16:10Z</time>
      </trkpt>
      <trkpt lat="42.87444" lon="0.24807">
        <ele>2481</ele>
        <time>2017-02-22T11:16:15Z</time>
      </trkpt>
      <trkpt lat="42.87446" lon="0.24808">
        <ele>2480.8</ele>
        <time>2017-02-22T11:16:20Z</time>
      </trkpt>
      <trkpt lat="42.87447" lon="0.24809">
        <ele>2483.2</ele>
        <time>2017-02-22T11:16:25Z</time>
      </trkpt>
      <trkpt lat="42.87449" lon="0.24809">
        <ele>2486</ele>
        <time>2017-02-22T11:16:30Z</time>
      </trkpt>
      <trkpt lat="42.8745" lon="0.2481">
        <ele>2486.8</ele>
        <time>2017-02-22T11:16:35Z</time>
      </trkpt>
      <trkpt lat="42.87452" lon="0.24811">
        <ele>2487.8</ele>
        <time>2017-02-22T11:16:40Z</time>
      </trkpt>
      <trkpt lat="42.87453" lon="0.24811">
        <ele>2488</ele>
        <time>2017-02-22T11:16:45Z</time>
      </trkpt>
      <trkpt lat="42.87453" lon="0.24811">
        <ele>2486.6</ele>
        <time>2017-02-22T11:16:50Z</time>
      </trkpt>
      <trkpt lat="42.87453" lon="0.24811">
        <ele>2486.4</ele>
        <time>2017-02-22T11:16:55Z</time>
      </trkpt>
      <trkpt lat="42.87455" lon="0.24812">
        <ele>2481.8</ele>
        <time>2017-02-22T11:17:00Z</time>
      </trkpt>
      <trkpt lat="42.87457" lon="0.24813">
        <ele>2482.6</ele>
        <time>2017-02-22T11:17:05Z</time>
      </trkpt>
      <trkpt lat="42.87459" lon="0.24813">
        <ele>2484.8</ele>
        <time>2017-02-22T11:17:10Z</time>
      </trkpt>
      <trkpt lat="42.87461" lon="0.24814">
        <ele>2485.8</ele>
        <time>2017-02-22T11:17:15Z</time>
      </trkpt>
      <trkpt lat="42.87463" lon="0.24814">
        <ele>2488.4</ele>
        <time>2017-02-22T11:17:20Z</time>
      </trkpt>
      <trkpt lat="42.87463" lon="0.24812">
        <ele>2492.2</ele>
        <time>2017-02-22T11:17:25Z</time>
      </trkpt>
      <trkpt lat="42.87462" lon="0.2481">
        <ele>2492.4</ele>
        <time>2017-02-22T11:17:30Z</time>
      </trkpt>
      <trkpt lat="42.87461" lon="0.24809">
        <ele>2492.8</ele>
        <time>2017-02-22T11:17:35Z</time>
      </trkpt>
      <trkpt lat="42.87461" lon="0.24809">
        <ele>2493.2</ele>
        <time>2017-02-22T11:17:40Z</time>
      </trkpt>
      <trkpt lat="42.87461" lon="0.24809">
        <ele>2493.4</ele>
        <time>2017-02-22T11:17:45Z</time>
      </trkpt>
      <trkpt lat="42.87461" lon="0.24809">
        <ele>2493.4</ele>
        <time>2017-02-22T11:17:50Z</time>
      </trkpt>
      <trkpt lat="42.8746" lon="0.24809">
        <ele>2493.6</ele>
        <time>2017-02-22T11:17:55Z</time>
      </trkpt>
      <trkpt lat="42.8746" lon="0.24808">
        <ele>2493.6</ele>
        <time>2017-02-22T11:18:00Z</time>
      </trkpt>
      <trkpt lat="42.8746" lon="0.24806">
        <ele>2492.8</ele>
        <time>2017-02-22T11:18:05Z</time>
      </trkpt>
      <trkpt lat="42.8746" lon="0.24804">
        <ele>2493.4</ele>
        <time>2017-02-22T11:18:10Z</time>
      </trkpt>
      <trkpt lat="42.8746" lon="0.24802">
        <ele>2495</ele>
        <time>2017-02-22T11:18:15Z</time>
      </trkpt>
      <trkpt lat="42.8746" lon="0.24799">
        <ele>2496</ele>
        <time>2017-02-22T11:18:20Z</time>
      </trkpt>
      <trkpt lat="42.8746" lon="0.24797">
        <ele>2497.2</ele>
        <time>2017-02-22T11:18:25Z</time>
      </trkpt>
      <trkpt lat="42.8746" lon="0.24795">
        <ele>2499</ele>
        <time>2017-02-22T11:18:30Z</time>
      </trkpt>
      <trkpt lat="42.87459" lon="0.24794">
        <ele>2498.8</ele>
        <time>2017-02-22T11:18:35Z</time>
      </trkpt>
      <trkpt lat="42.87459" lon="0.24792">
        <ele>2499</ele>
        <time>2017-02-22T11:18:40Z</time>
      </trkpt>
      <trkpt lat="42.87459" lon="0.24791">
        <ele>2499.6</ele>
        <time>2017-02-22T11:18:45Z</time>
      </trkpt>
      <trkpt lat="42.87458" lon="0.24789">
        <ele>2498</ele>
        <time>2017-02-22T11:18:50Z</time>
      </trkpt>
      <trkpt lat="42.87458" lon="0.24788">
        <ele>2499.6</ele>
        <time>2017-02-22T11:18:55Z</time>
      </trkpt>
      <trkpt lat="42.87458" lon="0.24787">
        <ele>2500.8</ele>
        <time>2017-02-22T11:19:00Z</time>
      </trkpt>
      <trkpt lat="42.87459" lon="0.24787">
        <ele>2501.8</ele>
        <time>2017-02-22T11:19:05Z</time>
      </trkpt>
      <trkpt lat="42.87459" lon="0.24787">
        <ele>2502.4</ele>
        <time>2017-02-22T11:19:10Z</time>
      </trkpt>
      <trkpt lat="42.87459" lon="0.24787">
        <ele>2502.8</ele>
        <time>2017-02-22T11:19:15Z</time>
      </trkpt>
      <trkpt lat="42.87459" lon="0.24787">
        <ele>2503.2</ele>
        <time>2017-02-22T11:19:20Z</time>
      </trkpt>
      <trkpt lat="42.87459" lon="0.24787">
        <ele>2503.4</ele>
        <time>2017-02-22T11:19:25Z</time>
      </trkpt>
      <trkpt lat="42.87459" lon="0.24787">
        <ele>2503.6</ele>
        <time>2017-02-22T11:19:30Z</time>
      </trkpt>
      <trkpt lat="42.87459" lon="0.24787">
        <ele>2503.8</ele>
        <time>2017-02-22T11:19:35Z</time>
      </trkpt>
      <trkpt lat="42.87459" lon="0.24787">
        <ele>2503.8</ele>
        <time>2017-02-22T11:19:40Z</time>
      </trkpt>
      <trkpt lat="42.87459" lon="0.24787">
        <ele>2503.8</ele>
        <time>2017-02-22T11:19:45Z</time>
      </trkpt>
      <trkpt lat="42.87461" lon="0.24788">
        <ele>2503.4</ele>
        <time>2017-02-22T11:19:50Z</time>
      </trkpt>
      <trkpt lat="42.87463" lon="0.24788">
        <ele>2504.8</ele>
        <time>2017-02-22T11:19:55Z</time>
      </trkpt>
      <trkpt lat="42.87464" lon="0.24788">
        <ele>2507.6</ele>
        <time>2017-02-22T11:20:00Z</time>
      </trkpt>
      <trkpt lat="42.87465" lon="0.24789">
        <ele>2511.8</ele>
        <time>2017-02-22T11:20:05Z</time>
      </trkpt>
      <trkpt lat="42.87467" lon="0.24789">
        <ele>2510</ele>
        <time>2017-02-22T11:20:10Z</time>
      </trkpt>
      <trkpt lat="42.87468" lon="0.24789">
        <ele>2509.6</ele>
        <time>2017-02-22T11:20:15Z</time>
      </trkpt>
      <trkpt lat="42.8747" lon="0.2479">
        <ele>2505</ele>
        <time>2017-02-22T11:20:20Z</time>
      </trkpt>
      <trkpt lat="42.87471" lon="0.24791">
        <ele>2505.2</ele>
        <time>2017-02-22T11:20:25Z</time>
      </trkpt>
      <trkpt lat="42.87473" lon="0.24792">
        <ele>2504.8</ele>
        <time>2017-02-22T11:20:30Z</time>
      </trkpt>
      <trkpt lat="42.87475" lon="0.24792">
        <ele>2506.2</ele>
        <time>2017-02-22T11:20:35Z</time>
      </trkpt>
      <trkpt lat="42.87475" lon="0.2479">
        <ele>2507.2</ele>
        <time>2017-02-22T11:20:40Z</time>
      </trkpt>
      <trkpt lat="42.87475" lon="0.2479">
        <ele>2507.8</ele>
        <time>2017-02-22T11:20:45Z</time>
      </trkpt>
      <trkpt lat="42.87475" lon="0.2479">
        <ele>2508.2</ele>
        <time>2017-02-22T11:20:50Z</time>
      </trkpt>
      <trkpt lat="42.87475" lon="0.2479">
        <ele>2508.4</ele>
        <time>2017-02-22T11:20:55Z</time>
      </trkpt>
      <trkpt lat="42.87475" lon="0.2479">
        <ele>2508.6</ele>
        <time>2017-02-22T11:21:00Z</time>
      </trkpt>
      <trkpt lat="42.87475" lon="0.2479">
        <ele>2508.8</ele>
        <time>2017-02-22T11:21:05Z</time>
      </trkpt>
      <trkpt lat="42.87475" lon="0.2479">
        <ele>2509.8</ele>
        <time>2017-02-22T11:21:10Z</time>
      </trkpt>
      <trkpt lat="42.87475" lon="0.2479">
        <ele>2509.6</ele>
        <time>2017-02-22T11:21:15Z</time>
      </trkpt>
      <trkpt lat="42.87475" lon="0.2479">
        <ele>2509.4</ele>
        <time>2017-02-22T11:21:20Z</time>
      </trkpt>
      <trkpt lat="42.87474" lon="0.24789">
        <ele>2509.4</ele>
        <time>2017-02-22T11:21:25Z</time>
      </trkpt>
      <trkpt lat="42.87473" lon="0.24788">
        <ele>2509.6</ele>
        <time>2017-02-22T11:21:30Z</time>
      </trkpt>
      <trkpt lat="42.87473" lon="0.24788">
        <ele>2509.8</ele>
        <time>2017-02-22T11:21:35Z</time>
      </trkpt>
      <trkpt lat="42.87473" lon="0.24788">
        <ele>2510.2</ele>
        <time>2017-02-22T11:21:40Z</time>
      </trkpt>
      <trkpt lat="42.87473" lon="0.24788">
        <ele>2510.2</ele>
        <time>2017-02-22T11:21:45Z</time>
      </trkpt>
      <trkpt lat="42.87473" lon="0.24788">
        <ele>2510.4</ele>
        <time>2017-02-22T11:21:50Z</time>
      </trkpt>
      <trkpt lat="42.87473" lon="0.24788">
        <ele>2510.6</ele>
        <time>2017-02-22T11:21:55Z</time>
      </trkpt>
      <trkpt lat="42.87473" lon="0.24788">
        <ele>2510.6</ele>
        <time>2017-02-22T11:22:00Z</time>
      </trkpt>
      <trkpt lat="42.87473" lon="0.24789">
        <ele>2510.6</ele>
        <time>2017-02-22T11:22:05Z</time>
      </trkpt>
      <trkpt lat="42.87473" lon="0.24789">
        <ele>2510.6</ele>
        <time>2017-02-22T11:22:10Z</time>
      </trkpt>
      <trkpt lat="42.87473" lon="0.24789">
        <ele>2510.6</ele>
        <time>2017-02-22T11:22:15Z</time>
      </trkpt>
      <trkpt lat="42.87474" lon="0.24787">
        <ele>2509.8</ele>
        <time>2017-02-22T11:22:20Z</time>
      </trkpt>
      <trkpt lat="42.87474" lon="0.24785">
        <ele>2509</ele>
        <time>2017-02-22T11:22:25Z</time>
      </trkpt>
      <trkpt lat="42.87475" lon="0.24782">
        <ele>2511.6</ele>
        <time>2017-02-22T11:22:30Z</time>
      </trkpt>
      <trkpt lat="42.87475" lon="0.24779">
        <ele>2514.2</ele>
        <time>2017-02-22T11:22:35Z</time>
      </trkpt>
      <trkpt lat="42.87475" lon="0.24777">
        <ele>2514.4</ele>
        <time>2017-02-22T11:22:40Z</time>
      </trkpt>
      <trkpt lat="42.87475" lon="0.24776">
        <ele>2514.8</ele>
        <time>2017-02-22T11:22:45Z</time>
      </trkpt>
      <trkpt lat="42.87474" lon="0.24773">
        <ele>2518.2</ele>
        <time>2017-02-22T11:22:50Z</time>
      </trkpt>
      <trkpt lat="42.87474" lon="0.24772">
        <ele>2517.8</ele>
        <time>2017-02-22T11:22:55Z</time>
      </trkpt>
      <trkpt lat="42.87473" lon="0.24769">
        <ele>2517.6</ele>
        <time>2017-02-22T11:23:00Z</time>
      </trkpt>
      <trkpt lat="42.87472" lon="0.24768">
        <ele>2517.2</ele>
        <time>2017-02-22T11:23:05Z</time>
      </trkpt>
      <trkpt lat="42.87472" lon="0.24766">
        <ele>2516.6</ele>
        <time>2017-02-22T11:23:10Z</time>
      </trkpt>
      <trkpt lat="42.87471" lon="0.24764">
        <ele>2515.2</ele>
        <time>2017-02-22T11:23:15Z</time>
      </trkpt>
      <trkpt lat="42.87471" lon="0.24762">
        <ele>2513.4</ele>
        <time>2017-02-22T11:23:20Z</time>
      </trkpt>
      <trkpt lat="42.87472" lon="0.24761">
        <ele>2511.2</ele>
        <time>2017-02-22T11:23:25Z</time>
      </trkpt>
      <trkpt lat="42.87473" lon="0.24762">
        <ele>2509.8</ele>
        <time>2017-02-22T11:23:30Z</time>
      </trkpt>
      <trkpt lat="42.87474" lon="0.24764">
        <ele>2509.4</ele>
        <time>2017-02-22T11:23:35Z</time>
      </trkpt>
      <trkpt lat="42.87474" lon="0.24765">
        <ele>2509.8</ele>
        <time>2017-02-22T11:23:40Z</time>
      </trkpt>
      <trkpt lat="42.87474" lon="0.24764">
        <ele>2511.6</ele>
        <time>2017-02-22T11:23:45Z</time>
      </trkpt>
      <trkpt lat="42.87473" lon="0.24762">
        <ele>2512.6</ele>
        <time>2017-02-22T11:23:50Z</time>
      </trkpt>
      <trkpt lat="42.87472" lon="0.24761">
        <ele>2513.8</ele>
        <time>2017-02-22T11:23:55Z</time>
      </trkpt>
      <trkpt lat="42.87471" lon="0.24761">
        <ele>2518.4</ele>
        <time>2017-02-22T11:24:00Z</time>
      </trkpt>
      <trkpt lat="42.87471" lon="0.2476">
        <ele>2518</ele>
        <time>2017-02-22T11:24:05Z</time>
      </trkpt>
      <trkpt lat="42.8747" lon="0.24758">
        <ele>2517</ele>
        <time>2017-02-22T11:24:10Z</time>
      </trkpt>
      <trkpt lat="42.8747" lon="0.24758">
        <ele>2515.6</ele>
        <time>2017-02-22T11:24:15Z</time>
      </trkpt>
      <trkpt lat="42.87469" lon="0.24756">
        <ele>2515.8</ele>
        <time>2017-02-22T11:24:20Z</time>
      </trkpt>
      <trkpt lat="42.87466" lon="0.24752">
        <ele>2514.2</ele>
        <time>2017-02-22T11:24:25Z</time>
      </trkpt>
      <trkpt lat="42.87465" lon="0.2475">
        <ele>2518.8</ele>
        <time>2017-02-22T11:24:30Z</time>
      </trkpt>
      <trkpt lat="42.87465" lon="0.24748">
        <ele>2518.4</ele>
        <time>2017-02-22T11:24:35Z</time>
      </trkpt>
      <trkpt lat="42.87465" lon="0.24746">
        <ele>2517</ele>
        <time>2017-02-22T11:24:40Z</time>
      </trkpt>
      <trkpt lat="42.87465" lon="0.24746">
        <ele>2516.6</ele>
        <time>2017-02-22T11:24:45Z</time>
      </trkpt>
      <trkpt lat="42.87465" lon="0.24746">
        <ele>2516</ele>
        <time>2017-02-22T11:24:50Z</time>
      </trkpt>
      <trkpt lat="42.87465" lon="0.24746">
        <ele>2515.8</ele>
        <time>2017-02-22T11:24:55Z</time>
      </trkpt>
      <trkpt lat="42.87465" lon="0.24746">
        <ele>2515.6</ele>
        <time>2017-02-22T11:25:00Z</time>
      </trkpt>
      <trkpt lat="42.87465" lon="0.24746">
        <ele>2515.4</ele>
        <time>2017-02-22T11:25:05Z</time>
      </trkpt>
      <trkpt lat="42.87465" lon="0.24746">
        <ele>2515.2</ele>
        <time>2017-02-22T11:25:10Z</time>
      </trkpt>
      <trkpt lat="42.87465" lon="0.24746">
        <ele>2515.2</ele>
        <time>2017-02-22T11:25:15Z</time>
      </trkpt>
      <trkpt lat="42.87465" lon="0.24746">
        <ele>2515.2</ele>
        <time>2017-02-22T11:25:20Z</time>
      </trkpt>
      <trkpt lat="42.87465" lon="0.24746">
        <ele>2515</ele>
        <time>2017-02-22T11:25:25Z</time>
      </trkpt>
      <trkpt lat="42.87464" lon="0.24745">
        <ele>2517.4</ele>
        <time>2017-02-22T11:25:30Z</time>
      </trkpt>
      <trkpt lat="42.87462" lon="0.24743">
        <ele>2518.6</ele>
        <time>2017-02-22T11:25:35Z</time>
      </trkpt>
      <trkpt lat="42.8746" lon="0.24741">
        <ele>2520</ele>
        <time>2017-02-22T11:25:40Z</time>
      </trkpt>
      <trkpt lat="42.87459" lon="0.2474">
        <ele>2518.4</ele>
        <time>2017-02-22T11:25:45Z</time>
      </trkpt>
      <trkpt lat="42.87458" lon="0.24738">
        <ele>2517</ele>
        <time>2017-02-22T11:25:50Z</time>
      </trkpt>
      <trkpt lat="42.87457" lon="0.24736">
        <ele>2518.8</ele>
        <time>2017-02-22T11:25:55Z</time>
      </trkpt>
      <trkpt lat="42.87457" lon="0.24736">
        <ele>2518.8</ele>
        <time>2017-02-22T11:26:00Z</time>
      </trkpt>
      <trkpt lat="42.87457" lon="0.24736">
        <ele>2518.8</ele>
        <time>2017-02-22T11:26:05Z</time>
      </trkpt>
      <trkpt lat="42.87457" lon="0.24736">
        <ele>2518.8</ele>
        <time>2017-02-22T11:26:10Z</time>
      </trkpt>
      <trkpt lat="42.87457" lon="0.24736">
        <ele>2518.8</ele>
        <time>2017-02-22T11:26:15Z</time>
      </trkpt>
      <trkpt lat="42.87457" lon="0.24736">
        <ele>2518.6</ele>
        <time>2017-02-22T11:26:20Z</time>
      </trkpt>
      <trkpt lat="42.87457" lon="0.24736">
        <ele>2518.6</ele>
        <time>2017-02-22T11:26:25Z</time>
      </trkpt>
      <trkpt lat="42.87457" lon="0.24736">
        <ele>2518.6</ele>
        <time>2017-02-22T11:26:30Z</time>
      </trkpt>
      <trkpt lat="42.87457" lon="0.24736">
        <ele>2518.6</ele>
        <time>2017-02-22T11:26:35Z</time>
      </trkpt>
      <trkpt lat="42.87457" lon="0.24736">
        <ele>2518.6</ele>
        <time>2017-02-22T11:26:40Z</time>
      </trkpt>
      <trkpt lat="42.87457" lon="0.24736">
        <ele>2518.6</ele>
        <time>2017-02-22T11:26:45Z</time>
      </trkpt>
      <trkpt lat="42.87457" lon="0.24736">
        <ele>2518.6</ele>
        <time>2017-02-22T11:26:50Z</time>
      </trkpt>
      <trkpt lat="42.87457" lon="0.24736">
        <ele>2518.6</ele>
        <time>2017-02-22T11:26:55Z</time>
      </trkpt>
      <trkpt lat="42.87458" lon="0.24735">
        <ele>2518.6</ele>
        <time>2017-02-22T11:27:00Z</time>
      </trkpt>
      <trkpt lat="42.87458" lon="0.24734">
        <ele>2518.6</ele>
        <time>2017-02-22T11:27:05Z</time>
      </trkpt>
      <trkpt lat="42.87458" lon="0.24734">
        <ele>2518.6</ele>
        <time>2017-02-22T11:27:10Z</time>
      </trkpt>
      <trkpt lat="42.87458" lon="0.24734">
        <ele>2518.6</ele>
        <time>2017-02-22T11:27:15Z</time>
      </trkpt>
      <trkpt lat="42.87459" lon="0.24734">
        <ele>2518.8</ele>
        <time>2017-02-22T11:27:20Z</time>
      </trkpt>
      <trkpt lat="42.87459" lon="0.24734">
        <ele>2519</ele>
        <time>2017-02-22T11:27:25Z</time>
      </trkpt>
      <trkpt lat="42.87457" lon="0.24732">
        <ele>2519</ele>
        <time>2017-02-22T11:27:30Z</time>
      </trkpt>
      <trkpt lat="42.87457" lon="0.24729">
        <ele>2521</ele>
        <time>2017-02-22T11:27:35Z</time>
      </trkpt>
      <trkpt lat="42.87458" lon="0.24732">
        <ele>2522.8</ele>
        <time>2017-02-22T11:27:40Z</time>
      </trkpt>
      <trkpt lat="42.87456" lon="0.24733">
        <ele>2521</ele>
        <time>2017-02-22T11:27:45Z</time>
      </trkpt>
      <trkpt lat="42.87455" lon="0.24732">
        <ele>2522.2</ele>
        <time>2017-02-22T11:27:50Z</time>
      </trkpt>
      <trkpt lat="42.87455" lon="0.24732">
        <ele>2521.2</ele>
        <time>2017-02-22T11:27:55Z</time>
      </trkpt>
      <trkpt lat="42.87456" lon="0.24732">
        <ele>2520.6</ele>
        <time>2017-02-22T11:28:00Z</time>
      </trkpt>
      <trkpt lat="42.87456" lon="0.24732">
        <ele>2520</ele>
        <time>2017-02-22T11:28:05Z</time>
      </trkpt>
      <trkpt lat="42.87456" lon="0.24732">
        <ele>2519.6</ele>
        <time>2017-02-22T11:28:10Z</time>
      </trkpt>
      <trkpt lat="42.87456" lon="0.24732">
        <ele>2519.4</ele>
        <time>2017-02-22T11:28:15Z</time>
      </trkpt>
      <trkpt lat="42.87456" lon="0.24731">
        <ele>2519.2</ele>
        <time>2017-02-22T11:28:20Z</time>
      </trkpt>
      <trkpt lat="42.87457" lon="0.24731">
        <ele>2518.6</ele>
        <time>2017-02-22T11:28:25Z</time>
      </trkpt>
      <trkpt lat="42.87458" lon="0.24731">
        <ele>2518.6</ele>
        <time>2017-02-22T11:28:30Z</time>
      </trkpt>
      <trkpt lat="42.8746" lon="0.24732">
        <ele>2519</ele>
        <time>2017-02-22T11:28:35Z</time>
      </trkpt>
      <trkpt lat="42.87462" lon="0.24733">
        <ele>2518.2</ele>
        <time>2017-02-22T11:28:40Z</time>
      </trkpt>
      <trkpt lat="42.87464" lon="0.24733">
        <ele>2519</ele>
        <time>2017-02-22T11:28:45Z</time>
      </trkpt>
      <trkpt lat="42.87466" lon="0.24734">
        <ele>2517</ele>
        <time>2017-02-22T11:28:50Z</time>
      </trkpt>
      <trkpt lat="42.87467" lon="0.24735">
        <ele>2519</ele>
        <time>2017-02-22T11:28:55Z</time>
      </trkpt>
      <trkpt lat="42.87469" lon="0.24736">
        <ele>2522</ele>
        <time>2017-02-22T11:29:00Z</time>
      </trkpt>
      <trkpt lat="42.87471" lon="0.24736">
        <ele>2523</ele>
        <time>2017-02-22T11:29:05Z</time>
      </trkpt>
      <trkpt lat="42.87472" lon="0.24737">
        <ele>2523.6</ele>
        <time>2017-02-22T11:29:10Z</time>
      </trkpt>
      <trkpt lat="42.87473" lon="0.24737">
        <ele>2523.2</ele>
        <time>2017-02-22T11:29:15Z</time>
      </trkpt>
      <trkpt lat="42.87474" lon="0.24738">
        <ele>2523.4</ele>
        <time>2017-02-22T11:29:20Z</time>
      </trkpt>
      <trkpt lat="42.87476" lon="0.24739">
        <ele>2524.6</ele>
        <time>2017-02-22T11:29:25Z</time>
      </trkpt>
      <trkpt lat="42.87478" lon="0.2474">
        <ele>2524.2</ele>
        <time>2017-02-22T11:29:30Z</time>
      </trkpt>
      <trkpt lat="42.87479" lon="0.24741">
        <ele>2524</ele>
        <time>2017-02-22T11:29:35Z</time>
      </trkpt>
      <trkpt lat="42.87479" lon="0.24741">
        <ele>2525</ele>
        <time>2017-02-22T11:29:40Z</time>
      </trkpt>
      <trkpt lat="42.8748" lon="0.24741">
        <ele>2525.6</ele>
        <time>2017-02-22T11:29:45Z</time>
      </trkpt>
      <trkpt lat="42.8748" lon="0.24741">
        <ele>2526.2</ele>
        <time>2017-02-22T11:29:50Z</time>
      </trkpt>
      <trkpt lat="42.8748" lon="0.24741">
        <ele>2526.6</ele>
        <time>2017-02-22T11:29:55Z</time>
      </trkpt>
      <trkpt lat="42.87481" lon="0.24742">
        <ele>2526.8</ele>
        <time>2017-02-22T11:30:00Z</time>
      </trkpt>
      <trkpt lat="42.87481" lon="0.24741">
        <ele>2528.2</ele>
        <time>2017-02-22T11:30:06Z</time>
      </trkpt>
      <trkpt lat="42.87481" lon="0.24742">
        <ele>2528.2</ele>
        <time>2017-02-22T11:30:11Z</time>
      </trkpt>
      <trkpt lat="42.87481" lon="0.24742">
        <ele>2528</ele>
        <time>2017-02-22T11:30:16Z</time>
      </trkpt>
      <trkpt lat="42.87481" lon="0.24742">
        <ele>2528</ele>
        <time>2017-02-22T11:30:21Z</time>
      </trkpt>
      <trkpt lat="42.87482" lon="0.24742">
        <ele>2528</ele>
        <time>2017-02-22T11:30:26Z</time>
      </trkpt>
      <trkpt lat="42.87482" lon="0.24742">
        <ele>2528.2</ele>
        <time>2017-02-22T11:30:31Z</time>
      </trkpt>
      <trkpt lat="42.87482" lon="0.24742">
        <ele>2528.4</ele>
        <time>2017-02-22T11:30:36Z</time>
      </trkpt>
      <trkpt lat="42.87482" lon="0.24742">
        <ele>2528.6</ele>
        <time>2017-02-22T11:30:41Z</time>
      </trkpt>
      <trkpt lat="42.87482" lon="0.24741">
        <ele>2532</ele>
        <time>2017-02-22T11:30:46Z</time>
      </trkpt>
      <trkpt lat="42.87481" lon="0.24739">
        <ele>2532.6</ele>
        <time>2017-02-22T11:30:51Z</time>
      </trkpt>
      <trkpt lat="42.87479" lon="0.24737">
        <ele>2532.8</ele>
        <time>2017-02-22T11:30:56Z</time>
      </trkpt>
      <trkpt lat="42.87478" lon="0.24735">
        <ele>2530.2</ele>
        <time>2017-02-22T11:31:01Z</time>
      </trkpt>
      <trkpt lat="42.87477" lon="0.24732">
        <ele>2529.2</ele>
        <time>2017-02-22T11:31:06Z</time>
      </trkpt>
      <trkpt lat="42.87476" lon="0.2473">
        <ele>2529.6</ele>
        <time>2017-02-22T11:31:11Z</time>
      </trkpt>
      <trkpt lat="42.87475" lon="0.24727">
        <ele>2529.8</ele>
        <time>2017-02-22T11:31:16Z</time>
      </trkpt>
      <trkpt lat="42.87474" lon="0.24727">
        <ele>2530.4</ele>
        <time>2017-02-22T11:31:21Z</time>
      </trkpt>
      <trkpt lat="42.87474" lon="0.24727">
        <ele>2530.6</ele>
        <time>2017-02-22T11:31:26Z</time>
      </trkpt>
      <trkpt lat="42.87474" lon="0.24726">
        <ele>2530.8</ele>
        <time>2017-02-22T11:31:31Z</time>
      </trkpt>
      <trkpt lat="42.87473" lon="0.24727">
        <ele>2530.8</ele>
        <time>2017-02-22T11:31:36Z</time>
      </trkpt>
      <trkpt lat="42.87474" lon="0.24727">
        <ele>2531</ele>
        <time>2017-02-22T11:31:41Z</time>
      </trkpt>
      <trkpt lat="42.87475" lon="0.24726">
        <ele>2530.8</ele>
        <time>2017-02-22T11:31:46Z</time>
      </trkpt>
      <trkpt lat="42.87478" lon="0.24727">
        <ele>2532.6</ele>
        <time>2017-02-22T11:31:51Z</time>
      </trkpt>
      <trkpt lat="42.8748" lon="0.2473">
        <ele>2528.8</ele>
        <time>2017-02-22T11:31:56Z</time>
      </trkpt>
      <trkpt lat="42.87482" lon="0.24733">
        <ele>2534.4</ele>
        <time>2017-02-22T11:32:01Z</time>
      </trkpt>
      <trkpt lat="42.87484" lon="0.24734">
        <ele>2535.4</ele>
        <time>2017-02-22T11:32:06Z</time>
      </trkpt>
      <trkpt lat="42.87486" lon="0.24735">
        <ele>2539</ele>
        <time>2017-02-22T11:32:11Z</time>
      </trkpt>
      <trkpt lat="42.87487" lon="0.24736">
        <ele>2538.8</ele>
        <time>2017-02-22T11:32:16Z</time>
      </trkpt>
      <trkpt lat="42.87489" lon="0.24737">
        <ele>2537.6</ele>
        <time>2017-02-22T11:32:21Z</time>
      </trkpt>
      <trkpt lat="42.87491" lon="0.24738">
        <ele>2539.2</ele>
        <time>2017-02-22T11:32:26Z</time>
      </trkpt>
      <trkpt lat="42.87493" lon="0.24739">
        <ele>2538.2</ele>
        <time>2017-02-22T11:32:31Z</time>
      </trkpt>
      <trkpt lat="42.87494" lon="0.2474">
        <ele>2540.8</ele>
        <time>2017-02-22T11:32:36Z</time>
      </trkpt>
      <trkpt lat="42.87494" lon="0.2474">
        <ele>2540.4</ele>
        <time>2017-02-22T11:32:41Z</time>
      </trkpt>
      <trkpt lat="42.87494" lon="0.2474">
        <ele>2539.8</ele>
        <time>2017-02-22T11:32:46Z</time>
      </trkpt>
      <trkpt lat="42.87494" lon="0.2474">
        <ele>2540.8</ele>
        <time>2017-02-22T11:32:51Z</time>
      </trkpt>
      <trkpt lat="42.87497" lon="0.2474">
        <ele>2539.8</ele>
        <time>2017-02-22T11:32:56Z</time>
      </trkpt>
      <trkpt lat="42.87499" lon="0.2474">
        <ele>2539.8</ele>
        <time>2017-02-22T11:33:01Z</time>
      </trkpt>
      <trkpt lat="42.87501" lon="0.2474">
        <ele>2541.6</ele>
        <time>2017-02-22T11:33:06Z</time>
      </trkpt>
      <trkpt lat="42.87502" lon="0.24741">
        <ele>2542.4</ele>
        <time>2017-02-22T11:33:11Z</time>
      </trkpt>
      <trkpt lat="42.87504" lon="0.24741">
        <ele>2541.4</ele>
        <time>2017-02-22T11:33:16Z</time>
      </trkpt>
      <trkpt lat="42.87506" lon="0.24742">
        <ele>2542.6</ele>
        <time>2017-02-22T11:33:21Z</time>
      </trkpt>
      <trkpt lat="42.87507" lon="0.24742">
        <ele>2542.2</ele>
        <time>2017-02-22T11:33:26Z</time>
      </trkpt>
      <trkpt lat="42.87507" lon="0.24742">
        <ele>2542</ele>
        <time>2017-02-22T11:33:31Z</time>
      </trkpt>
      <trkpt lat="42.87508" lon="0.24742">
        <ele>2542.2</ele>
        <time>2017-02-22T11:33:36Z</time>
      </trkpt>
      <trkpt lat="42.87508" lon="0.24742">
        <ele>2542.4</ele>
        <time>2017-02-22T11:33:41Z</time>
      </trkpt>
      <trkpt lat="42.87507" lon="0.24742">
        <ele>2542.4</ele>
        <time>2017-02-22T11:33:46Z</time>
      </trkpt>
      <trkpt lat="42.87507" lon="0.24742">
        <ele>2542.6</ele>
        <time>2017-02-22T11:33:51Z</time>
      </trkpt>
      <trkpt lat="42.87507" lon="0.24742">
        <ele>2542.6</ele>
        <time>2017-02-22T11:33:56Z</time>
      </trkpt>
      <trkpt lat="42.87507" lon="0.24742">
        <ele>2542.8</ele>
        <time>2017-02-22T11:34:01Z</time>
      </trkpt>
      <trkpt lat="42.87507" lon="0.24742">
        <ele>2543</ele>
        <time>2017-02-22T11:34:06Z</time>
      </trkpt>
      <trkpt lat="42.87507" lon="0.24742">
        <ele>2542.8</ele>
        <time>2017-02-22T11:34:11Z</time>
      </trkpt>
      <trkpt lat="42.87507" lon="0.2474">
        <ele>2542.4</ele>
        <time>2017-02-22T11:34:16Z</time>
      </trkpt>
      <trkpt lat="42.87506" lon="0.24737">
        <ele>2541.4</ele>
        <time>2017-02-22T11:34:21Z</time>
      </trkpt>
      <trkpt lat="42.87504" lon="0.24734">
        <ele>2543</ele>
        <time>2017-02-22T11:34:26Z</time>
      </trkpt>
      <trkpt lat="42.87503" lon="0.24731">
        <ele>2545</ele>
        <time>2017-02-22T11:34:31Z</time>
      </trkpt>
      <trkpt lat="42.87502" lon="0.24728">
        <ele>2547.4</ele>
        <time>2017-02-22T11:34:36Z</time>
      </trkpt>
      <trkpt lat="42.875" lon="0.24725">
        <ele>2548</ele>
        <time>2017-02-22T11:34:41Z</time>
      </trkpt>
      <trkpt lat="42.87499" lon="0.24724">
        <ele>2546</ele>
        <time>2017-02-22T11:34:46Z</time>
      </trkpt>
      <trkpt lat="42.87499" lon="0.24725">
        <ele>2546</ele>
        <time>2017-02-22T11:34:51Z</time>
      </trkpt>
      <trkpt lat="42.875" lon="0.24725">
        <ele>2546.2</ele>
        <time>2017-02-22T11:34:56Z</time>
      </trkpt>
      <trkpt lat="42.875" lon="0.24725">
        <ele>2546.2</ele>
        <time>2017-02-22T11:35:01Z</time>
      </trkpt>
      <trkpt lat="42.875" lon="0.24725">
        <ele>2546.2</ele>
        <time>2017-02-22T11:35:06Z</time>
      </trkpt>
      <trkpt lat="42.87501" lon="0.24726">
        <ele>2546.4</ele>
        <time>2017-02-22T11:35:11Z</time>
      </trkpt>
      <trkpt lat="42.87501" lon="0.24726">
        <ele>2546.6</ele>
        <time>2017-02-22T11:35:16Z</time>
      </trkpt>
      <trkpt lat="42.87502" lon="0.24725">
        <ele>2546.6</ele>
        <time>2017-02-22T11:35:21Z</time>
      </trkpt>
      <trkpt lat="42.87503" lon="0.24725">
        <ele>2546.6</ele>
        <time>2017-02-22T11:35:26Z</time>
      </trkpt>
      <trkpt lat="42.87502" lon="0.24725">
        <ele>2546.4</ele>
        <time>2017-02-22T11:35:31Z</time>
      </trkpt>
      <trkpt lat="42.87502" lon="0.24725">
        <ele>2546.4</ele>
        <time>2017-02-22T11:35:36Z</time>
      </trkpt>
      <trkpt lat="42.87502" lon="0.24725">
        <ele>2546.4</ele>
        <time>2017-02-22T11:35:41Z</time>
      </trkpt>
      <trkpt lat="42.87502" lon="0.24723">
        <ele>2544.2</ele>
        <time>2017-02-22T11:35:46Z</time>
      </trkpt>
      <trkpt lat="42.87502" lon="0.24722">
        <ele>2548</ele>
        <time>2017-02-22T11:35:51Z</time>
      </trkpt>
      <trkpt lat="42.87501" lon="0.24718">
        <ele>2547.4</ele>
        <time>2017-02-22T11:35:56Z</time>
      </trkpt>
      <trkpt lat="42.87501" lon="0.24716">
        <ele>2546.8</ele>
        <time>2017-02-22T11:36:01Z</time>
      </trkpt>
      <trkpt lat="42.875" lon="0.24715">
        <ele>2546.4</ele>
        <time>2017-02-22T11:36:06Z</time>
      </trkpt>
      <trkpt lat="42.875" lon="0.24716">
        <ele>2546.4</ele>
        <time>2017-02-22T11:36:11Z</time>
      </trkpt>
      <trkpt lat="42.87499" lon="0.24717">
        <ele>2546.2</ele>
        <time>2017-02-22T11:36:16Z</time>
      </trkpt>
      <trkpt lat="42.87498" lon="0.24717">
        <ele>2546</ele>
        <time>2017-02-22T11:36:21Z</time>
      </trkpt>
      <trkpt lat="42.87498" lon="0.24717">
        <ele>2546.4</ele>
        <time>2017-02-22T11:36:26Z</time>
      </trkpt>
      <trkpt lat="42.87498" lon="0.24717">
        <ele>2547</ele>
        <time>2017-02-22T11:36:31Z</time>
      </trkpt>
      <trkpt lat="42.87498" lon="0.24717">
        <ele>2547.2</ele>
        <time>2017-02-22T11:36:36Z</time>
      </trkpt>
      <trkpt lat="42.87498" lon="0.24717">
        <ele>2547.6</ele>
        <time>2017-02-22T11:36:41Z</time>
      </trkpt>
      <trkpt lat="42.87497" lon="0.24717">
        <ele>2547.8</ele>
        <time>2017-02-22T11:36:46Z</time>
      </trkpt>
      <trkpt lat="42.87497" lon="0.24717">
        <ele>2547.8</ele>
        <time>2017-02-22T11:36:51Z</time>
      </trkpt>
      <trkpt lat="42.87496" lon="0.24716">
        <ele>2548.6</ele>
        <time>2017-02-22T11:36:56Z</time>
      </trkpt>
      <trkpt lat="42.87496" lon="0.24716">
        <ele>2548.6</ele>
        <time>2017-02-22T11:37:01Z</time>
      </trkpt>
      <trkpt lat="42.87497" lon="0.24716">
        <ele>2548.6</ele>
        <time>2017-02-22T11:37:06Z</time>
      </trkpt>
      <trkpt lat="42.87497" lon="0.24715">
        <ele>2548.6</ele>
        <time>2017-02-22T11:37:11Z</time>
      </trkpt>
      <trkpt lat="42.87497" lon="0.24714">
        <ele>2549.2</ele>
        <time>2017-02-22T11:37:16Z</time>
      </trkpt>
      <trkpt lat="42.87496" lon="0.24711">
        <ele>2550</ele>
        <time>2017-02-22T11:37:21Z</time>
      </trkpt>
      <trkpt lat="42.87495" lon="0.24708">
        <ele>2550.6</ele>
        <time>2017-02-22T11:37:26Z</time>
      </trkpt>
      <trkpt lat="42.87494" lon="0.24707">
        <ele>2551</ele>
        <time>2017-02-22T11:37:31Z</time>
      </trkpt>
      <trkpt lat="42.87493" lon="0.24707">
        <ele>2550.6</ele>
        <time>2017-02-22T11:37:36Z</time>
      </trkpt>
      <trkpt lat="42.87494" lon="0.24707">
        <ele>2550.4</ele>
        <time>2017-02-22T11:37:41Z</time>
      </trkpt>
      <trkpt lat="42.87494" lon="0.24706">
        <ele>2550.2</ele>
        <time>2017-02-22T11:37:46Z</time>
      </trkpt>
      <trkpt lat="42.87492" lon="0.24703">
        <ele>2549.2</ele>
        <time>2017-02-22T11:37:51Z</time>
      </trkpt>
      <trkpt lat="42.87492" lon="0.24703">
        <ele>2549</ele>
        <time>2017-02-22T11:37:56Z</time>
      </trkpt>
      <trkpt lat="42.87491" lon="0.24703">
        <ele>2549.8</ele>
        <time>2017-02-22T11:38:01Z</time>
      </trkpt>
      <trkpt lat="42.87491" lon="0.24703">
        <ele>2550.4</ele>
        <time>2017-02-22T11:38:06Z</time>
      </trkpt>
      <trkpt lat="42.87491" lon="0.24703">
        <ele>2551.2</ele>
        <time>2017-02-22T11:38:11Z</time>
      </trkpt>
      <trkpt lat="42.8749" lon="0.24704">
        <ele>2551.8</ele>
        <time>2017-02-22T11:38:16Z</time>
      </trkpt>
      <trkpt lat="42.87489" lon="0.24702">
        <ele>2551.6</ele>
        <time>2017-02-22T11:38:21Z</time>
      </trkpt>
      <trkpt lat="42.87489" lon="0.24702">
        <ele>2552.4</ele>
        <time>2017-02-22T11:38:26Z</time>
      </trkpt>
      <trkpt lat="42.87488" lon="0.24703">
        <ele>2552.6</ele>
        <time>2017-02-22T11:38:31Z</time>
      </trkpt>
      <trkpt lat="42.87488" lon="0.24703">
        <ele>2552.8</ele>
        <time>2017-02-22T11:38:36Z</time>
      </trkpt>
      <trkpt lat="42.87488" lon="0.24703">
        <ele>2553</ele>
        <time>2017-02-22T11:38:41Z</time>
      </trkpt>
      <trkpt lat="42.87488" lon="0.24702">
        <ele>2551.4</ele>
        <time>2017-02-22T11:38:46Z</time>
      </trkpt>
      <trkpt lat="42.87489" lon="0.24701">
        <ele>2551.8</ele>
        <time>2017-02-22T11:38:51Z</time>
      </trkpt>
      <trkpt lat="42.8749" lon="0.247">
        <ele>2549.6</ele>
        <time>2017-02-22T11:38:56Z</time>
      </trkpt>
      <trkpt lat="42.8749" lon="0.247">
        <ele>2550.6</ele>
        <time>2017-02-22T11:39:01Z</time>
      </trkpt>
      <trkpt lat="42.8749" lon="0.247">
        <ele>2551.2</ele>
        <time>2017-02-22T11:39:06Z</time>
      </trkpt>
      <trkpt lat="42.8749" lon="0.24699">
        <ele>2551.8</ele>
        <time>2017-02-22T11:39:11Z</time>
      </trkpt>
      <trkpt lat="42.8749" lon="0.24699">
        <ele>2552.4</ele>
        <time>2017-02-22T11:39:16Z</time>
      </trkpt>
      <trkpt lat="42.8749" lon="0.24699">
        <ele>2552.6</ele>
        <time>2017-02-22T11:39:21Z</time>
      </trkpt>
      <trkpt lat="42.8749" lon="0.24699">
        <ele>2552.6</ele>
        <time>2017-02-22T11:39:26Z</time>
      </trkpt>
      <trkpt lat="42.8749" lon="0.24699">
        <ele>2553</ele>
        <time>2017-02-22T11:39:31Z</time>
      </trkpt>
      <trkpt lat="42.8749" lon="0.24699">
        <ele>2553</ele>
        <time>2017-02-22T11:39:36Z</time>
      </trkpt>
      <trkpt lat="42.8749" lon="0.24699">
        <ele>2553.4</ele>
        <time>2017-02-22T11:39:42Z</time>
      </trkpt>
      <trkpt lat="42.8749" lon="0.24697">
        <ele>2553.4</ele>
        <time>2017-02-22T11:39:47Z</time>
      </trkpt>
      <trkpt lat="42.87493" lon="0.24697">
        <ele>2555.4</ele>
        <time>2017-02-22T11:39:52Z</time>
      </trkpt>
      <trkpt lat="42.87495" lon="0.24698">
        <ele>2554.4</ele>
        <time>2017-02-22T11:39:57Z</time>
      </trkpt>
      <trkpt lat="42.87496" lon="0.24699">
        <ele>2554.8</ele>
        <time>2017-02-22T11:40:02Z</time>
      </trkpt>
      <trkpt lat="42.87497" lon="0.247">
        <ele>2553.4</ele>
        <time>2017-02-22T11:40:07Z</time>
      </trkpt>
      <trkpt lat="42.87497" lon="0.24701">
        <ele>2553.6</ele>
        <time>2017-02-22T11:40:12Z</time>
      </trkpt>
      <trkpt lat="42.87497" lon="0.24701">
        <ele>2553.2</ele>
        <time>2017-02-22T11:40:17Z</time>
      </trkpt>
      <trkpt lat="42.87497" lon="0.24701">
        <ele>2553</ele>
        <time>2017-02-22T11:40:22Z</time>
      </trkpt>
      <trkpt lat="42.87498" lon="0.24702">
        <ele>2555.4</ele>
        <time>2017-02-22T11:40:27Z</time>
      </trkpt>
      <trkpt lat="42.875" lon="0.24703">
        <ele>2553.6</ele>
        <time>2017-02-22T11:40:32Z</time>
      </trkpt>
      <trkpt lat="42.87502" lon="0.24704">
        <ele>2557.2</ele>
        <time>2017-02-22T11:40:37Z</time>
      </trkpt>
      <trkpt lat="42.87504" lon="0.24705">
        <ele>2557.2</ele>
        <time>2017-02-22T11:40:42Z</time>
      </trkpt>
      <trkpt lat="42.87506" lon="0.24706">
        <ele>2557.8</ele>
        <time>2017-02-22T11:40:47Z</time>
      </trkpt>
      <trkpt lat="42.87507" lon="0.24706">
        <ele>2553</ele>
        <time>2017-02-22T11:40:52Z</time>
      </trkpt>
      <trkpt lat="42.87508" lon="0.24707">
        <ele>2553.8</ele>
        <time>2017-02-22T11:40:57Z</time>
      </trkpt>
      <trkpt lat="42.87509" lon="0.24707">
        <ele>2554.4</ele>
        <time>2017-02-22T11:41:02Z</time>
      </trkpt>
      <trkpt lat="42.8751" lon="0.24707">
        <ele>2553</ele>
        <time>2017-02-22T11:41:07Z</time>
      </trkpt>
      <trkpt lat="42.87511" lon="0.24707">
        <ele>2556</ele>
        <time>2017-02-22T11:41:12Z</time>
      </trkpt>
      <trkpt lat="42.87513" lon="0.24708">
        <ele>2555.8</ele>
        <time>2017-02-22T11:41:17Z</time>
      </trkpt>
      <trkpt lat="42.87514" lon="0.24709">
        <ele>2557</ele>
        <time>2017-02-22T11:41:22Z</time>
      </trkpt>
      <trkpt lat="42.87516" lon="0.24709">
        <ele>2560</ele>
        <time>2017-02-22T11:41:27Z</time>
      </trkpt>
      <trkpt lat="42.87516" lon="0.24709">
        <ele>2560.6</ele>
        <time>2017-02-22T11:41:32Z</time>
      </trkpt>
      <trkpt lat="42.87516" lon="0.24709">
        <ele>2561</ele>
        <time>2017-02-22T11:41:37Z</time>
      </trkpt>
      <trkpt lat="42.87516" lon="0.24709">
        <ele>2561.4</ele>
        <time>2017-02-22T11:41:42Z</time>
      </trkpt>
      <trkpt lat="42.87516" lon="0.24709">
        <ele>2561.6</ele>
        <time>2017-02-22T11:41:47Z</time>
      </trkpt>
      <trkpt lat="42.87516" lon="0.24709">
        <ele>2561.8</ele>
        <time>2017-02-22T11:41:52Z</time>
      </trkpt>
      <trkpt lat="42.87516" lon="0.24709">
        <ele>2562</ele>
        <time>2017-02-22T11:41:57Z</time>
      </trkpt>
      <trkpt lat="42.87516" lon="0.24709">
        <ele>2562</ele>
        <time>2017-02-22T11:42:02Z</time>
      </trkpt>
      <trkpt lat="42.87516" lon="0.24709">
        <ele>2562</ele>
        <time>2017-02-22T11:42:07Z</time>
      </trkpt>
      <trkpt lat="42.87516" lon="0.24709">
        <ele>2562</ele>
        <time>2017-02-22T11:42:12Z</time>
      </trkpt>
      <trkpt lat="42.87516" lon="0.24709">
        <ele>2562</ele>
        <time>2017-02-22T11:42:17Z</time>
      </trkpt>
      <trkpt lat="42.87516" lon="0.24709">
        <ele>2561.8</ele>
        <time>2017-02-22T11:42:22Z</time>
      </trkpt>
      <trkpt lat="42.87516" lon="0.24709">
        <ele>2562</ele>
        <time>2017-02-22T11:42:27Z</time>
      </trkpt>
      <trkpt lat="42.87516" lon="0.24709">
        <ele>2562</ele>
        <time>2017-02-22T11:42:32Z</time>
      </trkpt>
      <trkpt lat="42.87516" lon="0.24709">
        <ele>2562</ele>
        <time>2017-02-22T11:42:37Z</time>
      </trkpt>
      <trkpt lat="42.87516" lon="0.24709">
        <ele>2562</ele>
        <time>2017-02-22T11:42:42Z</time>
      </trkpt>
      <trkpt lat="42.87516" lon="0.24709">
        <ele>2562</ele>
        <time>2017-02-22T11:42:47Z</time>
      </trkpt>
      <trkpt lat="42.87516" lon="0.24709">
        <ele>2562</ele>
        <time>2017-02-22T11:42:53Z</time>
      </trkpt>
      <trkpt lat="42.87516" lon="0.24709">
        <ele>2562</ele>
        <time>2017-02-22T11:42:58Z</time>
      </trkpt>
      <trkpt lat="42.87516" lon="0.24709">
        <ele>2562</ele>
        <time>2017-02-22T11:43:03Z</time>
      </trkpt>
      <trkpt lat="42.87516" lon="0.24709">
        <ele>2562</ele>
        <time>2017-02-22T11:43:08Z</time>
      </trkpt>
      <trkpt lat="42.87516" lon="0.24709">
        <ele>2562</ele>
        <time>2017-02-22T11:43:13Z</time>
      </trkpt>
      <trkpt lat="42.87516" lon="0.24709">
        <ele>2562</ele>
        <time>2017-02-22T11:43:18Z</time>
      </trkpt>
      <trkpt lat="42.87516" lon="0.24709">
        <ele>2562</ele>
        <time>2017-02-22T11:43:23Z</time>
      </trkpt>
      <trkpt lat="42.87516" lon="0.2471">
        <ele>2562</ele>
        <time>2017-02-22T11:43:28Z</time>
      </trkpt>
      <trkpt lat="42.87516" lon="0.2471">
        <ele>2562</ele>
        <time>2017-02-22T11:43:33Z</time>
      </trkpt>
      <trkpt lat="42.87516" lon="0.24709">
        <ele>2562</ele>
        <time>2017-02-22T11:43:38Z</time>
      </trkpt>
      <trkpt lat="42.87516" lon="0.24709">
        <ele>2562</ele>
        <time>2017-02-22T11:43:43Z</time>
      </trkpt>
      <trkpt lat="42.87517" lon="0.24709">
        <ele>2562</ele>
        <time>2017-02-22T11:43:48Z</time>
      </trkpt>
      <trkpt lat="42.87517" lon="0.2471">
        <ele>2562</ele>
        <time>2017-02-22T11:43:53Z</time>
      </trkpt>
      <trkpt lat="42.87517" lon="0.2471">
        <ele>2562</ele>
        <time>2017-02-22T11:43:58Z</time>
      </trkpt>
      <trkpt lat="42.87517" lon="0.2471">
        <ele>2562</ele>
        <time>2017-02-22T11:44:03Z</time>
      </trkpt>
      <trkpt lat="42.87517" lon="0.2471">
        <ele>2562</ele>
        <time>2017-02-22T11:44:08Z</time>
      </trkpt>
      <trkpt lat="42.87517" lon="0.2471">
        <ele>2562</ele>
        <time>2017-02-22T11:44:13Z</time>
      </trkpt>
      <trkpt lat="42.87517" lon="0.2471">
        <ele>2562.2</ele>
        <time>2017-02-22T11:44:18Z</time>
      </trkpt>
      <trkpt lat="42.87517" lon="0.2471">
        <ele>2562.2</ele>
        <time>2017-02-22T11:44:23Z</time>
      </trkpt>
      <trkpt lat="42.87517" lon="0.2471">
        <ele>2562.2</ele>
        <time>2017-02-22T11:44:28Z</time>
      </trkpt>
      <trkpt lat="42.87517" lon="0.2471">
        <ele>2562.4</ele>
        <time>2017-02-22T11:44:33Z</time>
      </trkpt>
      <trkpt lat="42.87517" lon="0.2471">
        <ele>2562.4</ele>
        <time>2017-02-22T11:44:38Z</time>
      </trkpt>
      <trkpt lat="42.87517" lon="0.2471">
        <ele>2562.6</ele>
        <time>2017-02-22T11:44:43Z</time>
      </trkpt>
      <trkpt lat="42.87518" lon="0.24709">
        <ele>2562.8</ele>
        <time>2017-02-22T11:44:48Z</time>
      </trkpt>
      <trkpt lat="42.87518" lon="0.24709">
        <ele>2562.8</ele>
        <time>2017-02-22T11:44:53Z</time>
      </trkpt>
      <trkpt lat="42.8752" lon="0.24709">
        <ele>2562.8</ele>
        <time>2017-02-22T11:44:58Z</time>
      </trkpt>
      <trkpt lat="42.87521" lon="0.24708">
        <ele>2562.2</ele>
        <time>2017-02-22T11:45:03Z</time>
      </trkpt>
      <trkpt lat="42.87521" lon="0.24707">
        <ele>2562.8</ele>
        <time>2017-02-22T11:45:08Z</time>
      </trkpt>
      <trkpt lat="42.87521" lon="0.24707">
        <ele>2563</ele>
        <time>2017-02-22T11:45:13Z</time>
      </trkpt>
      <trkpt lat="42.87521" lon="0.24708">
        <ele>2563.2</ele>
        <time>2017-02-22T11:45:18Z</time>
      </trkpt>
      <trkpt lat="42.87521" lon="0.24708">
        <ele>2563.4</ele>
        <time>2017-02-22T11:45:23Z</time>
      </trkpt>
      <trkpt lat="42.87521" lon="0.24708">
        <ele>2563.6</ele>
        <time>2017-02-22T11:45:28Z</time>
      </trkpt>
      <trkpt lat="42.8752" lon="0.24708">
        <ele>2563.4</ele>
        <time>2017-02-22T11:45:33Z</time>
      </trkpt>
      <trkpt lat="42.8752" lon="0.24709">
        <ele>2563.4</ele>
        <time>2017-02-22T11:45:38Z</time>
      </trkpt>
      <trkpt lat="42.8752" lon="0.24709">
        <ele>2563.2</ele>
        <time>2017-02-22T11:45:43Z</time>
      </trkpt>
      <trkpt lat="42.8752" lon="0.24709">
        <ele>2563</ele>
        <time>2017-02-22T11:45:49Z</time>
      </trkpt>
      <trkpt lat="42.87519" lon="0.2471">
        <ele>2563</ele>
        <time>2017-02-22T11:45:54Z</time>
      </trkpt>
      <trkpt lat="42.87519" lon="0.2471">
        <ele>2562.8</ele>
        <time>2017-02-22T11:45:59Z</time>
      </trkpt>
      <trkpt lat="42.87519" lon="0.2471">
        <ele>2562.6</ele>
        <time>2017-02-22T11:46:04Z</time>
      </trkpt>
      <trkpt lat="42.87519" lon="0.2471">
        <ele>2562.6</ele>
        <time>2017-02-22T11:46:09Z</time>
      </trkpt>
      <trkpt lat="42.87519" lon="0.2471">
        <ele>2562.6</ele>
        <time>2017-02-22T11:46:14Z</time>
      </trkpt>
      <trkpt lat="42.87519" lon="0.2471">
        <ele>2562.8</ele>
        <time>2017-02-22T11:46:19Z</time>
      </trkpt>
      <trkpt lat="42.87518" lon="0.2471">
        <ele>2562.8</ele>
        <time>2017-02-22T11:46:24Z</time>
      </trkpt>
      <trkpt lat="42.87518" lon="0.2471">
        <ele>2563</ele>
        <time>2017-02-22T11:46:29Z</time>
      </trkpt>
      <trkpt lat="42.87518" lon="0.2471">
        <ele>2563.2</ele>
        <time>2017-02-22T11:46:34Z</time>
      </trkpt>
      <trkpt lat="42.87518" lon="0.2471">
        <ele>2563.2</ele>
        <time>2017-02-22T11:46:39Z</time>
      </trkpt>
      <trkpt lat="42.87518" lon="0.2471">
        <ele>2563.4</ele>
        <time>2017-02-22T11:46:44Z</time>
      </trkpt>
      <trkpt lat="42.87518" lon="0.2471">
        <ele>2563.4</ele>
        <time>2017-02-22T11:46:49Z</time>
      </trkpt>
      <trkpt lat="42.87518" lon="0.2471">
        <ele>2561.4</ele>
        <time>2017-02-22T11:46:54Z</time>
      </trkpt>
      <trkpt lat="42.87518" lon="0.24709">
        <ele>2562.2</ele>
        <time>2017-02-22T11:46:59Z</time>
      </trkpt>
      <trkpt lat="42.87519" lon="0.24708">
        <ele>2563</ele>
        <time>2017-02-22T11:47:04Z</time>
      </trkpt>
      <trkpt lat="42.87519" lon="0.24708">
        <ele>2563.4</ele>
        <time>2017-02-22T11:47:09Z</time>
      </trkpt>
      <trkpt lat="42.87519" lon="0.24708">
        <ele>2563.8</ele>
        <time>2017-02-22T11:47:14Z</time>
      </trkpt>
      <trkpt lat="42.8752" lon="0.24707">
        <ele>2563.8</ele>
        <time>2017-02-22T11:47:19Z</time>
      </trkpt>
      <trkpt lat="42.87518" lon="0.24707">
        <ele>2564.2</ele>
        <time>2017-02-22T11:47:24Z</time>
      </trkpt>
      <trkpt lat="42.87518" lon="0.24706">
        <ele>2564.2</ele>
        <time>2017-02-22T11:47:29Z</time>
      </trkpt>
      <trkpt lat="42.87518" lon="0.24706">
        <ele>2564.4</ele>
        <time>2017-02-22T11:47:34Z</time>
      </trkpt>
      <trkpt lat="42.87518" lon="0.24706">
        <ele>2564.6</ele>
        <time>2017-02-22T11:47:39Z</time>
      </trkpt>
      <trkpt lat="42.87518" lon="0.24706">
        <ele>2564.6</ele>
        <time>2017-02-22T11:47:44Z</time>
      </trkpt>
      <trkpt lat="42.87518" lon="0.24707">
        <ele>2564.6</ele>
        <time>2017-02-22T11:47:49Z</time>
      </trkpt>
      <trkpt lat="42.87518" lon="0.24707">
        <ele>2564.6</ele>
        <time>2017-02-22T11:47:54Z</time>
      </trkpt>
      <trkpt lat="42.87518" lon="0.24707">
        <ele>2564.6</ele>
        <time>2017-02-22T11:47:59Z</time>
      </trkpt>
      <trkpt lat="42.87519" lon="0.24706">
        <ele>2564.4</ele>
        <time>2017-02-22T11:48:04Z</time>
      </trkpt>
      <trkpt lat="42.87519" lon="0.24706">
        <ele>2564.4</ele>
        <time>2017-02-22T11:48:09Z</time>
      </trkpt>
      <trkpt lat="42.87521" lon="0.24703">
        <ele>2564.6</ele>
        <time>2017-02-22T11:48:14Z</time>
      </trkpt>
      <trkpt lat="42.87521" lon="0.24703">
        <ele>2564.6</ele>
        <time>2017-02-22T11:48:19Z</time>
      </trkpt>
      <trkpt lat="42.87521" lon="0.24706">
        <ele>2564.8</ele>
        <time>2017-02-22T11:48:24Z</time>
      </trkpt>
      <trkpt lat="42.87523" lon="0.24707">
        <ele>2565</ele>
        <time>2017-02-22T11:48:29Z</time>
      </trkpt>
      <trkpt lat="42.87524" lon="0.24707">
        <ele>2565.4</ele>
        <time>2017-02-22T11:48:34Z</time>
      </trkpt>
      <trkpt lat="42.87524" lon="0.24707">
        <ele>2565.8</ele>
        <time>2017-02-22T11:48:39Z</time>
      </trkpt>
      <trkpt lat="42.87524" lon="0.24707">
        <ele>2566</ele>
        <time>2017-02-22T11:48:44Z</time>
      </trkpt>
      <trkpt lat="42.87524" lon="0.24707">
        <ele>2566.2</ele>
        <time>2017-02-22T11:48:49Z</time>
      </trkpt>
      <trkpt lat="42.87522" lon="0.24708">
        <ele>2566.2</ele>
        <time>2017-02-22T11:48:54Z</time>
      </trkpt>
      <trkpt lat="42.87522" lon="0.24708">
        <ele>2566.2</ele>
        <time>2017-02-22T11:48:59Z</time>
      </trkpt>
      <trkpt lat="42.87522" lon="0.24708">
        <ele>2566</ele>
        <time>2017-02-22T11:49:04Z</time>
      </trkpt>
      <trkpt lat="42.87522" lon="0.24709">
        <ele>2566</ele>
        <time>2017-02-22T11:49:09Z</time>
      </trkpt>
      <trkpt lat="42.87522" lon="0.24709">
        <ele>2566</ele>
        <time>2017-02-22T11:49:14Z</time>
      </trkpt>
      <trkpt lat="42.87522" lon="0.24709">
        <ele>2566</ele>
        <time>2017-02-22T11:49:19Z</time>
      </trkpt>
      <trkpt lat="42.87521" lon="0.24709">
        <ele>2566.2</ele>
        <time>2017-02-22T11:49:24Z</time>
      </trkpt>
      <trkpt lat="42.87521" lon="0.24709">
        <ele>2566.2</ele>
        <time>2017-02-22T11:49:29Z</time>
      </trkpt>
      <trkpt lat="42.87521" lon="0.24709">
        <ele>2566.4</ele>
        <time>2017-02-22T11:49:34Z</time>
      </trkpt>
      <trkpt lat="42.87521" lon="0.24709">
        <ele>2566.6</ele>
        <time>2017-02-22T11:49:39Z</time>
      </trkpt>
      <trkpt lat="42.87521" lon="0.24709">
        <ele>2566.6</ele>
        <time>2017-02-22T11:49:44Z</time>
      </trkpt>
      <trkpt lat="42.87521" lon="0.24709">
        <ele>2566.8</ele>
        <time>2017-02-22T11:49:49Z</time>
      </trkpt>
      <trkpt lat="42.87521" lon="0.24709">
        <ele>2566.8</ele>
        <time>2017-02-22T11:49:54Z</time>
      </trkpt>
      <trkpt lat="42.87521" lon="0.24709">
        <ele>2566.8</ele>
        <time>2017-02-22T11:49:59Z</time>
      </trkpt>
      <trkpt lat="42.87521" lon="0.24709">
        <ele>2566.8</ele>
        <time>2017-02-22T11:50:04Z</time>
      </trkpt>
      <trkpt lat="42.87521" lon="0.24709">
        <ele>2566.8</ele>
        <time>2017-02-22T11:50:09Z</time>
      </trkpt>
      <trkpt lat="42.87521" lon="0.24709">
        <ele>2566.8</ele>
        <time>2017-02-22T11:50:14Z</time>
      </trkpt>
      <trkpt lat="42.87521" lon="0.24709">
        <ele>2566.8</ele>
        <time>2017-02-22T11:50:19Z</time>
      </trkpt>
      <trkpt lat="42.87521" lon="0.24709">
        <ele>2566.8</ele>
        <time>2017-02-22T11:50:24Z</time>
      </trkpt>
      <trkpt lat="42.87521" lon="0.24709">
        <ele>2566.8</ele>
        <time>2017-02-22T11:50:29Z</time>
      </trkpt>
      <trkpt lat="42.87521" lon="0.24709">
        <ele>2566.8</ele>
        <time>2017-02-22T11:50:34Z</time>
      </trkpt>
      <trkpt lat="42.87521" lon="0.24709">
        <ele>2566.8</ele>
        <time>2017-02-22T11:50:39Z</time>
      </trkpt>
      <trkpt lat="42.87521" lon="0.24709">
        <ele>2566.8</ele>
        <time>2017-02-22T11:50:44Z</time>
      </trkpt>
      <trkpt lat="42.87521" lon="0.24709">
        <ele>2566.8</ele>
        <time>2017-02-22T11:50:49Z</time>
      </trkpt>
      <trkpt lat="42.8752" lon="0.24709">
        <ele>2566.8</ele>
        <time>2017-02-22T11:50:54Z</time>
      </trkpt>
      <trkpt lat="42.8752" lon="0.24709">
        <ele>2566.8</ele>
        <time>2017-02-22T11:50:59Z</time>
      </trkpt>
      <trkpt lat="42.8752" lon="0.24709">
        <ele>2566.8</ele>
        <time>2017-02-22T11:51:04Z</time>
      </trkpt>
      <trkpt lat="42.8752" lon="0.24709">
        <ele>2566.8</ele>
        <time>2017-02-22T11:51:09Z</time>
      </trkpt>
      <trkpt lat="42.8752" lon="0.24709">
        <ele>2566.8</ele>
        <time>2017-02-22T11:51:14Z</time>
      </trkpt>
      <trkpt lat="42.8752" lon="0.24709">
        <ele>2566.8</ele>
        <time>2017-02-22T11:51:19Z</time>
      </trkpt>
      <trkpt lat="42.8752" lon="0.24709">
        <ele>2566.8</ele>
        <time>2017-02-22T11:51:24Z</time>
      </trkpt>
      <trkpt lat="42.8752" lon="0.24709">
        <ele>2566.8</ele>
        <time>2017-02-22T11:51:29Z</time>
      </trkpt>
      <trkpt lat="42.8752" lon="0.24709">
        <ele>2566.8</ele>
        <time>2017-02-22T11:51:34Z</time>
      </trkpt>
      <trkpt lat="42.8752" lon="0.24709">
        <ele>2566.8</ele>
        <time>2017-02-22T11:51:39Z</time>
      </trkpt>
      <trkpt lat="42.8752" lon="0.24709">
        <ele>2566.8</ele>
        <time>2017-02-22T11:51:44Z</time>
      </trkpt>
      <trkpt lat="42.8752" lon="0.24709">
        <ele>2566.8</ele>
        <time>2017-02-22T11:51:49Z</time>
      </trkpt>
      <trkpt lat="42.8752" lon="0.24709">
        <ele>2566.8</ele>
        <time>2017-02-22T11:51:54Z</time>
      </trkpt>
      <trkpt lat="42.8752" lon="0.24709">
        <ele>2566.8</ele>
        <time>2017-02-22T11:51:59Z</time>
      </trkpt>
      <trkpt lat="42.8752" lon="0.24709">
        <ele>2566.8</ele>
        <time>2017-02-22T11:52:04Z</time>
      </trkpt>
      <trkpt lat="42.8752" lon="0.24709">
        <ele>2566.8</ele>
        <time>2017-02-22T11:52:09Z</time>
      </trkpt>
      <trkpt lat="42.8752" lon="0.24709">
        <ele>2566.8</ele>
        <time>2017-02-22T11:52:14Z</time>
      </trkpt>
      <trkpt lat="42.8752" lon="0.24709">
        <ele>2566.8</ele>
        <time>2017-02-22T11:52:19Z</time>
      </trkpt>
      <trkpt lat="42.8752" lon="0.24709">
        <ele>2566.8</ele>
        <time>2017-02-22T11:52:24Z</time>
      </trkpt>
      <trkpt lat="42.8752" lon="0.24709">
        <ele>2566.8</ele>
        <time>2017-02-22T11:52:29Z</time>
      </trkpt>
      <trkpt lat="42.8752" lon="0.24709">
        <ele>2566.8</ele>
        <time>2017-02-22T11:52:34Z</time>
      </trkpt>
      <trkpt lat="42.8752" lon="0.24709">
        <ele>2566.8</ele>
        <time>2017-02-22T11:52:39Z</time>
      </trkpt>
      <trkpt lat="42.8752" lon="0.24709">
        <ele>2566.8</ele>
        <time>2017-02-22T11:52:44Z</time>
      </trkpt>
      <trkpt lat="42.8752" lon="0.24709">
        <ele>2566.8</ele>
        <time>2017-02-22T11:52:49Z</time>
      </trkpt>
      <trkpt lat="42.8752" lon="0.24709">
        <ele>2566.8</ele>
        <time>2017-02-22T11:52:54Z</time>
      </trkpt>
      <trkpt lat="42.8752" lon="0.24709">
        <ele>2566.8</ele>
        <time>2017-02-22T11:52:59Z</time>
      </trkpt>
      <trkpt lat="42.8752" lon="0.24709">
        <ele>2566.8</ele>
        <time>2017-02-22T11:53:04Z</time>
      </trkpt>
      <trkpt lat="42.8752" lon="0.24709">
        <ele>2566.8</ele>
        <time>2017-02-22T11:53:09Z</time>
      </trkpt>
      <trkpt lat="42.8752" lon="0.24709">
        <ele>2566.8</ele>
        <time>2017-02-22T11:53:14Z</time>
      </trkpt>
      <trkpt lat="42.8752" lon="0.24709">
        <ele>2566.8</ele>
        <time>2017-02-22T11:53:19Z</time>
      </trkpt>
      <trkpt lat="42.8752" lon="0.24709">
        <ele>2566.8</ele>
        <time>2017-02-22T11:53:24Z</time>
      </trkpt>
      <trkpt lat="42.8752" lon="0.24709">
        <ele>2566.8</ele>
        <time>2017-02-22T11:53:29Z</time>
      </trkpt>
      <trkpt lat="42.8752" lon="0.24709">
        <ele>2566.8</ele>
        <time>2017-02-22T11:53:34Z</time>
      </trkpt>
      <trkpt lat="42.8752" lon="0.24709">
        <ele>2566.8</ele>
        <time>2017-02-22T11:53:39Z</time>
      </trkpt>
      <trkpt lat="42.8752" lon="0.24709">
        <ele>2566.8</ele>
        <time>2017-02-22T11:53:44Z</time>
      </trkpt>
      <trkpt lat="42.8752" lon="0.24709">
        <ele>2566.8</ele>
        <time>2017-02-22T11:53:49Z</time>
      </trkpt>
      <trkpt lat="42.8752" lon="0.24709">
        <ele>2566.8</ele>
        <time>2017-02-22T11:53:54Z</time>
      </trkpt>
      <trkpt lat="42.8752" lon="0.24709">
        <ele>2566.8</ele>
        <time>2017-02-22T11:53:59Z</time>
      </trkpt>
      <trkpt lat="42.8752" lon="0.24709">
        <ele>2566.8</ele>
        <time>2017-02-22T11:54:04Z</time>
      </trkpt>
      <trkpt lat="42.8752" lon="0.24709">
        <ele>2567</ele>
        <time>2017-02-22T11:54:09Z</time>
      </trkpt>
      <trkpt lat="42.8752" lon="0.24709">
        <ele>2567</ele>
        <time>2017-02-22T11:54:14Z</time>
      </trkpt>
      <trkpt lat="42.8752" lon="0.24709">
        <ele>2567</ele>
        <time>2017-02-22T11:54:19Z</time>
      </trkpt>
      <trkpt lat="42.8752" lon="0.24709">
        <ele>2567</ele>
        <time>2017-02-22T11:54:24Z</time>
      </trkpt>
      <trkpt lat="42.8752" lon="0.24709">
        <ele>2567</ele>
        <time>2017-02-22T11:54:29Z</time>
      </trkpt>
      <trkpt lat="42.8752" lon="0.24709">
        <ele>2567</ele>
        <time>2017-02-22T11:54:34Z</time>
      </trkpt>
      <trkpt lat="42.8752" lon="0.24709">
        <ele>2567</ele>
        <time>2017-02-22T11:54:39Z</time>
      </trkpt>
      <trkpt lat="42.8752" lon="0.24709">
        <ele>2567</ele>
        <time>2017-02-22T11:54:44Z</time>
      </trkpt>
      <trkpt lat="42.8752" lon="0.24709">
        <ele>2567</ele>
        <time>2017-02-22T11:54:49Z</time>
      </trkpt>
      <trkpt lat="42.8752" lon="0.24709">
        <ele>2567</ele>
        <time>2017-02-22T11:54:54Z</time>
      </trkpt>
      <trkpt lat="42.8752" lon="0.24709">
        <ele>2567</ele>
        <time>2017-02-22T11:54:59Z</time>
      </trkpt>
      <trkpt lat="42.8752" lon="0.24709">
        <ele>2567</ele>
        <time>2017-02-22T11:55:04Z</time>
      </trkpt>
      <trkpt lat="42.8752" lon="0.24709">
        <ele>2567</ele>
        <time>2017-02-22T11:55:09Z</time>
      </trkpt>
      <trkpt lat="42.8752" lon="0.24709">
        <ele>2567</ele>
        <time>2017-02-22T11:55:14Z</time>
      </trkpt>
      <trkpt lat="42.8752" lon="0.24709">
        <ele>2567</ele>
        <time>2017-02-22T11:55:19Z</time>
      </trkpt>
      <trkpt lat="42.87519" lon="0.24709">
        <ele>2567</ele>
        <time>2017-02-22T11:55:24Z</time>
      </trkpt>
      <trkpt lat="42.87519" lon="0.24709">
        <ele>2567.2</ele>
        <time>2017-02-22T11:55:29Z</time>
      </trkpt>
      <trkpt lat="42.87519" lon="0.24709">
        <ele>2567.2</ele>
        <time>2017-02-22T11:55:34Z</time>
      </trkpt>
      <trkpt lat="42.87519" lon="0.24709">
        <ele>2567.2</ele>
        <time>2017-02-22T11:55:39Z</time>
      </trkpt>
      <trkpt lat="42.87519" lon="0.24709">
        <ele>2567.2</ele>
        <time>2017-02-22T11:55:44Z</time>
      </trkpt>
      <trkpt lat="42.87519" lon="0.24709">
        <ele>2567.2</ele>
        <time>2017-02-22T11:55:49Z</time>
      </trkpt>
      <trkpt lat="42.87519" lon="0.24709">
        <ele>2567.2</ele>
        <time>2017-02-22T11:55:54Z</time>
      </trkpt>
      <trkpt lat="42.87519" lon="0.24709">
        <ele>2567.2</ele>
        <time>2017-02-22T11:55:59Z</time>
      </trkpt>
      <trkpt lat="42.87519" lon="0.24709">
        <ele>2567.2</ele>
        <time>2017-02-22T11:56:04Z</time>
      </trkpt>
      <trkpt lat="42.87519" lon="0.24709">
        <ele>2567.2</ele>
        <time>2017-02-22T11:56:09Z</time>
      </trkpt>
      <trkpt lat="42.87519" lon="0.24709">
        <ele>2567.4</ele>
        <time>2017-02-22T11:56:14Z</time>
      </trkpt>
      <trkpt lat="42.87519" lon="0.24709">
        <ele>2567.4</ele>
        <time>2017-02-22T11:56:19Z</time>
      </trkpt>
      <trkpt lat="42.87519" lon="0.24709">
        <ele>2567.2</ele>
        <time>2017-02-22T11:56:24Z</time>
      </trkpt>
      <trkpt lat="42.87519" lon="0.24709">
        <ele>2567.2</ele>
        <time>2017-02-22T11:56:30Z</time>
      </trkpt>
      <trkpt lat="42.87519" lon="0.24709">
        <ele>2567.2</ele>
        <time>2017-02-22T11:56:35Z</time>
      </trkpt>
      <trkpt lat="42.87519" lon="0.24709">
        <ele>2567.4</ele>
        <time>2017-02-22T11:56:40Z</time>
      </trkpt>
      <trkpt lat="42.87519" lon="0.24709">
        <ele>2567.4</ele>
        <time>2017-02-22T11:56:45Z</time>
      </trkpt>
      <trkpt lat="42.87519" lon="0.24709">
        <ele>2567.4</ele>
        <time>2017-02-22T11:56:50Z</time>
      </trkpt>
      <trkpt lat="42.87519" lon="0.24709">
        <ele>2567.4</ele>
        <time>2017-02-22T11:56:55Z</time>
      </trkpt>
      <trkpt lat="42.87519" lon="0.24709">
        <ele>2567.4</ele>
        <time>2017-02-22T11:57:00Z</time>
      </trkpt>
      <trkpt lat="42.87519" lon="0.24709">
        <ele>2567.4</ele>
        <time>2017-02-22T11:57:05Z</time>
      </trkpt>
      <trkpt lat="42.87519" lon="0.24709">
        <ele>2567.4</ele>
        <time>2017-02-22T11:57:10Z</time>
      </trkpt>
      <trkpt lat="42.87519" lon="0.24709">
        <ele>2567.4</ele>
        <time>2017-02-22T11:57:15Z</time>
      </trkpt>
      <trkpt lat="42.87519" lon="0.24709">
        <ele>2567.4</ele>
        <time>2017-02-22T11:57:20Z</time>
      </trkpt>
      <trkpt lat="42.87519" lon="0.24709">
        <ele>2567.6</ele>
        <time>2017-02-22T11:57:25Z</time>
      </trkpt>
      <trkpt lat="42.87519" lon="0.24709">
        <ele>2567.6</ele>
        <time>2017-02-22T11:57:30Z</time>
      </trkpt>
      <trkpt lat="42.87519" lon="0.24709">
        <ele>2567.6</ele>
        <time>2017-02-22T11:57:35Z</time>
      </trkpt>
      <trkpt lat="42.87519" lon="0.24709">
        <ele>2567.6</ele>
        <time>2017-02-22T11:57:40Z</time>
      </trkpt>
      <trkpt lat="42.87519" lon="0.24709">
        <ele>2567.6</ele>
        <time>2017-02-22T11:57:45Z</time>
      </trkpt>
      <trkpt lat="42.87519" lon="0.24709">
        <ele>2567.6</ele>
        <time>2017-02-22T11:57:50Z</time>
      </trkpt>
      <trkpt lat="42.87519" lon="0.24709">
        <ele>2567.6</ele>
        <time>2017-02-22T11:57:55Z</time>
      </trkpt>
      <trkpt lat="42.87519" lon="0.24709">
        <ele>2567.6</ele>
        <time>2017-02-22T11:58:00Z</time>
      </trkpt>
      <trkpt lat="42.87519" lon="0.24709">
        <ele>2567.6</ele>
        <time>2017-02-22T11:58:05Z</time>
      </trkpt>
      <trkpt lat="42.87519" lon="0.24709">
        <ele>2567.6</ele>
        <time>2017-02-22T11:58:10Z</time>
      </trkpt>
      <trkpt lat="42.87519" lon="0.24709">
        <ele>2567.6</ele>
        <time>2017-02-22T11:58:15Z</time>
      </trkpt>
      <trkpt lat="42.87519" lon="0.24709">
        <ele>2567.6</ele>
        <time>2017-02-22T11:58:20Z</time>
      </trkpt>
      <trkpt lat="42.87519" lon="0.24709">
        <ele>2567.6</ele>
        <time>2017-02-22T11:58:25Z</time>
      </trkpt>
      <trkpt lat="42.87519" lon="0.24709">
        <ele>2567.6</ele>
        <time>2017-02-22T11:58:30Z</time>
      </trkpt>
      <trkpt lat="42.87519" lon="0.24709">
        <ele>2567.6</ele>
        <time>2017-02-22T11:58:35Z</time>
      </trkpt>
      <trkpt lat="42.87519" lon="0.24709">
        <ele>2567.6</ele>
        <time>2017-02-22T11:58:40Z</time>
      </trkpt>
      <trkpt lat="42.87519" lon="0.24709">
        <ele>2567.6</ele>
        <time>2017-02-22T11:58:45Z</time>
      </trkpt>
      <trkpt lat="42.87519" lon="0.24709">
        <ele>2567.6</ele>
        <time>2017-02-22T11:58:50Z</time>
      </trkpt>
      <trkpt lat="42.87519" lon="0.24709">
        <ele>2567.6</ele>
        <time>2017-02-22T11:58:55Z</time>
      </trkpt>
      <trkpt lat="42.87519" lon="0.24709">
        <ele>2567.6</ele>
        <time>2017-02-22T11:59:00Z</time>
      </trkpt>
      <trkpt lat="42.87519" lon="0.24709">
        <ele>2567.6</ele>
        <time>2017-02-22T11:59:05Z</time>
      </trkpt>
      <trkpt lat="42.87519" lon="0.24709">
        <ele>2567.6</ele>
        <time>2017-02-22T11:59:10Z</time>
      </trkpt>
      <trkpt lat="42.87519" lon="0.24709">
        <ele>2567.8</ele>
        <time>2017-02-22T11:59:15Z</time>
      </trkpt>
      <trkpt lat="42.87519" lon="0.24709">
        <ele>2567.8</ele>
        <time>2017-02-22T11:59:20Z</time>
      </trkpt>
      <trkpt lat="42.87519" lon="0.24709">
        <ele>2567.8</ele>
        <time>2017-02-22T11:59:25Z</time>
      </trkpt>
      <trkpt lat="42.87519" lon="0.24709">
        <ele>2567.8</ele>
        <time>2017-02-22T11:59:30Z</time>
      </trkpt>
      <trkpt lat="42.87519" lon="0.24709">
        <ele>2567.8</ele>
        <time>2017-02-22T11:59:35Z</time>
      </trkpt>
      <trkpt lat="42.87519" lon="0.24709">
        <ele>2567.8</ele>
        <time>2017-02-22T11:59:40Z</time>
      </trkpt>
      <trkpt lat="42.87519" lon="0.24709">
        <ele>2567.8</ele>
        <time>2017-02-22T11:59:45Z</time>
      </trkpt>
      <trkpt lat="42.87519" lon="0.24709">
        <ele>2567.8</ele>
        <time>2017-02-22T11:59:50Z</time>
      </trkpt>
      <trkpt lat="42.87519" lon="0.24709">
        <ele>2567.8</ele>
        <time>2017-02-22T11:59:55Z</time>
      </trkpt>
      <trkpt lat="42.87519" lon="0.24709">
        <ele>2567.8</ele>
        <time>2017-02-22T12:00:00Z</time>
      </trkpt>
      <trkpt lat="42.87519" lon="0.24709">
        <ele>2567.8</ele>
        <time>2017-02-22T12:00:05Z</time>
      </trkpt>
      <trkpt lat="42.87519" lon="0.24709">
        <ele>2567.8</ele>
        <time>2017-02-22T12:00:10Z</time>
      </trkpt>
      <trkpt lat="42.87519" lon="0.24709">
        <ele>2567.8</ele>
        <time>2017-02-22T12:00:15Z</time>
      </trkpt>
      <trkpt lat="42.87519" lon="0.24709">
        <ele>2567.8</ele>
        <time>2017-02-22T12:00:20Z</time>
      </trkpt>
      <trkpt lat="42.87519" lon="0.24709">
        <ele>2567.8</ele>
        <time>2017-02-22T12:00:25Z</time>
      </trkpt>
      <trkpt lat="42.87519" lon="0.24709">
        <ele>2567.8</ele>
        <time>2017-02-22T12:00:30Z</time>
      </trkpt>
      <trkpt lat="42.87519" lon="0.24709">
        <ele>2567.8</ele>
        <time>2017-02-22T12:00:35Z</time>
      </trkpt>
      <trkpt lat="42.87519" lon="0.24709">
        <ele>2567.8</ele>
        <time>2017-02-22T12:00:40Z</time>
      </trkpt>
      <trkpt lat="42.87519" lon="0.24709">
        <ele>2567.8</ele>
        <time>2017-02-22T12:00:46Z</time>
      </trkpt>
      <trkpt lat="42.87519" lon="0.24709">
        <ele>2567.8</ele>
        <time>2017-02-22T12:00:51Z</time>
      </trkpt>
      <trkpt lat="42.87519" lon="0.24709">
        <ele>2567.8</ele>
        <time>2017-02-22T12:00:56Z</time>
      </trkpt>
      <trkpt lat="42.87519" lon="0.24709">
        <ele>2567.8</ele>
        <time>2017-02-22T12:01:01Z</time>
      </trkpt>
      <trkpt lat="42.87519" lon="0.24709">
        <ele>2567.8</ele>
        <time>2017-02-22T12:01:06Z</time>
      </trkpt>
      <trkpt lat="42.87519" lon="0.24709">
        <ele>2567.8</ele>
        <time>2017-02-22T12:01:11Z</time>
      </trkpt>
      <trkpt lat="42.87519" lon="0.24709">
        <ele>2567.8</ele>
        <time>2017-02-22T12:01:16Z</time>
      </trkpt>
      <trkpt lat="42.87519" lon="0.24709">
        <ele>2567.8</ele>
        <time>2017-02-22T12:01:21Z</time>
      </trkpt>
      <trkpt lat="42.87519" lon="0.24709">
        <ele>2567.8</ele>
        <time>2017-02-22T12:01:26Z</time>
      </trkpt>
      <trkpt lat="42.87519" lon="0.24709">
        <ele>2567.8</ele>
        <time>2017-02-22T12:01:31Z</time>
      </trkpt>
      <trkpt lat="42.87519" lon="0.24709">
        <ele>2567.8</ele>
        <time>2017-02-22T12:01:36Z</time>
      </trkpt>
      <trkpt lat="42.87519" lon="0.24709">
        <ele>2567.8</ele>
        <time>2017-02-22T12:01:41Z</time>
      </trkpt>
      <trkpt lat="42.87519" lon="0.24709">
        <ele>2567.8</ele>
        <time>2017-02-22T12:01:46Z</time>
      </trkpt>
      <trkpt lat="42.87518" lon="0.24709">
        <ele>2567.8</ele>
        <time>2017-02-22T12:01:51Z</time>
      </trkpt>
      <trkpt lat="42.87518" lon="0.24709">
        <ele>2567.8</ele>
        <time>2017-02-22T12:01:56Z</time>
      </trkpt>
      <trkpt lat="42.87518" lon="0.24709">
        <ele>2567.8</ele>
        <time>2017-02-22T12:02:01Z</time>
      </trkpt>
      <trkpt lat="42.87518" lon="0.24709">
        <ele>2567.8</ele>
        <time>2017-02-22T12:02:06Z</time>
      </trkpt>
      <trkpt lat="42.87518" lon="0.24709">
        <ele>2567.8</ele>
        <time>2017-02-22T12:02:11Z</time>
      </trkpt>
      <trkpt lat="42.87518" lon="0.2471">
        <ele>2567.8</ele>
        <time>2017-02-22T12:02:16Z</time>
      </trkpt>
      <trkpt lat="42.87518" lon="0.2471">
        <ele>2567.8</ele>
        <time>2017-02-22T12:02:21Z</time>
      </trkpt>
      <trkpt lat="42.87518" lon="0.2471">
        <ele>2567.8</ele>
        <time>2017-02-22T12:02:26Z</time>
      </trkpt>
      <trkpt lat="42.87518" lon="0.2471">
        <ele>2567.8</ele>
        <time>2017-02-22T12:02:31Z</time>
      </trkpt>
      <trkpt lat="42.87517" lon="0.24711">
        <ele>2567.8</ele>
        <time>2017-02-22T12:02:36Z</time>
      </trkpt>
      <trkpt lat="42.87517" lon="0.24711">
        <ele>2567.8</ele>
        <time>2017-02-22T12:02:41Z</time>
      </trkpt>
      <trkpt lat="42.87517" lon="0.24711">
        <ele>2567.6</ele>
        <time>2017-02-22T12:02:46Z</time>
      </trkpt>
      <trkpt lat="42.87517" lon="0.24711">
        <ele>2567.6</ele>
        <time>2017-02-22T12:02:51Z</time>
      </trkpt>
      <trkpt lat="42.87517" lon="0.24711">
        <ele>2567.6</ele>
        <time>2017-02-22T12:02:56Z</time>
      </trkpt>
      <trkpt lat="42.87517" lon="0.24711">
        <ele>2567.6</ele>
        <time>2017-02-22T12:03:01Z</time>
      </trkpt>
      <trkpt lat="42.87517" lon="0.24711">
        <ele>2567.6</ele>
        <time>2017-02-22T12:03:06Z</time>
      </trkpt>
      <trkpt lat="42.87517" lon="0.24711">
        <ele>2567.6</ele>
        <time>2017-02-22T12:03:11Z</time>
      </trkpt>
      <trkpt lat="42.87517" lon="0.24711">
        <ele>2567.6</ele>
        <time>2017-02-22T12:03:16Z</time>
      </trkpt>
      <trkpt lat="42.87517" lon="0.24711">
        <ele>2567.6</ele>
        <time>2017-02-22T12:03:21Z</time>
      </trkpt>
      <trkpt lat="42.87517" lon="0.24711">
        <ele>2567.6</ele>
        <time>2017-02-22T12:03:26Z</time>
      </trkpt>
      <trkpt lat="42.87517" lon="0.24711">
        <ele>2567.6</ele>
        <time>2017-02-22T12:03:31Z</time>
      </trkpt>
      <trkpt lat="42.87517" lon="0.24711">
        <ele>2567.6</ele>
        <time>2017-02-22T12:03:36Z</time>
      </trkpt>
      <trkpt lat="42.87517" lon="0.24711">
        <ele>2567.6</ele>
        <time>2017-02-22T12:03:41Z</time>
      </trkpt>
      <trkpt lat="42.87517" lon="0.24711">
        <ele>2567.6</ele>
        <time>2017-02-22T12:03:46Z</time>
      </trkpt>
      <trkpt lat="42.87517" lon="0.24711">
        <ele>2567.6</ele>
        <time>2017-02-22T12:03:51Z</time>
      </trkpt>
      <trkpt lat="42.87517" lon="0.24711">
        <ele>2567.6</ele>
        <time>2017-02-22T12:03:56Z</time>
      </trkpt>
      <trkpt lat="42.87517" lon="0.24711">
        <ele>2567.6</ele>
        <time>2017-02-22T12:04:01Z</time>
      </trkpt>
      <trkpt lat="42.87517" lon="0.24711">
        <ele>2567.6</ele>
        <time>2017-02-22T12:04:06Z</time>
      </trkpt>
      <trkpt lat="42.87517" lon="0.24711">
        <ele>2567.6</ele>
        <time>2017-02-22T12:04:11Z</time>
      </trkpt>
      <trkpt lat="42.87517" lon="0.24711">
        <ele>2567.6</ele>
        <time>2017-02-22T12:04:16Z</time>
      </trkpt>
      <trkpt lat="42.87517" lon="0.24711">
        <ele>2567.6</ele>
        <time>2017-02-22T12:04:21Z</time>
      </trkpt>
      <trkpt lat="42.87517" lon="0.24711">
        <ele>2567.6</ele>
        <time>2017-02-22T12:04:26Z</time>
      </trkpt>
      <trkpt lat="42.87517" lon="0.24711">
        <ele>2567.8</ele>
        <time>2017-02-22T12:04:31Z</time>
      </trkpt>
      <trkpt lat="42.87517" lon="0.24711">
        <ele>2567.8</ele>
        <time>2017-02-22T12:04:36Z</time>
      </trkpt>
      <trkpt lat="42.87517" lon="0.24711">
        <ele>2567.8</ele>
        <time>2017-02-22T12:04:41Z</time>
      </trkpt>
      <trkpt lat="42.87517" lon="0.24711">
        <ele>2567.8</ele>
        <time>2017-02-22T12:04:46Z</time>
      </trkpt>
      <trkpt lat="42.87517" lon="0.24711">
        <ele>2567.8</ele>
        <time>2017-02-22T12:04:51Z</time>
      </trkpt>
      <trkpt lat="42.87517" lon="0.24711">
        <ele>2567.8</ele>
        <time>2017-02-22T12:04:56Z</time>
      </trkpt>
      <trkpt lat="42.87517" lon="0.24711">
        <ele>2567.8</ele>
        <time>2017-02-22T12:05:01Z</time>
      </trkpt>
      <trkpt lat="42.87517" lon="0.24711">
        <ele>2567.8</ele>
        <time>2017-02-22T12:05:06Z</time>
      </trkpt>
      <trkpt lat="42.87517" lon="0.24711">
        <ele>2567.8</ele>
        <time>2017-02-22T12:05:11Z</time>
      </trkpt>
      <trkpt lat="42.87517" lon="0.24711">
        <ele>2567.8</ele>
        <time>2017-02-22T12:05:16Z</time>
      </trkpt>
      <trkpt lat="42.87517" lon="0.24711">
        <ele>2567.8</ele>
        <time>2017-02-22T12:05:21Z</time>
      </trkpt>
      <trkpt lat="42.87517" lon="0.24711">
        <ele>2567.8</ele>
        <time>2017-02-22T12:05:26Z</time>
      </trkpt>
      <trkpt lat="42.87517" lon="0.24711">
        <ele>2567.8</ele>
        <time>2017-02-22T12:05:31Z</time>
      </trkpt>
      <trkpt lat="42.87517" lon="0.24711">
        <ele>2567.8</ele>
        <time>2017-02-22T12:05:36Z</time>
      </trkpt>
      <trkpt lat="42.87517" lon="0.24711">
        <ele>2567.8</ele>
        <time>2017-02-22T12:05:41Z</time>
      </trkpt>
      <trkpt lat="42.87517" lon="0.24711">
        <ele>2567.8</ele>
        <time>2017-02-22T12:05:46Z</time>
      </trkpt>
      <trkpt lat="42.87517" lon="0.24711">
        <ele>2567.8</ele>
        <time>2017-02-22T12:05:51Z</time>
      </trkpt>
      <trkpt lat="42.87517" lon="0.24711">
        <ele>2567.8</ele>
        <time>2017-02-22T12:05:56Z</time>
      </trkpt>
      <trkpt lat="42.87517" lon="0.24711">
        <ele>2567.8</ele>
        <time>2017-02-22T12:06:01Z</time>
      </trkpt>
      <trkpt lat="42.87517" lon="0.24711">
        <ele>2568</ele>
        <time>2017-02-22T12:06:06Z</time>
      </trkpt>
      <trkpt lat="42.87517" lon="0.24711">
        <ele>2568</ele>
        <time>2017-02-22T12:06:11Z</time>
      </trkpt>
      <trkpt lat="42.87517" lon="0.24711">
        <ele>2568</ele>
        <time>2017-02-22T12:06:16Z</time>
      </trkpt>
      <trkpt lat="42.87517" lon="0.24711">
        <ele>2568</ele>
        <time>2017-02-22T12:06:21Z</time>
      </trkpt>
      <trkpt lat="42.87517" lon="0.24711">
        <ele>2568</ele>
        <time>2017-02-22T12:06:26Z</time>
      </trkpt>
      <trkpt lat="42.87517" lon="0.24711">
        <ele>2568</ele>
        <time>2017-02-22T12:06:31Z</time>
      </trkpt>
      <trkpt lat="42.87517" lon="0.24711">
        <ele>2568</ele>
        <time>2017-02-22T12:06:36Z</time>
      </trkpt>
      <trkpt lat="42.87517" lon="0.24711">
        <ele>2568</ele>
        <time>2017-02-22T12:06:41Z</time>
      </trkpt>
      <trkpt lat="42.87517" lon="0.24711">
        <ele>2568</ele>
        <time>2017-02-22T12:06:46Z</time>
      </trkpt>
      <trkpt lat="42.87517" lon="0.24711">
        <ele>2568</ele>
        <time>2017-02-22T12:06:51Z</time>
      </trkpt>
      <trkpt lat="42.87517" lon="0.24711">
        <ele>2568</ele>
        <time>2017-02-22T12:06:56Z</time>
      </trkpt>
      <trkpt lat="42.87517" lon="0.24711">
        <ele>2568</ele>
        <time>2017-02-22T12:07:01Z</time>
      </trkpt>
      <trkpt lat="42.87517" lon="0.24711">
        <ele>2568</ele>
        <time>2017-02-22T12:07:06Z</time>
      </trkpt>
      <trkpt lat="42.87517" lon="0.24711">
        <ele>2568</ele>
        <time>2017-02-22T12:07:11Z</time>
      </trkpt>
      <trkpt lat="42.87517" lon="0.24711">
        <ele>2568</ele>
        <time>2017-02-22T12:07:16Z</time>
      </trkpt>
      <trkpt lat="42.87517" lon="0.24711">
        <ele>2568</ele>
        <time>2017-02-22T12:07:21Z</time>
      </trkpt>
      <trkpt lat="42.87517" lon="0.24711">
        <ele>2568</ele>
        <time>2017-02-22T12:07:26Z</time>
      </trkpt>
      <trkpt lat="42.87517" lon="0.24711">
        <ele>2568</ele>
        <time>2017-02-22T12:07:31Z</time>
      </trkpt>
      <trkpt lat="42.87517" lon="0.24711">
        <ele>2568</ele>
        <time>2017-02-22T12:07:36Z</time>
      </trkpt>
      <trkpt lat="42.87517" lon="0.24711">
        <ele>2568</ele>
        <time>2017-02-22T12:07:41Z</time>
      </trkpt>
      <trkpt lat="42.87517" lon="0.24711">
        <ele>2568</ele>
        <time>2017-02-22T12:07:46Z</time>
      </trkpt>
      <trkpt lat="42.87517" lon="0.24711">
        <ele>2568</ele>
        <time>2017-02-22T12:07:51Z</time>
      </trkpt>
      <trkpt lat="42.87517" lon="0.24712">
        <ele>2568</ele>
        <time>2017-02-22T12:07:56Z</time>
      </trkpt>
      <trkpt lat="42.87517" lon="0.24712">
        <ele>2568</ele>
        <time>2017-02-22T12:08:01Z</time>
      </trkpt>
      <trkpt lat="42.87517" lon="0.24712">
        <ele>2568</ele>
        <time>2017-02-22T12:08:06Z</time>
      </trkpt>
      <trkpt lat="42.87517" lon="0.24712">
        <ele>2568</ele>
        <time>2017-02-22T12:08:11Z</time>
      </trkpt>
      <trkpt lat="42.87517" lon="0.24712">
        <ele>2568</ele>
        <time>2017-02-22T12:08:16Z</time>
      </trkpt>
      <trkpt lat="42.87518" lon="0.24711">
        <ele>2567.8</ele>
        <time>2017-02-22T12:08:22Z</time>
      </trkpt>
      <trkpt lat="42.87518" lon="0.24711">
        <ele>2567.8</ele>
        <time>2017-02-22T12:08:27Z</time>
      </trkpt>
      <trkpt lat="42.87518" lon="0.24711">
        <ele>2567.8</ele>
        <time>2017-02-22T12:08:32Z</time>
      </trkpt>
      <trkpt lat="42.87518" lon="0.24711">
        <ele>2567.8</ele>
        <time>2017-02-22T12:08:37Z</time>
      </trkpt>
      <trkpt lat="42.87518" lon="0.24711">
        <ele>2567.8</ele>
        <time>2017-02-22T12:08:42Z</time>
      </trkpt>
      <trkpt lat="42.87518" lon="0.24711">
        <ele>2567.8</ele>
        <time>2017-02-22T12:08:47Z</time>
      </trkpt>
      <trkpt lat="42.87518" lon="0.24711">
        <ele>2567.8</ele>
        <time>2017-02-22T12:08:52Z</time>
      </trkpt>
      <trkpt lat="42.87518" lon="0.24711">
        <ele>2567.8</ele>
        <time>2017-02-22T12:08:57Z</time>
      </trkpt>
      <trkpt lat="42.87518" lon="0.24711">
        <ele>2567.8</ele>
        <time>2017-02-22T12:09:02Z</time>
      </trkpt>
      <trkpt lat="42.87518" lon="0.24711">
        <ele>2567.8</ele>
        <time>2017-02-22T12:09:07Z</time>
      </trkpt>
      <trkpt lat="42.87518" lon="0.24711">
        <ele>2567.8</ele>
        <time>2017-02-22T12:09:12Z</time>
      </trkpt>
      <trkpt lat="42.87518" lon="0.24711">
        <ele>2567.8</ele>
        <time>2017-02-22T12:09:17Z</time>
      </trkpt>
      <trkpt lat="42.87518" lon="0.24711">
        <ele>2567.8</ele>
        <time>2017-02-22T12:09:22Z</time>
      </trkpt>
      <trkpt lat="42.87518" lon="0.24711">
        <ele>2567.8</ele>
        <time>2017-02-22T12:09:27Z</time>
      </trkpt>
      <trkpt lat="42.87518" lon="0.24711">
        <ele>2567.8</ele>
        <time>2017-02-22T12:09:32Z</time>
      </trkpt>
      <trkpt lat="42.87518" lon="0.24711">
        <ele>2567.8</ele>
        <time>2017-02-22T12:09:37Z</time>
      </trkpt>
      <trkpt lat="42.87519" lon="0.24709">
        <ele>2567.8</ele>
        <time>2017-02-22T12:09:42Z</time>
      </trkpt>
      <trkpt lat="42.87519" lon="0.24709">
        <ele>2567.8</ele>
        <time>2017-02-22T12:09:47Z</time>
      </trkpt>
      <trkpt lat="42.8752" lon="0.24709">
        <ele>2568</ele>
        <time>2017-02-22T12:09:52Z</time>
      </trkpt>
      <trkpt lat="42.8752" lon="0.24709">
        <ele>2568.2</ele>
        <time>2017-02-22T12:09:57Z</time>
      </trkpt>
      <trkpt lat="42.8752" lon="0.24709">
        <ele>2568.4</ele>
        <time>2017-02-22T12:10:02Z</time>
      </trkpt>
      <trkpt lat="42.8752" lon="0.24708">
        <ele>2568.8</ele>
        <time>2017-02-22T12:10:07Z</time>
      </trkpt>
      <trkpt lat="42.8752" lon="0.24708">
        <ele>2568.8</ele>
        <time>2017-02-22T12:10:12Z</time>
      </trkpt>
      <trkpt lat="42.8752" lon="0.24708">
        <ele>2569</ele>
        <time>2017-02-22T12:10:17Z</time>
      </trkpt>
      <trkpt lat="42.8752" lon="0.24708">
        <ele>2569.2</ele>
        <time>2017-02-22T12:10:22Z</time>
      </trkpt>
      <trkpt lat="42.8752" lon="0.24709">
        <ele>2569.2</ele>
        <time>2017-02-22T12:10:27Z</time>
      </trkpt>
      <trkpt lat="42.8752" lon="0.24709">
        <ele>2569.4</ele>
        <time>2017-02-22T12:10:32Z</time>
      </trkpt>
      <trkpt lat="42.8752" lon="0.24709">
        <ele>2569.4</ele>
        <time>2017-02-22T12:10:37Z</time>
      </trkpt>
      <trkpt lat="42.87519" lon="0.24709">
        <ele>2571.4</ele>
        <time>2017-02-22T12:10:42Z</time>
      </trkpt>
      <trkpt lat="42.87519" lon="0.24708">
        <ele>2570.8</ele>
        <time>2017-02-22T12:10:47Z</time>
      </trkpt>
      <trkpt lat="42.87519" lon="0.24708">
        <ele>2570.4</ele>
        <time>2017-02-22T12:10:52Z</time>
      </trkpt>
      <trkpt lat="42.87519" lon="0.24708">
        <ele>2570.2</ele>
        <time>2017-02-22T12:10:57Z</time>
      </trkpt>
      <trkpt lat="42.87519" lon="0.24708">
        <ele>2570</ele>
        <time>2017-02-22T12:11:02Z</time>
      </trkpt>
      <trkpt lat="42.87519" lon="0.24708">
        <ele>2569.8</ele>
        <time>2017-02-22T12:11:07Z</time>
      </trkpt>
      <trkpt lat="42.87519" lon="0.24708">
        <ele>2569.8</ele>
        <time>2017-02-22T12:11:12Z</time>
      </trkpt>
      <trkpt lat="42.87519" lon="0.24708">
        <ele>2569.8</ele>
        <time>2017-02-22T12:11:17Z</time>
      </trkpt>
      <trkpt lat="42.87518" lon="0.24708">
        <ele>2569.8</ele>
        <time>2017-02-22T12:11:22Z</time>
      </trkpt>
      <trkpt lat="42.87518" lon="0.24708">
        <ele>2569.8</ele>
        <time>2017-02-22T12:11:28Z</time>
      </trkpt>
      <trkpt lat="42.87518" lon="0.24708">
        <ele>2569.8</ele>
        <time>2017-02-22T12:11:33Z</time>
      </trkpt>
      <trkpt lat="42.87518" lon="0.24708">
        <ele>2569.8</ele>
        <time>2017-02-22T12:11:38Z</time>
      </trkpt>
      <trkpt lat="42.87518" lon="0.24708">
        <ele>2569.8</ele>
        <time>2017-02-22T12:11:43Z</time>
      </trkpt>
      <trkpt lat="42.87518" lon="0.24708">
        <ele>2569.8</ele>
        <time>2017-02-22T12:11:48Z</time>
      </trkpt>
      <trkpt lat="42.87518" lon="0.24708">
        <ele>2569.8</ele>
        <time>2017-02-22T12:11:53Z</time>
      </trkpt>
      <trkpt lat="42.87518" lon="0.24708">
        <ele>2569.8</ele>
        <time>2017-02-22T12:11:58Z</time>
      </trkpt>
      <trkpt lat="42.87518" lon="0.24708">
        <ele>2569.8</ele>
        <time>2017-02-22T12:12:03Z</time>
      </trkpt>
      <trkpt lat="42.87518" lon="0.24708">
        <ele>2569.8</ele>
        <time>2017-02-22T12:12:08Z</time>
      </trkpt>
      <trkpt lat="42.87518" lon="0.24708">
        <ele>2569.8</ele>
        <time>2017-02-22T12:12:13Z</time>
      </trkpt>
      <trkpt lat="42.87518" lon="0.24708">
        <ele>2569.8</ele>
        <time>2017-02-22T12:12:18Z</time>
      </trkpt>
      <trkpt lat="42.87518" lon="0.24708">
        <ele>2569.8</ele>
        <time>2017-02-22T12:12:23Z</time>
      </trkpt>
      <trkpt lat="42.87518" lon="0.24708">
        <ele>2569.8</ele>
        <time>2017-02-22T12:12:28Z</time>
      </trkpt>
      <trkpt lat="42.87518" lon="0.24708">
        <ele>2569.8</ele>
        <time>2017-02-22T12:12:33Z</time>
      </trkpt>
      <trkpt lat="42.87518" lon="0.24708">
        <ele>2569.8</ele>
        <time>2017-02-22T12:12:38Z</time>
      </trkpt>
      <trkpt lat="42.87518" lon="0.24708">
        <ele>2569.8</ele>
        <time>2017-02-22T12:12:43Z</time>
      </trkpt>
      <trkpt lat="42.87518" lon="0.24708">
        <ele>2569.8</ele>
        <time>2017-02-22T12:12:48Z</time>
      </trkpt>
      <trkpt lat="42.87518" lon="0.24708">
        <ele>2569.8</ele>
        <time>2017-02-22T12:12:53Z</time>
      </trkpt>
      <trkpt lat="42.87518" lon="0.24708">
        <ele>2569.8</ele>
        <time>2017-02-22T12:12:58Z</time>
      </trkpt>
      <trkpt lat="42.87518" lon="0.24709">
        <ele>2570</ele>
        <time>2017-02-22T12:13:03Z</time>
      </trkpt>
      <trkpt lat="42.87517" lon="0.24709">
        <ele>2570</ele>
        <time>2017-02-22T12:13:08Z</time>
      </trkpt>
      <trkpt lat="42.87517" lon="0.24709">
        <ele>2570</ele>
        <time>2017-02-22T12:13:13Z</time>
      </trkpt>
      <trkpt lat="42.87517" lon="0.24709">
        <ele>2570</ele>
        <time>2017-02-22T12:13:18Z</time>
      </trkpt>
      <trkpt lat="42.87517" lon="0.24709">
        <ele>2570</ele>
        <time>2017-02-22T12:13:23Z</time>
      </trkpt>
      <trkpt lat="42.87517" lon="0.24709">
        <ele>2570</ele>
        <time>2017-02-22T12:13:28Z</time>
      </trkpt>
      <trkpt lat="42.87517" lon="0.24709">
        <ele>2570</ele>
        <time>2017-02-22T12:13:33Z</time>
      </trkpt>
      <trkpt lat="42.87518" lon="0.2471">
        <ele>2569.8</ele>
        <time>2017-02-22T12:13:38Z</time>
      </trkpt>
      <trkpt lat="42.87518" lon="0.2471">
        <ele>2569.8</ele>
        <time>2017-02-22T12:13:43Z</time>
      </trkpt>
      <trkpt lat="42.87518" lon="0.24711">
        <ele>2570</ele>
        <time>2017-02-22T12:13:48Z</time>
      </trkpt>
      <trkpt lat="42.87519" lon="0.24711">
        <ele>2569.6</ele>
        <time>2017-02-22T12:13:53Z</time>
      </trkpt>
      <trkpt lat="42.87518" lon="0.24711">
        <ele>2569.4</ele>
        <time>2017-02-22T12:13:58Z</time>
      </trkpt>
      <trkpt lat="42.87518" lon="0.24711">
        <ele>2569.2</ele>
        <time>2017-02-22T12:14:03Z</time>
      </trkpt>
      <trkpt lat="42.87518" lon="0.24711">
        <ele>2569.2</ele>
        <time>2017-02-22T12:14:08Z</time>
      </trkpt>
      <trkpt lat="42.87519" lon="0.24709">
        <ele>2569</ele>
        <time>2017-02-22T12:14:13Z</time>
      </trkpt>
      <trkpt lat="42.87519" lon="0.24709">
        <ele>2569.2</ele>
        <time>2017-02-22T12:14:18Z</time>
      </trkpt>
      <trkpt lat="42.87519" lon="0.24709">
        <ele>2569.6</ele>
        <time>2017-02-22T12:14:23Z</time>
      </trkpt>
      <trkpt lat="42.87519" lon="0.24709">
        <ele>2569.8</ele>
        <time>2017-02-22T12:14:28Z</time>
      </trkpt>
      <trkpt lat="42.87519" lon="0.24709">
        <ele>2570</ele>
        <time>2017-02-22T12:14:33Z</time>
      </trkpt>
      <trkpt lat="42.8752" lon="0.24709">
        <ele>2570</ele>
        <time>2017-02-22T12:14:38Z</time>
      </trkpt>
      <trkpt lat="42.8752" lon="0.24709">
        <ele>2570</ele>
        <time>2017-02-22T12:14:43Z</time>
      </trkpt>
      <trkpt lat="42.8752" lon="0.24709">
        <ele>2570.2</ele>
        <time>2017-02-22T12:14:48Z</time>
      </trkpt>
      <trkpt lat="42.8752" lon="0.24709">
        <ele>2570.2</ele>
        <time>2017-02-22T12:14:53Z</time>
      </trkpt>
      <trkpt lat="42.8752" lon="0.24709">
        <ele>2570.2</ele>
        <time>2017-02-22T12:14:59Z</time>
      </trkpt>
      <trkpt lat="42.8752" lon="0.2471">
        <ele>2570.4</ele>
        <time>2017-02-22T12:15:04Z</time>
      </trkpt>
      <trkpt lat="42.87519" lon="0.2471">
        <ele>2570.4</ele>
        <time>2017-02-22T12:15:09Z</time>
      </trkpt>
      <trkpt lat="42.8752" lon="0.2471">
        <ele>2570.4</ele>
        <time>2017-02-22T12:15:14Z</time>
      </trkpt>
      <trkpt lat="42.87519" lon="0.24711">
        <ele>2570.6</ele>
        <time>2017-02-22T12:15:19Z</time>
      </trkpt>
      <trkpt lat="42.87519" lon="0.24711">
        <ele>2570.6</ele>
        <time>2017-02-22T12:15:24Z</time>
      </trkpt>
      <trkpt lat="42.87519" lon="0.24711">
        <ele>2570.6</ele>
        <time>2017-02-22T12:15:29Z</time>
      </trkpt>
      <trkpt lat="42.87519" lon="0.24711">
        <ele>2570.6</ele>
        <time>2017-02-22T12:15:34Z</time>
      </trkpt>
      <trkpt lat="42.87519" lon="0.24711">
        <ele>2570.6</ele>
        <time>2017-02-22T12:15:39Z</time>
      </trkpt>
      <trkpt lat="42.87519" lon="0.2471">
        <ele>2570.6</ele>
        <time>2017-02-22T12:15:44Z</time>
      </trkpt>
      <trkpt lat="42.87519" lon="0.2471">
        <ele>2570.6</ele>
        <time>2017-02-22T12:15:49Z</time>
      </trkpt>
      <trkpt lat="42.87518" lon="0.2471">
        <ele>2570.8</ele>
        <time>2017-02-22T12:15:54Z</time>
      </trkpt>
      <trkpt lat="42.87517" lon="0.2471">
        <ele>2571</ele>
        <time>2017-02-22T12:15:59Z</time>
      </trkpt>
      <trkpt lat="42.87517" lon="0.2471">
        <ele>2571</ele>
        <time>2017-02-22T12:16:04Z</time>
      </trkpt>
      <trkpt lat="42.87517" lon="0.2471">
        <ele>2572.2</ele>
        <time>2017-02-22T12:16:09Z</time>
      </trkpt>
      <trkpt lat="42.87517" lon="0.2471">
        <ele>2572</ele>
        <time>2017-02-22T12:16:14Z</time>
      </trkpt>
      <trkpt lat="42.87517" lon="0.2471">
        <ele>2571.8</ele>
        <time>2017-02-22T12:16:19Z</time>
      </trkpt>
      <trkpt lat="42.87517" lon="0.2471">
        <ele>2571.6</ele>
        <time>2017-02-22T12:16:24Z</time>
      </trkpt>
      <trkpt lat="42.87517" lon="0.2471">
        <ele>2571.6</ele>
        <time>2017-02-22T12:16:29Z</time>
      </trkpt>
      <trkpt lat="42.87517" lon="0.2471">
        <ele>2571.6</ele>
        <time>2017-02-22T12:16:34Z</time>
      </trkpt>
      <trkpt lat="42.87517" lon="0.24711">
        <ele>2571.4</ele>
        <time>2017-02-22T12:16:39Z</time>
      </trkpt>
      <trkpt lat="42.87517" lon="0.24711">
        <ele>2571.4</ele>
        <time>2017-02-22T12:16:44Z</time>
      </trkpt>
      <trkpt lat="42.87517" lon="0.24711">
        <ele>2571.2</ele>
        <time>2017-02-22T12:16:49Z</time>
      </trkpt>
      <trkpt lat="42.87517" lon="0.24711">
        <ele>2571.2</ele>
        <time>2017-02-22T12:16:54Z</time>
      </trkpt>
      <trkpt lat="42.87517" lon="0.24711">
        <ele>2571.4</ele>
        <time>2017-02-22T12:16:59Z</time>
      </trkpt>
      <trkpt lat="42.87517" lon="0.24711">
        <ele>2571.4</ele>
        <time>2017-02-22T12:17:04Z</time>
      </trkpt>
      <trkpt lat="42.87517" lon="0.24711">
        <ele>2571.4</ele>
        <time>2017-02-22T12:17:09Z</time>
      </trkpt>
      <trkpt lat="42.87517" lon="0.24711">
        <ele>2571.4</ele>
        <time>2017-02-22T12:17:14Z</time>
      </trkpt>
      <trkpt lat="42.87518" lon="0.24711">
        <ele>2571.6</ele>
        <time>2017-02-22T12:17:19Z</time>
      </trkpt>
      <trkpt lat="42.8752" lon="0.24713">
        <ele>2571</ele>
        <time>2017-02-22T12:17:24Z</time>
      </trkpt>
      <trkpt lat="42.87525" lon="0.24721">
        <ele>2571.4</ele>
        <time>2017-02-22T12:17:29Z</time>
      </trkpt>
      <trkpt lat="42.8753" lon="0.24741">
        <ele>2567.8</ele>
        <time>2017-02-22T12:17:34Z</time>
      </trkpt>
      <trkpt lat="42.8753" lon="0.24746">
        <ele>2568</ele>
        <time>2017-02-22T12:17:39Z</time>
      </trkpt>
      <trkpt lat="42.87528" lon="0.24748">
        <ele>2564.2</ele>
        <time>2017-02-22T12:17:44Z</time>
      </trkpt>
      <trkpt lat="42.87524" lon="0.24743">
        <ele>2565.6</ele>
        <time>2017-02-22T12:17:49Z</time>
      </trkpt>
      <trkpt lat="42.87524" lon="0.24743">
        <ele>2566.2</ele>
        <time>2017-02-22T12:17:54Z</time>
      </trkpt>
      <trkpt lat="42.87524" lon="0.24743">
        <ele>2566.6</ele>
        <time>2017-02-22T12:17:59Z</time>
      </trkpt>
      <trkpt lat="42.87521" lon="0.24741">
        <ele>2564.8</ele>
        <time>2017-02-22T12:18:04Z</time>
      </trkpt>
      <trkpt lat="42.87509" lon="0.24736">
        <ele>2563</ele>
        <time>2017-02-22T12:18:09Z</time>
      </trkpt>
      <trkpt lat="42.87509" lon="0.24757">
        <ele>2559</ele>
        <time>2017-02-22T12:18:14Z</time>
      </trkpt>
      <trkpt lat="42.87508" lon="0.24757">
        <ele>2559.2</ele>
        <time>2017-02-22T12:18:19Z</time>
      </trkpt>
      <trkpt lat="42.87508" lon="0.24757">
        <ele>2560.2</ele>
        <time>2017-02-22T12:18:24Z</time>
      </trkpt>
      <trkpt lat="42.87508" lon="0.24756">
        <ele>2561.6</ele>
        <time>2017-02-22T12:18:30Z</time>
      </trkpt>
      <trkpt lat="42.87508" lon="0.24756">
        <ele>2562</ele>
        <time>2017-02-22T12:18:35Z</time>
      </trkpt>
      <trkpt lat="42.87507" lon="0.24754">
        <ele>2562.2</ele>
        <time>2017-02-22T12:18:40Z</time>
      </trkpt>
      <trkpt lat="42.87507" lon="0.24754">
        <ele>2562.8</ele>
        <time>2017-02-22T12:18:45Z</time>
      </trkpt>
      <trkpt lat="42.87507" lon="0.24754">
        <ele>2562.6</ele>
        <time>2017-02-22T12:18:50Z</time>
      </trkpt>
      <trkpt lat="42.87507" lon="0.24753">
        <ele>2562.6</ele>
        <time>2017-02-22T12:18:55Z</time>
      </trkpt>
      <trkpt lat="42.87506" lon="0.24752">
        <ele>2562</ele>
        <time>2017-02-22T12:19:00Z</time>
      </trkpt>
      <trkpt lat="42.87506" lon="0.24752">
        <ele>2561.8</ele>
        <time>2017-02-22T12:19:05Z</time>
      </trkpt>
      <trkpt lat="42.87506" lon="0.24752">
        <ele>2561.6</ele>
        <time>2017-02-22T12:19:10Z</time>
      </trkpt>
      <trkpt lat="42.87506" lon="0.24752">
        <ele>2561.4</ele>
        <time>2017-02-22T12:19:15Z</time>
      </trkpt>
      <trkpt lat="42.87506" lon="0.24751">
        <ele>2561.2</ele>
        <time>2017-02-22T12:19:20Z</time>
      </trkpt>
      <trkpt lat="42.87506" lon="0.24751">
        <ele>2560.8</ele>
        <time>2017-02-22T12:19:25Z</time>
      </trkpt>
      <trkpt lat="42.87506" lon="0.24751">
        <ele>2560.4</ele>
        <time>2017-02-22T12:19:30Z</time>
      </trkpt>
      <trkpt lat="42.87504" lon="0.24751">
        <ele>2560.6</ele>
        <time>2017-02-22T12:19:35Z</time>
      </trkpt>
      <trkpt lat="42.87496" lon="0.24747">
        <ele>2558.2</ele>
        <time>2017-02-22T12:19:40Z</time>
      </trkpt>
      <trkpt lat="42.87484" lon="0.24742">
        <ele>2555.4</ele>
        <time>2017-02-22T12:19:45Z</time>
      </trkpt>
      <trkpt lat="42.87481" lon="0.24746">
        <ele>2553.6</ele>
        <time>2017-02-22T12:19:50Z</time>
      </trkpt>
      <trkpt lat="42.87489" lon="0.24759">
        <ele>2548.4</ele>
        <time>2017-02-22T12:19:55Z</time>
      </trkpt>
      <trkpt lat="42.8748" lon="0.24763">
        <ele>2546.8</ele>
        <time>2017-02-22T12:20:00Z</time>
      </trkpt>
      <trkpt lat="42.87463" lon="0.24754">
        <ele>2543</ele>
        <time>2017-02-22T12:20:05Z</time>
      </trkpt>
      <trkpt lat="42.87442" lon="0.24746">
        <ele>2541.6</ele>
        <time>2017-02-22T12:20:10Z</time>
      </trkpt>
      <trkpt lat="42.87439" lon="0.24745">
        <ele>2539</ele>
        <time>2017-02-22T12:20:15Z</time>
      </trkpt>
      <trkpt lat="42.87437" lon="0.2475">
        <ele>2534.6</ele>
        <time>2017-02-22T12:20:20Z</time>
      </trkpt>
      <trkpt lat="42.87438" lon="0.24764">
        <ele>2532.8</ele>
        <time>2017-02-22T12:20:25Z</time>
      </trkpt>
      <trkpt lat="42.87427" lon="0.24776">
        <ele>2527</ele>
        <time>2017-02-22T12:20:30Z</time>
      </trkpt>
      <trkpt lat="42.87423" lon="0.24792">
        <ele>2516.8</ele>
        <time>2017-02-22T12:20:35Z</time>
      </trkpt>
      <trkpt lat="42.87422" lon="0.24796">
        <ele>2519</ele>
        <time>2017-02-22T12:20:40Z</time>
      </trkpt>
      <trkpt lat="42.87422" lon="0.24795">
        <ele>2518.2</ele>
        <time>2017-02-22T12:20:45Z</time>
      </trkpt>
      <trkpt lat="42.87405" lon="0.24797">
        <ele>2513</ele>
        <time>2017-02-22T12:20:50Z</time>
      </trkpt>
      <trkpt lat="42.87392" lon="0.24811">
        <ele>2506.8</ele>
        <time>2017-02-22T12:20:55Z</time>
      </trkpt>
      <trkpt lat="42.87393" lon="0.24844">
        <ele>2496.6</ele>
        <time>2017-02-22T12:21:00Z</time>
      </trkpt>
      <trkpt lat="42.87399" lon="0.24862">
        <ele>2500.2</ele>
        <time>2017-02-22T12:21:05Z</time>
      </trkpt>
      <trkpt lat="42.87399" lon="0.24862">
        <ele>2502.2</ele>
        <time>2017-02-22T12:21:10Z</time>
      </trkpt>
      <trkpt lat="42.87399" lon="0.24862">
        <ele>2503.2</ele>
        <time>2017-02-22T12:21:15Z</time>
      </trkpt>
      <trkpt lat="42.87399" lon="0.24862">
        <ele>2503.8</ele>
        <time>2017-02-22T12:21:20Z</time>
      </trkpt>
      <trkpt lat="42.87399" lon="0.24862">
        <ele>2504.4</ele>
        <time>2017-02-22T12:21:25Z</time>
      </trkpt>
      <trkpt lat="42.87399" lon="0.24861">
        <ele>2504.6</ele>
        <time>2017-02-22T12:21:30Z</time>
      </trkpt>
      <trkpt lat="42.87399" lon="0.24861">
        <ele>2504.8</ele>
        <time>2017-02-22T12:21:35Z</time>
      </trkpt>
      <trkpt lat="42.874" lon="0.24861">
        <ele>2504.6</ele>
        <time>2017-02-22T12:21:40Z</time>
      </trkpt>
      <trkpt lat="42.87398" lon="0.24861">
        <ele>2503.4</ele>
        <time>2017-02-22T12:21:45Z</time>
      </trkpt>
      <trkpt lat="42.87398" lon="0.24861">
        <ele>2503.4</ele>
        <time>2017-02-22T12:21:50Z</time>
      </trkpt>
      <trkpt lat="42.87398" lon="0.24862">
        <ele>2502.4</ele>
        <time>2017-02-22T12:21:55Z</time>
      </trkpt>
      <trkpt lat="42.87396" lon="0.24861">
        <ele>2501.6</ele>
        <time>2017-02-22T12:22:00Z</time>
      </trkpt>
      <trkpt lat="42.87395" lon="0.2486">
        <ele>2499.2</ele>
        <time>2017-02-22T12:22:06Z</time>
      </trkpt>
      <trkpt lat="42.87395" lon="0.2486">
        <ele>2498.6</ele>
        <time>2017-02-22T12:22:11Z</time>
      </trkpt>
      <trkpt lat="42.87395" lon="0.2486">
        <ele>2498</ele>
        <time>2017-02-22T12:22:16Z</time>
      </trkpt>
      <trkpt lat="42.87395" lon="0.2486">
        <ele>2497.6</ele>
        <time>2017-02-22T12:22:21Z</time>
      </trkpt>
      <trkpt lat="42.87395" lon="0.2486">
        <ele>2497.4</ele>
        <time>2017-02-22T12:22:26Z</time>
      </trkpt>
      <trkpt lat="42.87395" lon="0.2486">
        <ele>2497.2</ele>
        <time>2017-02-22T12:22:31Z</time>
      </trkpt>
      <trkpt lat="42.87395" lon="0.2486">
        <ele>2497</ele>
        <time>2017-02-22T12:22:36Z</time>
      </trkpt>
      <trkpt lat="42.87395" lon="0.2486">
        <ele>2497</ele>
        <time>2017-02-22T12:22:41Z</time>
      </trkpt>
      <trkpt lat="42.87395" lon="0.2486">
        <ele>2496.8</ele>
        <time>2017-02-22T12:22:46Z</time>
      </trkpt>
      <trkpt lat="42.87395" lon="0.2486">
        <ele>2496.8</ele>
        <time>2017-02-22T12:22:51Z</time>
      </trkpt>
      <trkpt lat="42.87396" lon="0.24862">
        <ele>2496.6</ele>
        <time>2017-02-22T12:22:56Z</time>
      </trkpt>
      <trkpt lat="42.87397" lon="0.24867">
        <ele>2495.8</ele>
        <time>2017-02-22T12:23:01Z</time>
      </trkpt>
      <trkpt lat="42.87398" lon="0.24895">
        <ele>2492.4</ele>
        <time>2017-02-22T12:23:06Z</time>
      </trkpt>
      <trkpt lat="42.87384" lon="0.24904">
        <ele>2484.2</ele>
        <time>2017-02-22T12:23:11Z</time>
      </trkpt>
      <trkpt lat="42.87384" lon="0.24903">
        <ele>2484.2</ele>
        <time>2017-02-22T12:23:16Z</time>
      </trkpt>
      <trkpt lat="42.87383" lon="0.249">
        <ele>2483.6</ele>
        <time>2017-02-22T12:23:21Z</time>
      </trkpt>
      <trkpt lat="42.87383" lon="0.24899">
        <ele>2483</ele>
        <time>2017-02-22T12:23:26Z</time>
      </trkpt>
      <trkpt lat="42.87383" lon="0.24899">
        <ele>2482.4</ele>
        <time>2017-02-22T12:23:31Z</time>
      </trkpt>
      <trkpt lat="42.8738" lon="0.24902">
        <ele>2480.4</ele>
        <time>2017-02-22T12:23:36Z</time>
      </trkpt>
      <trkpt lat="42.87367" lon="0.24902">
        <ele>2473</ele>
        <time>2017-02-22T12:23:41Z</time>
      </trkpt>
      <trkpt lat="42.87352" lon="0.24909">
        <ele>2463.4</ele>
        <time>2017-02-22T12:23:46Z</time>
      </trkpt>
      <trkpt lat="42.87333" lon="0.24912">
        <ele>2455</ele>
        <time>2017-02-22T12:23:51Z</time>
      </trkpt>
      <trkpt lat="42.87309" lon="0.24923">
        <ele>2447.6</ele>
        <time>2017-02-22T12:23:56Z</time>
      </trkpt>
      <trkpt lat="42.87288" lon="0.24946">
        <ele>2438.2</ele>
        <time>2017-02-22T12:24:01Z</time>
      </trkpt>
      <trkpt lat="42.87266" lon="0.24955">
        <ele>2433.6</ele>
        <time>2017-02-22T12:24:06Z</time>
      </trkpt>
      <trkpt lat="42.87262" lon="0.24978">
        <ele>2424</ele>
        <time>2017-02-22T12:24:11Z</time>
      </trkpt>
      <trkpt lat="42.87253" lon="0.25009">
        <ele>2425.4</ele>
        <time>2017-02-22T12:24:16Z</time>
      </trkpt>
      <trkpt lat="42.87256" lon="0.25004">
        <ele>2428.6</ele>
        <time>2017-02-22T12:24:21Z</time>
      </trkpt>
      <trkpt lat="42.87256" lon="0.25004">
        <ele>2431</ele>
        <time>2017-02-22T12:24:26Z</time>
      </trkpt>
      <trkpt lat="42.87256" lon="0.25003">
        <ele>2432</ele>
        <time>2017-02-22T12:24:31Z</time>
      </trkpt>
      <trkpt lat="42.87256" lon="0.24999">
        <ele>2431.4</ele>
        <time>2017-02-22T12:24:36Z</time>
      </trkpt>
      <trkpt lat="42.87257" lon="0.24997">
        <ele>2430.2</ele>
        <time>2017-02-22T12:24:41Z</time>
      </trkpt>
      <trkpt lat="42.87257" lon="0.24997">
        <ele>2429</ele>
        <time>2017-02-22T12:24:46Z</time>
      </trkpt>
      <trkpt lat="42.87255" lon="0.24996">
        <ele>2427</ele>
        <time>2017-02-22T12:24:51Z</time>
      </trkpt>
      <trkpt lat="42.87255" lon="0.24996">
        <ele>2425.6</ele>
        <time>2017-02-22T12:24:56Z</time>
      </trkpt>
      <trkpt lat="42.87255" lon="0.24996">
        <ele>2424.6</ele>
        <time>2017-02-22T12:25:01Z</time>
      </trkpt>
      <trkpt lat="42.87255" lon="0.24995">
        <ele>2424</ele>
        <time>2017-02-22T12:25:06Z</time>
      </trkpt>
      <trkpt lat="42.87255" lon="0.24995">
        <ele>2423.4</ele>
        <time>2017-02-22T12:25:11Z</time>
      </trkpt>
      <trkpt lat="42.87255" lon="0.24995">
        <ele>2423.4</ele>
        <time>2017-02-22T12:25:16Z</time>
      </trkpt>
      <trkpt lat="42.87255" lon="0.24995">
        <ele>2422.8</ele>
        <time>2017-02-22T12:25:21Z</time>
      </trkpt>
      <trkpt lat="42.87255" lon="0.24994">
        <ele>2422.4</ele>
        <time>2017-02-22T12:25:26Z</time>
      </trkpt>
      <trkpt lat="42.87255" lon="0.24994">
        <ele>2421.6</ele>
        <time>2017-02-22T12:25:31Z</time>
      </trkpt>
      <trkpt lat="42.87255" lon="0.24994">
        <ele>2421.2</ele>
        <time>2017-02-22T12:25:36Z</time>
      </trkpt>
      <trkpt lat="42.87255" lon="0.24994">
        <ele>2420.8</ele>
        <time>2017-02-22T12:25:41Z</time>
      </trkpt>
      <trkpt lat="42.87255" lon="0.24994">
        <ele>2420.4</ele>
        <time>2017-02-22T12:25:46Z</time>
      </trkpt>
      <trkpt lat="42.87255" lon="0.24994">
        <ele>2420.2</ele>
        <time>2017-02-22T12:25:51Z</time>
      </trkpt>
      <trkpt lat="42.87255" lon="0.24994">
        <ele>2420</ele>
        <time>2017-02-22T12:25:56Z</time>
      </trkpt>
      <trkpt lat="42.87255" lon="0.24994">
        <ele>2420</ele>
        <time>2017-02-22T12:26:01Z</time>
      </trkpt>
      <trkpt lat="42.87255" lon="0.24994">
        <ele>2419.8</ele>
        <time>2017-02-22T12:26:06Z</time>
      </trkpt>
      <trkpt lat="42.87255" lon="0.24994">
        <ele>2419.8</ele>
        <time>2017-02-22T12:26:11Z</time>
      </trkpt>
      <trkpt lat="42.87255" lon="0.24994">
        <ele>2419.8</ele>
        <time>2017-02-22T12:26:16Z</time>
      </trkpt>
      <trkpt lat="42.87255" lon="0.24994">
        <ele>2419.6</ele>
        <time>2017-02-22T12:26:21Z</time>
      </trkpt>
      <trkpt lat="42.87256" lon="0.24998">
        <ele>2417.2</ele>
        <time>2017-02-22T12:26:26Z</time>
      </trkpt>
      <trkpt lat="42.87246" lon="0.25009">
        <ele>2413.4</ele>
        <time>2017-02-22T12:26:31Z</time>
      </trkpt>
      <trkpt lat="42.87233" lon="0.2503">
        <ele>2398.6</ele>
        <time>2017-02-22T12:26:36Z</time>
      </trkpt>
      <trkpt lat="42.87224" lon="0.25057">
        <ele>2390.2</ele>
        <time>2017-02-22T12:26:41Z</time>
      </trkpt>
      <trkpt lat="42.8722" lon="0.25092">
        <ele>2386</ele>
        <time>2017-02-22T12:26:46Z</time>
      </trkpt>
      <trkpt lat="42.87204" lon="0.2511">
        <ele>2373.2</ele>
        <time>2017-02-22T12:26:51Z</time>
      </trkpt>
      <trkpt lat="42.87183" lon="0.25116">
        <ele>2366</ele>
        <time>2017-02-22T12:26:56Z</time>
      </trkpt>
      <trkpt lat="42.87157" lon="0.25122">
        <ele>2355.6</ele>
        <time>2017-02-22T12:27:01Z</time>
      </trkpt>
      <trkpt lat="42.87157" lon="0.25124">
        <ele>2358</ele>
        <time>2017-02-22T12:27:06Z</time>
      </trkpt>
      <trkpt lat="42.87156" lon="0.25122">
        <ele>2359</ele>
        <time>2017-02-22T12:27:11Z</time>
      </trkpt>
      <trkpt lat="42.87156" lon="0.25122">
        <ele>2359.4</ele>
        <time>2017-02-22T12:27:16Z</time>
      </trkpt>
      <trkpt lat="42.87156" lon="0.25122">
        <ele>2359.6</ele>
        <time>2017-02-22T12:27:21Z</time>
      </trkpt>
      <trkpt lat="42.87156" lon="0.25122">
        <ele>2359.8</ele>
        <time>2017-02-22T12:27:26Z</time>
      </trkpt>
      <trkpt lat="42.87157" lon="0.25123">
        <ele>2359.8</ele>
        <time>2017-02-22T12:27:31Z</time>
      </trkpt>
      <trkpt lat="42.8716" lon="0.25119">
        <ele>2359.4</ele>
        <time>2017-02-22T12:27:36Z</time>
      </trkpt>
      <trkpt lat="42.87163" lon="0.25119">
        <ele>2356.2</ele>
        <time>2017-02-22T12:27:41Z</time>
      </trkpt>
      <trkpt lat="42.87164" lon="0.2512">
        <ele>2351</ele>
        <time>2017-02-22T12:27:46Z</time>
      </trkpt>
      <trkpt lat="42.87164" lon="0.2512">
        <ele>2345.4</ele>
        <time>2017-02-22T12:27:51Z</time>
      </trkpt>
      <trkpt lat="42.87164" lon="0.2512">
        <ele>2340</ele>
        <time>2017-02-22T12:27:56Z</time>
      </trkpt>
      <trkpt lat="42.87163" lon="0.25121">
        <ele>2334.8</ele>
        <time>2017-02-22T12:28:01Z</time>
      </trkpt>
      <trkpt lat="42.87155" lon="0.25126">
        <ele>2326.6</ele>
        <time>2017-02-22T12:28:06Z</time>
      </trkpt>
      <trkpt lat="42.87141" lon="0.25136">
        <ele>2317.8</ele>
        <time>2017-02-22T12:28:11Z</time>
      </trkpt>
      <trkpt lat="42.87138" lon="0.25161">
        <ele>2308.6</ele>
        <time>2017-02-22T12:28:16Z</time>
      </trkpt>
      <trkpt lat="42.87123" lon="0.25176">
        <ele>2293.8</ele>
        <time>2017-02-22T12:28:21Z</time>
      </trkpt>
      <trkpt lat="42.87098" lon="0.25183">
        <ele>2283</ele>
        <time>2017-02-22T12:28:26Z</time>
      </trkpt>
      <trkpt lat="42.87093" lon="0.25209">
        <ele>2277.4</ele>
        <time>2017-02-22T12:28:31Z</time>
      </trkpt>
      <trkpt lat="42.87087" lon="0.2524">
        <ele>2269.4</ele>
        <time>2017-02-22T12:28:36Z</time>
      </trkpt>
      <trkpt lat="42.87083" lon="0.25247">
        <ele>2267.2</ele>
        <time>2017-02-22T12:28:41Z</time>
      </trkpt>
      <trkpt lat="42.87082" lon="0.25247">
        <ele>2268.8</ele>
        <time>2017-02-22T12:28:46Z</time>
      </trkpt>
      <trkpt lat="42.87082" lon="0.25246">
        <ele>2270</ele>
        <time>2017-02-22T12:28:51Z</time>
      </trkpt>
      <trkpt lat="42.87082" lon="0.25245">
        <ele>2270.4</ele>
        <time>2017-02-22T12:28:56Z</time>
      </trkpt>
      <trkpt lat="42.87082" lon="0.25243">
        <ele>2270.4</ele>
        <time>2017-02-22T12:29:01Z</time>
      </trkpt>
      <trkpt lat="42.87082" lon="0.25243">
        <ele>2270</ele>
        <time>2017-02-22T12:29:06Z</time>
      </trkpt>
      <trkpt lat="42.87081" lon="0.25242">
        <ele>2269.6</ele>
        <time>2017-02-22T12:29:11Z</time>
      </trkpt>
      <trkpt lat="42.87067" lon="0.25237">
        <ele>2264.8</ele>
        <time>2017-02-22T12:29:16Z</time>
      </trkpt>
      <trkpt lat="42.87049" lon="0.25253">
        <ele>2257.8</ele>
        <time>2017-02-22T12:29:21Z</time>
      </trkpt>
      <trkpt lat="42.87028" lon="0.25274">
        <ele>2248.2</ele>
        <time>2017-02-22T12:29:26Z</time>
      </trkpt>
      <trkpt lat="42.87008" lon="0.25271">
        <ele>2248.6</ele>
        <time>2017-02-22T12:29:31Z</time>
      </trkpt>
      <trkpt lat="42.87005" lon="0.25274">
        <ele>2244.8</ele>
        <time>2017-02-22T12:29:36Z</time>
      </trkpt>
      <trkpt lat="42.87005" lon="0.25275">
        <ele>2241.6</ele>
        <time>2017-02-22T12:29:41Z</time>
      </trkpt>
      <trkpt lat="42.87005" lon="0.25275">
        <ele>2237.4</ele>
        <time>2017-02-22T12:29:46Z</time>
      </trkpt>
      <trkpt lat="42.87001" lon="0.25276">
        <ele>2229.2</ele>
        <time>2017-02-22T12:29:51Z</time>
      </trkpt>
      <trkpt lat="42.87009" lon="0.25288">
        <ele>2226</ele>
        <time>2017-02-22T12:29:56Z</time>
      </trkpt>
      <trkpt lat="42.87011" lon="0.25289">
        <ele>2226.4</ele>
        <time>2017-02-22T12:30:01Z</time>
      </trkpt>
      <trkpt lat="42.87012" lon="0.2529">
        <ele>2223.4</ele>
        <time>2017-02-22T12:30:06Z</time>
      </trkpt>
      <trkpt lat="42.87012" lon="0.2529">
        <ele>2221.2</ele>
        <time>2017-02-22T12:30:11Z</time>
      </trkpt>
      <trkpt lat="42.87012" lon="0.2529">
        <ele>2219.4</ele>
        <time>2017-02-22T12:30:16Z</time>
      </trkpt>
      <trkpt lat="42.87012" lon="0.2529">
        <ele>2218.2</ele>
        <time>2017-02-22T12:30:21Z</time>
      </trkpt>
      <trkpt lat="42.87012" lon="0.2529">
        <ele>2217.4</ele>
        <time>2017-02-22T12:30:26Z</time>
      </trkpt>
      <trkpt lat="42.87012" lon="0.2529">
        <ele>2216.8</ele>
        <time>2017-02-22T12:30:31Z</time>
      </trkpt>
      <trkpt lat="42.87012" lon="0.2529">
        <ele>2216.4</ele>
        <time>2017-02-22T12:30:36Z</time>
      </trkpt>
      <trkpt lat="42.87012" lon="0.2529">
        <ele>2216.2</ele>
        <time>2017-02-22T12:30:41Z</time>
      </trkpt>
      <trkpt lat="42.87012" lon="0.2529">
        <ele>2215.8</ele>
        <time>2017-02-22T12:30:46Z</time>
      </trkpt>
      <trkpt lat="42.87012" lon="0.25291">
        <ele>2215.8</ele>
        <time>2017-02-22T12:30:51Z</time>
      </trkpt>
      <trkpt lat="42.87012" lon="0.25291">
        <ele>2215.4</ele>
        <time>2017-02-22T12:30:56Z</time>
      </trkpt>
      <trkpt lat="42.87014" lon="0.25298">
        <ele>2212.4</ele>
        <time>2017-02-22T12:31:01Z</time>
      </trkpt>
      <trkpt lat="42.87009" lon="0.25321">
        <ele>2207.4</ele>
        <time>2017-02-22T12:31:06Z</time>
      </trkpt>
      <trkpt lat="42.86998" lon="0.25351">
        <ele>2198.6</ele>
        <time>2017-02-22T12:31:11Z</time>
      </trkpt>
      <trkpt lat="42.86989" lon="0.25384">
        <ele>2194.4</ele>
        <time>2017-02-22T12:31:16Z</time>
      </trkpt>
      <trkpt lat="42.86976" lon="0.25414">
        <ele>2184.8</ele>
        <time>2017-02-22T12:31:21Z</time>
      </trkpt>
      <trkpt lat="42.8696" lon="0.25446">
        <ele>2179.4</ele>
        <time>2017-02-22T12:31:26Z</time>
      </trkpt>
      <trkpt lat="42.86944" lon="0.25475">
        <ele>2171</ele>
        <time>2017-02-22T12:31:31Z</time>
      </trkpt>
      <trkpt lat="42.86932" lon="0.25484">
        <ele>2168.6</ele>
        <time>2017-02-22T12:31:36Z</time>
      </trkpt>
      <trkpt lat="42.86932" lon="0.25484">
        <ele>2170.4</ele>
        <time>2017-02-22T12:31:41Z</time>
      </trkpt>
      <trkpt lat="42.86931" lon="0.25484">
        <ele>2171.6</ele>
        <time>2017-02-22T12:31:46Z</time>
      </trkpt>
      <trkpt lat="42.86931" lon="0.25484">
        <ele>2172</ele>
        <time>2017-02-22T12:31:51Z</time>
      </trkpt>
      <trkpt lat="42.86931" lon="0.25483">
        <ele>2172.4</ele>
        <time>2017-02-22T12:31:56Z</time>
      </trkpt>
      <trkpt lat="42.8693" lon="0.25478">
        <ele>2171.4</ele>
        <time>2017-02-22T12:32:01Z</time>
      </trkpt>
      <trkpt lat="42.86921" lon="0.25499">
        <ele>2164.4</ele>
        <time>2017-02-22T12:32:06Z</time>
      </trkpt>
      <trkpt lat="42.86901" lon="0.25509">
        <ele>2158.8</ele>
        <time>2017-02-22T12:32:11Z</time>
      </trkpt>
      <trkpt lat="42.86878" lon="0.2553">
        <ele>2149.2</ele>
        <time>2017-02-22T12:32:16Z</time>
      </trkpt>
      <trkpt lat="42.86853" lon="0.25554">
        <ele>2146</ele>
        <time>2017-02-22T12:32:21Z</time>
      </trkpt>
      <trkpt lat="42.86843" lon="0.25597">
        <ele>2141.6</ele>
        <time>2017-02-22T12:32:26Z</time>
      </trkpt>
      <trkpt lat="42.86843" lon="0.25632">
        <ele>2141.2</ele>
        <time>2017-02-22T12:32:31Z</time>
      </trkpt>
      <trkpt lat="42.86842" lon="0.25639">
        <ele>2137.4</ele>
        <time>2017-02-22T12:32:36Z</time>
      </trkpt>
      <trkpt lat="42.86842" lon="0.25639">
        <ele>2136.6</ele>
        <time>2017-02-22T12:32:42Z</time>
      </trkpt>
      <trkpt lat="42.86842" lon="0.25639">
        <ele>2136</ele>
        <time>2017-02-22T12:32:47Z</time>
      </trkpt>
      <trkpt lat="42.86842" lon="0.25639">
        <ele>2135.6</ele>
        <time>2017-02-22T12:32:52Z</time>
      </trkpt>
      <trkpt lat="42.86842" lon="0.25639">
        <ele>2135.4</ele>
        <time>2017-02-22T12:32:57Z</time>
      </trkpt>
      <trkpt lat="42.86842" lon="0.25639">
        <ele>2135.2</ele>
        <time>2017-02-22T12:33:02Z</time>
      </trkpt>
      <trkpt lat="42.86842" lon="0.25639">
        <ele>2135</ele>
        <time>2017-02-22T12:33:07Z</time>
      </trkpt>
      <trkpt lat="42.86842" lon="0.25638">
        <ele>2134.8</ele>
        <time>2017-02-22T12:33:12Z</time>
      </trkpt>
      <trkpt lat="42.86842" lon="0.25638">
        <ele>2134.6</ele>
        <time>2017-02-22T12:33:17Z</time>
      </trkpt>
      <trkpt lat="42.86842" lon="0.25638">
        <ele>2134.2</ele>
        <time>2017-02-22T12:33:22Z</time>
      </trkpt>
      <trkpt lat="42.86842" lon="0.25638">
        <ele>2133.8</ele>
        <time>2017-02-22T12:33:27Z</time>
      </trkpt>
      <trkpt lat="42.86842" lon="0.25637">
        <ele>2133.6</ele>
        <time>2017-02-22T12:33:32Z</time>
      </trkpt>
      <trkpt lat="42.86842" lon="0.25637">
        <ele>2133.2</ele>
        <time>2017-02-22T12:33:37Z</time>
      </trkpt>
      <trkpt lat="42.86842" lon="0.25637">
        <ele>2133</ele>
        <time>2017-02-22T12:33:42Z</time>
      </trkpt>
      <trkpt lat="42.86842" lon="0.25637">
        <ele>2132.8</ele>
        <time>2017-02-22T12:33:47Z</time>
      </trkpt>
      <trkpt lat="42.86842" lon="0.25637">
        <ele>2132.6</ele>
        <time>2017-02-22T12:33:52Z</time>
      </trkpt>
      <trkpt lat="42.86842" lon="0.25637">
        <ele>2132.4</ele>
        <time>2017-02-22T12:33:57Z</time>
      </trkpt>
      <trkpt lat="42.86842" lon="0.25637">
        <ele>2132.4</ele>
        <time>2017-02-22T12:34:02Z</time>
      </trkpt>
      <trkpt lat="42.86842" lon="0.25637">
        <ele>2132.4</ele>
        <time>2017-02-22T12:34:07Z</time>
      </trkpt>
      <trkpt lat="42.86842" lon="0.25637">
        <ele>2132.2</ele>
        <time>2017-02-22T12:34:12Z</time>
      </trkpt>
      <trkpt lat="42.86842" lon="0.25637">
        <ele>2132.2</ele>
        <time>2017-02-22T12:34:17Z</time>
      </trkpt>
      <trkpt lat="42.86842" lon="0.25637">
        <ele>2132.2</ele>
        <time>2017-02-22T12:34:22Z</time>
      </trkpt>
      <trkpt lat="42.86842" lon="0.25637">
        <ele>2132.2</ele>
        <time>2017-02-22T12:34:27Z</time>
      </trkpt>
      <trkpt lat="42.86843" lon="0.25634">
        <ele>2132.2</ele>
        <time>2017-02-22T12:34:32Z</time>
      </trkpt>
      <trkpt lat="42.86843" lon="0.25634">
        <ele>2131.6</ele>
        <time>2017-02-22T12:34:37Z</time>
      </trkpt>
      <trkpt lat="42.86844" lon="0.25633">
        <ele>2131.4</ele>
        <time>2017-02-22T12:34:42Z</time>
      </trkpt>
      <trkpt lat="42.86834" lon="0.25629">
        <ele>2126.6</ele>
        <time>2017-02-22T12:34:47Z</time>
      </trkpt>
      <trkpt lat="42.86817" lon="0.25641">
        <ele>2119.4</ele>
        <time>2017-02-22T12:34:52Z</time>
      </trkpt>
      <trkpt lat="42.86789" lon="0.2566">
        <ele>2110.4</ele>
        <time>2017-02-22T12:34:57Z</time>
      </trkpt>
      <trkpt lat="42.86776" lon="0.25677">
        <ele>2107.8</ele>
        <time>2017-02-22T12:35:02Z</time>
      </trkpt>
      <trkpt lat="42.86776" lon="0.25677">
        <ele>2108</ele>
        <time>2017-02-22T12:35:07Z</time>
      </trkpt>
      <trkpt lat="42.86776" lon="0.25677">
        <ele>2108.2</ele>
        <time>2017-02-22T12:35:12Z</time>
      </trkpt>
      <trkpt lat="42.86776" lon="0.25676">
        <ele>2108.4</ele>
        <time>2017-02-22T12:35:17Z</time>
      </trkpt>
      <trkpt lat="42.86776" lon="0.25676">
        <ele>2107.6</ele>
        <time>2017-02-22T12:35:22Z</time>
      </trkpt>
      <trkpt lat="42.86776" lon="0.25676">
        <ele>2107</ele>
        <time>2017-02-22T12:35:27Z</time>
      </trkpt>
      <trkpt lat="42.86773" lon="0.25679">
        <ele>2099.4</ele>
        <time>2017-02-22T12:35:32Z</time>
      </trkpt>
      <trkpt lat="42.86756" lon="0.25687">
        <ele>2095.6</ele>
        <time>2017-02-22T12:35:37Z</time>
      </trkpt>
      <trkpt lat="42.86734" lon="0.25688">
        <ele>2089.2</ele>
        <time>2017-02-22T12:35:42Z</time>
      </trkpt>
      <trkpt lat="42.86713" lon="0.25705">
        <ele>2079.8</ele>
        <time>2017-02-22T12:35:47Z</time>
      </trkpt>
      <trkpt lat="42.86697" lon="0.25721">
        <ele>2070.4</ele>
        <time>2017-02-22T12:35:52Z</time>
      </trkpt>
      <trkpt lat="42.86689" lon="0.25751">
        <ele>2056.2</ele>
        <time>2017-02-22T12:35:57Z</time>
      </trkpt>
      <trkpt lat="42.86697" lon="0.25782">
        <ele>2055.8</ele>
        <time>2017-02-22T12:36:02Z</time>
      </trkpt>
      <trkpt lat="42.8669" lon="0.25792">
        <ele>2056.8</ele>
        <time>2017-02-22T12:36:07Z</time>
      </trkpt>
      <trkpt lat="42.8669" lon="0.25791">
        <ele>2056.6</ele>
        <time>2017-02-22T12:36:12Z</time>
      </trkpt>
      <trkpt lat="42.8669" lon="0.25791">
        <ele>2055.8</ele>
        <time>2017-02-22T12:36:17Z</time>
      </trkpt>
      <trkpt lat="42.8669" lon="0.25791">
        <ele>2055.2</ele>
        <time>2017-02-22T12:36:22Z</time>
      </trkpt>
      <trkpt lat="42.8669" lon="0.2579">
        <ele>2054.6</ele>
        <time>2017-02-22T12:36:27Z</time>
      </trkpt>
      <trkpt lat="42.8669" lon="0.2579">
        <ele>2053.8</ele>
        <time>2017-02-22T12:36:32Z</time>
      </trkpt>
      <trkpt lat="42.8669" lon="0.2579">
        <ele>2053.2</ele>
        <time>2017-02-22T12:36:37Z</time>
      </trkpt>
      <trkpt lat="42.8669" lon="0.2579">
        <ele>2052.6</ele>
        <time>2017-02-22T12:36:42Z</time>
      </trkpt>
      <trkpt lat="42.8669" lon="0.2579">
        <ele>2052.4</ele>
        <time>2017-02-22T12:36:47Z</time>
      </trkpt>
      <trkpt lat="42.8669" lon="0.2579">
        <ele>2052.2</ele>
        <time>2017-02-22T12:36:52Z</time>
      </trkpt>
      <trkpt lat="42.8669" lon="0.2579">
        <ele>2052</ele>
        <time>2017-02-22T12:36:57Z</time>
      </trkpt>
      <trkpt lat="42.8669" lon="0.2579">
        <ele>2051.8</ele>
        <time>2017-02-22T12:37:02Z</time>
      </trkpt>
      <trkpt lat="42.8669" lon="0.25791">
        <ele>2051.8</ele>
        <time>2017-02-22T12:37:07Z</time>
      </trkpt>
      <trkpt lat="42.8669" lon="0.25791">
        <ele>2051.2</ele>
        <time>2017-02-22T12:37:12Z</time>
      </trkpt>
      <trkpt lat="42.8669" lon="0.25791">
        <ele>2050.8</ele>
        <time>2017-02-22T12:37:17Z</time>
      </trkpt>
      <trkpt lat="42.8669" lon="0.25791">
        <ele>2050.2</ele>
        <time>2017-02-22T12:37:22Z</time>
      </trkpt>
      <trkpt lat="42.86688" lon="0.25797">
        <ele>2039.8</ele>
        <time>2017-02-22T12:37:27Z</time>
      </trkpt>
      <trkpt lat="42.8667" lon="0.25802">
        <ele>2035.2</ele>
        <time>2017-02-22T12:37:32Z</time>
      </trkpt>
      <trkpt lat="42.86645" lon="0.25797">
        <ele>2023.8</ele>
        <time>2017-02-22T12:37:37Z</time>
      </trkpt>
      <trkpt lat="42.86635" lon="0.25822">
        <ele>2015</ele>
        <time>2017-02-22T12:37:42Z</time>
      </trkpt>
      <trkpt lat="42.86623" lon="0.25842">
        <ele>2002.2</ele>
        <time>2017-02-22T12:37:47Z</time>
      </trkpt>
      <trkpt lat="42.86604" lon="0.25863">
        <ele>1993.6</ele>
        <time>2017-02-22T12:37:52Z</time>
      </trkpt>
      <trkpt lat="42.86588" lon="0.25851">
        <ele>1997</ele>
        <time>2017-02-22T12:37:57Z</time>
      </trkpt>
      <trkpt lat="42.86589" lon="0.2585">
        <ele>1999.2</ele>
        <time>2017-02-22T12:38:02Z</time>
      </trkpt>
      <trkpt lat="42.86591" lon="0.25851">
        <ele>2000.8</ele>
        <time>2017-02-22T12:38:07Z</time>
      </trkpt>
      <trkpt lat="42.86591" lon="0.2585">
        <ele>2000.6</ele>
        <time>2017-02-22T12:38:12Z</time>
      </trkpt>
      <trkpt lat="42.86591" lon="0.2585">
        <ele>2000.2</ele>
        <time>2017-02-22T12:38:17Z</time>
      </trkpt>
      <trkpt lat="42.86591" lon="0.2585">
        <ele>2000</ele>
        <time>2017-02-22T12:38:22Z</time>
      </trkpt>
      <trkpt lat="42.86591" lon="0.2585">
        <ele>1999.8</ele>
        <time>2017-02-22T12:38:27Z</time>
      </trkpt>
      <trkpt lat="42.86591" lon="0.2585">
        <ele>1999.6</ele>
        <time>2017-02-22T12:38:32Z</time>
      </trkpt>
      <trkpt lat="42.86591" lon="0.2585">
        <ele>1999.4</ele>
        <time>2017-02-22T12:38:37Z</time>
      </trkpt>
      <trkpt lat="42.86591" lon="0.2585">
        <ele>1999.4</ele>
        <time>2017-02-22T12:38:42Z</time>
      </trkpt>
      <trkpt lat="42.86591" lon="0.2585">
        <ele>1999.2</ele>
        <time>2017-02-22T12:38:47Z</time>
      </trkpt>
      <trkpt lat="42.86591" lon="0.2585">
        <ele>1999</ele>
        <time>2017-02-22T12:38:52Z</time>
      </trkpt>
      <trkpt lat="42.86591" lon="0.2585">
        <ele>1999</ele>
        <time>2017-02-22T12:38:57Z</time>
      </trkpt>
      <trkpt lat="42.86591" lon="0.2585">
        <ele>1998.8</ele>
        <time>2017-02-22T12:39:02Z</time>
      </trkpt>
      <trkpt lat="42.86591" lon="0.2585">
        <ele>1999.4</ele>
        <time>2017-02-22T12:39:07Z</time>
      </trkpt>
      <trkpt lat="42.86576" lon="0.25843">
        <ele>1990.4</ele>
        <time>2017-02-22T12:39:12Z</time>
      </trkpt>
      <trkpt lat="42.86577" lon="0.25866">
        <ele>1985</ele>
        <time>2017-02-22T12:39:17Z</time>
      </trkpt>
      <trkpt lat="42.86568" lon="0.25881">
        <ele>1969.2</ele>
        <time>2017-02-22T12:39:22Z</time>
      </trkpt>
      <trkpt lat="42.86551" lon="0.25882">
        <ele>1962.8</ele>
        <time>2017-02-22T12:39:27Z</time>
      </trkpt>
      <trkpt lat="42.8654" lon="0.25873">
        <ele>1961.2</ele>
        <time>2017-02-22T12:39:32Z</time>
      </trkpt>
      <trkpt lat="42.86542" lon="0.25881">
        <ele>1959.8</ele>
        <time>2017-02-22T12:39:37Z</time>
      </trkpt>
      <trkpt lat="42.86527" lon="0.2587">
        <ele>1949.6</ele>
        <time>2017-02-22T12:39:42Z</time>
      </trkpt>
      <trkpt lat="42.86512" lon="0.25852">
        <ele>1946</ele>
        <time>2017-02-22T12:39:47Z</time>
      </trkpt>
      <trkpt lat="42.86494" lon="0.25837">
        <ele>1933.6</ele>
        <time>2017-02-22T12:39:52Z</time>
      </trkpt>
      <trkpt lat="42.86468" lon="0.25816">
        <ele>1927.6</ele>
        <time>2017-02-22T12:39:57Z</time>
      </trkpt>
      <trkpt lat="42.86462" lon="0.25809">
        <ele>1922.8</ele>
        <time>2017-02-22T12:40:02Z</time>
      </trkpt>
      <trkpt lat="42.86462" lon="0.25809">
        <ele>1918.8</ele>
        <time>2017-02-22T12:40:07Z</time>
      </trkpt>
      <trkpt lat="42.86463" lon="0.25809">
        <ele>1915.8</ele>
        <time>2017-02-22T12:40:12Z</time>
      </trkpt>
      <trkpt lat="42.86464" lon="0.25809">
        <ele>1913.4</ele>
        <time>2017-02-22T12:40:17Z</time>
      </trkpt>
      <trkpt lat="42.86456" lon="0.25805">
        <ele>1912.2</ele>
        <time>2017-02-22T12:40:22Z</time>
      </trkpt>
      <trkpt lat="42.86429" lon="0.25787">
        <ele>1904</ele>
        <time>2017-02-22T12:40:27Z</time>
      </trkpt>
      <trkpt lat="42.86408" lon="0.25779">
        <ele>1896.8</ele>
        <time>2017-02-22T12:40:32Z</time>
      </trkpt>
      <trkpt lat="42.86404" lon="0.25805">
        <ele>1887.8</ele>
        <time>2017-02-22T12:40:37Z</time>
      </trkpt>
      <trkpt lat="42.86394" lon="0.25818">
        <ele>1881.6</ele>
        <time>2017-02-22T12:40:42Z</time>
      </trkpt>
      <trkpt lat="42.86386" lon="0.25835">
        <ele>1872.8</ele>
        <time>2017-02-22T12:40:47Z</time>
      </trkpt>
      <trkpt lat="42.86372" lon="0.25849">
        <ele>1862.4</ele>
        <time>2017-02-22T12:40:52Z</time>
      </trkpt>
      <trkpt lat="42.86368" lon="0.25879">
        <ele>1854.6</ele>
        <time>2017-02-22T12:40:57Z</time>
      </trkpt>
      <trkpt lat="42.86362" lon="0.25908">
        <ele>1850</ele>
        <time>2017-02-22T12:41:02Z</time>
      </trkpt>
      <trkpt lat="42.86366" lon="0.25942">
        <ele>1843.4</ele>
        <time>2017-02-22T12:41:07Z</time>
      </trkpt>
      <trkpt lat="42.86349" lon="0.25943">
        <ele>1834.4</ele>
        <time>2017-02-22T12:41:12Z</time>
      </trkpt>
      <trkpt lat="42.86328" lon="0.25947">
        <ele>1830.4</ele>
        <time>2017-02-22T12:41:17Z</time>
      </trkpt>
      <trkpt lat="42.86329" lon="0.2598">
        <ele>1819.4</ele>
        <time>2017-02-22T12:41:22Z</time>
      </trkpt>
      <trkpt lat="42.86312" lon="0.26001">
        <ele>1815.6</ele>
        <time>2017-02-22T12:41:27Z</time>
      </trkpt>
      <trkpt lat="42.86312" lon="0.26003">
        <ele>1816.4</ele>
        <time>2017-02-22T12:41:32Z</time>
      </trkpt>
      <trkpt lat="42.86314" lon="0.26002">
        <ele>1816.4</ele>
        <time>2017-02-22T12:41:37Z</time>
      </trkpt>
      <trkpt lat="42.86315" lon="0.26007">
        <ele>1816.4</ele>
        <time>2017-02-22T12:41:42Z</time>
      </trkpt>
      <trkpt lat="42.86315" lon="0.26007">
        <ele>1814.4</ele>
        <time>2017-02-22T12:41:47Z</time>
      </trkpt>
      <trkpt lat="42.86315" lon="0.26007">
        <ele>1812.8</ele>
        <time>2017-02-22T12:41:52Z</time>
      </trkpt>
      <trkpt lat="42.86315" lon="0.26007">
        <ele>1811.6</ele>
        <time>2017-02-22T12:41:57Z</time>
      </trkpt>
      <trkpt lat="42.86315" lon="0.26007">
        <ele>1810.8</ele>
        <time>2017-02-22T12:42:02Z</time>
      </trkpt>
      <trkpt lat="42.86315" lon="0.26007">
        <ele>1808.6</ele>
        <time>2017-02-22T12:42:07Z</time>
      </trkpt>
      <trkpt lat="42.86315" lon="0.26007">
        <ele>1807.2</ele>
        <time>2017-02-22T12:42:12Z</time>
      </trkpt>
      <trkpt lat="42.86315" lon="0.26006">
        <ele>1806.2</ele>
        <time>2017-02-22T12:42:17Z</time>
      </trkpt>
      <trkpt lat="42.86315" lon="0.26006">
        <ele>1805.4</ele>
        <time>2017-02-22T12:42:22Z</time>
      </trkpt>
      <trkpt lat="42.86315" lon="0.26006">
        <ele>1804.8</ele>
        <time>2017-02-22T12:42:27Z</time>
      </trkpt>
      <trkpt lat="42.86315" lon="0.26006">
        <ele>1804.4</ele>
        <time>2017-02-22T12:42:32Z</time>
      </trkpt>
      <trkpt lat="42.86315" lon="0.26006">
        <ele>1804.2</ele>
        <time>2017-02-22T12:42:37Z</time>
      </trkpt>
      <trkpt lat="42.86317" lon="0.26004">
        <ele>1803.6</ele>
        <time>2017-02-22T12:42:42Z</time>
      </trkpt>
      <trkpt lat="42.86318" lon="0.26002">
        <ele>1801</ele>
        <time>2017-02-22T12:42:47Z</time>
      </trkpt>
      <trkpt lat="42.86319" lon="0.26006">
        <ele>1801.6</ele>
        <time>2017-02-22T12:42:52Z</time>
      </trkpt>
      <trkpt lat="42.86315" lon="0.26036">
        <ele>1793.4</ele>
        <time>2017-02-22T12:42:57Z</time>
      </trkpt>
      <trkpt lat="42.86312" lon="0.26078">
        <ele>1788</ele>
        <time>2017-02-22T12:43:02Z</time>
      </trkpt>
      <trkpt lat="42.86303" lon="0.26105">
        <ele>1783</ele>
        <time>2017-02-22T12:43:07Z</time>
      </trkpt>
      <trkpt lat="42.86293" lon="0.26139">
        <ele>1777.8</ele>
        <time>2017-02-22T12:43:12Z</time>
      </trkpt>
      <trkpt lat="42.86279" lon="0.26151">
        <ele>1769.6</ele>
        <time>2017-02-22T12:43:17Z</time>
      </trkpt>
      <trkpt lat="42.86258" lon="0.26148">
        <ele>1767.8</ele>
        <time>2017-02-22T12:43:22Z</time>
      </trkpt>
      <trkpt lat="42.8624" lon="0.26183">
        <ele>1759.4</ele>
        <time>2017-02-22T12:43:27Z</time>
      </trkpt>
      <trkpt lat="42.86221" lon="0.26201">
        <ele>1760.6</ele>
        <time>2017-02-22T12:43:32Z</time>
      </trkpt>
      <trkpt lat="42.86203" lon="0.26214">
        <ele>1760.2</ele>
        <time>2017-02-22T12:43:37Z</time>
      </trkpt>
      <trkpt lat="42.86201" lon="0.26215">
        <ele>1758</ele>
        <time>2017-02-22T12:43:42Z</time>
      </trkpt>
      <trkpt lat="42.86201" lon="0.26215">
        <ele>1757.4</ele>
        <time>2017-02-22T12:43:47Z</time>
      </trkpt>
      <trkpt lat="42.86201" lon="0.26215">
        <ele>1756.8</ele>
        <time>2017-02-22T12:43:52Z</time>
      </trkpt>
      <trkpt lat="42.86201" lon="0.26215">
        <ele>1756.4</ele>
        <time>2017-02-22T12:43:57Z</time>
      </trkpt>
      <trkpt lat="42.86201" lon="0.26215">
        <ele>1756.2</ele>
        <time>2017-02-22T12:44:02Z</time>
      </trkpt>
      <trkpt lat="42.86201" lon="0.26215">
        <ele>1756.2</ele>
        <time>2017-02-22T12:44:07Z</time>
      </trkpt>
      <trkpt lat="42.86189" lon="0.26216">
        <ele>1749.2</ele>
        <time>2017-02-22T12:44:12Z</time>
      </trkpt>
      <trkpt lat="42.86165" lon="0.26199">
        <ele>1747</ele>
        <time>2017-02-22T12:44:17Z</time>
      </trkpt>
      <trkpt lat="42.86142" lon="0.2618">
        <ele>1739.4</ele>
        <time>2017-02-22T12:44:22Z</time>
      </trkpt>
      <trkpt lat="42.86122" lon="0.26209">
        <ele>1740</ele>
        <time>2017-02-22T12:44:27Z</time>
      </trkpt>
      <trkpt lat="42.86098" lon="0.26227">
        <ele>1733.8</ele>
        <time>2017-02-22T12:44:32Z</time>
      </trkpt>
      <trkpt lat="42.86079" lon="0.26237">
        <ele>1728</ele>
        <time>2017-02-22T12:44:37Z</time>
      </trkpt>
      <trkpt lat="42.86052" lon="0.2623">
        <ele>1721.2</ele>
        <time>2017-02-22T12:44:42Z</time>
      </trkpt>
      <trkpt lat="42.86024" lon="0.26255">
        <ele>1713.6</ele>
        <time>2017-02-22T12:44:48Z</time>
      </trkpt>
      <trkpt lat="42.86001" lon="0.26289">
        <ele>1708.6</ele>
        <time>2017-02-22T12:44:53Z</time>
      </trkpt>
      <trkpt lat="42.85981" lon="0.2632">
        <ele>1704.4</ele>
        <time>2017-02-22T12:44:58Z</time>
      </trkpt>
      <trkpt lat="42.85957" lon="0.26341">
        <ele>1702.2</ele>
        <time>2017-02-22T12:45:03Z</time>
      </trkpt>
      <trkpt lat="42.85937" lon="0.26358">
        <ele>1697.4</ele>
        <time>2017-02-22T12:45:08Z</time>
      </trkpt>
      <trkpt lat="42.85927" lon="0.26372">
        <ele>1696</ele>
        <time>2017-02-22T12:45:13Z</time>
      </trkpt>
      <trkpt lat="42.85925" lon="0.26378">
        <ele>1691.6</ele>
        <time>2017-02-22T12:45:18Z</time>
      </trkpt>
      <trkpt lat="42.85925" lon="0.26378">
        <ele>1689.6</ele>
        <time>2017-02-22T12:45:23Z</time>
      </trkpt>
      <trkpt lat="42.85922" lon="0.26369">
        <ele>1687.8</ele>
        <time>2017-02-22T12:45:28Z</time>
      </trkpt>
      <trkpt lat="42.85923" lon="0.26345">
        <ele>1684.2</ele>
        <time>2017-02-22T12:45:33Z</time>
      </trkpt>
      <trkpt lat="42.85918" lon="0.26316">
        <ele>1676.8</ele>
        <time>2017-02-22T12:45:38Z</time>
      </trkpt>
      <trkpt lat="42.859" lon="0.26311">
        <ele>1671.4</ele>
        <time>2017-02-22T12:45:43Z</time>
      </trkpt>
      <trkpt lat="42.8589" lon="0.26324">
        <ele>1671.8</ele>
        <time>2017-02-22T12:45:48Z</time>
      </trkpt>
      <trkpt lat="42.85875" lon="0.26343">
        <ele>1668.8</ele>
        <time>2017-02-22T12:45:53Z</time>
      </trkpt>
      <trkpt lat="42.8587" lon="0.26355">
        <ele>1665.6</ele>
        <time>2017-02-22T12:45:58Z</time>
      </trkpt>
      <trkpt lat="42.85863" lon="0.26359">
        <ele>1663.2</ele>
        <time>2017-02-22T12:46:03Z</time>
      </trkpt>
      <trkpt lat="42.85856" lon="0.26357">
        <ele>1661</ele>
        <time>2017-02-22T12:46:08Z</time>
      </trkpt>
      <trkpt lat="42.85855" lon="0.26356">
        <ele>1657.2</ele>
        <time>2017-02-22T12:46:13Z</time>
      </trkpt>
      <trkpt lat="42.85855" lon="0.26356">
        <ele>1655.8</ele>
        <time>2017-02-22T12:46:18Z</time>
      </trkpt>
      <trkpt lat="42.85859" lon="0.26356">
        <ele>1654.8</ele>
        <time>2017-02-22T12:46:23Z</time>
      </trkpt>
      <trkpt lat="42.85854" lon="0.26356">
        <ele>1650.6</ele>
        <time>2017-02-22T12:46:28Z</time>
      </trkpt>
      <trkpt lat="42.85855" lon="0.26355">
        <ele>1650</ele>
        <time>2017-02-22T12:46:33Z</time>
      </trkpt>
      <trkpt lat="42.85855" lon="0.26355">
        <ele>1649.6</ele>
        <time>2017-02-22T12:46:38Z</time>
      </trkpt>
      <trkpt lat="42.85855" lon="0.26355">
        <ele>1649.2</ele>
        <time>2017-02-22T12:46:43Z</time>
      </trkpt>
      <trkpt lat="42.85855" lon="0.26355">
        <ele>1648.8</ele>
        <time>2017-02-22T12:46:48Z</time>
      </trkpt>
      <trkpt lat="42.85855" lon="0.26355">
        <ele>1648.6</ele>
        <time>2017-02-22T12:46:53Z</time>
      </trkpt>
      <trkpt lat="42.85855" lon="0.26355">
        <ele>1648.4</ele>
        <time>2017-02-22T12:46:58Z</time>
      </trkpt>
      <trkpt lat="42.85855" lon="0.26355">
        <ele>1648.4</ele>
        <time>2017-02-22T12:47:03Z</time>
      </trkpt>
      <trkpt lat="42.85855" lon="0.26355">
        <ele>1648.2</ele>
        <time>2017-02-22T12:47:08Z</time>
      </trkpt>
      <trkpt lat="42.85855" lon="0.26355">
        <ele>1648.2</ele>
        <time>2017-02-22T12:47:13Z</time>
      </trkpt>
      <trkpt lat="42.85855" lon="0.26354">
        <ele>1648</ele>
        <time>2017-02-22T12:47:18Z</time>
      </trkpt>
      <trkpt lat="42.85851" lon="0.26361">
        <ele>1645.2</ele>
        <time>2017-02-22T12:47:23Z</time>
      </trkpt>
      <trkpt lat="42.85846" lon="0.26373">
        <ele>1642.8</ele>
        <time>2017-02-22T12:47:28Z</time>
      </trkpt>
      <trkpt lat="42.85843" lon="0.2638">
        <ele>1640.4</ele>
        <time>2017-02-22T12:47:33Z</time>
      </trkpt>
      <trkpt lat="42.85835" lon="0.26383">
        <ele>1636.8</ele>
        <time>2017-02-22T12:47:38Z</time>
      </trkpt>
      <trkpt lat="42.85835" lon="0.26384">
        <ele>1635.6</ele>
        <time>2017-02-22T12:47:43Z</time>
      </trkpt>
      <trkpt lat="42.85836" lon="0.26384">
        <ele>1636.2</ele>
        <time>2017-02-22T12:47:48Z</time>
      </trkpt>
      <trkpt lat="42.85836" lon="0.26385">
        <ele>1636</ele>
        <time>2017-02-22T12:47:53Z</time>
      </trkpt>
      <trkpt lat="42.85836" lon="0.26387">
        <ele>1634.4</ele>
        <time>2017-02-22T12:47:58Z</time>
      </trkpt>
      <trkpt lat="42.85832" lon="0.26391">
        <ele>1635.6</ele>
        <time>2017-02-22T12:48:03Z</time>
      </trkpt>
      <trkpt lat="42.85829" lon="0.26396">
        <ele>1633.4</ele>
        <time>2017-02-22T12:48:08Z</time>
      </trkpt>
      <trkpt lat="42.85828" lon="0.26399">
        <ele>1634</ele>
        <time>2017-02-22T12:48:13Z</time>
      </trkpt>
      <trkpt lat="42.85826" lon="0.26401">
        <ele>1632.2</ele>
        <time>2017-02-22T12:48:18Z</time>
      </trkpt>
      <trkpt lat="42.85825" lon="0.26403">
        <ele>1631.2</ele>
        <time>2017-02-22T12:48:24Z</time>
      </trkpt>
      <trkpt lat="42.85824" lon="0.26405">
        <ele>1632</ele>
        <time>2017-02-22T12:48:29Z</time>
      </trkpt>
      <trkpt lat="42.85822" lon="0.26413">
        <ele>1629</ele>
        <time>2017-02-22T12:48:34Z</time>
      </trkpt>
      <trkpt lat="42.85821" lon="0.26422">
        <ele>1626.8</ele>
        <time>2017-02-22T12:48:39Z</time>
      </trkpt>
      <trkpt lat="42.85818" lon="0.26428">
        <ele>1627.8</ele>
        <time>2017-02-22T12:48:44Z</time>
      </trkpt>
      <trkpt lat="42.85814" lon="0.26438">
        <ele>1623.2</ele>
        <time>2017-02-22T12:48:49Z</time>
      </trkpt>
      <trkpt lat="42.8581" lon="0.2645">
        <ele>1622</ele>
        <time>2017-02-22T12:48:54Z</time>
      </trkpt>
      <trkpt lat="42.85807" lon="0.26455">
        <ele>1618.2</ele>
        <time>2017-02-22T12:48:59Z</time>
      </trkpt>
      <trkpt lat="42.85805" lon="0.26459">
        <ele>1616.8</ele>
        <time>2017-02-22T12:49:04Z</time>
      </trkpt>
      <trkpt lat="42.85804" lon="0.26461">
        <ele>1617.2</ele>
        <time>2017-02-22T12:49:09Z</time>
      </trkpt>
      <trkpt lat="42.85803" lon="0.26475">
        <ele>1615.8</ele>
        <time>2017-02-22T12:49:14Z</time>
      </trkpt>
      <trkpt lat="42.85799" lon="0.26483">
        <ele>1611.6</ele>
        <time>2017-02-22T12:49:19Z</time>
      </trkpt>
      <trkpt lat="42.85798" lon="0.26485">
        <ele>1613.4</ele>
        <time>2017-02-22T12:49:24Z</time>
      </trkpt>
      <trkpt lat="42.85798" lon="0.26486">
        <ele>1609.2</ele>
        <time>2017-02-22T12:49:29Z</time>
      </trkpt>
      <trkpt lat="42.85797" lon="0.26488">
        <ele>1610.2</ele>
        <time>2017-02-22T12:49:34Z</time>
      </trkpt>
      <trkpt lat="42.85797" lon="0.26488">
        <ele>1609.8</ele>
        <time>2017-02-22T12:49:39Z</time>
      </trkpt>
      <trkpt lat="42.85798" lon="0.26488">
        <ele>1609.6</ele>
        <time>2017-02-22T12:49:44Z</time>
      </trkpt>
      <trkpt lat="42.85797" lon="0.26489">
        <ele>1608.8</ele>
        <time>2017-02-22T12:49:49Z</time>
      </trkpt>
      <trkpt lat="42.85797" lon="0.2649">
        <ele>1608.2</ele>
        <time>2017-02-22T12:49:54Z</time>
      </trkpt>
      <trkpt lat="42.85796" lon="0.2649">
        <ele>1607.4</ele>
        <time>2017-02-22T12:49:59Z</time>
      </trkpt>
      <trkpt lat="42.85796" lon="0.2649">
        <ele>1606.6</ele>
        <time>2017-02-22T12:50:04Z</time>
      </trkpt>
      <trkpt lat="42.85796" lon="0.2649">
        <ele>1606</ele>
        <time>2017-02-22T12:50:09Z</time>
      </trkpt>
      <trkpt lat="42.85795" lon="0.26493">
        <ele>1604</ele>
        <time>2017-02-22T12:50:14Z</time>
      </trkpt>
      <trkpt lat="42.85795" lon="0.26493">
        <ele>1603.4</ele>
        <time>2017-02-22T12:50:19Z</time>
      </trkpt>
      <trkpt lat="42.85795" lon="0.26493">
        <ele>1603</ele>
        <time>2017-02-22T12:50:24Z</time>
      </trkpt>
      <trkpt lat="42.85795" lon="0.26493">
        <ele>1602.6</ele>
        <time>2017-02-22T12:50:29Z</time>
      </trkpt>
      <trkpt lat="42.85795" lon="0.26493">
        <ele>1602.4</ele>
        <time>2017-02-22T12:50:34Z</time>
      </trkpt>
      <trkpt lat="42.85796" lon="0.26492">
        <ele>1602.2</ele>
        <time>2017-02-22T12:50:39Z</time>
      </trkpt>
      <trkpt lat="42.85796" lon="0.26492">
        <ele>1602.4</ele>
        <time>2017-02-22T12:50:44Z</time>
      </trkpt>
      <trkpt lat="42.85796" lon="0.26493">
        <ele>1601.4</ele>
        <time>2017-02-22T12:50:49Z</time>
      </trkpt>
      <trkpt lat="42.85794" lon="0.26499">
        <ele>1598.4</ele>
        <time>2017-02-22T12:50:54Z</time>
      </trkpt>
      <trkpt lat="42.85792" lon="0.26507">
        <ele>1599.6</ele>
        <time>2017-02-22T12:50:59Z</time>
      </trkpt>
      <trkpt lat="42.85792" lon="0.26511">
        <ele>1600.6</ele>
        <time>2017-02-22T12:51:04Z</time>
      </trkpt>
      <trkpt lat="42.85789" lon="0.26515">
        <ele>1599.4</ele>
        <time>2017-02-22T12:51:09Z</time>
      </trkpt>
      <trkpt lat="42.85789" lon="0.26516">
        <ele>1597.8</ele>
        <time>2017-02-22T12:51:14Z</time>
      </trkpt>
      <trkpt lat="42.85788" lon="0.26519">
        <ele>1600.4</ele>
        <time>2017-02-22T12:51:19Z</time>
      </trkpt>
      <trkpt lat="42.85785" lon="0.26524">
        <ele>1597.4</ele>
        <time>2017-02-22T12:51:24Z</time>
      </trkpt>
      <trkpt lat="42.85782" lon="0.26529">
        <ele>1598</ele>
        <time>2017-02-22T12:51:29Z</time>
      </trkpt>
      <trkpt lat="42.8578" lon="0.26532">
        <ele>1595</ele>
        <time>2017-02-22T12:51:34Z</time>
      </trkpt>
      <trkpt lat="42.8578" lon="0.26537">
        <ele>1594</ele>
        <time>2017-02-22T12:51:39Z</time>
      </trkpt>
      <trkpt lat="42.85777" lon="0.26542">
        <ele>1593.4</ele>
        <time>2017-02-22T12:51:44Z</time>
      </trkpt>
      <trkpt lat="42.85776" lon="0.26546">
        <ele>1591.8</ele>
        <time>2017-02-22T12:51:49Z</time>
      </trkpt>
      <trkpt lat="42.85774" lon="0.2655">
        <ele>1588.2</ele>
        <time>2017-02-22T12:51:54Z</time>
      </trkpt>
      <trkpt lat="42.85772" lon="0.26553">
        <ele>1589.8</ele>
        <time>2017-02-22T12:51:59Z</time>
      </trkpt>
      <trkpt lat="42.85771" lon="0.26559">
        <ele>1586</ele>
        <time>2017-02-22T12:52:04Z</time>
      </trkpt>
      <trkpt lat="42.85769" lon="0.26563">
        <ele>1586.8</ele>
        <time>2017-02-22T12:52:09Z</time>
      </trkpt>
      <trkpt lat="42.85768" lon="0.26568">
        <ele>1584</ele>
        <time>2017-02-22T12:52:14Z</time>
      </trkpt>
      <trkpt lat="42.85767" lon="0.26569">
        <ele>1585.2</ele>
        <time>2017-02-22T12:52:19Z</time>
      </trkpt>
      <trkpt lat="42.85767" lon="0.26569">
        <ele>1584.6</ele>
        <time>2017-02-22T12:52:24Z</time>
      </trkpt>
      <trkpt lat="42.85767" lon="0.26575">
        <ele>1582.2</ele>
        <time>2017-02-22T12:52:29Z</time>
      </trkpt>
      <trkpt lat="42.85766" lon="0.26576">
        <ele>1582.2</ele>
        <time>2017-02-22T12:52:34Z</time>
      </trkpt>
      <trkpt lat="42.85765" lon="0.26575">
        <ele>1584.2</ele>
        <time>2017-02-22T12:52:40Z</time>
      </trkpt>
      <trkpt lat="42.85764" lon="0.26581">
        <ele>1578.8</ele>
        <time>2017-02-22T12:52:45Z</time>
      </trkpt>
      <trkpt lat="42.85763" lon="0.26587">
        <ele>1581.6</ele>
        <time>2017-02-22T12:52:50Z</time>
      </trkpt>
      <trkpt lat="42.85759" lon="0.26591">
        <ele>1576.2</ele>
        <time>2017-02-22T12:52:55Z</time>
      </trkpt>
      <trkpt lat="42.85757" lon="0.26591">
        <ele>1577.4</ele>
        <time>2017-02-22T12:53:00Z</time>
      </trkpt>
      <trkpt lat="42.85757" lon="0.2659">
        <ele>1576.6</ele>
        <time>2017-02-22T12:53:05Z</time>
      </trkpt>
      <trkpt lat="42.85756" lon="0.2659">
        <ele>1575.6</ele>
        <time>2017-02-22T12:53:10Z</time>
      </trkpt>
      <trkpt lat="42.85754" lon="0.26595">
        <ele>1574.6</ele>
        <time>2017-02-22T12:53:15Z</time>
      </trkpt>
      <trkpt lat="42.85754" lon="0.266">
        <ele>1576.6</ele>
        <time>2017-02-22T12:53:20Z</time>
      </trkpt>
      <trkpt lat="42.85755" lon="0.26602">
        <ele>1577.4</ele>
        <time>2017-02-22T12:53:25Z</time>
      </trkpt>
      <trkpt lat="42.85756" lon="0.26604">
        <ele>1573</ele>
        <time>2017-02-22T12:53:30Z</time>
      </trkpt>
      <trkpt lat="42.85756" lon="0.26609">
        <ele>1569.6</ele>
        <time>2017-02-22T12:53:35Z</time>
      </trkpt>
      <trkpt lat="42.85754" lon="0.26614">
        <ele>1570</ele>
        <time>2017-02-22T12:53:40Z</time>
      </trkpt>
      <trkpt lat="42.85754" lon="0.2662">
        <ele>1571</ele>
        <time>2017-02-22T12:53:45Z</time>
      </trkpt>
      <trkpt lat="42.85752" lon="0.26625">
        <ele>1566.2</ele>
        <time>2017-02-22T12:53:50Z</time>
      </trkpt>
      <trkpt lat="42.85749" lon="0.2663">
        <ele>1566.6</ele>
        <time>2017-02-22T12:53:55Z</time>
      </trkpt>
      <trkpt lat="42.85746" lon="0.26637">
        <ele>1568.4</ele>
        <time>2017-02-22T12:54:00Z</time>
      </trkpt>
      <trkpt lat="42.85741" lon="0.26644">
        <ele>1564.8</ele>
        <time>2017-02-22T12:54:05Z</time>
      </trkpt>
      <trkpt lat="42.85738" lon="0.2665">
        <ele>1564.2</ele>
        <time>2017-02-22T12:54:10Z</time>
      </trkpt>
      <trkpt lat="42.85735" lon="0.26656">
        <ele>1565</ele>
        <time>2017-02-22T12:54:15Z</time>
      </trkpt>
      <trkpt lat="42.85733" lon="0.2666">
        <ele>1563.6</ele>
        <time>2017-02-22T12:54:20Z</time>
      </trkpt>
      <trkpt lat="42.85733" lon="0.26665">
        <ele>1566.2</ele>
        <time>2017-02-22T12:54:25Z</time>
      </trkpt>
      <trkpt lat="42.85732" lon="0.26666">
        <ele>1565.2</ele>
        <time>2017-02-22T12:54:30Z</time>
      </trkpt>
      <trkpt lat="42.85732" lon="0.26667">
        <ele>1565.4</ele>
        <time>2017-02-22T12:54:35Z</time>
      </trkpt>
      <trkpt lat="42.85732" lon="0.26667">
        <ele>1565.4</ele>
        <time>2017-02-22T12:54:40Z</time>
      </trkpt>
      <trkpt lat="42.85732" lon="0.26666">
        <ele>1565.6</ele>
        <time>2017-02-22T12:54:46Z</time>
      </trkpt>
      <trkpt lat="42.85731" lon="0.26666">
        <ele>1565.8</ele>
        <time>2017-02-22T12:54:51Z</time>
      </trkpt>
      <trkpt lat="42.85731" lon="0.26667">
        <ele>1565.8</ele>
        <time>2017-02-22T12:54:56Z</time>
      </trkpt>
      <trkpt lat="42.8573" lon="0.26666">
        <ele>1566</ele>
        <time>2017-02-22T12:55:01Z</time>
      </trkpt>
      <trkpt lat="42.8573" lon="0.26666">
        <ele>1566</ele>
        <time>2017-02-22T12:55:06Z</time>
      </trkpt>
      <trkpt lat="42.85729" lon="0.26666">
        <ele>1566</ele>
        <time>2017-02-22T12:55:11Z</time>
      </trkpt>
      <trkpt lat="42.85729" lon="0.26666">
        <ele>1566.2</ele>
        <time>2017-02-22T12:55:16Z</time>
      </trkpt>
      <trkpt lat="42.85729" lon="0.26666">
        <ele>1566.2</ele>
        <time>2017-02-22T12:55:21Z</time>
      </trkpt>
      <trkpt lat="42.85729" lon="0.26666">
        <ele>1566.2</ele>
        <time>2017-02-22T12:55:26Z</time>
      </trkpt>
      <trkpt lat="42.85729" lon="0.26666">
        <ele>1566.2</ele>
        <time>2017-02-22T12:55:31Z</time>
      </trkpt>
      <trkpt lat="42.85729" lon="0.26666">
        <ele>1566</ele>
        <time>2017-02-22T12:55:36Z</time>
      </trkpt>
      <trkpt lat="42.85729" lon="0.26666">
        <ele>1566</ele>
        <time>2017-02-22T12:55:41Z</time>
      </trkpt>
      <trkpt lat="42.85729" lon="0.26666">
        <ele>1566</ele>
        <time>2017-02-22T12:55:46Z</time>
      </trkpt>
      <trkpt lat="42.85729" lon="0.26666">
        <ele>1566</ele>
        <time>2017-02-22T12:55:51Z</time>
      </trkpt>
      <trkpt lat="42.85729" lon="0.26666">
        <ele>1566</ele>
        <time>2017-02-22T12:55:56Z</time>
      </trkpt>
      <trkpt lat="42.85729" lon="0.26666">
        <ele>1566</ele>
        <time>2017-02-22T12:56:01Z</time>
      </trkpt>
      <trkpt lat="42.85729" lon="0.26666">
        <ele>1566</ele>
        <time>2017-02-22T12:56:06Z</time>
      </trkpt>
      <trkpt lat="42.85729" lon="0.26666">
        <ele>1566</ele>
        <time>2017-02-22T12:56:11Z</time>
      </trkpt>
      <trkpt lat="42.85729" lon="0.26666">
        <ele>1566</ele>
        <time>2017-02-22T12:56:16Z</time>
      </trkpt>
      <trkpt lat="42.85729" lon="0.26666">
        <ele>1566</ele>
        <time>2017-02-22T12:56:21Z</time>
      </trkpt>
      <trkpt lat="42.85729" lon="0.26666">
        <ele>1566</ele>
        <time>2017-02-22T12:56:26Z</time>
      </trkpt>
      <trkpt lat="42.85729" lon="0.26666">
        <ele>1566</ele>
        <time>2017-02-22T12:56:31Z</time>
      </trkpt>
      <trkpt lat="42.85729" lon="0.26666">
        <ele>1566</ele>
        <time>2017-02-22T12:56:36Z</time>
      </trkpt>
      <trkpt lat="42.85729" lon="0.26666">
        <ele>1566</ele>
        <time>2017-02-22T12:56:41Z</time>
      </trkpt>
      <trkpt lat="42.85729" lon="0.26666">
        <ele>1566</ele>
        <time>2017-02-22T12:56:46Z</time>
      </trkpt>
      <trkpt lat="42.85729" lon="0.26666">
        <ele>1566</ele>
        <time>2017-02-22T12:56:51Z</time>
      </trkpt>
      <trkpt lat="42.85729" lon="0.26665">
        <ele>1566</ele>
        <time>2017-02-22T12:56:56Z</time>
      </trkpt>
      <trkpt lat="42.8573" lon="0.26664">
        <ele>1565.8</ele>
        <time>2017-02-22T12:57:01Z</time>
      </trkpt>
      <trkpt lat="42.8573" lon="0.26664">
        <ele>1565.8</ele>
        <time>2017-02-22T12:57:06Z</time>
      </trkpt>
      <trkpt lat="42.8573" lon="0.26663">
        <ele>1565.6</ele>
        <time>2017-02-22T12:57:11Z</time>
      </trkpt>
      <trkpt lat="42.8573" lon="0.26663">
        <ele>1565.6</ele>
        <time>2017-02-22T12:57:16Z</time>
      </trkpt>
      <trkpt lat="42.8573" lon="0.26663">
        <ele>1565.6</ele>
        <time>2017-02-22T12:57:21Z</time>
      </trkpt>
      <trkpt lat="42.85732" lon="0.26664">
        <ele>1565.4</ele>
        <time>2017-02-22T12:57:26Z</time>
      </trkpt>
      <trkpt lat="42.85732" lon="0.26664">
        <ele>1565.4</ele>
        <time>2017-02-22T12:57:31Z</time>
      </trkpt>
      <trkpt lat="42.85733" lon="0.26664">
        <ele>1565.4</ele>
        <time>2017-02-22T12:57:36Z</time>
      </trkpt>
      <trkpt lat="42.85733" lon="0.26664">
        <ele>1565.2</ele>
        <time>2017-02-22T12:57:41Z</time>
      </trkpt>
      <trkpt lat="42.85733" lon="0.26664">
        <ele>1565.2</ele>
        <time>2017-02-22T12:57:46Z</time>
      </trkpt>
      <trkpt lat="42.85733" lon="0.26664">
        <ele>1565.2</ele>
        <time>2017-02-22T12:57:51Z</time>
      </trkpt>
      <trkpt lat="42.85733" lon="0.26664">
        <ele>1565</ele>
        <time>2017-02-22T12:57:56Z</time>
      </trkpt>
      <trkpt lat="42.85733" lon="0.26664">
        <ele>1565</ele>
        <time>2017-02-22T12:58:01Z</time>
      </trkpt>
      <trkpt lat="42.85733" lon="0.26664">
        <ele>1565</ele>
        <time>2017-02-22T12:58:06Z</time>
      </trkpt>
      <trkpt lat="42.85733" lon="0.26664">
        <ele>1565</ele>
        <time>2017-02-22T12:58:11Z</time>
      </trkpt>
      <trkpt lat="42.85733" lon="0.26664">
        <ele>1565</ele>
        <time>2017-02-22T12:58:16Z</time>
      </trkpt>
      <trkpt lat="42.85734" lon="0.26664">
        <ele>1565</ele>
        <time>2017-02-22T12:58:21Z</time>
      </trkpt>
      <trkpt lat="42.85734" lon="0.26665">
        <ele>1564.8</ele>
        <time>2017-02-22T12:58:26Z</time>
      </trkpt>
      <trkpt lat="42.85733" lon="0.26665">
        <ele>1564.6</ele>
        <time>2017-02-22T12:58:31Z</time>
      </trkpt>
      <trkpt lat="42.85733" lon="0.26664">
        <ele>1564.4</ele>
        <time>2017-02-22T12:58:36Z</time>
      </trkpt>
      <trkpt lat="42.85732" lon="0.26664">
        <ele>1564.2</ele>
        <time>2017-02-22T12:58:41Z</time>
      </trkpt>
      <trkpt lat="42.85732" lon="0.26665">
        <ele>1564</ele>
        <time>2017-02-22T12:58:46Z</time>
      </trkpt>
      <trkpt lat="42.85732" lon="0.26665">
        <ele>1563.6</ele>
        <time>2017-02-22T12:58:51Z</time>
      </trkpt>
      <trkpt lat="42.85731" lon="0.26664">
        <ele>1563.2</ele>
        <time>2017-02-22T12:58:56Z</time>
      </trkpt>
      <trkpt lat="42.85731" lon="0.26663">
        <ele>1562.8</ele>
        <time>2017-02-22T12:59:01Z</time>
      </trkpt>
      <trkpt lat="42.85731" lon="0.26662">
        <ele>1562.4</ele>
        <time>2017-02-22T12:59:06Z</time>
      </trkpt>
      <trkpt lat="42.85731" lon="0.26662">
        <ele>1562</ele>
        <time>2017-02-22T12:59:11Z</time>
      </trkpt>
      <trkpt lat="42.85731" lon="0.26663">
        <ele>1561.6</ele>
        <time>2017-02-22T12:59:16Z</time>
      </trkpt>
      <trkpt lat="42.85731" lon="0.26663">
        <ele>1560.8</ele>
        <time>2017-02-22T12:59:21Z</time>
      </trkpt>
      <trkpt lat="42.85732" lon="0.26664">
        <ele>1559.8</ele>
        <time>2017-02-22T12:59:26Z</time>
      </trkpt>
      <trkpt lat="42.85732" lon="0.26664">
        <ele>1558.6</ele>
        <time>2017-02-22T12:59:31Z</time>
      </trkpt>
      <trkpt lat="42.85732" lon="0.26664">
        <ele>1557.6</ele>
        <time>2017-02-22T12:59:36Z</time>
      </trkpt>
      <trkpt lat="42.85732" lon="0.26663">
        <ele>1557</ele>
        <time>2017-02-22T12:59:41Z</time>
      </trkpt>
      <trkpt lat="42.85732" lon="0.26663">
        <ele>1556.6</ele>
        <time>2017-02-22T12:59:46Z</time>
      </trkpt>
      <trkpt lat="42.85732" lon="0.26663">
        <ele>1556</ele>
        <time>2017-02-22T12:59:51Z</time>
      </trkpt>
      <trkpt lat="42.85732" lon="0.26663">
        <ele>1555.4</ele>
        <time>2017-02-22T12:59:56Z</time>
      </trkpt>
      <trkpt lat="42.85732" lon="0.26663">
        <ele>1554.8</ele>
        <time>2017-02-22T13:00:01Z</time>
      </trkpt>
      <trkpt lat="42.85733" lon="0.26663">
        <ele>1554.4</ele>
        <time>2017-02-22T13:00:06Z</time>
      </trkpt>
      <trkpt lat="42.85733" lon="0.26663">
        <ele>1554</ele>
        <time>2017-02-22T13:00:11Z</time>
      </trkpt>
      <trkpt lat="42.85732" lon="0.26662">
        <ele>1554</ele>
        <time>2017-02-22T13:00:16Z</time>
      </trkpt>
      <trkpt lat="42.85732" lon="0.26662">
        <ele>1554</ele>
        <time>2017-02-22T13:00:21Z</time>
      </trkpt>
      <trkpt lat="42.85732" lon="0.26662">
        <ele>1554</ele>
        <time>2017-02-22T13:00:26Z</time>
      </trkpt>
      <trkpt lat="42.85732" lon="0.26661">
        <ele>1554</ele>
        <time>2017-02-22T13:00:31Z</time>
      </trkpt>
      <trkpt lat="42.85732" lon="0.26661">
        <ele>1554.4</ele>
        <time>2017-02-22T13:00:36Z</time>
      </trkpt>
      <trkpt lat="42.85732" lon="0.26661">
        <ele>1554.6</ele>
        <time>2017-02-22T13:00:41Z</time>
      </trkpt>
      <trkpt lat="42.85732" lon="0.2666">
        <ele>1554.8</ele>
        <time>2017-02-22T13:00:46Z</time>
      </trkpt>
      <trkpt lat="42.85732" lon="0.2666">
        <ele>1555</ele>
        <time>2017-02-22T13:00:51Z</time>
      </trkpt>
      <trkpt lat="42.85732" lon="0.2666">
        <ele>1555</ele>
        <time>2017-02-22T13:00:56Z</time>
      </trkpt>
      <trkpt lat="42.85732" lon="0.2666">
        <ele>1555.4</ele>
        <time>2017-02-22T13:01:01Z</time>
      </trkpt>
      <trkpt lat="42.85732" lon="0.2666">
        <ele>1555.6</ele>
        <time>2017-02-22T13:01:06Z</time>
      </trkpt>
      <trkpt lat="42.85732" lon="0.2666">
        <ele>1555.8</ele>
        <time>2017-02-22T13:01:11Z</time>
      </trkpt>
      <trkpt lat="42.85732" lon="0.2666">
        <ele>1556</ele>
        <time>2017-02-22T13:01:16Z</time>
      </trkpt>
      <trkpt lat="42.85732" lon="0.2666">
        <ele>1556.2</ele>
        <time>2017-02-22T13:01:21Z</time>
      </trkpt>
      <trkpt lat="42.85732" lon="0.2666">
        <ele>1556.4</ele>
        <time>2017-02-22T13:01:26Z</time>
      </trkpt>
      <trkpt lat="42.85733" lon="0.26664">
        <ele>1555.4</ele>
        <time>2017-02-22T13:01:31Z</time>
      </trkpt>
      <trkpt lat="42.8573" lon="0.26678">
        <ele>1555.4</ele>
        <time>2017-02-22T13:01:36Z</time>
      </trkpt>
      <trkpt lat="42.85722" lon="0.26682">
        <ele>1551.4</ele>
        <time>2017-02-22T13:01:41Z</time>
      </trkpt>
      <trkpt lat="42.85702" lon="0.26689">
        <ele>1549.6</ele>
        <time>2017-02-22T13:01:46Z</time>
      </trkpt>
      <trkpt lat="42.85681" lon="0.26694">
        <ele>1543.6</ele>
        <time>2017-02-22T13:01:51Z</time>
      </trkpt>
      <trkpt lat="42.8566" lon="0.26698">
        <ele>1536.2</ele>
        <time>2017-02-22T13:01:56Z</time>
      </trkpt>
      <trkpt lat="42.85637" lon="0.26705">
        <ele>1534.4</ele>
        <time>2017-02-22T13:02:01Z</time>
      </trkpt>
      <trkpt lat="42.85637" lon="0.26715">
        <ele>1535.8</ele>
        <time>2017-02-22T13:02:06Z</time>
      </trkpt>
      <trkpt lat="42.8564" lon="0.26716">
        <ele>1535.8</ele>
        <time>2017-02-22T13:02:11Z</time>
      </trkpt>
      <trkpt lat="42.8564" lon="0.26723">
        <ele>1532.2</ele>
        <time>2017-02-22T13:02:16Z</time>
      </trkpt>
      <trkpt lat="42.85625" lon="0.26727">
        <ele>1529.6</ele>
        <time>2017-02-22T13:02:21Z</time>
      </trkpt>
      <trkpt lat="42.85606" lon="0.26742">
        <ele>1525.6</ele>
        <time>2017-02-22T13:02:26Z</time>
      </trkpt>
      <trkpt lat="42.85603" lon="0.26775">
        <ele>1519</ele>
        <time>2017-02-22T13:02:31Z</time>
      </trkpt>
      <trkpt lat="42.85598" lon="0.2681">
        <ele>1515.2</ele>
        <time>2017-02-22T13:02:36Z</time>
      </trkpt>
      <trkpt lat="42.85589" lon="0.26827">
        <ele>1512.8</ele>
        <time>2017-02-22T13:02:41Z</time>
      </trkpt>
      <trkpt lat="42.85568" lon="0.26837">
        <ele>1513</ele>
        <time>2017-02-22T13:02:46Z</time>
      </trkpt>
      <trkpt lat="42.85552" lon="0.26856">
        <ele>1508</ele>
        <time>2017-02-22T13:02:51Z</time>
      </trkpt>
      <trkpt lat="42.85538" lon="0.26878">
        <ele>1503</ele>
        <time>2017-02-22T13:02:56Z</time>
      </trkpt>
      <trkpt lat="42.85526" lon="0.26901">
        <ele>1501.2</ele>
        <time>2017-02-22T13:03:01Z</time>
      </trkpt>
      <trkpt lat="42.85504" lon="0.26912">
        <ele>1492.6</ele>
        <time>2017-02-22T13:03:06Z</time>
      </trkpt>
      <trkpt lat="42.85497" lon="0.2694">
        <ele>1490.6</ele>
        <time>2017-02-22T13:03:11Z</time>
      </trkpt>
      <trkpt lat="42.85493" lon="0.2696">
        <ele>1488.2</ele>
        <time>2017-02-22T13:03:16Z</time>
      </trkpt>
      <trkpt lat="42.85485" lon="0.26974">
        <ele>1481</ele>
        <time>2017-02-22T13:03:21Z</time>
      </trkpt>
      <trkpt lat="42.85474" lon="0.26985">
        <ele>1470.6</ele>
        <time>2017-02-22T13:03:26Z</time>
      </trkpt>
      <trkpt lat="42.85461" lon="0.27007">
        <ele>1465.6</ele>
        <time>2017-02-22T13:03:31Z</time>
      </trkpt>
      <trkpt lat="42.85437" lon="0.27008">
        <ele>1464.6</ele>
        <time>2017-02-22T13:03:36Z</time>
      </trkpt>
      <trkpt lat="42.85431" lon="0.27">
        <ele>1462.2</ele>
        <time>2017-02-22T13:03:41Z</time>
      </trkpt>
      <trkpt lat="42.85434" lon="0.26997">
        <ele>1460.6</ele>
        <time>2017-02-22T13:03:46Z</time>
      </trkpt>
      <trkpt lat="42.85431" lon="0.26995">
        <ele>1457.6</ele>
        <time>2017-02-22T13:03:51Z</time>
      </trkpt>
      <trkpt lat="42.85425" lon="0.27024">
        <ele>1453.6</ele>
        <time>2017-02-22T13:03:56Z</time>
      </trkpt>
      <trkpt lat="42.85421" lon="0.27056">
        <ele>1449</ele>
        <time>2017-02-22T13:04:01Z</time>
      </trkpt>
      <trkpt lat="42.85416" lon="0.27077">
        <ele>1445.6</ele>
        <time>2017-02-22T13:04:06Z</time>
      </trkpt>
      <trkpt lat="42.85399" lon="0.27097">
        <ele>1442.2</ele>
        <time>2017-02-22T13:04:11Z</time>
      </trkpt>
      <trkpt lat="42.8538" lon="0.27105">
        <ele>1439.2</ele>
        <time>2017-02-22T13:04:16Z</time>
      </trkpt>
      <trkpt lat="42.85371" lon="0.27128">
        <ele>1434</ele>
        <time>2017-02-22T13:04:21Z</time>
      </trkpt>
      <trkpt lat="42.85364" lon="0.27142">
        <ele>1432</ele>
        <time>2017-02-22T13:04:26Z</time>
      </trkpt>
      <trkpt lat="42.85361" lon="0.27152">
        <ele>1431</ele>
        <time>2017-02-22T13:04:31Z</time>
      </trkpt>
      <trkpt lat="42.8536" lon="0.27157">
        <ele>1431.4</ele>
        <time>2017-02-22T13:04:36Z</time>
      </trkpt>
      <trkpt lat="42.85357" lon="0.2716">
        <ele>1429</ele>
        <time>2017-02-22T13:04:41Z</time>
      </trkpt>
      <trkpt lat="42.85352" lon="0.27161">
        <ele>1425.8</ele>
        <time>2017-02-22T13:04:46Z</time>
      </trkpt>
      <trkpt lat="42.85347" lon="0.2716">
        <ele>1425</ele>
        <time>2017-02-22T13:04:51Z</time>
      </trkpt>
      <trkpt lat="42.85337" lon="0.27164">
        <ele>1421.8</ele>
        <time>2017-02-22T13:04:56Z</time>
      </trkpt>
      <trkpt lat="42.85326" lon="0.27177">
        <ele>1422</ele>
        <time>2017-02-22T13:05:01Z</time>
      </trkpt>
      <trkpt lat="42.85304" lon="0.27169">
        <ele>1420.6</ele>
        <time>2017-02-22T13:05:06Z</time>
      </trkpt>
      <trkpt lat="42.85293" lon="0.27168">
        <ele>1420.8</ele>
        <time>2017-02-22T13:05:11Z</time>
      </trkpt>
      <trkpt lat="42.85291" lon="0.27169">
        <ele>1419.6</ele>
        <time>2017-02-22T13:05:16Z</time>
      </trkpt>
      <trkpt lat="42.8529" lon="0.27169">
        <ele>1420</ele>
        <time>2017-02-22T13:05:21Z</time>
      </trkpt>
      <trkpt lat="42.85289" lon="0.27168">
        <ele>1419</ele>
        <time>2017-02-22T13:05:26Z</time>
      </trkpt>
      <trkpt lat="42.85285" lon="0.27168">
        <ele>1418</ele>
        <time>2017-02-22T13:05:31Z</time>
      </trkpt>
      <trkpt lat="42.85285" lon="0.27169">
        <ele>1418.8</ele>
        <time>2017-02-22T13:05:36Z</time>
      </trkpt>
      <trkpt lat="42.85285" lon="0.27169">
        <ele>1419.2</ele>
        <time>2017-02-22T13:05:41Z</time>
      </trkpt>
      <trkpt lat="42.85286" lon="0.27167">
        <ele>1419.4</ele>
        <time>2017-02-22T13:05:46Z</time>
      </trkpt>
      <trkpt lat="42.85287" lon="0.27164">
        <ele>1418.8</ele>
        <time>2017-02-22T13:05:51Z</time>
      </trkpt>
      <trkpt lat="42.85288" lon="0.27162">
        <ele>1417.8</ele>
        <time>2017-02-22T13:05:56Z</time>
      </trkpt>
      <trkpt lat="42.85289" lon="0.2716">
        <ele>1416.4</ele>
        <time>2017-02-22T13:06:01Z</time>
      </trkpt>
      <trkpt lat="42.85287" lon="0.27157">
        <ele>1417.2</ele>
        <time>2017-02-22T13:06:06Z</time>
      </trkpt>
      <trkpt lat="42.85284" lon="0.27154">
        <ele>1416.8</ele>
        <time>2017-02-22T13:06:11Z</time>
      </trkpt>
      <trkpt lat="42.85282" lon="0.27151">
        <ele>1416.2</ele>
        <time>2017-02-22T13:06:16Z</time>
      </trkpt>
      <trkpt lat="42.85282" lon="0.27145">
        <ele>1415.2</ele>
        <time>2017-02-22T13:06:21Z</time>
      </trkpt>
      <trkpt lat="42.85281" lon="0.27143">
        <ele>1415.2</ele>
        <time>2017-02-22T13:06:26Z</time>
      </trkpt>
      <trkpt lat="42.85281" lon="0.27143">
        <ele>1415.2</ele>
        <time>2017-02-22T13:06:31Z</time>
      </trkpt>
      <trkpt lat="42.85282" lon="0.27142">
        <ele>1415</ele>
        <time>2017-02-22T13:06:36Z</time>
      </trkpt>
      <trkpt lat="42.85282" lon="0.2714">
        <ele>1417.4</ele>
        <time>2017-02-22T13:06:41Z</time>
      </trkpt>
      <trkpt lat="42.85281" lon="0.2713">
        <ele>1414.2</ele>
        <time>2017-02-22T13:06:46Z</time>
      </trkpt>
      <trkpt lat="42.85279" lon="0.27122">
        <ele>1411.2</ele>
        <time>2017-02-22T13:06:51Z</time>
      </trkpt>
      <trkpt lat="42.85278" lon="0.27117">
        <ele>1411.6</ele>
        <time>2017-02-22T13:06:56Z</time>
      </trkpt>
      <trkpt lat="42.85276" lon="0.27109">
        <ele>1412.2</ele>
        <time>2017-02-22T13:07:02Z</time>
      </trkpt>
      <trkpt lat="42.85276" lon="0.27107">
        <ele>1409.2</ele>
        <time>2017-02-22T13:07:07Z</time>
      </trkpt>
      <trkpt lat="42.85276" lon="0.27106">
        <ele>1408.8</ele>
        <time>2017-02-22T13:07:12Z</time>
      </trkpt>
      <trkpt lat="42.85276" lon="0.27105">
        <ele>1408.6</ele>
        <time>2017-02-22T13:07:17Z</time>
      </trkpt>
      <trkpt lat="42.85276" lon="0.27105">
        <ele>1408.4</ele>
        <time>2017-02-22T13:07:22Z</time>
      </trkpt>
      <trkpt lat="42.85276" lon="0.27105">
        <ele>1408.2</ele>
        <time>2017-02-22T13:07:27Z</time>
      </trkpt>
      <trkpt lat="42.85274" lon="0.27106">
        <ele>1407.2</ele>
        <time>2017-02-22T13:07:32Z</time>
      </trkpt>
      <trkpt lat="42.85272" lon="0.27103">
        <ele>1407.8</ele>
        <time>2017-02-22T13:07:37Z</time>
      </trkpt>
      <trkpt lat="42.8527" lon="0.27098">
        <ele>1410</ele>
        <time>2017-02-22T13:07:42Z</time>
      </trkpt>
      <trkpt lat="42.85269" lon="0.27094">
        <ele>1410.4</ele>
        <time>2017-02-22T13:07:47Z</time>
      </trkpt>
      <trkpt lat="42.85259" lon="0.27083">
        <ele>1408.8</ele>
        <time>2017-02-22T13:07:52Z</time>
      </trkpt>
      <trkpt lat="42.8525" lon="0.27079">
        <ele>1409.2</ele>
        <time>2017-02-22T13:07:57Z</time>
      </trkpt>
      <trkpt lat="42.85242" lon="0.27089">
        <ele>1407.6</ele>
        <time>2017-02-22T13:08:02Z</time>
      </trkpt>
      <trkpt lat="42.85236" lon="0.27105">
        <ele>1405</ele>
        <time>2017-02-22T13:08:07Z</time>
      </trkpt>
      <trkpt lat="42.85233" lon="0.27121">
        <ele>1401.8</ele>
        <time>2017-02-22T13:08:12Z</time>
      </trkpt>
      <trkpt lat="42.85222" lon="0.27134">
        <ele>1399.8</ele>
        <time>2017-02-22T13:08:17Z</time>
      </trkpt>
      <trkpt lat="42.85214" lon="0.27158">
        <ele>1398</ele>
        <time>2017-02-22T13:08:22Z</time>
      </trkpt>
      <trkpt lat="42.85205" lon="0.27173">
        <ele>1398</ele>
        <time>2017-02-22T13:08:27Z</time>
      </trkpt>
      <trkpt lat="42.8519" lon="0.2719">
        <ele>1395.4</ele>
        <time>2017-02-22T13:08:32Z</time>
      </trkpt>
      <trkpt lat="42.85175" lon="0.2721">
        <ele>1394.6</ele>
        <time>2017-02-22T13:08:37Z</time>
      </trkpt>
      <trkpt lat="42.85157" lon="0.27237">
        <ele>1390.2</ele>
        <time>2017-02-22T13:08:42Z</time>
      </trkpt>
      <trkpt lat="42.85142" lon="0.27261">
        <ele>1385.2</ele>
        <time>2017-02-22T13:08:47Z</time>
      </trkpt>
      <trkpt lat="42.85132" lon="0.27287">
        <ele>1381.6</ele>
        <time>2017-02-22T13:08:52Z</time>
      </trkpt>
      <trkpt lat="42.85137" lon="0.27299">
        <ele>1382.4</ele>
        <time>2017-02-22T13:08:57Z</time>
      </trkpt>
      <trkpt lat="42.85139" lon="0.273">
        <ele>1380.8</ele>
        <time>2017-02-22T13:09:02Z</time>
      </trkpt>
      <trkpt lat="42.85139" lon="0.273">
        <ele>1379.6</ele>
        <time>2017-02-22T13:09:07Z</time>
      </trkpt>
      <trkpt lat="42.85139" lon="0.27299">
        <ele>1378.8</ele>
        <time>2017-02-22T13:09:12Z</time>
      </trkpt>
      <trkpt lat="42.8514" lon="0.27299">
        <ele>1378.2</ele>
        <time>2017-02-22T13:09:17Z</time>
      </trkpt>
      <trkpt lat="42.8514" lon="0.27298">
        <ele>1379.8</ele>
        <time>2017-02-22T13:09:22Z</time>
      </trkpt>
      <trkpt lat="42.8514" lon="0.27298">
        <ele>1378.8</ele>
        <time>2017-02-22T13:09:27Z</time>
      </trkpt>
      <trkpt lat="42.8514" lon="0.27298">
        <ele>1378</ele>
        <time>2017-02-22T13:09:32Z</time>
      </trkpt>
      <trkpt lat="42.8514" lon="0.27298">
        <ele>1377.4</ele>
        <time>2017-02-22T13:09:37Z</time>
      </trkpt>
      <trkpt lat="42.8514" lon="0.27298">
        <ele>1377</ele>
        <time>2017-02-22T13:09:42Z</time>
      </trkpt>
      <trkpt lat="42.8514" lon="0.27298">
        <ele>1376.8</ele>
        <time>2017-02-22T13:09:47Z</time>
      </trkpt>
      <trkpt lat="42.85139" lon="0.27297">
        <ele>1376.6</ele>
        <time>2017-02-22T13:09:52Z</time>
      </trkpt>
      <trkpt lat="42.85139" lon="0.27297">
        <ele>1376.4</ele>
        <time>2017-02-22T13:09:57Z</time>
      </trkpt>
      <trkpt lat="42.85139" lon="0.27296">
        <ele>1376.2</ele>
        <time>2017-02-22T13:10:02Z</time>
      </trkpt>
      <trkpt lat="42.85142" lon="0.27299">
        <ele>1378.2</ele>
        <time>2017-02-22T13:10:07Z</time>
      </trkpt>
      <trkpt lat="42.85146" lon="0.27301">
        <ele>1376.4</ele>
        <time>2017-02-22T13:10:12Z</time>
      </trkpt>
      <trkpt lat="42.85151" lon="0.27304">
        <ele>1377.8</ele>
        <time>2017-02-22T13:10:17Z</time>
      </trkpt>
      <trkpt lat="42.85154" lon="0.27311">
        <ele>1375.6</ele>
        <time>2017-02-22T13:10:22Z</time>
      </trkpt>
      <trkpt lat="42.85153" lon="0.27317">
        <ele>1375.2</ele>
        <time>2017-02-22T13:10:27Z</time>
      </trkpt>
      <trkpt lat="42.85152" lon="0.27322">
        <ele>1374.2</ele>
        <time>2017-02-22T13:10:32Z</time>
      </trkpt>
      <trkpt lat="42.85147" lon="0.27327">
        <ele>1372.8</ele>
        <time>2017-02-22T13:10:37Z</time>
      </trkpt>
      <trkpt lat="42.85143" lon="0.27328">
        <ele>1371.6</ele>
        <time>2017-02-22T13:10:42Z</time>
      </trkpt>
      <trkpt lat="42.8514" lon="0.27329">
        <ele>1371.6</ele>
        <time>2017-02-22T13:10:47Z</time>
      </trkpt>
      <trkpt lat="42.85139" lon="0.2733">
        <ele>1371.6</ele>
        <time>2017-02-22T13:10:52Z</time>
      </trkpt>
      <trkpt lat="42.85139" lon="0.27329">
        <ele>1371.4</ele>
        <time>2017-02-22T13:10:58Z</time>
      </trkpt>
      <trkpt lat="42.85139" lon="0.27329">
        <ele>1371.4</ele>
        <time>2017-02-22T13:11:03Z</time>
      </trkpt>
      <trkpt lat="42.85139" lon="0.27329">
        <ele>1371.2</ele>
        <time>2017-02-22T13:11:08Z</time>
      </trkpt>
      <trkpt lat="42.85139" lon="0.27329">
        <ele>1370.8</ele>
        <time>2017-02-22T13:11:13Z</time>
      </trkpt>
      <trkpt lat="42.85139" lon="0.27328">
        <ele>1367.6</ele>
        <time>2017-02-22T13:11:18Z</time>
      </trkpt>
      <trkpt lat="42.85139" lon="0.27328">
        <ele>1368.6</ele>
        <time>2017-02-22T13:11:23Z</time>
      </trkpt>
      <trkpt lat="42.85139" lon="0.27328">
        <ele>1369.2</ele>
        <time>2017-02-22T13:11:28Z</time>
      </trkpt>
      <trkpt lat="42.8514" lon="0.2733">
        <ele>1372</ele>
        <time>2017-02-22T13:11:33Z</time>
      </trkpt>
      <trkpt lat="42.8514" lon="0.2733">
        <ele>1371.6</ele>
        <time>2017-02-22T13:11:38Z</time>
      </trkpt>
      <trkpt lat="42.8514" lon="0.2733">
        <ele>1371.2</ele>
        <time>2017-02-22T13:11:43Z</time>
      </trkpt>
      <trkpt lat="42.85141" lon="0.27329">
        <ele>1370.8</ele>
        <time>2017-02-22T13:11:48Z</time>
      </trkpt>
      <trkpt lat="42.85141" lon="0.27329">
        <ele>1370.6</ele>
        <time>2017-02-22T13:11:53Z</time>
      </trkpt>
      <trkpt lat="42.85141" lon="0.27329">
        <ele>1370.4</ele>
        <time>2017-02-22T13:11:58Z</time>
      </trkpt>
      <trkpt lat="42.85141" lon="0.27329">
        <ele>1370.2</ele>
        <time>2017-02-22T13:12:03Z</time>
      </trkpt>
      <trkpt lat="42.85141" lon="0.27329">
        <ele>1370</ele>
        <time>2017-02-22T13:12:08Z</time>
      </trkpt>
    </trkseg>
  </trk>
</gpx>